<?xml version="1.0" encoding="UTF-8" standalone="no" ?>
<gpx xmlns="http://www.topografix.com/GPX/1/1" xmlns:xsi="http://www.w3.org/2001/XMLSchema-instance" xsi:schemaLocation="http://www.topografix.com/GPX/1/1 http://www.topografix.com/GPX/1/1/gpx.xsd" version="1.1" creator="VisuGPX - https://www.visugpx.com">
  <metadata>
    <name>05 - La Bâtie Neuve : 3 circuits</name>
    <desc><![CDATA[Cet itinéraire fait partie de la collection de EquiLiberté : www.equiliberte.org Circuit NON ACCESSIBLE aux attelages
]]></desc>
  </metadata>
  <trk>
    <name><![CDATA[05 - La Bâtie Neuve sud - Jarjayes]]></name>
    <extensions>
      <line xmlns="http://www.topografix.com/GPX/gpx_style/0/2">
        <color>00FF00</color>
        <width>4</width>
      </line>
    </extensions>
    <trkseg>
      <trkpt lat="44.57468" lon="6.21445">
        <ele>991.40002441406</ele>
        <time>2016-07-15T06:59:19.000Z</time>
      </trkpt>
      <trkpt lat="44.57468" lon="6.21445">
        <ele>991.40002441406</ele>
        <time>2016-07-15T06:59:19.000Z</time>
      </trkpt>
      <trkpt lat="44.57465" lon="6.21437">
        <ele>989.79998779297</ele>
        <time>2016-07-15T06:59:25.000Z</time>
      </trkpt>
      <trkpt lat="44.57464" lon="6.21427">
        <ele>989.20001220703</ele>
        <time>2016-07-15T06:59:32.000Z</time>
      </trkpt>
      <trkpt lat="44.57467" lon="6.2141">
        <ele>989.40002441406</ele>
        <time>2016-07-15T06:59:42.000Z</time>
      </trkpt>
      <trkpt lat="44.57471" lon="6.21394">
        <ele>991.20001220703</ele>
        <time>2016-07-15T06:59:53.000Z</time>
      </trkpt>
      <trkpt lat="44.57475" lon="6.21384">
        <ele>992.40002441406</ele>
        <time>2016-07-15T07:00:02.000Z</time>
      </trkpt>
      <trkpt lat="44.57476" lon="6.2137">
        <ele>992.59997558594</ele>
        <time>2016-07-15T07:00:12.000Z</time>
      </trkpt>
      <trkpt lat="44.57474" lon="6.21345">
        <ele>991.40002441406</ele>
        <time>2016-07-15T07:00:31.000Z</time>
      </trkpt>
      <trkpt lat="44.57469" lon="6.21333">
        <ele>989.40002441406</ele>
        <time>2016-07-15T07:00:41.000Z</time>
      </trkpt>
      <trkpt lat="44.57468" lon="6.21332">
        <ele>989</ele>
        <time>2016-07-15T07:00:47.000Z</time>
      </trkpt>
      <trkpt lat="44.57465" lon="6.21327">
        <ele>987.79998779297</ele>
        <time>2016-07-15T07:00:53.000Z</time>
      </trkpt>
      <trkpt lat="44.57463" lon="6.21321">
        <ele>986.79998779297</ele>
        <time>2016-07-15T07:01:00.000Z</time>
      </trkpt>
      <trkpt lat="44.57461" lon="6.21315">
        <ele>985.79998779297</ele>
        <time>2016-07-15T07:01:07.000Z</time>
      </trkpt>
      <trkpt lat="44.57459" lon="6.21309">
        <ele>984.79998779297</ele>
        <time>2016-07-15T07:01:11.000Z</time>
      </trkpt>
      <trkpt lat="44.57456" lon="6.21296">
        <ele>983.59997558594</ele>
        <time>2016-07-15T07:01:20.000Z</time>
      </trkpt>
      <trkpt lat="44.57454" lon="6.21283">
        <ele>982.59997558594</ele>
        <time>2016-07-15T07:01:29.000Z</time>
      </trkpt>
      <trkpt lat="44.5745" lon="6.2127">
        <ele>981.20001220703</ele>
        <time>2016-07-15T07:01:38.000Z</time>
      </trkpt>
      <trkpt lat="44.57447" lon="6.21255">
        <ele>980.20001220703</ele>
        <time>2016-07-15T07:01:47.000Z</time>
      </trkpt>
      <trkpt lat="44.57445" lon="6.21241">
        <ele>979.40002441406</ele>
        <time>2016-07-15T07:01:56.000Z</time>
      </trkpt>
      <trkpt lat="44.57443" lon="6.21228">
        <ele>979</ele>
        <time>2016-07-15T07:02:03.000Z</time>
      </trkpt>
      <trkpt lat="44.57442" lon="6.21214">
        <ele>978.20001220703</ele>
        <time>2016-07-15T07:02:11.000Z</time>
      </trkpt>
      <trkpt lat="44.5744" lon="6.21199">
        <ele>977.79998779297</ele>
        <time>2016-07-15T07:02:19.000Z</time>
      </trkpt>
      <trkpt lat="44.57436" lon="6.21182">
        <ele>976.59997558594</ele>
        <time>2016-07-15T07:02:29.000Z</time>
      </trkpt>
      <trkpt lat="44.57433" lon="6.21169">
        <ele>975.79998779297</ele>
        <time>2016-07-15T07:02:36.000Z</time>
      </trkpt>
      <trkpt lat="44.5743" lon="6.21152">
        <ele>975.20001220703</ele>
        <time>2016-07-15T07:02:45.000Z</time>
      </trkpt>
      <trkpt lat="44.57426" lon="6.21134">
        <ele>973.59997558594</ele>
        <time>2016-07-15T07:02:55.000Z</time>
      </trkpt>
      <trkpt lat="44.57426" lon="6.21133">
        <ele>973.59997558594</ele>
        <time>2016-07-15T07:02:56.000Z</time>
      </trkpt>
      <trkpt lat="44.57423" lon="6.21128">
        <ele>972.59997558594</ele>
        <time>2016-07-15T07:03:01.000Z</time>
      </trkpt>
      <trkpt lat="44.57416" lon="6.21114">
        <ele>970.20001220703</ele>
        <time>2016-07-15T07:03:10.000Z</time>
      </trkpt>
      <trkpt lat="44.57413" lon="6.21101">
        <ele>969.20001220703</ele>
        <time>2016-07-15T07:03:18.000Z</time>
      </trkpt>
      <trkpt lat="44.57417" lon="6.21089">
        <ele>970.59997558594</ele>
        <time>2016-07-15T07:03:26.000Z</time>
      </trkpt>
      <trkpt lat="44.57421" lon="6.21072">
        <ele>972.40002441406</ele>
        <time>2016-07-15T07:03:35.000Z</time>
      </trkpt>
      <trkpt lat="44.57426" lon="6.21057">
        <ele>974.40002441406</ele>
        <time>2016-07-15T07:03:45.000Z</time>
      </trkpt>
      <trkpt lat="44.57431" lon="6.21039">
        <ele>976.20001220703</ele>
        <time>2016-07-15T07:03:55.000Z</time>
      </trkpt>
      <trkpt lat="44.57438" lon="6.21022">
        <ele>978.20001220703</ele>
        <time>2016-07-15T07:04:06.000Z</time>
      </trkpt>
      <trkpt lat="44.57442" lon="6.21008">
        <ele>979.40002441406</ele>
        <time>2016-07-15T07:04:14.000Z</time>
      </trkpt>
      <trkpt lat="44.57448" lon="6.20992">
        <ele>981.20001220703</ele>
        <time>2016-07-15T07:04:25.000Z</time>
      </trkpt>
      <trkpt lat="44.57453" lon="6.20975">
        <ele>982.40002441406</ele>
        <time>2016-07-15T07:04:35.000Z</time>
      </trkpt>
      <trkpt lat="44.57454" lon="6.20959">
        <ele>983</ele>
        <time>2016-07-15T07:04:44.000Z</time>
      </trkpt>
      <trkpt lat="44.57454" lon="6.20947">
        <ele>983.40002441406</ele>
        <time>2016-07-15T07:04:50.000Z</time>
      </trkpt>
      <trkpt lat="44.57454" lon="6.20928">
        <ele>983.40002441406</ele>
        <time>2016-07-15T07:05:01.000Z</time>
      </trkpt>
      <trkpt lat="44.57455" lon="6.20917">
        <ele>983.79998779297</ele>
        <time>2016-07-15T07:05:07.000Z</time>
      </trkpt>
      <trkpt lat="44.57457" lon="6.20899">
        <ele>984.59997558594</ele>
        <time>2016-07-15T07:05:17.000Z</time>
      </trkpt>
      <trkpt lat="44.57459" lon="6.20886">
        <ele>985.20001220703</ele>
        <time>2016-07-15T07:05:26.000Z</time>
      </trkpt>
      <trkpt lat="44.5746" lon="6.20878">
        <ele>985.59997558594</ele>
        <time>2016-07-15T07:05:31.000Z</time>
      </trkpt>
      <trkpt lat="44.57461" lon="6.20875">
        <ele>985.79998779297</ele>
        <time>2016-07-15T07:05:33.000Z</time>
      </trkpt>
      <trkpt lat="44.57464" lon="6.20853">
        <ele>986.79998779297</ele>
        <time>2016-07-15T07:05:45.000Z</time>
      </trkpt>
      <trkpt lat="44.57467" lon="6.20838">
        <ele>988</ele>
        <time>2016-07-15T07:05:54.000Z</time>
      </trkpt>
      <trkpt lat="44.57471" lon="6.20823">
        <ele>988.79998779297</ele>
        <time>2016-07-15T07:06:03.000Z</time>
      </trkpt>
      <trkpt lat="44.57472" lon="6.20816">
        <ele>989</ele>
        <time>2016-07-15T07:06:08.000Z</time>
      </trkpt>
      <trkpt lat="44.57474" lon="6.20804">
        <ele>989.40002441406</ele>
        <time>2016-07-15T07:06:16.000Z</time>
      </trkpt>
      <trkpt lat="44.57475" lon="6.2079">
        <ele>990.40002441406</ele>
        <time>2016-07-15T07:06:25.000Z</time>
      </trkpt>
      <trkpt lat="44.57475" lon="6.20774">
        <ele>991.20001220703</ele>
        <time>2016-07-15T07:06:35.000Z</time>
      </trkpt>
      <trkpt lat="44.57476" lon="6.20773">
        <ele>991.40002441406</ele>
        <time>2016-07-15T07:06:36.000Z</time>
      </trkpt>
      <trkpt lat="44.57475" lon="6.20771">
        <ele>991.40002441406</ele>
        <time>2016-07-15T07:06:39.000Z</time>
      </trkpt>
      <trkpt lat="44.57476" lon="6.20765">
        <ele>992</ele>
        <time>2016-07-15T07:06:43.000Z</time>
      </trkpt>
      <trkpt lat="44.57477" lon="6.20761">
        <ele>992.20001220703</ele>
        <time>2016-07-15T07:06:46.000Z</time>
      </trkpt>
      <trkpt lat="44.57477" lon="6.20748">
        <ele>992.79998779297</ele>
        <time>2016-07-15T07:06:55.000Z</time>
      </trkpt>
      <trkpt lat="44.57475" lon="6.20736">
        <ele>993</ele>
        <time>2016-07-15T07:07:03.000Z</time>
      </trkpt>
      <trkpt lat="44.57475" lon="6.20735">
        <ele>993</ele>
        <time>2016-07-15T07:07:04.000Z</time>
      </trkpt>
      <trkpt lat="44.57475" lon="6.20721">
        <ele>993.20001220703</ele>
        <time>2016-07-15T07:07:13.000Z</time>
      </trkpt>
      <trkpt lat="44.57477" lon="6.20696">
        <ele>993.59997558594</ele>
        <time>2016-07-15T07:07:29.000Z</time>
      </trkpt>
      <trkpt lat="44.57479" lon="6.20684">
        <ele>993.79998779297</ele>
        <time>2016-07-15T07:07:37.000Z</time>
      </trkpt>
      <trkpt lat="44.57478" lon="6.20683">
        <ele>993.79998779297</ele>
        <time>2016-07-15T07:07:39.000Z</time>
      </trkpt>
      <trkpt lat="44.57474" lon="6.20679">
        <ele>993</ele>
        <time>2016-07-15T07:07:46.000Z</time>
      </trkpt>
      <trkpt lat="44.57471" lon="6.20678">
        <ele>992.20001220703</ele>
        <time>2016-07-15T07:07:50.000Z</time>
      </trkpt>
      <trkpt lat="44.57466" lon="6.20674">
        <ele>991.20001220703</ele>
        <time>2016-07-15T07:07:57.000Z</time>
      </trkpt>
      <trkpt lat="44.57461" lon="6.20672">
        <ele>990</ele>
        <time>2016-07-15T07:08:04.000Z</time>
      </trkpt>
      <trkpt lat="44.57453" lon="6.20667">
        <ele>988.40002441406</ele>
        <time>2016-07-15T07:08:14.000Z</time>
      </trkpt>
      <trkpt lat="44.57449" lon="6.20664">
        <ele>987.40002441406</ele>
        <time>2016-07-15T07:08:19.000Z</time>
      </trkpt>
      <trkpt lat="44.57445" lon="6.2066">
        <ele>986.40002441406</ele>
        <time>2016-07-15T07:08:24.000Z</time>
      </trkpt>
      <trkpt lat="44.57438" lon="6.20652">
        <ele>984.79998779297</ele>
        <time>2016-07-15T07:08:34.000Z</time>
      </trkpt>
      <trkpt lat="44.57438" lon="6.2065">
        <ele>984.79998779297</ele>
        <time>2016-07-15T07:08:35.000Z</time>
      </trkpt>
      <trkpt lat="44.57436" lon="6.20646">
        <ele>984.20001220703</ele>
        <time>2016-07-15T07:08:38.000Z</time>
      </trkpt>
      <trkpt lat="44.5743" lon="6.20635">
        <ele>982.40002441406</ele>
        <time>2016-07-15T07:08:46.000Z</time>
      </trkpt>
      <trkpt lat="44.57429" lon="6.20634">
        <ele>982.20001220703</ele>
        <time>2016-07-15T07:08:54.000Z</time>
      </trkpt>
      <trkpt lat="44.57429" lon="6.20632">
        <ele>982</ele>
        <time>2016-07-15T07:09:18.000Z</time>
      </trkpt>
      <trkpt lat="44.57424" lon="6.20623">
        <ele>980.59997558594</ele>
        <time>2016-07-15T07:09:24.000Z</time>
      </trkpt>
      <trkpt lat="44.57416" lon="6.20612">
        <ele>978.40002441406</ele>
        <time>2016-07-15T07:09:34.000Z</time>
      </trkpt>
      <trkpt lat="44.57416" lon="6.20611">
        <ele>978.20001220703</ele>
        <time>2016-07-15T07:09:35.000Z</time>
      </trkpt>
      <trkpt lat="44.57409" lon="6.20605">
        <ele>976.40002441406</ele>
        <time>2016-07-15T07:09:43.000Z</time>
      </trkpt>
      <trkpt lat="44.57408" lon="6.20605">
        <ele>976.20001220703</ele>
        <time>2016-07-15T07:09:44.000Z</time>
      </trkpt>
      <trkpt lat="44.57406" lon="6.20606">
        <ele>975.59997558594</ele>
        <time>2016-07-15T07:09:46.000Z</time>
      </trkpt>
      <trkpt lat="44.57399" lon="6.20601">
        <ele>973.79998779297</ele>
        <time>2016-07-15T07:09:56.000Z</time>
      </trkpt>
      <trkpt lat="44.57392" lon="6.20594">
        <ele>972</ele>
        <time>2016-07-15T07:10:05.000Z</time>
      </trkpt>
      <trkpt lat="44.57371" lon="6.20583">
        <ele>966.20001220703</ele>
        <time>2016-07-15T07:10:24.000Z</time>
      </trkpt>
      <trkpt lat="44.57362" lon="6.20585">
        <ele>964.20001220703</ele>
        <time>2016-07-15T07:10:33.000Z</time>
      </trkpt>
      <trkpt lat="44.57356" lon="6.20588">
        <ele>962.79998779297</ele>
        <time>2016-07-15T07:10:41.000Z</time>
      </trkpt>
      <trkpt lat="44.57352" lon="6.20591">
        <ele>962</ele>
        <time>2016-07-15T07:10:45.000Z</time>
      </trkpt>
      <trkpt lat="44.5735" lon="6.20594">
        <ele>961.40002441406</ele>
        <time>2016-07-15T07:10:49.000Z</time>
      </trkpt>
      <trkpt lat="44.57347" lon="6.20597">
        <ele>961</ele>
        <time>2016-07-15T07:10:52.000Z</time>
      </trkpt>
      <trkpt lat="44.57343" lon="6.20603">
        <ele>960</ele>
        <time>2016-07-15T07:10:58.000Z</time>
      </trkpt>
      <trkpt lat="44.57342" lon="6.20604">
        <ele>959.79998779297</ele>
        <time>2016-07-15T07:10:59.000Z</time>
      </trkpt>
      <trkpt lat="44.57335" lon="6.20609">
        <ele>958.20001220703</ele>
        <time>2016-07-15T07:11:06.000Z</time>
      </trkpt>
      <trkpt lat="44.57328" lon="6.20612">
        <ele>956.59997558594</ele>
        <time>2016-07-15T07:11:12.000Z</time>
      </trkpt>
      <trkpt lat="44.57326" lon="6.20614">
        <ele>956</ele>
        <time>2016-07-15T07:11:19.000Z</time>
      </trkpt>
      <trkpt lat="44.57313" lon="6.20612">
        <ele>952.59997558594</ele>
        <time>2016-07-15T07:11:31.000Z</time>
      </trkpt>
      <trkpt lat="44.57311" lon="6.20605">
        <ele>952</ele>
        <time>2016-07-15T07:11:36.000Z</time>
      </trkpt>
      <trkpt lat="44.57311" lon="6.20603">
        <ele>951.79998779297</ele>
        <time>2016-07-15T07:11:38.000Z</time>
      </trkpt>
      <trkpt lat="44.57309" lon="6.20593">
        <ele>951.59997558594</ele>
        <time>2016-07-15T07:11:43.000Z</time>
      </trkpt>
      <trkpt lat="44.57307" lon="6.20583">
        <ele>951</ele>
        <time>2016-07-15T07:11:49.000Z</time>
      </trkpt>
      <trkpt lat="44.57296" lon="6.20577">
        <ele>948</ele>
        <time>2016-07-15T07:12:00.000Z</time>
      </trkpt>
      <trkpt lat="44.5729" lon="6.20576">
        <ele>946.40002441406</ele>
        <time>2016-07-15T07:12:05.000Z</time>
      </trkpt>
      <trkpt lat="44.57279" lon="6.20579">
        <ele>943.79998779297</ele>
        <time>2016-07-15T07:12:13.000Z</time>
      </trkpt>
      <trkpt lat="44.57279" lon="6.20581">
        <ele>943.79998779297</ele>
        <time>2016-07-15T07:12:15.000Z</time>
      </trkpt>
      <trkpt lat="44.57279" lon="6.20584">
        <ele>943.79998779297</ele>
        <time>2016-07-15T07:12:17.000Z</time>
      </trkpt>
      <trkpt lat="44.57275" lon="6.20597">
        <ele>943</ele>
        <time>2016-07-15T07:12:25.000Z</time>
      </trkpt>
      <trkpt lat="44.57272" lon="6.20609">
        <ele>942.40002441406</ele>
        <time>2016-07-15T07:12:32.000Z</time>
      </trkpt>
      <trkpt lat="44.5727" lon="6.20615">
        <ele>941.79998779297</ele>
        <time>2016-07-15T07:12:39.000Z</time>
      </trkpt>
      <trkpt lat="44.5727" lon="6.20619">
        <ele>942</ele>
        <time>2016-07-15T07:12:45.000Z</time>
      </trkpt>
      <trkpt lat="44.57269" lon="6.20617">
        <ele>941.59997558594</ele>
        <time>2016-07-15T07:12:52.000Z</time>
      </trkpt>
      <trkpt lat="44.5727" lon="6.20613">
        <ele>942</ele>
        <time>2016-07-15T07:13:05.000Z</time>
      </trkpt>
      <trkpt lat="44.57273" lon="6.20603">
        <ele>942.40002441406</ele>
        <time>2016-07-15T07:13:12.000Z</time>
      </trkpt>
      <trkpt lat="44.57275" lon="6.20595">
        <ele>943</ele>
        <time>2016-07-15T07:13:17.000Z</time>
      </trkpt>
      <trkpt lat="44.57278" lon="6.20578">
        <ele>943.59997558594</ele>
        <time>2016-07-15T07:13:26.000Z</time>
      </trkpt>
      <trkpt lat="44.57278" lon="6.20577">
        <ele>943.59997558594</ele>
        <time>2016-07-15T07:13:27.000Z</time>
      </trkpt>
      <trkpt lat="44.57278" lon="6.20573">
        <ele>943.59997558594</ele>
        <time>2016-07-15T07:13:31.000Z</time>
      </trkpt>
      <trkpt lat="44.57275" lon="6.20564">
        <ele>943</ele>
        <time>2016-07-15T07:13:36.000Z</time>
      </trkpt>
      <trkpt lat="44.57274" lon="6.20559">
        <ele>942.79998779297</ele>
        <time>2016-07-15T07:13:39.000Z</time>
      </trkpt>
      <trkpt lat="44.57271" lon="6.20547">
        <ele>942.20001220703</ele>
        <time>2016-07-15T07:13:46.000Z</time>
      </trkpt>
      <trkpt lat="44.57271" lon="6.20543">
        <ele>942</ele>
        <time>2016-07-15T07:13:52.000Z</time>
      </trkpt>
      <trkpt lat="44.57271" lon="6.20547">
        <ele>942.20001220703</ele>
        <time>2016-07-15T07:13:56.000Z</time>
      </trkpt>
      <trkpt lat="44.57273" lon="6.20567">
        <ele>942.59997558594</ele>
        <time>2016-07-15T07:14:07.000Z</time>
      </trkpt>
      <trkpt lat="44.57274" lon="6.20583">
        <ele>942.59997558594</ele>
        <time>2016-07-15T07:14:18.000Z</time>
      </trkpt>
      <trkpt lat="44.57274" lon="6.20585">
        <ele>942.59997558594</ele>
        <time>2016-07-15T07:14:29.000Z</time>
      </trkpt>
      <trkpt lat="44.57273" lon="6.20588">
        <ele>942.59997558594</ele>
        <time>2016-07-15T07:14:34.000Z</time>
      </trkpt>
      <trkpt lat="44.57274" lon="6.20586">
        <ele>942.59997558594</ele>
        <time>2016-07-15T07:14:49.000Z</time>
      </trkpt>
      <trkpt lat="44.57275" lon="6.20586">
        <ele>943</ele>
        <time>2016-07-15T07:15:03.000Z</time>
      </trkpt>
      <trkpt lat="44.57276" lon="6.20591">
        <ele>943</ele>
        <time>2016-07-15T07:15:09.000Z</time>
      </trkpt>
      <trkpt lat="44.57277" lon="6.20583">
        <ele>943.40002441406</ele>
        <time>2016-07-15T07:15:27.000Z</time>
      </trkpt>
      <trkpt lat="44.57277" lon="6.20581">
        <ele>943.40002441406</ele>
        <time>2016-07-15T07:15:42.000Z</time>
      </trkpt>
      <trkpt lat="44.57278" lon="6.20583">
        <ele>943.59997558594</ele>
        <time>2016-07-15T07:15:50.000Z</time>
      </trkpt>
      <trkpt lat="44.57278" lon="6.20585">
        <ele>943.59997558594</ele>
        <time>2016-07-15T07:15:51.000Z</time>
      </trkpt>
      <trkpt lat="44.57277" lon="6.20586">
        <ele>943.40002441406</ele>
        <time>2016-07-15T07:15:55.000Z</time>
      </trkpt>
      <trkpt lat="44.57277" lon="6.20588">
        <ele>943.40002441406</ele>
        <time>2016-07-15T07:15:57.000Z</time>
      </trkpt>
      <trkpt lat="44.57277" lon="6.20589">
        <ele>943.20001220703</ele>
        <time>2016-07-15T07:16:04.000Z</time>
      </trkpt>
      <trkpt lat="44.57275" lon="6.20587">
        <ele>943</ele>
        <time>2016-07-15T07:16:12.000Z</time>
      </trkpt>
      <trkpt lat="44.57274" lon="6.20586">
        <ele>942.59997558594</ele>
        <time>2016-07-15T07:16:13.000Z</time>
      </trkpt>
      <trkpt lat="44.57273" lon="6.20586">
        <ele>942.59997558594</ele>
        <time>2016-07-15T07:16:14.000Z</time>
      </trkpt>
      <trkpt lat="44.57266" lon="6.20578">
        <ele>941</ele>
        <time>2016-07-15T07:16:28.000Z</time>
      </trkpt>
      <trkpt lat="44.57266" lon="6.20576">
        <ele>941</ele>
        <time>2016-07-15T07:16:29.000Z</time>
      </trkpt>
      <trkpt lat="44.57263" lon="6.20573">
        <ele>940.40002441406</ele>
        <time>2016-07-15T07:16:32.000Z</time>
      </trkpt>
      <trkpt lat="44.57256" lon="6.20564">
        <ele>938.79998779297</ele>
        <time>2016-07-15T07:16:40.000Z</time>
      </trkpt>
      <trkpt lat="44.57249" lon="6.20558">
        <ele>937.40002441406</ele>
        <time>2016-07-15T07:16:47.000Z</time>
      </trkpt>
      <trkpt lat="44.57246" lon="6.20556">
        <ele>936.79998779297</ele>
        <time>2016-07-15T07:16:50.000Z</time>
      </trkpt>
      <trkpt lat="44.57236" lon="6.20556">
        <ele>934.59997558594</ele>
        <time>2016-07-15T07:16:58.000Z</time>
      </trkpt>
      <trkpt lat="44.5723" lon="6.20562">
        <ele>933.20001220703</ele>
        <time>2016-07-15T07:17:05.000Z</time>
      </trkpt>
      <trkpt lat="44.57229" lon="6.20564">
        <ele>933</ele>
        <time>2016-07-15T07:17:12.000Z</time>
      </trkpt>
      <trkpt lat="44.57227" lon="6.20559">
        <ele>932.59997558594</ele>
        <time>2016-07-15T07:18:58.000Z</time>
      </trkpt>
      <trkpt lat="44.57228" lon="6.20564">
        <ele>932.79998779297</ele>
        <time>2016-07-15T07:19:57.000Z</time>
      </trkpt>
      <trkpt lat="44.57226" lon="6.2056">
        <ele>932.40002441406</ele>
        <time>2016-07-15T07:20:05.000Z</time>
      </trkpt>
      <trkpt lat="44.57228" lon="6.20559">
        <ele>932.79998779297</ele>
        <time>2016-07-15T07:20:12.000Z</time>
      </trkpt>
      <trkpt lat="44.57228" lon="6.2056">
        <ele>932.59997558594</ele>
        <time>2016-07-15T07:20:17.000Z</time>
      </trkpt>
      <trkpt lat="44.57226" lon="6.20565">
        <ele>932.40002441406</ele>
        <time>2016-07-15T07:20:42.000Z</time>
      </trkpt>
      <trkpt lat="44.57227" lon="6.20563">
        <ele>932.59997558594</ele>
        <time>2016-07-15T07:20:44.000Z</time>
      </trkpt>
      <trkpt lat="44.57226" lon="6.2057">
        <ele>932.20001220703</ele>
        <time>2016-07-15T07:20:49.000Z</time>
      </trkpt>
      <trkpt lat="44.57222" lon="6.2058">
        <ele>931.40002441406</ele>
        <time>2016-07-15T07:20:53.000Z</time>
      </trkpt>
      <trkpt lat="44.57221" lon="6.20581">
        <ele>931.20001220703</ele>
        <time>2016-07-15T07:20:54.000Z</time>
      </trkpt>
      <trkpt lat="44.57222" lon="6.20577">
        <ele>931.59997558594</ele>
        <time>2016-07-15T07:20:57.000Z</time>
      </trkpt>
      <trkpt lat="44.57227" lon="6.20566">
        <ele>932.59997558594</ele>
        <time>2016-07-15T07:21:04.000Z</time>
      </trkpt>
      <trkpt lat="44.57228" lon="6.20563">
        <ele>932.79998779297</ele>
        <time>2016-07-15T07:21:10.000Z</time>
      </trkpt>
      <trkpt lat="44.5723" lon="6.20562">
        <ele>933.20001220703</ele>
        <time>2016-07-15T07:21:45.000Z</time>
      </trkpt>
      <trkpt lat="44.57224" lon="6.20559">
        <ele>932</ele>
        <time>2016-07-15T07:22:09.000Z</time>
      </trkpt>
      <trkpt lat="44.57223" lon="6.20559">
        <ele>931.79998779297</ele>
        <time>2016-07-15T07:22:10.000Z</time>
      </trkpt>
      <trkpt lat="44.57214" lon="6.20556">
        <ele>930</ele>
        <time>2016-07-15T07:22:19.000Z</time>
      </trkpt>
      <trkpt lat="44.57209" lon="6.2056">
        <ele>928.79998779297</ele>
        <time>2016-07-15T07:22:24.000Z</time>
      </trkpt>
      <trkpt lat="44.57201" lon="6.20563">
        <ele>927</ele>
        <time>2016-07-15T07:22:30.000Z</time>
      </trkpt>
      <trkpt lat="44.57196" lon="6.20558">
        <ele>926.20001220703</ele>
        <time>2016-07-15T07:22:35.000Z</time>
      </trkpt>
      <trkpt lat="44.57196" lon="6.20557">
        <ele>926.20001220703</ele>
        <time>2016-07-15T07:22:40.000Z</time>
      </trkpt>
      <trkpt lat="44.572" lon="6.20563">
        <ele>926.59997558594</ele>
        <time>2016-07-15T07:22:45.000Z</time>
      </trkpt>
      <trkpt lat="44.572" lon="6.20565">
        <ele>926.59997558594</ele>
        <time>2016-07-15T07:22:46.000Z</time>
      </trkpt>
      <trkpt lat="44.57198" lon="6.20577">
        <ele>926</ele>
        <time>2016-07-15T07:22:53.000Z</time>
      </trkpt>
      <trkpt lat="44.57197" lon="6.20593">
        <ele>925.40002441406</ele>
        <time>2016-07-15T07:23:01.000Z</time>
      </trkpt>
      <trkpt lat="44.57193" lon="6.20606">
        <ele>924.40002441406</ele>
        <time>2016-07-15T07:23:08.000Z</time>
      </trkpt>
      <trkpt lat="44.57185" lon="6.20632">
        <ele>922</ele>
        <time>2016-07-15T07:23:24.000Z</time>
      </trkpt>
      <trkpt lat="44.5718" lon="6.20642">
        <ele>921.20001220703</ele>
        <time>2016-07-15T07:23:30.000Z</time>
      </trkpt>
      <trkpt lat="44.57172" lon="6.20659">
        <ele>919.59997558594</ele>
        <time>2016-07-15T07:23:41.000Z</time>
      </trkpt>
      <trkpt lat="44.57168" lon="6.20665">
        <ele>918.79998779297</ele>
        <time>2016-07-15T07:23:46.000Z</time>
      </trkpt>
      <trkpt lat="44.57164" lon="6.20668">
        <ele>918</ele>
        <time>2016-07-15T07:23:50.000Z</time>
      </trkpt>
      <trkpt lat="44.57151" lon="6.20666">
        <ele>915.59997558594</ele>
        <time>2016-07-15T07:24:00.000Z</time>
      </trkpt>
      <trkpt lat="44.57143" lon="6.20662">
        <ele>914.20001220703</ele>
        <time>2016-07-15T07:24:07.000Z</time>
      </trkpt>
      <trkpt lat="44.57141" lon="6.20663">
        <ele>914</ele>
        <time>2016-07-15T07:24:12.000Z</time>
      </trkpt>
      <trkpt lat="44.57141" lon="6.20661">
        <ele>914</ele>
        <time>2016-07-15T07:24:41.000Z</time>
      </trkpt>
      <trkpt lat="44.5714" lon="6.20661">
        <ele>913.79998779297</ele>
        <time>2016-07-15T07:24:48.000Z</time>
      </trkpt>
      <trkpt lat="44.5714" lon="6.20663">
        <ele>913.79998779297</ele>
        <time>2016-07-15T07:24:53.000Z</time>
      </trkpt>
      <trkpt lat="44.5714" lon="6.20657">
        <ele>913.79998779297</ele>
        <time>2016-07-15T07:25:20.000Z</time>
      </trkpt>
      <trkpt lat="44.57139" lon="6.20657">
        <ele>913.59997558594</ele>
        <time>2016-07-15T07:25:21.000Z</time>
      </trkpt>
      <trkpt lat="44.57138" lon="6.20657">
        <ele>913.59997558594</ele>
        <time>2016-07-15T07:25:22.000Z</time>
      </trkpt>
      <trkpt lat="44.57127" lon="6.2065">
        <ele>911.59997558594</ele>
        <time>2016-07-15T07:25:30.000Z</time>
      </trkpt>
      <trkpt lat="44.57122" lon="6.20646">
        <ele>910.79998779297</ele>
        <time>2016-07-15T07:25:34.000Z</time>
      </trkpt>
      <trkpt lat="44.5711" lon="6.20638">
        <ele>908.79998779297</ele>
        <time>2016-07-15T07:25:44.000Z</time>
      </trkpt>
      <trkpt lat="44.57098" lon="6.2063">
        <ele>906.79998779297</ele>
        <time>2016-07-15T07:25:53.000Z</time>
      </trkpt>
      <trkpt lat="44.57086" lon="6.2062">
        <ele>904.79998779297</ele>
        <time>2016-07-15T07:26:03.000Z</time>
      </trkpt>
      <trkpt lat="44.57067" lon="6.20603">
        <ele>902</ele>
        <time>2016-07-15T07:26:19.000Z</time>
      </trkpt>
      <trkpt lat="44.57043" lon="6.20601">
        <ele>897.59997558594</ele>
        <time>2016-07-15T07:26:36.000Z</time>
      </trkpt>
      <trkpt lat="44.57031" lon="6.20599">
        <ele>895.59997558594</ele>
        <time>2016-07-15T07:26:45.000Z</time>
      </trkpt>
      <trkpt lat="44.57021" lon="6.20592">
        <ele>894.59997558594</ele>
        <time>2016-07-15T07:26:53.000Z</time>
      </trkpt>
      <trkpt lat="44.57015" lon="6.2058">
        <ele>894</ele>
        <time>2016-07-15T07:27:01.000Z</time>
      </trkpt>
      <trkpt lat="44.57011" lon="6.20572">
        <ele>893.59997558594</ele>
        <time>2016-07-15T07:27:06.000Z</time>
      </trkpt>
      <trkpt lat="44.57006" lon="6.2055">
        <ele>893.20001220703</ele>
        <time>2016-07-15T07:27:19.000Z</time>
      </trkpt>
      <trkpt lat="44.56999" lon="6.20536">
        <ele>892.40002441406</ele>
        <time>2016-07-15T07:27:28.000Z</time>
      </trkpt>
      <trkpt lat="44.56992" lon="6.20531">
        <ele>891.40002441406</ele>
        <time>2016-07-15T07:27:34.000Z</time>
      </trkpt>
      <trkpt lat="44.56986" lon="6.20531">
        <ele>890.59997558594</ele>
        <time>2016-07-15T07:27:39.000Z</time>
      </trkpt>
      <trkpt lat="44.5698" lon="6.20538">
        <ele>889.79998779297</ele>
        <time>2016-07-15T07:27:45.000Z</time>
      </trkpt>
      <trkpt lat="44.56978" lon="6.20541">
        <ele>889.59997558594</ele>
        <time>2016-07-15T07:27:47.000Z</time>
      </trkpt>
      <trkpt lat="44.56976" lon="6.20546">
        <ele>889.40002441406</ele>
        <time>2016-07-15T07:27:53.000Z</time>
      </trkpt>
      <trkpt lat="44.56977" lon="6.20544">
        <ele>889.40002441406</ele>
        <time>2016-07-15T07:28:23.000Z</time>
      </trkpt>
      <trkpt lat="44.56976" lon="6.20546">
        <ele>889.20001220703</ele>
        <time>2016-07-15T07:28:39.000Z</time>
      </trkpt>
      <trkpt lat="44.56975" lon="6.20558">
        <ele>889.20001220703</ele>
        <time>2016-07-15T07:28:46.000Z</time>
      </trkpt>
      <trkpt lat="44.56975" lon="6.2056">
        <ele>889.20001220703</ele>
        <time>2016-07-15T07:28:47.000Z</time>
      </trkpt>
      <trkpt lat="44.56975" lon="6.20573">
        <ele>888.79998779297</ele>
        <time>2016-07-15T07:28:54.000Z</time>
      </trkpt>
      <trkpt lat="44.56977" lon="6.20586">
        <ele>888.79998779297</ele>
        <time>2016-07-15T07:29:01.000Z</time>
      </trkpt>
      <trkpt lat="44.5698" lon="6.20596">
        <ele>889</ele>
        <time>2016-07-15T07:29:07.000Z</time>
      </trkpt>
      <trkpt lat="44.5698" lon="6.2061">
        <ele>888.59997558594</ele>
        <time>2016-07-15T07:29:14.000Z</time>
      </trkpt>
      <trkpt lat="44.56976" lon="6.20619">
        <ele>888</ele>
        <time>2016-07-15T07:29:20.000Z</time>
      </trkpt>
      <trkpt lat="44.56966" lon="6.20625">
        <ele>886.40002441406</ele>
        <time>2016-07-15T07:29:29.000Z</time>
      </trkpt>
      <trkpt lat="44.56956" lon="6.20623">
        <ele>885.20001220703</ele>
        <time>2016-07-15T07:29:36.000Z</time>
      </trkpt>
      <trkpt lat="44.5695" lon="6.20615">
        <ele>884.59997558594</ele>
        <time>2016-07-15T07:29:42.000Z</time>
      </trkpt>
      <trkpt lat="44.56947" lon="6.20602">
        <ele>884.40002441406</ele>
        <time>2016-07-15T07:29:49.000Z</time>
      </trkpt>
      <trkpt lat="44.56942" lon="6.20587">
        <ele>884</ele>
        <time>2016-07-15T07:29:57.000Z</time>
      </trkpt>
      <trkpt lat="44.5694" lon="6.20584">
        <ele>883.79998779297</ele>
        <time>2016-07-15T07:30:02.000Z</time>
      </trkpt>
      <trkpt lat="44.56941" lon="6.20586">
        <ele>883.79998779297</ele>
        <time>2016-07-15T07:30:07.000Z</time>
      </trkpt>
      <trkpt lat="44.56939" lon="6.2058">
        <ele>883.59997558594</ele>
        <time>2016-07-15T07:30:42.000Z</time>
      </trkpt>
      <trkpt lat="44.56935" lon="6.20563">
        <ele>883.40002441406</ele>
        <time>2016-07-15T07:30:52.000Z</time>
      </trkpt>
      <trkpt lat="44.56931" lon="6.20549">
        <ele>883.20001220703</ele>
        <time>2016-07-15T07:31:00.000Z</time>
      </trkpt>
      <trkpt lat="44.56916" lon="6.20511">
        <ele>881.79998779297</ele>
        <time>2016-07-15T07:31:23.000Z</time>
      </trkpt>
      <trkpt lat="44.56902" lon="6.20485">
        <ele>880.20001220703</ele>
        <time>2016-07-15T07:31:40.000Z</time>
      </trkpt>
      <trkpt lat="44.56896" lon="6.20481">
        <ele>879.40002441406</ele>
        <time>2016-07-15T07:31:45.000Z</time>
      </trkpt>
      <trkpt lat="44.56892" lon="6.20482">
        <ele>879</ele>
        <time>2016-07-15T07:31:49.000Z</time>
      </trkpt>
      <trkpt lat="44.56882" lon="6.20482">
        <ele>877.79998779297</ele>
        <time>2016-07-15T07:31:57.000Z</time>
      </trkpt>
      <trkpt lat="44.56869" lon="6.20485">
        <ele>876</ele>
        <time>2016-07-15T07:32:07.000Z</time>
      </trkpt>
      <trkpt lat="44.56855" lon="6.20487">
        <ele>874.59997558594</ele>
        <time>2016-07-15T07:32:17.000Z</time>
      </trkpt>
      <trkpt lat="44.56836" lon="6.20491">
        <ele>872.79998779297</ele>
        <time>2016-07-15T07:32:30.000Z</time>
      </trkpt>
      <trkpt lat="44.56824" lon="6.20493">
        <ele>871.79998779297</ele>
        <time>2016-07-15T07:32:39.000Z</time>
      </trkpt>
      <trkpt lat="44.56811" lon="6.20495">
        <ele>870.59997558594</ele>
        <time>2016-07-15T07:32:48.000Z</time>
      </trkpt>
      <trkpt lat="44.56797" lon="6.20494">
        <ele>869.59997558594</ele>
        <time>2016-07-15T07:32:58.000Z</time>
      </trkpt>
      <trkpt lat="44.56787" lon="6.20495">
        <ele>868.79998779297</ele>
        <time>2016-07-15T07:33:05.000Z</time>
      </trkpt>
      <trkpt lat="44.56765" lon="6.20497">
        <ele>867.20001220703</ele>
        <time>2016-07-15T07:33:20.000Z</time>
      </trkpt>
      <trkpt lat="44.56761" lon="6.20498">
        <ele>866.79998779297</ele>
        <time>2016-07-15T07:33:23.000Z</time>
      </trkpt>
      <trkpt lat="44.56749" lon="6.205">
        <ele>866</ele>
        <time>2016-07-15T07:33:32.000Z</time>
      </trkpt>
      <trkpt lat="44.56738" lon="6.205">
        <ele>865.20001220703</ele>
        <time>2016-07-15T07:33:40.000Z</time>
      </trkpt>
      <trkpt lat="44.56725" lon="6.205">
        <ele>864.20001220703</ele>
        <time>2016-07-15T07:33:49.000Z</time>
      </trkpt>
      <trkpt lat="44.56713" lon="6.20498">
        <ele>863.40002441406</ele>
        <time>2016-07-15T07:33:58.000Z</time>
      </trkpt>
      <trkpt lat="44.56696" lon="6.20466">
        <ele>862.59997558594</ele>
        <time>2016-07-15T07:34:20.000Z</time>
      </trkpt>
      <trkpt lat="44.56689" lon="6.20448">
        <ele>862.20001220703</ele>
        <time>2016-07-15T07:34:29.000Z</time>
      </trkpt>
      <trkpt lat="44.56681" lon="6.20426">
        <ele>861.59997558594</ele>
        <time>2016-07-15T07:34:41.000Z</time>
      </trkpt>
      <trkpt lat="44.56676" lon="6.20414">
        <ele>861.20001220703</ele>
        <time>2016-07-15T07:34:48.000Z</time>
      </trkpt>
      <trkpt lat="44.5667" lon="6.20402">
        <ele>860.79998779297</ele>
        <time>2016-07-15T07:34:55.000Z</time>
      </trkpt>
      <trkpt lat="44.56663" lon="6.20388">
        <ele>860.20001220703</ele>
        <time>2016-07-15T07:35:03.000Z</time>
      </trkpt>
      <trkpt lat="44.56653" lon="6.20371">
        <ele>859.59997558594</ele>
        <time>2016-07-15T07:35:13.000Z</time>
      </trkpt>
      <trkpt lat="44.56647" lon="6.2036">
        <ele>859.20001220703</ele>
        <time>2016-07-15T07:35:20.000Z</time>
      </trkpt>
      <trkpt lat="44.56636" lon="6.2034">
        <ele>858.40002441406</ele>
        <time>2016-07-15T07:35:32.000Z</time>
      </trkpt>
      <trkpt lat="44.56628" lon="6.20322">
        <ele>857.79998779297</ele>
        <time>2016-07-15T07:35:42.000Z</time>
      </trkpt>
      <trkpt lat="44.5662" lon="6.20306">
        <ele>857.40002441406</ele>
        <time>2016-07-15T07:35:51.000Z</time>
      </trkpt>
      <trkpt lat="44.56608" lon="6.20285">
        <ele>857.79998779297</ele>
        <time>2016-07-15T07:36:03.000Z</time>
      </trkpt>
      <trkpt lat="44.56602" lon="6.20273">
        <ele>858</ele>
        <time>2016-07-15T07:36:10.000Z</time>
      </trkpt>
      <trkpt lat="44.56593" lon="6.20257">
        <ele>858.40002441406</ele>
        <time>2016-07-15T07:36:20.000Z</time>
      </trkpt>
      <trkpt lat="44.56583" lon="6.20239">
        <ele>858.79998779297</ele>
        <time>2016-07-15T07:36:31.000Z</time>
      </trkpt>
      <trkpt lat="44.56572" lon="6.20221">
        <ele>859</ele>
        <time>2016-07-15T07:36:42.000Z</time>
      </trkpt>
      <trkpt lat="44.56563" lon="6.20203">
        <ele>859.40002441406</ele>
        <time>2016-07-15T07:36:52.000Z</time>
      </trkpt>
      <trkpt lat="44.56556" lon="6.20189">
        <ele>859.40002441406</ele>
        <time>2016-07-15T07:36:59.000Z</time>
      </trkpt>
      <trkpt lat="44.5655" lon="6.20176">
        <ele>859.59997558594</ele>
        <time>2016-07-15T07:37:06.000Z</time>
      </trkpt>
      <trkpt lat="44.56541" lon="6.20159">
        <ele>859.79998779297</ele>
        <time>2016-07-15T07:37:15.000Z</time>
      </trkpt>
      <trkpt lat="44.56536" lon="6.20145">
        <ele>860</ele>
        <time>2016-07-15T07:37:22.000Z</time>
      </trkpt>
      <trkpt lat="44.56527" lon="6.20123">
        <ele>860.20001220703</ele>
        <time>2016-07-15T07:37:33.000Z</time>
      </trkpt>
      <trkpt lat="44.56522" lon="6.20107">
        <ele>860.40002441406</ele>
        <time>2016-07-15T07:37:41.000Z</time>
      </trkpt>
      <trkpt lat="44.56513" lon="6.20085">
        <ele>860.59997558594</ele>
        <time>2016-07-15T07:37:53.000Z</time>
      </trkpt>
      <trkpt lat="44.56504" lon="6.20062">
        <ele>860.79998779297</ele>
        <time>2016-07-15T07:38:05.000Z</time>
      </trkpt>
      <trkpt lat="44.56497" lon="6.20043">
        <ele>860.79998779297</ele>
        <time>2016-07-15T07:38:18.000Z</time>
      </trkpt>
      <trkpt lat="44.56491" lon="6.20024">
        <ele>861</ele>
        <time>2016-07-15T07:38:27.000Z</time>
      </trkpt>
      <trkpt lat="44.56483" lon="6.20007">
        <ele>861.20001220703</ele>
        <time>2016-07-15T07:38:35.000Z</time>
      </trkpt>
      <trkpt lat="44.56474" lon="6.19992">
        <ele>861.40002441406</ele>
        <time>2016-07-15T07:38:44.000Z</time>
      </trkpt>
      <trkpt lat="44.5647" lon="6.19977">
        <ele>861.40002441406</ele>
        <time>2016-07-15T07:38:52.000Z</time>
      </trkpt>
      <trkpt lat="44.56467" lon="6.19964">
        <ele>861</ele>
        <time>2016-07-15T07:38:58.000Z</time>
      </trkpt>
      <trkpt lat="44.56467" lon="6.19948">
        <ele>860.20001220703</ele>
        <time>2016-07-15T07:39:05.000Z</time>
      </trkpt>
      <trkpt lat="44.56467" lon="6.19944">
        <ele>860</ele>
        <time>2016-07-15T07:39:07.000Z</time>
      </trkpt>
      <trkpt lat="44.56468" lon="6.19924">
        <ele>859</ele>
        <time>2016-07-15T07:39:17.000Z</time>
      </trkpt>
      <trkpt lat="44.56469" lon="6.19914">
        <ele>858.40002441406</ele>
        <time>2016-07-15T07:39:22.000Z</time>
      </trkpt>
      <trkpt lat="44.56465" lon="6.1988">
        <ele>858</ele>
        <time>2016-07-15T07:39:38.000Z</time>
      </trkpt>
      <trkpt lat="44.56466" lon="6.19857">
        <ele>858</ele>
        <time>2016-07-15T07:39:48.000Z</time>
      </trkpt>
      <trkpt lat="44.56466" lon="6.19851">
        <ele>858</ele>
        <time>2016-07-15T07:39:51.000Z</time>
      </trkpt>
      <trkpt lat="44.5646" lon="6.19845">
        <ele>858</ele>
        <time>2016-07-15T07:39:56.000Z</time>
      </trkpt>
      <trkpt lat="44.56459" lon="6.19845">
        <ele>858</ele>
        <time>2016-07-15T07:39:57.000Z</time>
      </trkpt>
      <trkpt lat="44.56442" lon="6.19841">
        <ele>857.79998779297</ele>
        <time>2016-07-15T07:40:08.000Z</time>
      </trkpt>
      <trkpt lat="44.56421" lon="6.19838">
        <ele>857.59997558594</ele>
        <time>2016-07-15T07:40:23.000Z</time>
      </trkpt>
      <trkpt lat="44.56407" lon="6.19829">
        <ele>857.40002441406</ele>
        <time>2016-07-15T07:40:33.000Z</time>
      </trkpt>
      <trkpt lat="44.56399" lon="6.19825">
        <ele>857.40002441406</ele>
        <time>2016-07-15T07:40:39.000Z</time>
      </trkpt>
      <trkpt lat="44.5639" lon="6.19822">
        <ele>857.20001220703</ele>
        <time>2016-07-15T07:40:45.000Z</time>
      </trkpt>
      <trkpt lat="44.56377" lon="6.19818">
        <ele>857.20001220703</ele>
        <time>2016-07-15T07:40:55.000Z</time>
      </trkpt>
      <trkpt lat="44.56362" lon="6.19817">
        <ele>856.59997558594</ele>
        <time>2016-07-15T07:41:05.000Z</time>
      </trkpt>
      <trkpt lat="44.56352" lon="6.19814">
        <ele>856</ele>
        <time>2016-07-15T07:41:12.000Z</time>
      </trkpt>
      <trkpt lat="44.56349" lon="6.19808">
        <ele>856</ele>
        <time>2016-07-15T07:41:18.000Z</time>
      </trkpt>
      <trkpt lat="44.56349" lon="6.19807">
        <ele>856</ele>
        <time>2016-07-15T07:41:19.000Z</time>
      </trkpt>
      <trkpt lat="44.56348" lon="6.19806">
        <ele>856</ele>
        <time>2016-07-15T07:41:20.000Z</time>
      </trkpt>
      <trkpt lat="44.56346" lon="6.19806">
        <ele>855.79998779297</ele>
        <time>2016-07-15T07:41:23.000Z</time>
      </trkpt>
      <trkpt lat="44.56339" lon="6.19813">
        <ele>855.20001220703</ele>
        <time>2016-07-15T07:41:30.000Z</time>
      </trkpt>
      <trkpt lat="44.56335" lon="6.1982">
        <ele>855</ele>
        <time>2016-07-15T07:41:35.000Z</time>
      </trkpt>
      <trkpt lat="44.56332" lon="6.19828">
        <ele>854.59997558594</ele>
        <time>2016-07-15T07:41:39.000Z</time>
      </trkpt>
      <trkpt lat="44.56329" lon="6.19833">
        <ele>854.40002441406</ele>
        <time>2016-07-15T07:41:45.000Z</time>
      </trkpt>
      <trkpt lat="44.56325" lon="6.19832">
        <ele>854.20001220703</ele>
        <time>2016-07-15T07:41:54.000Z</time>
      </trkpt>
      <trkpt lat="44.56321" lon="6.19829">
        <ele>854</ele>
        <time>2016-07-15T07:41:58.000Z</time>
      </trkpt>
      <trkpt lat="44.5632" lon="6.19833">
        <ele>854</ele>
        <time>2016-07-15T07:42:05.000Z</time>
      </trkpt>
      <trkpt lat="44.56323" lon="6.19843">
        <ele>854</ele>
        <time>2016-07-15T07:42:11.000Z</time>
      </trkpt>
      <trkpt lat="44.56316" lon="6.19862">
        <ele>853.20001220703</ele>
        <time>2016-07-15T07:42:21.000Z</time>
      </trkpt>
      <trkpt lat="44.56315" lon="6.19863">
        <ele>853</ele>
        <time>2016-07-15T07:42:22.000Z</time>
      </trkpt>
      <trkpt lat="44.56315" lon="6.19865">
        <ele>853</ele>
        <time>2016-07-15T07:42:24.000Z</time>
      </trkpt>
      <trkpt lat="44.56318" lon="6.19876">
        <ele>852.79998779297</ele>
        <time>2016-07-15T07:42:30.000Z</time>
      </trkpt>
      <trkpt lat="44.56319" lon="6.19877">
        <ele>853</ele>
        <time>2016-07-15T07:42:31.000Z</time>
      </trkpt>
      <trkpt lat="44.56323" lon="6.19891">
        <ele>853</ele>
        <time>2016-07-15T07:42:39.000Z</time>
      </trkpt>
      <trkpt lat="44.56322" lon="6.19905">
        <ele>853</ele>
        <time>2016-07-15T07:42:46.000Z</time>
      </trkpt>
      <trkpt lat="44.5632" lon="6.19927">
        <ele>853.40002441406</ele>
        <time>2016-07-15T07:42:57.000Z</time>
      </trkpt>
      <trkpt lat="44.56318" lon="6.19944">
        <ele>853</ele>
        <time>2016-07-15T07:43:05.000Z</time>
      </trkpt>
      <trkpt lat="44.56316" lon="6.19961">
        <ele>852.59997558594</ele>
        <time>2016-07-15T07:43:13.000Z</time>
      </trkpt>
      <trkpt lat="44.56314" lon="6.19978">
        <ele>852.20001220703</ele>
        <time>2016-07-15T07:43:22.000Z</time>
      </trkpt>
      <trkpt lat="44.5631" lon="6.19998">
        <ele>852</ele>
        <time>2016-07-15T07:43:32.000Z</time>
      </trkpt>
      <trkpt lat="44.56308" lon="6.20012">
        <ele>852</ele>
        <time>2016-07-15T07:43:39.000Z</time>
      </trkpt>
      <trkpt lat="44.56308" lon="6.20014">
        <ele>852</ele>
        <time>2016-07-15T07:43:40.000Z</time>
      </trkpt>
      <trkpt lat="44.56307" lon="6.20034">
        <ele>852.20001220703</ele>
        <time>2016-07-15T07:43:49.000Z</time>
      </trkpt>
      <trkpt lat="44.56304" lon="6.20052">
        <ele>852</ele>
        <time>2016-07-15T07:43:58.000Z</time>
      </trkpt>
      <trkpt lat="44.56302" lon="6.20073">
        <ele>851.59997558594</ele>
        <time>2016-07-15T07:44:08.000Z</time>
      </trkpt>
      <trkpt lat="44.56298" lon="6.20091">
        <ele>850.40002441406</ele>
        <time>2016-07-15T07:44:17.000Z</time>
      </trkpt>
      <trkpt lat="44.56296" lon="6.20105">
        <ele>849.40002441406</ele>
        <time>2016-07-15T07:44:24.000Z</time>
      </trkpt>
      <trkpt lat="44.56294" lon="6.20128">
        <ele>848.20001220703</ele>
        <time>2016-07-15T07:44:35.000Z</time>
      </trkpt>
      <trkpt lat="44.56292" lon="6.20153">
        <ele>846.59997558594</ele>
        <time>2016-07-15T07:44:47.000Z</time>
      </trkpt>
      <trkpt lat="44.56288" lon="6.20174">
        <ele>845.59997558594</ele>
        <time>2016-07-15T07:44:57.000Z</time>
      </trkpt>
      <trkpt lat="44.56285" lon="6.20188">
        <ele>845</ele>
        <time>2016-07-15T07:45:04.000Z</time>
      </trkpt>
      <trkpt lat="44.56281" lon="6.20226">
        <ele>843.79998779297</ele>
        <time>2016-07-15T07:45:21.000Z</time>
      </trkpt>
      <trkpt lat="44.56279" lon="6.20241">
        <ele>843.59997558594</ele>
        <time>2016-07-15T07:45:28.000Z</time>
      </trkpt>
      <trkpt lat="44.56276" lon="6.20254">
        <ele>843.59997558594</ele>
        <time>2016-07-15T07:45:35.000Z</time>
      </trkpt>
      <trkpt lat="44.56272" lon="6.20276">
        <ele>843.59997558594</ele>
        <time>2016-07-15T07:45:45.000Z</time>
      </trkpt>
      <trkpt lat="44.56269" lon="6.2029">
        <ele>843.40002441406</ele>
        <time>2016-07-15T07:45:52.000Z</time>
      </trkpt>
      <trkpt lat="44.56267" lon="6.20307">
        <ele>843.79998779297</ele>
        <time>2016-07-15T07:46:00.000Z</time>
      </trkpt>
      <trkpt lat="44.56264" lon="6.2032">
        <ele>843.79998779297</ele>
        <time>2016-07-15T07:46:07.000Z</time>
      </trkpt>
      <trkpt lat="44.56262" lon="6.20339">
        <ele>843.59997558594</ele>
        <time>2016-07-15T07:46:16.000Z</time>
      </trkpt>
      <trkpt lat="44.56259" lon="6.2036">
        <ele>843.40002441406</ele>
        <time>2016-07-15T07:46:26.000Z</time>
      </trkpt>
      <trkpt lat="44.56256" lon="6.20378">
        <ele>843.40002441406</ele>
        <time>2016-07-15T07:46:34.000Z</time>
      </trkpt>
      <trkpt lat="44.56253" lon="6.20398">
        <ele>843.20001220703</ele>
        <time>2016-07-15T07:46:43.000Z</time>
      </trkpt>
      <trkpt lat="44.56249" lon="6.20415">
        <ele>843.20001220703</ele>
        <time>2016-07-15T07:46:51.000Z</time>
      </trkpt>
      <trkpt lat="44.56247" lon="6.2042">
        <ele>843</ele>
        <time>2016-07-15T07:46:55.000Z</time>
      </trkpt>
      <trkpt lat="44.56243" lon="6.20425">
        <ele>842.79998779297</ele>
        <time>2016-07-15T07:47:05.000Z</time>
      </trkpt>
      <trkpt lat="44.56243" lon="6.20422">
        <ele>842.79998779297</ele>
        <time>2016-07-15T07:47:13.000Z</time>
      </trkpt>
      <trkpt lat="44.56244" lon="6.20415">
        <ele>842.79998779297</ele>
        <time>2016-07-15T07:47:19.000Z</time>
      </trkpt>
      <trkpt lat="44.56238" lon="6.20413">
        <ele>842.40002441406</ele>
        <time>2016-07-15T07:47:23.000Z</time>
      </trkpt>
      <trkpt lat="44.5623" lon="6.20408">
        <ele>842</ele>
        <time>2016-07-15T07:47:28.000Z</time>
      </trkpt>
      <trkpt lat="44.56228" lon="6.20402">
        <ele>841.79998779297</ele>
        <time>2016-07-15T07:47:35.000Z</time>
      </trkpt>
      <trkpt lat="44.56226" lon="6.20394">
        <ele>841.59997558594</ele>
        <time>2016-07-15T07:47:47.000Z</time>
      </trkpt>
      <trkpt lat="44.56226" lon="6.20384">
        <ele>841.40002441406</ele>
        <time>2016-07-15T07:47:52.000Z</time>
      </trkpt>
      <trkpt lat="44.56227" lon="6.20371">
        <ele>841.59997558594</ele>
        <time>2016-07-15T07:47:59.000Z</time>
      </trkpt>
      <trkpt lat="44.56229" lon="6.20353">
        <ele>841.59997558594</ele>
        <time>2016-07-15T07:48:08.000Z</time>
      </trkpt>
      <trkpt lat="44.56231" lon="6.20327">
        <ele>841.79998779297</ele>
        <time>2016-07-15T07:48:20.000Z</time>
      </trkpt>
      <trkpt lat="44.56231" lon="6.20317">
        <ele>841.79998779297</ele>
        <time>2016-07-15T07:48:25.000Z</time>
      </trkpt>
      <trkpt lat="44.56224" lon="6.20312">
        <ele>841.40002441406</ele>
        <time>2016-07-15T07:48:31.000Z</time>
      </trkpt>
      <trkpt lat="44.56211" lon="6.20314">
        <ele>840.59997558594</ele>
        <time>2016-07-15T07:48:40.000Z</time>
      </trkpt>
      <trkpt lat="44.56199" lon="6.20317">
        <ele>839.79998779297</ele>
        <time>2016-07-15T07:48:48.000Z</time>
      </trkpt>
      <trkpt lat="44.56185" lon="6.20319">
        <ele>838.79998779297</ele>
        <time>2016-07-15T07:48:57.000Z</time>
      </trkpt>
      <trkpt lat="44.56177" lon="6.20319">
        <ele>838.20001220703</ele>
        <time>2016-07-15T07:49:02.000Z</time>
      </trkpt>
      <trkpt lat="44.56167" lon="6.2031">
        <ele>837.59997558594</ele>
        <time>2016-07-15T07:49:11.000Z</time>
      </trkpt>
      <trkpt lat="44.56161" lon="6.20304">
        <ele>837</ele>
        <time>2016-07-15T07:49:17.000Z</time>
      </trkpt>
      <trkpt lat="44.56151" lon="6.20281">
        <ele>836</ele>
        <time>2016-07-15T07:49:32.000Z</time>
      </trkpt>
      <trkpt lat="44.56154" lon="6.20265">
        <ele>836</ele>
        <time>2016-07-15T07:49:40.000Z</time>
      </trkpt>
      <trkpt lat="44.56158" lon="6.20253">
        <ele>835.79998779297</ele>
        <time>2016-07-15T07:49:47.000Z</time>
      </trkpt>
      <trkpt lat="44.56158" lon="6.20251">
        <ele>835.79998779297</ele>
        <time>2016-07-15T07:49:48.000Z</time>
      </trkpt>
      <trkpt lat="44.5616" lon="6.20243">
        <ele>835.59997558594</ele>
        <time>2016-07-15T07:49:52.000Z</time>
      </trkpt>
      <trkpt lat="44.56167" lon="6.20222">
        <ele>835.20001220703</ele>
        <time>2016-07-15T07:50:03.000Z</time>
      </trkpt>
      <trkpt lat="44.56178" lon="6.20185">
        <ele>836</ele>
        <time>2016-07-15T07:50:23.000Z</time>
      </trkpt>
      <trkpt lat="44.56187" lon="6.20164">
        <ele>837.79998779297</ele>
        <time>2016-07-15T07:50:35.000Z</time>
      </trkpt>
      <trkpt lat="44.56191" lon="6.20149">
        <ele>838.79998779297</ele>
        <time>2016-07-15T07:50:43.000Z</time>
      </trkpt>
      <trkpt lat="44.56194" lon="6.20137">
        <ele>839.40002441406</ele>
        <time>2016-07-15T07:50:50.000Z</time>
      </trkpt>
      <trkpt lat="44.56199" lon="6.20121">
        <ele>840.59997558594</ele>
        <time>2016-07-15T07:50:58.000Z</time>
      </trkpt>
      <trkpt lat="44.56203" lon="6.20103">
        <ele>841.59997558594</ele>
        <time>2016-07-15T07:51:07.000Z</time>
      </trkpt>
      <trkpt lat="44.56208" lon="6.20087">
        <ele>842.59997558594</ele>
        <time>2016-07-15T07:51:16.000Z</time>
      </trkpt>
      <trkpt lat="44.56209" lon="6.20077">
        <ele>843</ele>
        <time>2016-07-15T07:51:22.000Z</time>
      </trkpt>
      <trkpt lat="44.56209" lon="6.20075">
        <ele>843.20001220703</ele>
        <time>2016-07-15T07:51:23.000Z</time>
      </trkpt>
      <trkpt lat="44.56211" lon="6.20061">
        <ele>843.79998779297</ele>
        <time>2016-07-15T07:51:31.000Z</time>
      </trkpt>
      <trkpt lat="44.56213" lon="6.2005">
        <ele>844</ele>
        <time>2016-07-15T07:51:37.000Z</time>
      </trkpt>
      <trkpt lat="44.56216" lon="6.20035">
        <ele>844.20001220703</ele>
        <time>2016-07-15T07:51:45.000Z</time>
      </trkpt>
      <trkpt lat="44.56217" lon="6.20023">
        <ele>844.40002441406</ele>
        <time>2016-07-15T07:51:51.000Z</time>
      </trkpt>
      <trkpt lat="44.5622" lon="6.2001">
        <ele>844.59997558594</ele>
        <time>2016-07-15T07:51:57.000Z</time>
      </trkpt>
      <trkpt lat="44.56223" lon="6.19986">
        <ele>844.59997558594</ele>
        <time>2016-07-15T07:52:08.000Z</time>
      </trkpt>
      <trkpt lat="44.56224" lon="6.1998">
        <ele>844.59997558594</ele>
        <time>2016-07-15T07:52:14.000Z</time>
      </trkpt>
      <trkpt lat="44.5623" lon="6.19942">
        <ele>846</ele>
        <time>2016-07-15T07:52:32.000Z</time>
      </trkpt>
      <trkpt lat="44.56235" lon="6.19917">
        <ele>846.79998779297</ele>
        <time>2016-07-15T07:52:44.000Z</time>
      </trkpt>
      <trkpt lat="44.56239" lon="6.19893">
        <ele>847.40002441406</ele>
        <time>2016-07-15T07:52:55.000Z</time>
      </trkpt>
      <trkpt lat="44.5624" lon="6.19873">
        <ele>848.40002441406</ele>
        <time>2016-07-15T07:53:05.000Z</time>
      </trkpt>
      <trkpt lat="44.56239" lon="6.19861">
        <ele>849</ele>
        <time>2016-07-15T07:53:12.000Z</time>
      </trkpt>
      <trkpt lat="44.5624" lon="6.19852">
        <ele>849.40002441406</ele>
        <time>2016-07-15T07:53:39.000Z</time>
      </trkpt>
      <trkpt lat="44.56241" lon="6.1984">
        <ele>849.79998779297</ele>
        <time>2016-07-15T07:53:45.000Z</time>
      </trkpt>
      <trkpt lat="44.56241" lon="6.19838">
        <ele>849.79998779297</ele>
        <time>2016-07-15T07:53:46.000Z</time>
      </trkpt>
      <trkpt lat="44.56246" lon="6.19833">
        <ele>850.20001220703</ele>
        <time>2016-07-15T07:53:50.000Z</time>
      </trkpt>
      <trkpt lat="44.56255" lon="6.19826">
        <ele>850.59997558594</ele>
        <time>2016-07-15T07:53:57.000Z</time>
      </trkpt>
      <trkpt lat="44.56266" lon="6.19815">
        <ele>851.20001220703</ele>
        <time>2016-07-15T07:54:06.000Z</time>
      </trkpt>
      <trkpt lat="44.56271" lon="6.19801">
        <ele>852</ele>
        <time>2016-07-15T07:54:15.000Z</time>
      </trkpt>
      <trkpt lat="44.5627" lon="6.19797">
        <ele>852.20001220703</ele>
        <time>2016-07-15T07:54:34.000Z</time>
      </trkpt>
      <trkpt lat="44.56271" lon="6.19792">
        <ele>852.40002441406</ele>
        <time>2016-07-15T07:54:38.000Z</time>
      </trkpt>
      <trkpt lat="44.56278" lon="6.19781">
        <ele>853</ele>
        <time>2016-07-15T07:54:45.000Z</time>
      </trkpt>
      <trkpt lat="44.56287" lon="6.19772">
        <ele>853.59997558594</ele>
        <time>2016-07-15T07:54:52.000Z</time>
      </trkpt>
      <trkpt lat="44.56289" lon="6.19764">
        <ele>854</ele>
        <time>2016-07-15T07:54:55.000Z</time>
      </trkpt>
      <trkpt lat="44.5629" lon="6.19758">
        <ele>854.20001220703</ele>
        <time>2016-07-15T07:54:57.000Z</time>
      </trkpt>
      <trkpt lat="44.56295" lon="6.19748">
        <ele>855</ele>
        <time>2016-07-15T07:55:02.000Z</time>
      </trkpt>
      <trkpt lat="44.56299" lon="6.19733">
        <ele>855.20001220703</ele>
        <time>2016-07-15T07:55:09.000Z</time>
      </trkpt>
      <trkpt lat="44.56304" lon="6.19713">
        <ele>855.79998779297</ele>
        <time>2016-07-15T07:55:19.000Z</time>
      </trkpt>
      <trkpt lat="44.56308" lon="6.19699">
        <ele>856.40002441406</ele>
        <time>2016-07-15T07:55:26.000Z</time>
      </trkpt>
      <trkpt lat="44.56308" lon="6.19697">
        <ele>856.40002441406</ele>
        <time>2016-07-15T07:55:27.000Z</time>
      </trkpt>
      <trkpt lat="44.56304" lon="6.19695">
        <ele>856.40002441406</ele>
        <time>2016-07-15T07:55:30.000Z</time>
      </trkpt>
      <trkpt lat="44.56306" lon="6.19696">
        <ele>856.40002441406</ele>
        <time>2016-07-15T07:55:33.000Z</time>
      </trkpt>
      <trkpt lat="44.56307" lon="6.19699">
        <ele>856.40002441406</ele>
        <time>2016-07-15T07:55:37.000Z</time>
      </trkpt>
      <trkpt lat="44.5631" lon="6.19692">
        <ele>856.59997558594</ele>
        <time>2016-07-15T07:55:44.000Z</time>
      </trkpt>
      <trkpt lat="44.56316" lon="6.19673">
        <ele>857.20001220703</ele>
        <time>2016-07-15T07:55:50.000Z</time>
      </trkpt>
      <trkpt lat="44.56324" lon="6.19648">
        <ele>857.40002441406</ele>
        <time>2016-07-15T07:55:55.000Z</time>
      </trkpt>
      <trkpt lat="44.56334" lon="6.19623">
        <ele>858.79998779297</ele>
        <time>2016-07-15T07:56:00.000Z</time>
      </trkpt>
      <trkpt lat="44.56345" lon="6.19596">
        <ele>859</ele>
        <time>2016-07-15T07:56:05.000Z</time>
      </trkpt>
      <trkpt lat="44.56356" lon="6.19569">
        <ele>858.59997558594</ele>
        <time>2016-07-15T07:56:10.000Z</time>
      </trkpt>
      <trkpt lat="44.56364" lon="6.1955">
        <ele>858.59997558594</ele>
        <time>2016-07-15T07:56:16.000Z</time>
      </trkpt>
      <trkpt lat="44.56365" lon="6.19548">
        <ele>858.59997558594</ele>
        <time>2016-07-15T07:56:17.000Z</time>
      </trkpt>
      <trkpt lat="44.5638" lon="6.19522">
        <ele>859.59997558594</ele>
        <time>2016-07-15T07:56:32.000Z</time>
      </trkpt>
      <trkpt lat="44.56387" lon="6.19508">
        <ele>860.20001220703</ele>
        <time>2016-07-15T07:56:40.000Z</time>
      </trkpt>
      <trkpt lat="44.56395" lon="6.19492">
        <ele>860.20001220703</ele>
        <time>2016-07-15T07:56:49.000Z</time>
      </trkpt>
      <trkpt lat="44.56403" lon="6.19475">
        <ele>859.79998779297</ele>
        <time>2016-07-15T07:56:58.000Z</time>
      </trkpt>
      <trkpt lat="44.56411" lon="6.19453">
        <ele>860.40002441406</ele>
        <time>2016-07-15T07:57:09.000Z</time>
      </trkpt>
      <trkpt lat="44.5642" lon="6.19432">
        <ele>860.59997558594</ele>
        <time>2016-07-15T07:57:20.000Z</time>
      </trkpt>
      <trkpt lat="44.56431" lon="6.19403">
        <ele>860.79998779297</ele>
        <time>2016-07-15T07:57:36.000Z</time>
      </trkpt>
      <trkpt lat="44.56438" lon="6.19386">
        <ele>861.20001220703</ele>
        <time>2016-07-15T07:57:45.000Z</time>
      </trkpt>
      <trkpt lat="44.56446" lon="6.19368">
        <ele>860.79998779297</ele>
        <time>2016-07-15T07:57:55.000Z</time>
      </trkpt>
      <trkpt lat="44.56454" lon="6.19345">
        <ele>860.40002441406</ele>
        <time>2016-07-15T07:58:07.000Z</time>
      </trkpt>
      <trkpt lat="44.56461" lon="6.19328">
        <ele>860.40002441406</ele>
        <time>2016-07-15T07:58:16.000Z</time>
      </trkpt>
      <trkpt lat="44.5647" lon="6.19306">
        <ele>860.59997558594</ele>
        <time>2016-07-15T07:58:28.000Z</time>
      </trkpt>
      <trkpt lat="44.56479" lon="6.19283">
        <ele>862</ele>
        <time>2016-07-15T07:58:40.000Z</time>
      </trkpt>
      <trkpt lat="44.56486" lon="6.19264">
        <ele>863.20001220703</ele>
        <time>2016-07-15T07:58:50.000Z</time>
      </trkpt>
      <trkpt lat="44.56493" lon="6.19245">
        <ele>863.40002441406</ele>
        <time>2016-07-15T07:59:00.000Z</time>
      </trkpt>
      <trkpt lat="44.565" lon="6.19227">
        <ele>863.59997558594</ele>
        <time>2016-07-15T07:59:09.000Z</time>
      </trkpt>
      <trkpt lat="44.56506" lon="6.19207">
        <ele>865.59997558594</ele>
        <time>2016-07-15T07:59:19.000Z</time>
      </trkpt>
      <trkpt lat="44.56511" lon="6.19191">
        <ele>866.79998779297</ele>
        <time>2016-07-15T07:59:27.000Z</time>
      </trkpt>
      <trkpt lat="44.56513" lon="6.19176">
        <ele>868.20001220703</ele>
        <time>2016-07-15T07:59:34.000Z</time>
      </trkpt>
      <trkpt lat="44.56519" lon="6.1916">
        <ele>869.20001220703</ele>
        <time>2016-07-15T07:59:42.000Z</time>
      </trkpt>
      <trkpt lat="44.56526" lon="6.19141">
        <ele>870.40002441406</ele>
        <time>2016-07-15T07:59:52.000Z</time>
      </trkpt>
      <trkpt lat="44.56531" lon="6.19128">
        <ele>870.59997558594</ele>
        <time>2016-07-15T07:59:59.000Z</time>
      </trkpt>
      <trkpt lat="44.56538" lon="6.19109">
        <ele>871.20001220703</ele>
        <time>2016-07-15T08:00:09.000Z</time>
      </trkpt>
      <trkpt lat="44.56546" lon="6.19072">
        <ele>873</ele>
        <time>2016-07-15T08:00:27.000Z</time>
      </trkpt>
      <trkpt lat="44.56549" lon="6.1905">
        <ele>873.20001220703</ele>
        <time>2016-07-15T08:00:38.000Z</time>
      </trkpt>
      <trkpt lat="44.56553" lon="6.19027">
        <ele>874</ele>
        <time>2016-07-15T08:00:49.000Z</time>
      </trkpt>
      <trkpt lat="44.56555" lon="6.19005">
        <ele>875</ele>
        <time>2016-07-15T08:01:00.000Z</time>
      </trkpt>
      <trkpt lat="44.56556" lon="6.18984">
        <ele>875.79998779297</ele>
        <time>2016-07-15T08:01:11.000Z</time>
      </trkpt>
      <trkpt lat="44.56558" lon="6.18964">
        <ele>877.20001220703</ele>
        <time>2016-07-15T08:01:21.000Z</time>
      </trkpt>
      <trkpt lat="44.5656" lon="6.18945">
        <ele>878.59997558594</ele>
        <time>2016-07-15T08:01:31.000Z</time>
      </trkpt>
      <trkpt lat="44.56565" lon="6.18926">
        <ele>879.40002441406</ele>
        <time>2016-07-15T08:01:41.000Z</time>
      </trkpt>
      <trkpt lat="44.5657" lon="6.18913">
        <ele>878.79998779297</ele>
        <time>2016-07-15T08:01:49.000Z</time>
      </trkpt>
      <trkpt lat="44.56574" lon="6.18902">
        <ele>878.20001220703</ele>
        <time>2016-07-15T08:01:56.000Z</time>
      </trkpt>
      <trkpt lat="44.56577" lon="6.18887">
        <ele>878.40002441406</ele>
        <time>2016-07-15T08:02:05.000Z</time>
      </trkpt>
      <trkpt lat="44.56579" lon="6.18872">
        <ele>879.20001220703</ele>
        <time>2016-07-15T08:02:14.000Z</time>
      </trkpt>
      <trkpt lat="44.56581" lon="6.18858">
        <ele>880</ele>
        <time>2016-07-15T08:02:22.000Z</time>
      </trkpt>
      <trkpt lat="44.56586" lon="6.18844">
        <ele>880</ele>
        <time>2016-07-15T08:02:30.000Z</time>
      </trkpt>
      <trkpt lat="44.5659" lon="6.18828">
        <ele>880.20001220703</ele>
        <time>2016-07-15T08:02:38.000Z</time>
      </trkpt>
      <trkpt lat="44.56593" lon="6.18814">
        <ele>880.59997558594</ele>
        <time>2016-07-15T08:02:45.000Z</time>
      </trkpt>
      <trkpt lat="44.56593" lon="6.18799">
        <ele>881.40002441406</ele>
        <time>2016-07-15T08:02:52.000Z</time>
      </trkpt>
      <trkpt lat="44.5659" lon="6.18779">
        <ele>882.79998779297</ele>
        <time>2016-07-15T08:03:02.000Z</time>
      </trkpt>
      <trkpt lat="44.56586" lon="6.18764">
        <ele>884.20001220703</ele>
        <time>2016-07-15T08:03:10.000Z</time>
      </trkpt>
      <trkpt lat="44.56581" lon="6.18752">
        <ele>885.59997558594</ele>
        <time>2016-07-15T08:03:17.000Z</time>
      </trkpt>
      <trkpt lat="44.56572" lon="6.18731">
        <ele>888.40002441406</ele>
        <time>2016-07-15T08:03:29.000Z</time>
      </trkpt>
      <trkpt lat="44.56569" lon="6.18715">
        <ele>889.79998779297</ele>
        <time>2016-07-15T08:03:37.000Z</time>
      </trkpt>
      <trkpt lat="44.56568" lon="6.18694">
        <ele>890.79998779297</ele>
        <time>2016-07-15T08:03:47.000Z</time>
      </trkpt>
      <trkpt lat="44.5657" lon="6.18674">
        <ele>890.79998779297</ele>
        <time>2016-07-15T08:03:57.000Z</time>
      </trkpt>
      <trkpt lat="44.56575" lon="6.1866">
        <ele>889.59997558594</ele>
        <time>2016-07-15T08:04:05.000Z</time>
      </trkpt>
      <trkpt lat="44.5658" lon="6.18635">
        <ele>888.79998779297</ele>
        <time>2016-07-15T08:04:20.000Z</time>
      </trkpt>
      <trkpt lat="44.56583" lon="6.18621">
        <ele>888.40002441406</ele>
        <time>2016-07-15T08:04:28.000Z</time>
      </trkpt>
      <trkpt lat="44.56587" lon="6.18603">
        <ele>889</ele>
        <time>2016-07-15T08:04:38.000Z</time>
      </trkpt>
      <trkpt lat="44.56588" lon="6.18587">
        <ele>890.59997558594</ele>
        <time>2016-07-15T08:04:46.000Z</time>
      </trkpt>
      <trkpt lat="44.5659" lon="6.18573">
        <ele>892</ele>
        <time>2016-07-15T08:04:53.000Z</time>
      </trkpt>
      <trkpt lat="44.56591" lon="6.1856">
        <ele>893.20001220703</ele>
        <time>2016-07-15T08:05:00.000Z</time>
      </trkpt>
      <trkpt lat="44.56592" lon="6.18541">
        <ele>892.79998779297</ele>
        <time>2016-07-15T08:05:09.000Z</time>
      </trkpt>
      <trkpt lat="44.56591" lon="6.18519">
        <ele>893</ele>
        <time>2016-07-15T08:05:20.000Z</time>
      </trkpt>
      <trkpt lat="44.56591" lon="6.18517">
        <ele>893</ele>
        <time>2016-07-15T08:05:21.000Z</time>
      </trkpt>
      <trkpt lat="44.56594" lon="6.1851">
        <ele>892.59997558594</ele>
        <time>2016-07-15T08:05:23.000Z</time>
      </trkpt>
      <trkpt lat="44.56591" lon="6.18501">
        <ele>893.20001220703</ele>
        <time>2016-07-15T08:05:28.000Z</time>
      </trkpt>
      <trkpt lat="44.5659" lon="6.18499">
        <ele>893.40002441406</ele>
        <time>2016-07-15T08:05:29.000Z</time>
      </trkpt>
      <trkpt lat="44.56589" lon="6.18479">
        <ele>893.79998779297</ele>
        <time>2016-07-15T08:05:38.000Z</time>
      </trkpt>
      <trkpt lat="44.56587" lon="6.1846">
        <ele>894</ele>
        <time>2016-07-15T08:05:47.000Z</time>
      </trkpt>
      <trkpt lat="44.56584" lon="6.18446">
        <ele>894.40002441406</ele>
        <time>2016-07-15T08:05:55.000Z</time>
      </trkpt>
      <trkpt lat="44.5658" lon="6.18433">
        <ele>894.59997558594</ele>
        <time>2016-07-15T08:06:03.000Z</time>
      </trkpt>
      <trkpt lat="44.56574" lon="6.18416">
        <ele>895.20001220703</ele>
        <time>2016-07-15T08:06:12.000Z</time>
      </trkpt>
      <trkpt lat="44.56569" lon="6.184">
        <ele>895.59997558594</ele>
        <time>2016-07-15T08:06:20.000Z</time>
      </trkpt>
      <trkpt lat="44.56564" lon="6.18382">
        <ele>897</ele>
        <time>2016-07-15T08:06:30.000Z</time>
      </trkpt>
      <trkpt lat="44.5656" lon="6.18365">
        <ele>898.59997558594</ele>
        <time>2016-07-15T08:06:39.000Z</time>
      </trkpt>
      <trkpt lat="44.56554" lon="6.18344">
        <ele>900.59997558594</ele>
        <time>2016-07-15T08:06:50.000Z</time>
      </trkpt>
      <trkpt lat="44.5655" lon="6.18326">
        <ele>902.40002441406</ele>
        <time>2016-07-15T08:06:59.000Z</time>
      </trkpt>
      <trkpt lat="44.56545" lon="6.18312">
        <ele>903.59997558594</ele>
        <time>2016-07-15T08:07:07.000Z</time>
      </trkpt>
      <trkpt lat="44.56542" lon="6.18299">
        <ele>904.59997558594</ele>
        <time>2016-07-15T08:07:14.000Z</time>
      </trkpt>
      <trkpt lat="44.56539" lon="6.18288">
        <ele>905.79998779297</ele>
        <time>2016-07-15T08:07:20.000Z</time>
      </trkpt>
      <trkpt lat="44.56535" lon="6.1827">
        <ele>907.40002441406</ele>
        <time>2016-07-15T08:07:30.000Z</time>
      </trkpt>
      <trkpt lat="44.56535" lon="6.18268">
        <ele>907.40002441406</ele>
        <time>2016-07-15T08:07:31.000Z</time>
      </trkpt>
      <trkpt lat="44.5653" lon="6.18257">
        <ele>907.79998779297</ele>
        <time>2016-07-15T08:07:38.000Z</time>
      </trkpt>
      <trkpt lat="44.56527" lon="6.18248">
        <ele>907.79998779297</ele>
        <time>2016-07-15T08:07:43.000Z</time>
      </trkpt>
      <trkpt lat="44.56527" lon="6.18246">
        <ele>907.79998779297</ele>
        <time>2016-07-15T08:07:44.000Z</time>
      </trkpt>
      <trkpt lat="44.56525" lon="6.18239">
        <ele>908</ele>
        <time>2016-07-15T08:07:48.000Z</time>
      </trkpt>
      <trkpt lat="44.56523" lon="6.18229">
        <ele>908.20001220703</ele>
        <time>2016-07-15T08:07:54.000Z</time>
      </trkpt>
      <trkpt lat="44.56523" lon="6.18227">
        <ele>908.20001220703</ele>
        <time>2016-07-15T08:07:55.000Z</time>
      </trkpt>
      <trkpt lat="44.56518" lon="6.18208">
        <ele>907.40002441406</ele>
        <time>2016-07-15T08:08:04.000Z</time>
      </trkpt>
      <trkpt lat="44.56517" lon="6.18198">
        <ele>907</ele>
        <time>2016-07-15T08:08:10.000Z</time>
      </trkpt>
      <trkpt lat="44.56513" lon="6.18183">
        <ele>906.40002441406</ele>
        <time>2016-07-15T08:08:19.000Z</time>
      </trkpt>
      <trkpt lat="44.56511" lon="6.18178">
        <ele>906.20001220703</ele>
        <time>2016-07-15T08:08:22.000Z</time>
      </trkpt>
      <trkpt lat="44.56508" lon="6.18171">
        <ele>905.59997558594</ele>
        <time>2016-07-15T08:08:26.000Z</time>
      </trkpt>
      <trkpt lat="44.56503" lon="6.18153">
        <ele>904.79998779297</ele>
        <time>2016-07-15T08:08:35.000Z</time>
      </trkpt>
      <trkpt lat="44.565" lon="6.18128">
        <ele>903.79998779297</ele>
        <time>2016-07-15T08:08:46.000Z</time>
      </trkpt>
      <trkpt lat="44.565" lon="6.18109">
        <ele>903</ele>
        <time>2016-07-15T08:08:55.000Z</time>
      </trkpt>
      <trkpt lat="44.56499" lon="6.18089">
        <ele>902.59997558594</ele>
        <time>2016-07-15T08:09:05.000Z</time>
      </trkpt>
      <trkpt lat="44.56494" lon="6.18064">
        <ele>901.59997558594</ele>
        <time>2016-07-15T08:09:18.000Z</time>
      </trkpt>
      <trkpt lat="44.5649" lon="6.18049">
        <ele>901.20001220703</ele>
        <time>2016-07-15T08:09:26.000Z</time>
      </trkpt>
      <trkpt lat="44.56488" lon="6.18034">
        <ele>900.79998779297</ele>
        <time>2016-07-15T08:09:34.000Z</time>
      </trkpt>
      <trkpt lat="44.56484" lon="6.18013">
        <ele>900.40002441406</ele>
        <time>2016-07-15T08:09:45.000Z</time>
      </trkpt>
      <trkpt lat="44.56481" lon="6.17999">
        <ele>900.20001220703</ele>
        <time>2016-07-15T08:09:54.000Z</time>
      </trkpt>
      <trkpt lat="44.5648" lon="6.17998">
        <ele>900.20001220703</ele>
        <time>2016-07-15T08:09:59.000Z</time>
      </trkpt>
      <trkpt lat="44.56481" lon="6.17999">
        <ele>900.20001220703</ele>
        <time>2016-07-15T08:11:40.000Z</time>
      </trkpt>
      <trkpt lat="44.56481" lon="6.17998">
        <ele>900.20001220703</ele>
        <time>2016-07-15T08:11:54.000Z</time>
      </trkpt>
      <trkpt lat="44.5648" lon="6.17999">
        <ele>900.20001220703</ele>
        <time>2016-07-15T08:12:16.000Z</time>
      </trkpt>
      <trkpt lat="44.56481" lon="6.17999">
        <ele>900.20001220703</ele>
        <time>2016-07-15T08:12:56.000Z</time>
      </trkpt>
      <trkpt lat="44.56482" lon="6.17998">
        <ele>900.20001220703</ele>
        <time>2016-07-15T08:13:42.000Z</time>
      </trkpt>
      <trkpt lat="44.56483" lon="6.17998">
        <ele>900.20001220703</ele>
        <time>2016-07-15T08:13:59.000Z</time>
      </trkpt>
      <trkpt lat="44.56482" lon="6.18">
        <ele>900.20001220703</ele>
        <time>2016-07-15T08:14:06.000Z</time>
      </trkpt>
      <trkpt lat="44.56482" lon="6.17999">
        <ele>900.20001220703</ele>
        <time>2016-07-15T08:14:11.000Z</time>
      </trkpt>
      <trkpt lat="44.56482" lon="6.17997">
        <ele>900.20001220703</ele>
        <time>2016-07-15T08:14:16.000Z</time>
      </trkpt>
      <trkpt lat="44.5648" lon="6.1799">
        <ele>900</ele>
        <time>2016-07-15T08:14:27.000Z</time>
      </trkpt>
      <trkpt lat="44.5648" lon="6.17984">
        <ele>900</ele>
        <time>2016-07-15T08:14:32.000Z</time>
      </trkpt>
      <trkpt lat="44.56478" lon="6.17971">
        <ele>900</ele>
        <time>2016-07-15T08:14:39.000Z</time>
      </trkpt>
      <trkpt lat="44.56476" lon="6.17959">
        <ele>900</ele>
        <time>2016-07-15T08:14:45.000Z</time>
      </trkpt>
      <trkpt lat="44.56474" lon="6.17943">
        <ele>900</ele>
        <time>2016-07-15T08:14:54.000Z</time>
      </trkpt>
      <trkpt lat="44.56471" lon="6.17924">
        <ele>900.20001220703</ele>
        <time>2016-07-15T08:15:04.000Z</time>
      </trkpt>
      <trkpt lat="44.56469" lon="6.17898">
        <ele>901.20001220703</ele>
        <time>2016-07-15T08:15:17.000Z</time>
      </trkpt>
      <trkpt lat="44.56462" lon="6.17878">
        <ele>901.40002441406</ele>
        <time>2016-07-15T08:15:28.000Z</time>
      </trkpt>
      <trkpt lat="44.56456" lon="6.17864">
        <ele>901.40002441406</ele>
        <time>2016-07-15T08:15:36.000Z</time>
      </trkpt>
      <trkpt lat="44.5645" lon="6.17847">
        <ele>901.79998779297</ele>
        <time>2016-07-15T08:15:45.000Z</time>
      </trkpt>
      <trkpt lat="44.56445" lon="6.17834">
        <ele>902.40002441406</ele>
        <time>2016-07-15T08:15:52.000Z</time>
      </trkpt>
      <trkpt lat="44.56443" lon="6.17829">
        <ele>902.59997558594</ele>
        <time>2016-07-15T08:15:55.000Z</time>
      </trkpt>
      <trkpt lat="44.56441" lon="6.1782">
        <ele>903</ele>
        <time>2016-07-15T08:16:00.000Z</time>
      </trkpt>
      <trkpt lat="44.56441" lon="6.17817">
        <ele>903.20001220703</ele>
        <time>2016-07-15T08:16:01.000Z</time>
      </trkpt>
      <trkpt lat="44.56436" lon="6.17796">
        <ele>903.20001220703</ele>
        <time>2016-07-15T08:16:11.000Z</time>
      </trkpt>
      <trkpt lat="44.56431" lon="6.17772">
        <ele>904.40002441406</ele>
        <time>2016-07-15T08:16:23.000Z</time>
      </trkpt>
      <trkpt lat="44.56429" lon="6.17757">
        <ele>905.20001220703</ele>
        <time>2016-07-15T08:16:30.000Z</time>
      </trkpt>
      <trkpt lat="44.56425" lon="6.17732">
        <ele>906.59997558594</ele>
        <time>2016-07-15T08:16:42.000Z</time>
      </trkpt>
      <trkpt lat="44.56424" lon="6.17712">
        <ele>907</ele>
        <time>2016-07-15T08:16:51.000Z</time>
      </trkpt>
      <trkpt lat="44.56422" lon="6.17695">
        <ele>907</ele>
        <time>2016-07-15T08:16:59.000Z</time>
      </trkpt>
      <trkpt lat="44.56419" lon="6.17683">
        <ele>907</ele>
        <time>2016-07-15T08:17:05.000Z</time>
      </trkpt>
      <trkpt lat="44.56417" lon="6.17671">
        <ele>907.20001220703</ele>
        <time>2016-07-15T08:17:11.000Z</time>
      </trkpt>
      <trkpt lat="44.56415" lon="6.17658">
        <ele>907.40002441406</ele>
        <time>2016-07-15T08:17:18.000Z</time>
      </trkpt>
      <trkpt lat="44.56412" lon="6.17642">
        <ele>907.40002441406</ele>
        <time>2016-07-15T08:17:26.000Z</time>
      </trkpt>
      <trkpt lat="44.56409" lon="6.17622">
        <ele>906.79998779297</ele>
        <time>2016-07-15T08:17:36.000Z</time>
      </trkpt>
      <trkpt lat="44.56408" lon="6.1761">
        <ele>906.40002441406</ele>
        <time>2016-07-15T08:17:42.000Z</time>
      </trkpt>
      <trkpt lat="44.56408" lon="6.17608">
        <ele>906.20001220703</ele>
        <time>2016-07-15T08:17:43.000Z</time>
      </trkpt>
      <trkpt lat="44.56405" lon="6.17585">
        <ele>905.59997558594</ele>
        <time>2016-07-15T08:17:54.000Z</time>
      </trkpt>
      <trkpt lat="44.56403" lon="6.17566">
        <ele>905.20001220703</ele>
        <time>2016-07-15T08:18:03.000Z</time>
      </trkpt>
      <trkpt lat="44.56401" lon="6.17546">
        <ele>905.59997558594</ele>
        <time>2016-07-15T08:18:13.000Z</time>
      </trkpt>
      <trkpt lat="44.564" lon="6.17528">
        <ele>906.40002441406</ele>
        <time>2016-07-15T08:18:22.000Z</time>
      </trkpt>
      <trkpt lat="44.56399" lon="6.17511">
        <ele>906.79998779297</ele>
        <time>2016-07-15T08:18:30.000Z</time>
      </trkpt>
      <trkpt lat="44.56397" lon="6.17495">
        <ele>906.59997558594</ele>
        <time>2016-07-15T08:18:38.000Z</time>
      </trkpt>
      <trkpt lat="44.56396" lon="6.17479">
        <ele>906.40002441406</ele>
        <time>2016-07-15T08:18:46.000Z</time>
      </trkpt>
      <trkpt lat="44.56394" lon="6.17465">
        <ele>906</ele>
        <time>2016-07-15T08:18:53.000Z</time>
      </trkpt>
      <trkpt lat="44.56392" lon="6.17445">
        <ele>905.59997558594</ele>
        <time>2016-07-15T08:19:03.000Z</time>
      </trkpt>
      <trkpt lat="44.56391" lon="6.17441">
        <ele>905.59997558594</ele>
        <time>2016-07-15T08:19:05.000Z</time>
      </trkpt>
      <trkpt lat="44.56388" lon="6.17429">
        <ele>905.20001220703</ele>
        <time>2016-07-15T08:19:11.000Z</time>
      </trkpt>
      <trkpt lat="44.5638" lon="6.17407">
        <ele>904.20001220703</ele>
        <time>2016-07-15T08:19:24.000Z</time>
      </trkpt>
      <trkpt lat="44.56373" lon="6.17392">
        <ele>903.59997558594</ele>
        <time>2016-07-15T08:19:33.000Z</time>
      </trkpt>
      <trkpt lat="44.56364" lon="6.17378">
        <ele>903</ele>
        <time>2016-07-15T08:19:42.000Z</time>
      </trkpt>
      <trkpt lat="44.56362" lon="6.17373">
        <ele>902.79998779297</ele>
        <time>2016-07-15T08:19:45.000Z</time>
      </trkpt>
      <trkpt lat="44.56359" lon="6.17368">
        <ele>902.59997558594</ele>
        <time>2016-07-15T08:19:49.000Z</time>
      </trkpt>
      <trkpt lat="44.56352" lon="6.1736">
        <ele>902.40002441406</ele>
        <time>2016-07-15T08:19:57.000Z</time>
      </trkpt>
      <trkpt lat="44.5635" lon="6.17354">
        <ele>902.20001220703</ele>
        <time>2016-07-15T08:20:01.000Z</time>
      </trkpt>
      <trkpt lat="44.56343" lon="6.1734">
        <ele>901.79998779297</ele>
        <time>2016-07-15T08:20:09.000Z</time>
      </trkpt>
      <trkpt lat="44.56337" lon="6.17325">
        <ele>901.59997558594</ele>
        <time>2016-07-15T08:20:18.000Z</time>
      </trkpt>
      <trkpt lat="44.56333" lon="6.17309">
        <ele>901.40002441406</ele>
        <time>2016-07-15T08:20:26.000Z</time>
      </trkpt>
      <trkpt lat="44.56326" lon="6.17292">
        <ele>901</ele>
        <time>2016-07-15T08:20:35.000Z</time>
      </trkpt>
      <trkpt lat="44.56318" lon="6.17271">
        <ele>900.40002441406</ele>
        <time>2016-07-15T08:20:45.000Z</time>
      </trkpt>
      <trkpt lat="44.56315" lon="6.17261">
        <ele>900.20001220703</ele>
        <time>2016-07-15T08:20:50.000Z</time>
      </trkpt>
      <trkpt lat="44.56312" lon="6.17247">
        <ele>900.40002441406</ele>
        <time>2016-07-15T08:20:58.000Z</time>
      </trkpt>
      <trkpt lat="44.56307" lon="6.17234">
        <ele>900.40002441406</ele>
        <time>2016-07-15T08:21:05.000Z</time>
      </trkpt>
      <trkpt lat="44.56301" lon="6.17212">
        <ele>899.79998779297</ele>
        <time>2016-07-15T08:21:16.000Z</time>
      </trkpt>
      <trkpt lat="44.56296" lon="6.17187">
        <ele>898.79998779297</ele>
        <time>2016-07-15T08:21:30.000Z</time>
      </trkpt>
      <trkpt lat="44.56294" lon="6.17168">
        <ele>898.40002441406</ele>
        <time>2016-07-15T08:21:40.000Z</time>
      </trkpt>
      <trkpt lat="44.56294" lon="6.1715">
        <ele>898.20001220703</ele>
        <time>2016-07-15T08:21:49.000Z</time>
      </trkpt>
      <trkpt lat="44.56296" lon="6.17138">
        <ele>898</ele>
        <time>2016-07-15T08:21:55.000Z</time>
      </trkpt>
      <trkpt lat="44.563" lon="6.17124">
        <ele>897.79998779297</ele>
        <time>2016-07-15T08:22:02.000Z</time>
      </trkpt>
      <trkpt lat="44.56305" lon="6.17109">
        <ele>897.79998779297</ele>
        <time>2016-07-15T08:22:10.000Z</time>
      </trkpt>
      <trkpt lat="44.56311" lon="6.17095">
        <ele>897.79998779297</ele>
        <time>2016-07-15T08:22:18.000Z</time>
      </trkpt>
      <trkpt lat="44.56317" lon="6.17081">
        <ele>896.79998779297</ele>
        <time>2016-07-15T08:22:26.000Z</time>
      </trkpt>
      <trkpt lat="44.56322" lon="6.1707">
        <ele>895.59997558594</ele>
        <time>2016-07-15T08:22:32.000Z</time>
      </trkpt>
      <trkpt lat="44.56324" lon="6.17064">
        <ele>894.79998779297</ele>
        <time>2016-07-15T08:22:37.000Z</time>
      </trkpt>
      <trkpt lat="44.56329" lon="6.17051">
        <ele>894.59997558594</ele>
        <time>2016-07-15T08:22:45.000Z</time>
      </trkpt>
      <trkpt lat="44.56335" lon="6.17036">
        <ele>894.79998779297</ele>
        <time>2016-07-15T08:22:54.000Z</time>
      </trkpt>
      <trkpt lat="44.56338" lon="6.17019">
        <ele>894.40002441406</ele>
        <time>2016-07-15T08:23:03.000Z</time>
      </trkpt>
      <trkpt lat="44.56341" lon="6.16995">
        <ele>893.59997558594</ele>
        <time>2016-07-15T08:23:16.000Z</time>
      </trkpt>
      <trkpt lat="44.56342" lon="6.1698">
        <ele>893</ele>
        <time>2016-07-15T08:23:23.000Z</time>
      </trkpt>
      <trkpt lat="44.56342" lon="6.16971">
        <ele>893.20001220703</ele>
        <time>2016-07-15T08:23:28.000Z</time>
      </trkpt>
      <trkpt lat="44.56334" lon="6.16961">
        <ele>893.40002441406</ele>
        <time>2016-07-15T08:23:36.000Z</time>
      </trkpt>
      <trkpt lat="44.56332" lon="6.1696">
        <ele>893.40002441406</ele>
        <time>2016-07-15T08:23:37.000Z</time>
      </trkpt>
      <trkpt lat="44.56327" lon="6.16955">
        <ele>893.59997558594</ele>
        <time>2016-07-15T08:23:41.000Z</time>
      </trkpt>
      <trkpt lat="44.56321" lon="6.1695">
        <ele>893.59997558594</ele>
        <time>2016-07-15T08:23:46.000Z</time>
      </trkpt>
      <trkpt lat="44.56308" lon="6.1694">
        <ele>894</ele>
        <time>2016-07-15T08:23:56.000Z</time>
      </trkpt>
      <trkpt lat="44.56294" lon="6.16932">
        <ele>894.20001220703</ele>
        <time>2016-07-15T08:24:07.000Z</time>
      </trkpt>
      <trkpt lat="44.56278" lon="6.16926">
        <ele>894.59997558594</ele>
        <time>2016-07-15T08:24:18.000Z</time>
      </trkpt>
      <trkpt lat="44.56266" lon="6.1692">
        <ele>895.59997558594</ele>
        <time>2016-07-15T08:24:27.000Z</time>
      </trkpt>
      <trkpt lat="44.56253" lon="6.16913">
        <ele>896.40002441406</ele>
        <time>2016-07-15T08:24:37.000Z</time>
      </trkpt>
      <trkpt lat="44.56243" lon="6.16904">
        <ele>897.20001220703</ele>
        <time>2016-07-15T08:24:45.000Z</time>
      </trkpt>
      <trkpt lat="44.56234" lon="6.16888">
        <ele>897.79998779297</ele>
        <time>2016-07-15T08:24:56.000Z</time>
      </trkpt>
      <trkpt lat="44.56228" lon="6.16875">
        <ele>897.79998779297</ele>
        <time>2016-07-15T08:25:04.000Z</time>
      </trkpt>
      <trkpt lat="44.56223" lon="6.16858">
        <ele>897.79998779297</ele>
        <time>2016-07-15T08:25:13.000Z</time>
      </trkpt>
      <trkpt lat="44.56217" lon="6.16844">
        <ele>897.79998779297</ele>
        <time>2016-07-15T08:25:21.000Z</time>
      </trkpt>
      <trkpt lat="44.56212" lon="6.16831">
        <ele>897.79998779297</ele>
        <time>2016-07-15T08:25:29.000Z</time>
      </trkpt>
      <trkpt lat="44.56203" lon="6.16819">
        <ele>898</ele>
        <time>2016-07-15T08:25:38.000Z</time>
      </trkpt>
      <trkpt lat="44.56192" lon="6.16806">
        <ele>899</ele>
        <time>2016-07-15T08:25:48.000Z</time>
      </trkpt>
      <trkpt lat="44.56185" lon="6.16795">
        <ele>899.59997558594</ele>
        <time>2016-07-15T08:25:55.000Z</time>
      </trkpt>
      <trkpt lat="44.56178" lon="6.16781">
        <ele>900.20001220703</ele>
        <time>2016-07-15T08:26:03.000Z</time>
      </trkpt>
      <trkpt lat="44.56171" lon="6.16763">
        <ele>900.79998779297</ele>
        <time>2016-07-15T08:26:13.000Z</time>
      </trkpt>
      <trkpt lat="44.56164" lon="6.1675">
        <ele>901.59997558594</ele>
        <time>2016-07-15T08:26:22.000Z</time>
      </trkpt>
      <trkpt lat="44.56155" lon="6.16737">
        <ele>902.40002441406</ele>
        <time>2016-07-15T08:26:31.000Z</time>
      </trkpt>
      <trkpt lat="44.56145" lon="6.16724">
        <ele>903.59997558594</ele>
        <time>2016-07-15T08:26:40.000Z</time>
      </trkpt>
      <trkpt lat="44.56134" lon="6.16709">
        <ele>905.40002441406</ele>
        <time>2016-07-15T08:26:50.000Z</time>
      </trkpt>
      <trkpt lat="44.56124" lon="6.16695">
        <ele>907</ele>
        <time>2016-07-15T08:26:59.000Z</time>
      </trkpt>
      <trkpt lat="44.56118" lon="6.16685">
        <ele>908</ele>
        <time>2016-07-15T08:27:06.000Z</time>
      </trkpt>
      <trkpt lat="44.56109" lon="6.16673">
        <ele>910</ele>
        <time>2016-07-15T08:27:14.000Z</time>
      </trkpt>
      <trkpt lat="44.561" lon="6.1666">
        <ele>912</ele>
        <time>2016-07-15T08:27:23.000Z</time>
      </trkpt>
      <trkpt lat="44.5609" lon="6.16647">
        <ele>914.20001220703</ele>
        <time>2016-07-15T08:27:32.000Z</time>
      </trkpt>
      <trkpt lat="44.56082" lon="6.16636">
        <ele>915.59997558594</ele>
        <time>2016-07-15T08:27:40.000Z</time>
      </trkpt>
      <trkpt lat="44.56076" lon="6.16624">
        <ele>916.79998779297</ele>
        <time>2016-07-15T08:27:47.000Z</time>
      </trkpt>
      <trkpt lat="44.5607" lon="6.16611">
        <ele>917.79998779297</ele>
        <time>2016-07-15T08:27:55.000Z</time>
      </trkpt>
      <trkpt lat="44.56068" lon="6.16591">
        <ele>918.40002441406</ele>
        <time>2016-07-15T08:28:05.000Z</time>
      </trkpt>
      <trkpt lat="44.56067" lon="6.16577">
        <ele>918.79998779297</ele>
        <time>2016-07-15T08:28:12.000Z</time>
      </trkpt>
      <trkpt lat="44.56065" lon="6.16555">
        <ele>919.40002441406</ele>
        <time>2016-07-15T08:28:23.000Z</time>
      </trkpt>
      <trkpt lat="44.56066" lon="6.16549">
        <ele>919.40002441406</ele>
        <time>2016-07-15T08:28:26.000Z</time>
      </trkpt>
      <trkpt lat="44.56064" lon="6.1653">
        <ele>920.20001220703</ele>
        <time>2016-07-15T08:28:36.000Z</time>
      </trkpt>
      <trkpt lat="44.5606" lon="6.1651">
        <ele>921.20001220703</ele>
        <time>2016-07-15T08:28:47.000Z</time>
      </trkpt>
      <trkpt lat="44.56059" lon="6.16502">
        <ele>921.59997558594</ele>
        <time>2016-07-15T08:28:52.000Z</time>
      </trkpt>
      <trkpt lat="44.56056" lon="6.16487">
        <ele>922.20001220703</ele>
        <time>2016-07-15T08:29:01.000Z</time>
      </trkpt>
      <trkpt lat="44.56055" lon="6.16486">
        <ele>922.20001220703</ele>
        <time>2016-07-15T08:29:02.000Z</time>
      </trkpt>
      <trkpt lat="44.56054" lon="6.16481">
        <ele>922.40002441406</ele>
        <time>2016-07-15T08:29:05.000Z</time>
      </trkpt>
      <trkpt lat="44.56053" lon="6.16476">
        <ele>922.79998779297</ele>
        <time>2016-07-15T08:29:08.000Z</time>
      </trkpt>
      <trkpt lat="44.56043" lon="6.16462">
        <ele>924.59997558594</ele>
        <time>2016-07-15T08:29:18.000Z</time>
      </trkpt>
      <trkpt lat="44.56036" lon="6.1646">
        <ele>926</ele>
        <time>2016-07-15T08:29:24.000Z</time>
      </trkpt>
      <trkpt lat="44.56028" lon="6.16458">
        <ele>927.40002441406</ele>
        <time>2016-07-15T08:29:30.000Z</time>
      </trkpt>
      <trkpt lat="44.56018" lon="6.16461">
        <ele>929</ele>
        <time>2016-07-15T08:29:38.000Z</time>
      </trkpt>
      <trkpt lat="44.56016" lon="6.16462">
        <ele>929.40002441406</ele>
        <time>2016-07-15T08:29:40.000Z</time>
      </trkpt>
      <trkpt lat="44.56008" lon="6.1647">
        <ele>930.40002441406</ele>
        <time>2016-07-15T08:29:47.000Z</time>
      </trkpt>
      <trkpt lat="44.56005" lon="6.16481">
        <ele>930.59997558594</ele>
        <time>2016-07-15T08:29:54.000Z</time>
      </trkpt>
      <trkpt lat="44.56002" lon="6.16496">
        <ele>930.59997558594</ele>
        <time>2016-07-15T08:30:03.000Z</time>
      </trkpt>
      <trkpt lat="44.56002" lon="6.16511">
        <ele>930.40002441406</ele>
        <time>2016-07-15T08:30:11.000Z</time>
      </trkpt>
      <trkpt lat="44.56002" lon="6.16522">
        <ele>930</ele>
        <time>2016-07-15T08:30:17.000Z</time>
      </trkpt>
      <trkpt lat="44.56002" lon="6.16534">
        <ele>929.20001220703</ele>
        <time>2016-07-15T08:30:24.000Z</time>
      </trkpt>
      <trkpt lat="44.56" lon="6.16551">
        <ele>927.59997558594</ele>
        <time>2016-07-15T08:30:33.000Z</time>
      </trkpt>
      <trkpt lat="44.55993" lon="6.16563">
        <ele>927</ele>
        <time>2016-07-15T08:30:41.000Z</time>
      </trkpt>
      <trkpt lat="44.55985" lon="6.1657">
        <ele>927.40002441406</ele>
        <time>2016-07-15T08:30:49.000Z</time>
      </trkpt>
      <trkpt lat="44.55974" lon="6.16571">
        <ele>928.20001220703</ele>
        <time>2016-07-15T08:30:57.000Z</time>
      </trkpt>
      <trkpt lat="44.55961" lon="6.16568">
        <ele>929.20001220703</ele>
        <time>2016-07-15T08:31:07.000Z</time>
      </trkpt>
      <trkpt lat="44.55948" lon="6.16564">
        <ele>930</ele>
        <time>2016-07-15T08:31:17.000Z</time>
      </trkpt>
      <trkpt lat="44.55931" lon="6.16563">
        <ele>930.79998779297</ele>
        <time>2016-07-15T08:31:29.000Z</time>
      </trkpt>
      <trkpt lat="44.55921" lon="6.16562">
        <ele>931</ele>
        <time>2016-07-15T08:31:36.000Z</time>
      </trkpt>
      <trkpt lat="44.5591" lon="6.1656">
        <ele>931.59997558594</ele>
        <time>2016-07-15T08:31:45.000Z</time>
      </trkpt>
      <trkpt lat="44.55896" lon="6.16555">
        <ele>932.79998779297</ele>
        <time>2016-07-15T08:31:56.000Z</time>
      </trkpt>
      <trkpt lat="44.55884" lon="6.1655">
        <ele>933.79998779297</ele>
        <time>2016-07-15T08:32:05.000Z</time>
      </trkpt>
      <trkpt lat="44.55872" lon="6.16547">
        <ele>934.79998779297</ele>
        <time>2016-07-15T08:32:14.000Z</time>
      </trkpt>
      <trkpt lat="44.55861" lon="6.16544">
        <ele>936</ele>
        <time>2016-07-15T08:32:22.000Z</time>
      </trkpt>
      <trkpt lat="44.55845" lon="6.16541">
        <ele>938.20001220703</ele>
        <time>2016-07-15T08:32:34.000Z</time>
      </trkpt>
      <trkpt lat="44.55837" lon="6.16544">
        <ele>938.59997558594</ele>
        <time>2016-07-15T08:32:40.000Z</time>
      </trkpt>
      <trkpt lat="44.55824" lon="6.16547">
        <ele>939.40002441406</ele>
        <time>2016-07-15T08:32:49.000Z</time>
      </trkpt>
      <trkpt lat="44.55813" lon="6.16543">
        <ele>941</ele>
        <time>2016-07-15T08:32:57.000Z</time>
      </trkpt>
      <trkpt lat="44.558" lon="6.16535">
        <ele>943.40002441406</ele>
        <time>2016-07-15T08:33:07.000Z</time>
      </trkpt>
      <trkpt lat="44.5579" lon="6.16529">
        <ele>945.40002441406</ele>
        <time>2016-07-15T08:33:15.000Z</time>
      </trkpt>
      <trkpt lat="44.55775" lon="6.16523">
        <ele>947.59997558594</ele>
        <time>2016-07-15T08:33:26.000Z</time>
      </trkpt>
      <trkpt lat="44.55764" lon="6.16524">
        <ele>948.40002441406</ele>
        <time>2016-07-15T08:33:34.000Z</time>
      </trkpt>
      <trkpt lat="44.55752" lon="6.16525">
        <ele>948.79998779297</ele>
        <time>2016-07-15T08:33:42.000Z</time>
      </trkpt>
      <trkpt lat="44.55749" lon="6.16523">
        <ele>949.59997558594</ele>
        <time>2016-07-15T08:33:45.000Z</time>
      </trkpt>
      <trkpt lat="44.55751" lon="6.16511">
        <ele>951.20001220703</ele>
        <time>2016-07-15T08:33:52.000Z</time>
      </trkpt>
      <trkpt lat="44.55752" lon="6.16511">
        <ele>951.20001220703</ele>
        <time>2016-07-15T08:33:53.000Z</time>
      </trkpt>
      <trkpt lat="44.55763" lon="6.16506">
        <ele>951</ele>
        <time>2016-07-15T08:34:02.000Z</time>
      </trkpt>
      <trkpt lat="44.55773" lon="6.16503">
        <ele>951</ele>
        <time>2016-07-15T08:34:09.000Z</time>
      </trkpt>
      <trkpt lat="44.55779" lon="6.16488">
        <ele>952.79998779297</ele>
        <time>2016-07-15T08:34:18.000Z</time>
      </trkpt>
      <trkpt lat="44.55773" lon="6.16475">
        <ele>955</ele>
        <time>2016-07-15T08:34:27.000Z</time>
      </trkpt>
      <trkpt lat="44.55762" lon="6.16472">
        <ele>956.20001220703</ele>
        <time>2016-07-15T08:34:35.000Z</time>
      </trkpt>
      <trkpt lat="44.55753" lon="6.16471">
        <ele>956.79998779297</ele>
        <time>2016-07-15T08:34:42.000Z</time>
      </trkpt>
      <trkpt lat="44.5574" lon="6.16466">
        <ele>958.20001220703</ele>
        <time>2016-07-15T08:34:52.000Z</time>
      </trkpt>
      <trkpt lat="44.55735" lon="6.16458">
        <ele>959.40002441406</ele>
        <time>2016-07-15T08:34:59.000Z</time>
      </trkpt>
      <trkpt lat="44.55731" lon="6.16441">
        <ele>961.40002441406</ele>
        <time>2016-07-15T08:35:09.000Z</time>
      </trkpt>
      <trkpt lat="44.55729" lon="6.16426">
        <ele>963</ele>
        <time>2016-07-15T08:35:18.000Z</time>
      </trkpt>
      <trkpt lat="44.55727" lon="6.16407">
        <ele>964.20001220703</ele>
        <time>2016-07-15T08:35:28.000Z</time>
      </trkpt>
      <trkpt lat="44.55727" lon="6.16389">
        <ele>965.20001220703</ele>
        <time>2016-07-15T08:35:36.000Z</time>
      </trkpt>
      <trkpt lat="44.5573" lon="6.16367">
        <ele>967.20001220703</ele>
        <time>2016-07-15T08:35:47.000Z</time>
      </trkpt>
      <trkpt lat="44.55734" lon="6.16349">
        <ele>968.40002441406</ele>
        <time>2016-07-15T08:35:57.000Z</time>
      </trkpt>
      <trkpt lat="44.55731" lon="6.16338">
        <ele>970</ele>
        <time>2016-07-15T08:36:04.000Z</time>
      </trkpt>
      <trkpt lat="44.55715" lon="6.16341">
        <ele>972</ele>
        <time>2016-07-15T08:36:17.000Z</time>
      </trkpt>
      <trkpt lat="44.55704" lon="6.16344">
        <ele>973</ele>
        <time>2016-07-15T08:36:26.000Z</time>
      </trkpt>
      <trkpt lat="44.55691" lon="6.16349">
        <ele>975</ele>
        <time>2016-07-15T08:36:36.000Z</time>
      </trkpt>
      <trkpt lat="44.55684" lon="6.16355">
        <ele>976</ele>
        <time>2016-07-15T08:36:42.000Z</time>
      </trkpt>
      <trkpt lat="44.55673" lon="6.16364">
        <ele>977.20001220703</ele>
        <time>2016-07-15T08:36:51.000Z</time>
      </trkpt>
      <trkpt lat="44.5566" lon="6.16376">
        <ele>979.20001220703</ele>
        <time>2016-07-15T08:37:03.000Z</time>
      </trkpt>
      <trkpt lat="44.55644" lon="6.16388">
        <ele>981.59997558594</ele>
        <time>2016-07-15T08:37:16.000Z</time>
      </trkpt>
      <trkpt lat="44.55628" lon="6.16401">
        <ele>984.20001220703</ele>
        <time>2016-07-15T08:37:29.000Z</time>
      </trkpt>
      <trkpt lat="44.55621" lon="6.16407">
        <ele>984.40002441406</ele>
        <time>2016-07-15T08:37:35.000Z</time>
      </trkpt>
      <trkpt lat="44.55616" lon="6.1641">
        <ele>985</ele>
        <time>2016-07-15T08:37:39.000Z</time>
      </trkpt>
      <trkpt lat="44.55606" lon="6.16423">
        <ele>984.59997558594</ele>
        <time>2016-07-15T08:37:49.000Z</time>
      </trkpt>
      <trkpt lat="44.55596" lon="6.16434">
        <ele>984.40002441406</ele>
        <time>2016-07-15T08:37:58.000Z</time>
      </trkpt>
      <trkpt lat="44.55585" lon="6.16446">
        <ele>984.40002441406</ele>
        <time>2016-07-15T08:38:08.000Z</time>
      </trkpt>
      <trkpt lat="44.55558" lon="6.16473">
        <ele>984.79998779297</ele>
        <time>2016-07-15T08:38:33.000Z</time>
      </trkpt>
      <trkpt lat="44.55544" lon="6.16481">
        <ele>985.79998779297</ele>
        <time>2016-07-15T08:38:44.000Z</time>
      </trkpt>
      <trkpt lat="44.55536" lon="6.16486">
        <ele>986.59997558594</ele>
        <time>2016-07-15T08:38:51.000Z</time>
      </trkpt>
      <trkpt lat="44.55535" lon="6.16487">
        <ele>986.79998779297</ele>
        <time>2016-07-15T08:38:52.000Z</time>
      </trkpt>
      <trkpt lat="44.5553" lon="6.1649">
        <ele>987</ele>
        <time>2016-07-15T08:38:56.000Z</time>
      </trkpt>
      <trkpt lat="44.55518" lon="6.16491">
        <ele>988</ele>
        <time>2016-07-15T08:39:05.000Z</time>
      </trkpt>
      <trkpt lat="44.55509" lon="6.16494">
        <ele>988.59997558594</ele>
        <time>2016-07-15T08:39:12.000Z</time>
      </trkpt>
      <trkpt lat="44.55498" lon="6.16494">
        <ele>989.59997558594</ele>
        <time>2016-07-15T08:39:20.000Z</time>
      </trkpt>
      <trkpt lat="44.55478" lon="6.16489">
        <ele>992</ele>
        <time>2016-07-15T08:39:34.000Z</time>
      </trkpt>
      <trkpt lat="44.55465" lon="6.16485">
        <ele>993.79998779297</ele>
        <time>2016-07-15T08:39:44.000Z</time>
      </trkpt>
      <trkpt lat="44.55462" lon="6.16483">
        <ele>994.20001220703</ele>
        <time>2016-07-15T08:39:47.000Z</time>
      </trkpt>
      <trkpt lat="44.55455" lon="6.16483">
        <ele>995.20001220703</ele>
        <time>2016-07-15T08:39:52.000Z</time>
      </trkpt>
      <trkpt lat="44.55436" lon="6.16482">
        <ele>996.59997558594</ele>
        <time>2016-07-15T08:40:05.000Z</time>
      </trkpt>
      <trkpt lat="44.55417" lon="6.16482">
        <ele>997.79998779297</ele>
        <time>2016-07-15T08:40:18.000Z</time>
      </trkpt>
      <trkpt lat="44.55403" lon="6.16479">
        <ele>998.79998779297</ele>
        <time>2016-07-15T08:40:28.000Z</time>
      </trkpt>
      <trkpt lat="44.55391" lon="6.16476">
        <ele>999.79998779297</ele>
        <time>2016-07-15T08:40:37.000Z</time>
      </trkpt>
      <trkpt lat="44.55385" lon="6.16474">
        <ele>1000.4000244141</ele>
        <time>2016-07-15T08:40:42.000Z</time>
      </trkpt>
      <trkpt lat="44.55379" lon="6.1647">
        <ele>1001.200012207</ele>
        <time>2016-07-15T08:40:47.000Z</time>
      </trkpt>
      <trkpt lat="44.5537" lon="6.16464">
        <ele>1002.4000244141</ele>
        <time>2016-07-15T08:40:55.000Z</time>
      </trkpt>
      <trkpt lat="44.55369" lon="6.16463">
        <ele>1002.5999755859</ele>
        <time>2016-07-15T08:40:56.000Z</time>
      </trkpt>
      <trkpt lat="44.55359" lon="6.16462">
        <ele>1002</ele>
        <time>2016-07-15T08:41:03.000Z</time>
      </trkpt>
      <trkpt lat="44.55346" lon="6.16456">
        <ele>1001.5999755859</ele>
        <time>2016-07-15T08:41:12.000Z</time>
      </trkpt>
      <trkpt lat="44.55336" lon="6.1645">
        <ele>1001.799987793</ele>
        <time>2016-07-15T08:41:20.000Z</time>
      </trkpt>
      <trkpt lat="44.55335" lon="6.1645">
        <ele>1001.799987793</ele>
        <time>2016-07-15T08:41:21.000Z</time>
      </trkpt>
      <trkpt lat="44.55334" lon="6.16449">
        <ele>1001.799987793</ele>
        <time>2016-07-15T08:41:34.000Z</time>
      </trkpt>
      <trkpt lat="44.55331" lon="6.16442">
        <ele>1001.799987793</ele>
        <time>2016-07-15T08:41:46.000Z</time>
      </trkpt>
      <trkpt lat="44.55329" lon="6.16424">
        <ele>1003.5999755859</ele>
        <time>2016-07-15T08:41:56.000Z</time>
      </trkpt>
      <trkpt lat="44.55327" lon="6.16411">
        <ele>1004.799987793</ele>
        <time>2016-07-15T08:42:04.000Z</time>
      </trkpt>
      <trkpt lat="44.55327" lon="6.16379">
        <ele>1007</ele>
        <time>2016-07-15T08:42:21.000Z</time>
      </trkpt>
      <trkpt lat="44.55329" lon="6.1636">
        <ele>1007.5999755859</ele>
        <time>2016-07-15T08:42:31.000Z</time>
      </trkpt>
      <trkpt lat="44.55335" lon="6.16347">
        <ele>1008.4000244141</ele>
        <time>2016-07-15T08:42:39.000Z</time>
      </trkpt>
      <trkpt lat="44.55341" lon="6.16335">
        <ele>1009.200012207</ele>
        <time>2016-07-15T08:42:47.000Z</time>
      </trkpt>
      <trkpt lat="44.55346" lon="6.16321">
        <ele>1010</ele>
        <time>2016-07-15T08:42:55.000Z</time>
      </trkpt>
      <trkpt lat="44.55351" lon="6.1631">
        <ele>1010.5999755859</ele>
        <time>2016-07-15T08:43:02.000Z</time>
      </trkpt>
      <trkpt lat="44.55357" lon="6.16301">
        <ele>1011.200012207</ele>
        <time>2016-07-15T08:43:09.000Z</time>
      </trkpt>
      <trkpt lat="44.55363" lon="6.1629">
        <ele>1010.799987793</ele>
        <time>2016-07-15T08:43:16.000Z</time>
      </trkpt>
      <trkpt lat="44.55363" lon="6.16289">
        <ele>1010.799987793</ele>
        <time>2016-07-15T08:43:26.000Z</time>
      </trkpt>
      <trkpt lat="44.55366" lon="6.16285">
        <ele>1010.5999755859</ele>
        <time>2016-07-15T08:43:32.000Z</time>
      </trkpt>
      <trkpt lat="44.55371" lon="6.16277">
        <ele>1010.799987793</ele>
        <time>2016-07-15T08:43:39.000Z</time>
      </trkpt>
      <trkpt lat="44.55371" lon="6.16276">
        <ele>1010.799987793</ele>
        <time>2016-07-15T08:43:49.000Z</time>
      </trkpt>
      <trkpt lat="44.55375" lon="6.16264">
        <ele>1010.5999755859</ele>
        <time>2016-07-15T08:45:22.000Z</time>
      </trkpt>
      <trkpt lat="44.55382" lon="6.16253">
        <ele>1010.799987793</ele>
        <time>2016-07-15T08:45:30.000Z</time>
      </trkpt>
      <trkpt lat="44.55386" lon="6.16237">
        <ele>1010.799987793</ele>
        <time>2016-07-15T08:45:38.000Z</time>
      </trkpt>
      <trkpt lat="44.55392" lon="6.16226">
        <ele>1011.4000244141</ele>
        <time>2016-07-15T08:45:45.000Z</time>
      </trkpt>
      <trkpt lat="44.55399" lon="6.16212">
        <ele>1012</ele>
        <time>2016-07-15T08:45:53.000Z</time>
      </trkpt>
      <trkpt lat="44.55401" lon="6.16203">
        <ele>1012.200012207</ele>
        <time>2016-07-15T08:45:58.000Z</time>
      </trkpt>
      <trkpt lat="44.55409" lon="6.16194">
        <ele>1013.200012207</ele>
        <time>2016-07-15T08:46:05.000Z</time>
      </trkpt>
      <trkpt lat="44.55413" lon="6.16178">
        <ele>1013.4000244141</ele>
        <time>2016-07-15T08:46:14.000Z</time>
      </trkpt>
      <trkpt lat="44.55416" lon="6.16158">
        <ele>1013.200012207</ele>
        <time>2016-07-15T08:46:24.000Z</time>
      </trkpt>
      <trkpt lat="44.5542" lon="6.16148">
        <ele>1013.5999755859</ele>
        <time>2016-07-15T08:46:32.000Z</time>
      </trkpt>
      <trkpt lat="44.55419" lon="6.16139">
        <ele>1013.4000244141</ele>
        <time>2016-07-15T08:46:38.000Z</time>
      </trkpt>
      <trkpt lat="44.55418" lon="6.16127">
        <ele>1013.4000244141</ele>
        <time>2016-07-15T08:46:45.000Z</time>
      </trkpt>
      <trkpt lat="44.55418" lon="6.16126">
        <ele>1013.200012207</ele>
        <time>2016-07-15T08:46:46.000Z</time>
      </trkpt>
      <trkpt lat="44.55416" lon="6.16122">
        <ele>1013</ele>
        <time>2016-07-15T08:46:50.000Z</time>
      </trkpt>
      <trkpt lat="44.55414" lon="6.16122">
        <ele>1012.5999755859</ele>
        <time>2016-07-15T08:46:57.000Z</time>
      </trkpt>
      <trkpt lat="44.55413" lon="6.16127">
        <ele>1012.4000244141</ele>
        <time>2016-07-15T08:47:13.000Z</time>
      </trkpt>
      <trkpt lat="44.5541" lon="6.16129">
        <ele>1012.200012207</ele>
        <time>2016-07-15T08:47:16.000Z</time>
      </trkpt>
      <trkpt lat="44.55406" lon="6.16128">
        <ele>1011.5999755859</ele>
        <time>2016-07-15T08:47:20.000Z</time>
      </trkpt>
      <trkpt lat="44.55393" lon="6.16128">
        <ele>1009.5999755859</ele>
        <time>2016-07-15T08:47:30.000Z</time>
      </trkpt>
      <trkpt lat="44.55382" lon="6.16125">
        <ele>1008</ele>
        <time>2016-07-15T08:47:39.000Z</time>
      </trkpt>
      <trkpt lat="44.5537" lon="6.16122">
        <ele>1006.200012207</ele>
        <time>2016-07-15T08:47:48.000Z</time>
      </trkpt>
      <trkpt lat="44.55356" lon="6.16122">
        <ele>1006.799987793</ele>
        <time>2016-07-15T08:47:55.000Z</time>
      </trkpt>
      <trkpt lat="44.55336" lon="6.16119">
        <ele>1007.5999755859</ele>
        <time>2016-07-15T08:48:02.000Z</time>
      </trkpt>
      <trkpt lat="44.55315" lon="6.16118">
        <ele>1007.5999755859</ele>
        <time>2016-07-15T08:48:09.000Z</time>
      </trkpt>
      <trkpt lat="44.55297" lon="6.16115">
        <ele>1007.799987793</ele>
        <time>2016-07-15T08:48:15.000Z</time>
      </trkpt>
      <trkpt lat="44.55278" lon="6.16112">
        <ele>1008.5999755859</ele>
        <time>2016-07-15T08:48:21.000Z</time>
      </trkpt>
      <trkpt lat="44.55261" lon="6.16107">
        <ele>1010.799987793</ele>
        <time>2016-07-15T08:48:27.000Z</time>
      </trkpt>
      <trkpt lat="44.55249" lon="6.16105">
        <ele>1012.200012207</ele>
        <time>2016-07-15T08:48:32.000Z</time>
      </trkpt>
      <trkpt lat="44.55239" lon="6.16102">
        <ele>1013.4000244141</ele>
        <time>2016-07-15T08:48:38.000Z</time>
      </trkpt>
      <trkpt lat="44.55231" lon="6.161">
        <ele>1014.5999755859</ele>
        <time>2016-07-15T08:48:44.000Z</time>
      </trkpt>
      <trkpt lat="44.55218" lon="6.16098">
        <ele>1016.4000244141</ele>
        <time>2016-07-15T08:48:53.000Z</time>
      </trkpt>
      <trkpt lat="44.5521" lon="6.16096">
        <ele>1017.5999755859</ele>
        <time>2016-07-15T08:48:59.000Z</time>
      </trkpt>
      <trkpt lat="44.552" lon="6.16093">
        <ele>1019</ele>
        <time>2016-07-15T08:49:06.000Z</time>
      </trkpt>
      <trkpt lat="44.55188" lon="6.1609">
        <ele>1021.799987793</ele>
        <time>2016-07-15T08:49:15.000Z</time>
      </trkpt>
      <trkpt lat="44.55169" lon="6.16088">
        <ele>1025.8000488281</ele>
        <time>2016-07-15T08:49:28.000Z</time>
      </trkpt>
      <trkpt lat="44.55156" lon="6.16086">
        <ele>1028.8000488281</ele>
        <time>2016-07-15T08:49:38.000Z</time>
      </trkpt>
      <trkpt lat="44.55144" lon="6.16081">
        <ele>1031.5999755859</ele>
        <time>2016-07-15T08:49:48.000Z</time>
      </trkpt>
      <trkpt lat="44.55135" lon="6.16071">
        <ele>1033.8000488281</ele>
        <time>2016-07-15T08:49:57.000Z</time>
      </trkpt>
      <trkpt lat="44.55132" lon="6.16061">
        <ele>1034.8000488281</ele>
        <time>2016-07-15T08:50:04.000Z</time>
      </trkpt>
      <trkpt lat="44.55128" lon="6.16059">
        <ele>1035.5999755859</ele>
        <time>2016-07-15T08:50:08.000Z</time>
      </trkpt>
      <trkpt lat="44.55123" lon="6.16058">
        <ele>1036.8000488281</ele>
        <time>2016-07-15T08:50:12.000Z</time>
      </trkpt>
      <trkpt lat="44.55115" lon="6.16062">
        <ele>1038.5999755859</ele>
        <time>2016-07-15T08:50:20.000Z</time>
      </trkpt>
      <trkpt lat="44.55106" lon="6.16064">
        <ele>1040.8000488281</ele>
        <time>2016-07-15T08:50:28.000Z</time>
      </trkpt>
      <trkpt lat="44.55097" lon="6.16068">
        <ele>1043</ele>
        <time>2016-07-15T08:50:36.000Z</time>
      </trkpt>
      <trkpt lat="44.55086" lon="6.16072">
        <ele>1045.5999755859</ele>
        <time>2016-07-15T08:50:45.000Z</time>
      </trkpt>
      <trkpt lat="44.55074" lon="6.16072">
        <ele>1048.5999755859</ele>
        <time>2016-07-15T08:50:55.000Z</time>
      </trkpt>
      <trkpt lat="44.55062" lon="6.16069">
        <ele>1051.4000244141</ele>
        <time>2016-07-15T08:51:04.000Z</time>
      </trkpt>
      <trkpt lat="44.55059" lon="6.16066">
        <ele>1052</ele>
        <time>2016-07-15T08:51:11.000Z</time>
      </trkpt>
      <trkpt lat="44.5505" lon="6.1606">
        <ele>1054.1999511719</ele>
        <time>2016-07-15T08:51:32.000Z</time>
      </trkpt>
      <trkpt lat="44.55043" lon="6.16053">
        <ele>1055</ele>
        <time>2016-07-15T08:51:39.000Z</time>
      </trkpt>
      <trkpt lat="44.55038" lon="6.16046">
        <ele>1055.1999511719</ele>
        <time>2016-07-15T08:51:45.000Z</time>
      </trkpt>
      <trkpt lat="44.55028" lon="6.16036">
        <ele>1055.1999511719</ele>
        <time>2016-07-15T08:51:55.000Z</time>
      </trkpt>
      <trkpt lat="44.5502" lon="6.1603">
        <ele>1054.5999755859</ele>
        <time>2016-07-15T08:52:02.000Z</time>
      </trkpt>
      <trkpt lat="44.55019" lon="6.16029">
        <ele>1054.4000244141</ele>
        <time>2016-07-15T08:52:03.000Z</time>
      </trkpt>
      <trkpt lat="44.5499" lon="6.16011">
        <ele>1053</ele>
        <time>2016-07-15T08:52:27.000Z</time>
      </trkpt>
      <trkpt lat="44.5498" lon="6.16006">
        <ele>1052.5999755859</ele>
        <time>2016-07-15T08:52:35.000Z</time>
      </trkpt>
      <trkpt lat="44.54972" lon="6.16004">
        <ele>1052.5999755859</ele>
        <time>2016-07-15T08:52:42.000Z</time>
      </trkpt>
      <trkpt lat="44.54965" lon="6.16002">
        <ele>1052.4000244141</ele>
        <time>2016-07-15T08:52:48.000Z</time>
      </trkpt>
      <trkpt lat="44.54959" lon="6.16003">
        <ele>1052.5999755859</ele>
        <time>2016-07-15T08:52:52.000Z</time>
      </trkpt>
      <trkpt lat="44.54949" lon="6.16004">
        <ele>1052.5999755859</ele>
        <time>2016-07-15T08:53:00.000Z</time>
      </trkpt>
      <trkpt lat="44.54925" lon="6.16017">
        <ele>1051.8000488281</ele>
        <time>2016-07-15T08:53:18.000Z</time>
      </trkpt>
      <trkpt lat="44.54912" lon="6.16025">
        <ele>1051.4000244141</ele>
        <time>2016-07-15T08:53:28.000Z</time>
      </trkpt>
      <trkpt lat="44.54899" lon="6.1603">
        <ele>1050.1999511719</ele>
        <time>2016-07-15T08:53:37.000Z</time>
      </trkpt>
      <trkpt lat="44.54887" lon="6.16035">
        <ele>1049.1999511719</ele>
        <time>2016-07-15T08:53:45.000Z</time>
      </trkpt>
      <trkpt lat="44.54874" lon="6.16038">
        <ele>1047.8000488281</ele>
        <time>2016-07-15T08:53:54.000Z</time>
      </trkpt>
      <trkpt lat="44.54863" lon="6.1604">
        <ele>1047.1999511719</ele>
        <time>2016-07-15T08:54:02.000Z</time>
      </trkpt>
      <trkpt lat="44.54852" lon="6.16044">
        <ele>1047.4000244141</ele>
        <time>2016-07-15T08:54:10.000Z</time>
      </trkpt>
      <trkpt lat="44.54838" lon="6.16049">
        <ele>1047.4000244141</ele>
        <time>2016-07-15T08:54:20.000Z</time>
      </trkpt>
      <trkpt lat="44.54824" lon="6.16056">
        <ele>1047.5999755859</ele>
        <time>2016-07-15T08:54:30.000Z</time>
      </trkpt>
      <trkpt lat="44.54814" lon="6.16065">
        <ele>1048</ele>
        <time>2016-07-15T08:54:38.000Z</time>
      </trkpt>
      <trkpt lat="44.54803" lon="6.16075">
        <ele>1048.8000488281</ele>
        <time>2016-07-15T08:54:47.000Z</time>
      </trkpt>
      <trkpt lat="44.54791" lon="6.16087">
        <ele>1049.4000244141</ele>
        <time>2016-07-15T08:54:57.000Z</time>
      </trkpt>
      <trkpt lat="44.54781" lon="6.16097">
        <ele>1050.5999755859</ele>
        <time>2016-07-15T08:55:06.000Z</time>
      </trkpt>
      <trkpt lat="44.54768" lon="6.16107">
        <ele>1053.4000244141</ele>
        <time>2016-07-15T08:55:16.000Z</time>
      </trkpt>
      <trkpt lat="44.54755" lon="6.16114">
        <ele>1056.4000244141</ele>
        <time>2016-07-15T08:55:26.000Z</time>
      </trkpt>
      <trkpt lat="44.5474" lon="6.16124">
        <ele>1057.4000244141</ele>
        <time>2016-07-15T08:55:37.000Z</time>
      </trkpt>
      <trkpt lat="44.54728" lon="6.16129">
        <ele>1058.1999511719</ele>
        <time>2016-07-15T08:55:46.000Z</time>
      </trkpt>
      <trkpt lat="44.54719" lon="6.16134">
        <ele>1058.8000488281</ele>
        <time>2016-07-15T08:55:53.000Z</time>
      </trkpt>
      <trkpt lat="44.54708" lon="6.16142">
        <ele>1059.4000244141</ele>
        <time>2016-07-15T08:56:02.000Z</time>
      </trkpt>
      <trkpt lat="44.54675" lon="6.16175">
        <ele>1063.5999755859</ele>
        <time>2016-07-15T08:56:34.000Z</time>
      </trkpt>
      <trkpt lat="44.54664" lon="6.16184">
        <ele>1065</ele>
        <time>2016-07-15T08:56:43.000Z</time>
      </trkpt>
      <trkpt lat="44.54653" lon="6.16194">
        <ele>1065.5999755859</ele>
        <time>2016-07-15T08:56:53.000Z</time>
      </trkpt>
      <trkpt lat="44.5464" lon="6.16199">
        <ele>1066</ele>
        <time>2016-07-15T08:57:03.000Z</time>
      </trkpt>
      <trkpt lat="44.54631" lon="6.16196">
        <ele>1066.4000244141</ele>
        <time>2016-07-15T08:57:10.000Z</time>
      </trkpt>
      <trkpt lat="44.54618" lon="6.16192">
        <ele>1067.1999511719</ele>
        <time>2016-07-15T08:57:20.000Z</time>
      </trkpt>
      <trkpt lat="44.54601" lon="6.16191">
        <ele>1068</ele>
        <time>2016-07-15T08:57:32.000Z</time>
      </trkpt>
      <trkpt lat="44.54587" lon="6.16192">
        <ele>1068.4000244141</ele>
        <time>2016-07-15T08:57:43.000Z</time>
      </trkpt>
      <trkpt lat="44.54578" lon="6.16189">
        <ele>1068.8000488281</ele>
        <time>2016-07-15T08:57:50.000Z</time>
      </trkpt>
      <trkpt lat="44.54573" lon="6.16183">
        <ele>1069.1999511719</ele>
        <time>2016-07-15T08:57:57.000Z</time>
      </trkpt>
      <trkpt lat="44.5457" lon="6.16179">
        <ele>1069.4000244141</ele>
        <time>2016-07-15T08:58:03.000Z</time>
      </trkpt>
      <trkpt lat="44.54566" lon="6.16173">
        <ele>1069.8000488281</ele>
        <time>2016-07-15T08:58:29.000Z</time>
      </trkpt>
      <trkpt lat="44.54558" lon="6.16164">
        <ele>1070.4000244141</ele>
        <time>2016-07-15T08:58:37.000Z</time>
      </trkpt>
      <trkpt lat="44.54552" lon="6.16154">
        <ele>1071</ele>
        <time>2016-07-15T08:58:45.000Z</time>
      </trkpt>
      <trkpt lat="44.54544" lon="6.16145">
        <ele>1071.5999755859</ele>
        <time>2016-07-15T08:58:54.000Z</time>
      </trkpt>
      <trkpt lat="44.54534" lon="6.16144">
        <ele>1072</ele>
        <time>2016-07-15T08:59:01.000Z</time>
      </trkpt>
      <trkpt lat="44.54521" lon="6.16152">
        <ele>1071.8000488281</ele>
        <time>2016-07-15T08:59:11.000Z</time>
      </trkpt>
      <trkpt lat="44.54509" lon="6.16158">
        <ele>1071.8000488281</ele>
        <time>2016-07-15T08:59:20.000Z</time>
      </trkpt>
      <trkpt lat="44.54499" lon="6.16163">
        <ele>1071.8000488281</ele>
        <time>2016-07-15T08:59:27.000Z</time>
      </trkpt>
      <trkpt lat="44.54488" lon="6.16168">
        <ele>1071.8000488281</ele>
        <time>2016-07-15T08:59:35.000Z</time>
      </trkpt>
      <trkpt lat="44.54476" lon="6.1617">
        <ele>1071.8000488281</ele>
        <time>2016-07-15T08:59:44.000Z</time>
      </trkpt>
      <trkpt lat="44.54459" lon="6.16168">
        <ele>1071</ele>
        <time>2016-07-15T08:59:56.000Z</time>
      </trkpt>
      <trkpt lat="44.54445" lon="6.16163">
        <ele>1070.8000488281</ele>
        <time>2016-07-15T09:00:07.000Z</time>
      </trkpt>
      <trkpt lat="44.5443" lon="6.16158">
        <ele>1071</ele>
        <time>2016-07-15T09:00:18.000Z</time>
      </trkpt>
      <trkpt lat="44.54414" lon="6.16155">
        <ele>1071</ele>
        <time>2016-07-15T09:00:30.000Z</time>
      </trkpt>
      <trkpt lat="44.54405" lon="6.16153">
        <ele>1071</ele>
        <time>2016-07-15T09:00:38.000Z</time>
      </trkpt>
      <trkpt lat="44.54395" lon="6.16151">
        <ele>1071</ele>
        <time>2016-07-15T09:00:45.000Z</time>
      </trkpt>
      <trkpt lat="44.54381" lon="6.16149">
        <ele>1070.8000488281</ele>
        <time>2016-07-15T09:00:55.000Z</time>
      </trkpt>
      <trkpt lat="44.54374" lon="6.16148">
        <ele>1070.8000488281</ele>
        <time>2016-07-15T09:01:00.000Z</time>
      </trkpt>
      <trkpt lat="44.5436" lon="6.16148">
        <ele>1069.4000244141</ele>
        <time>2016-07-15T09:01:10.000Z</time>
      </trkpt>
      <trkpt lat="44.54347" lon="6.16147">
        <ele>1067.1999511719</ele>
        <time>2016-07-15T09:01:19.000Z</time>
      </trkpt>
      <trkpt lat="44.54329" lon="6.16132">
        <ele>1065.5999755859</ele>
        <time>2016-07-15T09:01:35.000Z</time>
      </trkpt>
      <trkpt lat="44.54324" lon="6.16125">
        <ele>1065.5999755859</ele>
        <time>2016-07-15T09:01:43.000Z</time>
      </trkpt>
      <trkpt lat="44.5432" lon="6.16118">
        <ele>1065.5999755859</ele>
        <time>2016-07-15T09:01:54.000Z</time>
      </trkpt>
      <trkpt lat="44.54313" lon="6.16102">
        <ele>1066</ele>
        <time>2016-07-15T09:02:04.000Z</time>
      </trkpt>
      <trkpt lat="44.54305" lon="6.16085">
        <ele>1066.1999511719</ele>
        <time>2016-07-15T09:02:14.000Z</time>
      </trkpt>
      <trkpt lat="44.54299" lon="6.16067">
        <ele>1066.8000488281</ele>
        <time>2016-07-15T09:02:24.000Z</time>
      </trkpt>
      <trkpt lat="44.54292" lon="6.16055">
        <ele>1066.8000488281</ele>
        <time>2016-07-15T09:02:32.000Z</time>
      </trkpt>
      <trkpt lat="44.54286" lon="6.16047">
        <ele>1066.4000244141</ele>
        <time>2016-07-15T09:02:38.000Z</time>
      </trkpt>
      <trkpt lat="44.54275" lon="6.16034">
        <ele>1066.1999511719</ele>
        <time>2016-07-15T09:02:48.000Z</time>
      </trkpt>
      <trkpt lat="44.54268" lon="6.16028">
        <ele>1066</ele>
        <time>2016-07-15T09:02:54.000Z</time>
      </trkpt>
      <trkpt lat="44.54261" lon="6.16019">
        <ele>1065.8000488281</ele>
        <time>2016-07-15T09:03:01.000Z</time>
      </trkpt>
      <trkpt lat="44.54253" lon="6.16004">
        <ele>1066</ele>
        <time>2016-07-15T09:03:10.000Z</time>
      </trkpt>
      <trkpt lat="44.54245" lon="6.15988">
        <ele>1066.4000244141</ele>
        <time>2016-07-15T09:03:20.000Z</time>
      </trkpt>
      <trkpt lat="44.54239" lon="6.15977">
        <ele>1066.5999755859</ele>
        <time>2016-07-15T09:03:27.000Z</time>
      </trkpt>
      <trkpt lat="44.54232" lon="6.15966">
        <ele>1066.8000488281</ele>
        <time>2016-07-15T09:03:36.000Z</time>
      </trkpt>
      <trkpt lat="44.54222" lon="6.15956">
        <ele>1066.5999755859</ele>
        <time>2016-07-15T09:03:45.000Z</time>
      </trkpt>
      <trkpt lat="44.54209" lon="6.1595">
        <ele>1065.5999755859</ele>
        <time>2016-07-15T09:03:55.000Z</time>
      </trkpt>
      <trkpt lat="44.5419" lon="6.15947">
        <ele>1064</ele>
        <time>2016-07-15T09:04:08.000Z</time>
      </trkpt>
      <trkpt lat="44.54173" lon="6.15941">
        <ele>1063.1999511719</ele>
        <time>2016-07-15T09:04:20.000Z</time>
      </trkpt>
      <trkpt lat="44.54154" lon="6.1593">
        <ele>1062.5999755859</ele>
        <time>2016-07-15T09:04:35.000Z</time>
      </trkpt>
      <trkpt lat="44.54139" lon="6.15921">
        <ele>1062.1999511719</ele>
        <time>2016-07-15T09:04:46.000Z</time>
      </trkpt>
      <trkpt lat="44.54125" lon="6.15912">
        <ele>1062</ele>
        <time>2016-07-15T09:04:56.000Z</time>
      </trkpt>
      <trkpt lat="44.54115" lon="6.15905">
        <ele>1062</ele>
        <time>2016-07-15T09:05:04.000Z</time>
      </trkpt>
      <trkpt lat="44.54102" lon="6.15894">
        <ele>1062.5999755859</ele>
        <time>2016-07-15T09:05:14.000Z</time>
      </trkpt>
      <trkpt lat="44.54099" lon="6.15892">
        <ele>1062.8000488281</ele>
        <time>2016-07-15T09:05:16.000Z</time>
      </trkpt>
      <trkpt lat="44.54091" lon="6.15886">
        <ele>1063</ele>
        <time>2016-07-15T09:05:22.000Z</time>
      </trkpt>
      <trkpt lat="44.54078" lon="6.15876">
        <ele>1063.4000244141</ele>
        <time>2016-07-15T09:05:31.000Z</time>
      </trkpt>
      <trkpt lat="44.54062" lon="6.15864">
        <ele>1063.8000488281</ele>
        <time>2016-07-15T09:05:43.000Z</time>
      </trkpt>
      <trkpt lat="44.54051" lon="6.15854">
        <ele>1064.4000244141</ele>
        <time>2016-07-15T09:05:52.000Z</time>
      </trkpt>
      <trkpt lat="44.5404" lon="6.15839">
        <ele>1065.1999511719</ele>
        <time>2016-07-15T09:06:02.000Z</time>
      </trkpt>
      <trkpt lat="44.54033" lon="6.15825">
        <ele>1066</ele>
        <time>2016-07-15T09:06:10.000Z</time>
      </trkpt>
      <trkpt lat="44.54025" lon="6.15812">
        <ele>1066.4000244141</ele>
        <time>2016-07-15T09:06:19.000Z</time>
      </trkpt>
      <trkpt lat="44.54017" lon="6.15798">
        <ele>1067</ele>
        <time>2016-07-15T09:06:28.000Z</time>
      </trkpt>
      <trkpt lat="44.54009" lon="6.15786">
        <ele>1067.5999755859</ele>
        <time>2016-07-15T09:06:36.000Z</time>
      </trkpt>
      <trkpt lat="44.53999" lon="6.15772">
        <ele>1067.8000488281</ele>
        <time>2016-07-15T09:06:46.000Z</time>
      </trkpt>
      <trkpt lat="44.53998" lon="6.15771">
        <ele>1068</ele>
        <time>2016-07-15T09:06:47.000Z</time>
      </trkpt>
      <trkpt lat="44.53992" lon="6.15772">
        <ele>1067.8000488281</ele>
        <time>2016-07-15T09:06:53.000Z</time>
      </trkpt>
      <trkpt lat="44.53989" lon="6.15766">
        <ele>1068</ele>
        <time>2016-07-15T09:06:57.000Z</time>
      </trkpt>
      <trkpt lat="44.53979" lon="6.1575">
        <ele>1068.4000244141</ele>
        <time>2016-07-15T09:07:07.000Z</time>
      </trkpt>
      <trkpt lat="44.53969" lon="6.15737">
        <ele>1068.5999755859</ele>
        <time>2016-07-15T09:07:16.000Z</time>
      </trkpt>
      <trkpt lat="44.53956" lon="6.1572">
        <ele>1069</ele>
        <time>2016-07-15T09:07:27.000Z</time>
      </trkpt>
      <trkpt lat="44.53943" lon="6.15703">
        <ele>1069.4000244141</ele>
        <time>2016-07-15T09:07:39.000Z</time>
      </trkpt>
      <trkpt lat="44.53931" lon="6.15688">
        <ele>1069.8000488281</ele>
        <time>2016-07-15T09:07:50.000Z</time>
      </trkpt>
      <trkpt lat="44.53923" lon="6.15679">
        <ele>1070</ele>
        <time>2016-07-15T09:07:58.000Z</time>
      </trkpt>
      <trkpt lat="44.5391" lon="6.1567">
        <ele>1070.1999511719</ele>
        <time>2016-07-15T09:08:08.000Z</time>
      </trkpt>
      <trkpt lat="44.53901" lon="6.15664">
        <ele>1070.4000244141</ele>
        <time>2016-07-15T09:08:15.000Z</time>
      </trkpt>
      <trkpt lat="44.53889" lon="6.15655">
        <ele>1070.5999755859</ele>
        <time>2016-07-15T09:08:24.000Z</time>
      </trkpt>
      <trkpt lat="44.5388" lon="6.15646">
        <ele>1070.8000488281</ele>
        <time>2016-07-15T09:08:32.000Z</time>
      </trkpt>
      <trkpt lat="44.5387" lon="6.15634">
        <ele>1071.8000488281</ele>
        <time>2016-07-15T09:08:41.000Z</time>
      </trkpt>
      <trkpt lat="44.53864" lon="6.15624">
        <ele>1072.8000488281</ele>
        <time>2016-07-15T09:08:48.000Z</time>
      </trkpt>
      <trkpt lat="44.53856" lon="6.15614">
        <ele>1074.1999511719</ele>
        <time>2016-07-15T09:08:56.000Z</time>
      </trkpt>
      <trkpt lat="44.53845" lon="6.15599">
        <ele>1076</ele>
        <time>2016-07-15T09:09:07.000Z</time>
      </trkpt>
      <trkpt lat="44.53836" lon="6.15588">
        <ele>1077.5999755859</ele>
        <time>2016-07-15T09:09:16.000Z</time>
      </trkpt>
      <trkpt lat="44.53825" lon="6.15576">
        <ele>1079.1999511719</ele>
        <time>2016-07-15T09:09:26.000Z</time>
      </trkpt>
      <trkpt lat="44.53814" lon="6.15564">
        <ele>1081</ele>
        <time>2016-07-15T09:09:36.000Z</time>
      </trkpt>
      <trkpt lat="44.53802" lon="6.15548">
        <ele>1082</ele>
        <time>2016-07-15T09:09:48.000Z</time>
      </trkpt>
      <trkpt lat="44.53791" lon="6.15533">
        <ele>1083</ele>
        <time>2016-07-15T09:09:59.000Z</time>
      </trkpt>
      <trkpt lat="44.53781" lon="6.15517">
        <ele>1083.5999755859</ele>
        <time>2016-07-15T09:10:10.000Z</time>
      </trkpt>
      <trkpt lat="44.53767" lon="6.15491">
        <ele>1083.8000488281</ele>
        <time>2016-07-15T09:10:27.000Z</time>
      </trkpt>
      <trkpt lat="44.5376" lon="6.1548">
        <ele>1084</ele>
        <time>2016-07-15T09:10:36.000Z</time>
      </trkpt>
      <trkpt lat="44.53751" lon="6.15468">
        <ele>1084</ele>
        <time>2016-07-15T09:10:45.000Z</time>
      </trkpt>
      <trkpt lat="44.53741" lon="6.15454">
        <ele>1084</ele>
        <time>2016-07-15T09:10:55.000Z</time>
      </trkpt>
      <trkpt lat="44.53731" lon="6.15442">
        <ele>1084</ele>
        <time>2016-07-15T09:11:05.000Z</time>
      </trkpt>
      <trkpt lat="44.53722" lon="6.15434">
        <ele>1084</ele>
        <time>2016-07-15T09:11:12.000Z</time>
      </trkpt>
      <trkpt lat="44.53714" lon="6.15426">
        <ele>1084</ele>
        <time>2016-07-15T09:11:20.000Z</time>
      </trkpt>
      <trkpt lat="44.53702" lon="6.15415">
        <ele>1084</ele>
        <time>2016-07-15T09:11:30.000Z</time>
      </trkpt>
      <trkpt lat="44.53688" lon="6.15401">
        <ele>1082.1999511719</ele>
        <time>2016-07-15T09:11:42.000Z</time>
      </trkpt>
      <trkpt lat="44.53677" lon="6.15385">
        <ele>1081.5999755859</ele>
        <time>2016-07-15T09:11:53.000Z</time>
      </trkpt>
      <trkpt lat="44.53668" lon="6.15368">
        <ele>1082</ele>
        <time>2016-07-15T09:12:04.000Z</time>
      </trkpt>
      <trkpt lat="44.53663" lon="6.15354">
        <ele>1082.4000244141</ele>
        <time>2016-07-15T09:12:12.000Z</time>
      </trkpt>
      <trkpt lat="44.53656" lon="6.15338">
        <ele>1083</ele>
        <time>2016-07-15T09:12:21.000Z</time>
      </trkpt>
      <trkpt lat="44.53649" lon="6.15325">
        <ele>1083.1999511719</ele>
        <time>2016-07-15T09:12:29.000Z</time>
      </trkpt>
      <trkpt lat="44.5364" lon="6.15308">
        <ele>1083.4000244141</ele>
        <time>2016-07-15T09:12:39.000Z</time>
      </trkpt>
      <trkpt lat="44.53631" lon="6.15292">
        <ele>1083.5999755859</ele>
        <time>2016-07-15T09:12:49.000Z</time>
      </trkpt>
      <trkpt lat="44.53621" lon="6.15276">
        <ele>1083.4000244141</ele>
        <time>2016-07-15T09:12:59.000Z</time>
      </trkpt>
      <trkpt lat="44.53611" lon="6.15262">
        <ele>1084.4000244141</ele>
        <time>2016-07-15T09:13:09.000Z</time>
      </trkpt>
      <trkpt lat="44.53602" lon="6.15252">
        <ele>1085.5999755859</ele>
        <time>2016-07-15T09:13:18.000Z</time>
      </trkpt>
      <trkpt lat="44.53594" lon="6.15245">
        <ele>1086.4000244141</ele>
        <time>2016-07-15T09:13:25.000Z</time>
      </trkpt>
      <trkpt lat="44.53582" lon="6.15233">
        <ele>1087.8000488281</ele>
        <time>2016-07-15T09:13:35.000Z</time>
      </trkpt>
      <trkpt lat="44.53574" lon="6.15229">
        <ele>1088.4000244141</ele>
        <time>2016-07-15T09:13:43.000Z</time>
      </trkpt>
      <trkpt lat="44.53574" lon="6.15228">
        <ele>1088.4000244141</ele>
        <time>2016-07-15T09:13:44.000Z</time>
      </trkpt>
      <trkpt lat="44.53573" lon="6.15225">
        <ele>1088.8000488281</ele>
        <time>2016-07-15T09:13:52.000Z</time>
      </trkpt>
      <trkpt lat="44.53572" lon="6.15228">
        <ele>1088.5999755859</ele>
        <time>2016-07-15T09:14:13.000Z</time>
      </trkpt>
      <trkpt lat="44.53571" lon="6.15229">
        <ele>1088.5999755859</ele>
        <time>2016-07-15T09:14:21.000Z</time>
      </trkpt>
      <trkpt lat="44.53573" lon="6.15226">
        <ele>1088.5999755859</ele>
        <time>2016-07-15T09:14:25.000Z</time>
      </trkpt>
      <trkpt lat="44.53573" lon="6.15221">
        <ele>1089</ele>
        <time>2016-07-15T09:14:29.000Z</time>
      </trkpt>
      <trkpt lat="44.53572" lon="6.15223">
        <ele>1088.8000488281</ele>
        <time>2016-07-15T09:14:35.000Z</time>
      </trkpt>
      <trkpt lat="44.53574" lon="6.15224">
        <ele>1088.8000488281</ele>
        <time>2016-07-15T09:14:40.000Z</time>
      </trkpt>
      <trkpt lat="44.53576" lon="6.15221">
        <ele>1088.8000488281</ele>
        <time>2016-07-15T09:14:56.000Z</time>
      </trkpt>
      <trkpt lat="44.53571" lon="6.15222">
        <ele>1089</ele>
        <time>2016-07-15T09:15:13.000Z</time>
      </trkpt>
      <trkpt lat="44.53571" lon="6.1522">
        <ele>1089</ele>
        <time>2016-07-15T09:15:17.000Z</time>
      </trkpt>
      <trkpt lat="44.53568" lon="6.15225">
        <ele>1089</ele>
        <time>2016-07-15T09:15:26.000Z</time>
      </trkpt>
      <trkpt lat="44.53568" lon="6.15226">
        <ele>1088.8000488281</ele>
        <time>2016-07-15T09:15:32.000Z</time>
      </trkpt>
      <trkpt lat="44.53568" lon="6.15227">
        <ele>1088.8000488281</ele>
        <time>2016-07-15T09:16:00.000Z</time>
      </trkpt>
      <trkpt lat="44.53569" lon="6.15223">
        <ele>1089</ele>
        <time>2016-07-15T09:16:07.000Z</time>
      </trkpt>
      <trkpt lat="44.53571" lon="6.15219">
        <ele>1089</ele>
        <time>2016-07-15T09:16:13.000Z</time>
      </trkpt>
      <trkpt lat="44.5357" lon="6.15219">
        <ele>1089.1999511719</ele>
        <time>2016-07-15T09:16:19.000Z</time>
      </trkpt>
      <trkpt lat="44.53571" lon="6.15217">
        <ele>1089.1999511719</ele>
        <time>2016-07-15T09:17:22.000Z</time>
      </trkpt>
      <trkpt lat="44.53571" lon="6.15218">
        <ele>1089.1999511719</ele>
        <time>2016-07-15T09:17:39.000Z</time>
      </trkpt>
      <trkpt lat="44.5357" lon="6.15218">
        <ele>1089.1999511719</ele>
        <time>2016-07-15T09:18:01.000Z</time>
      </trkpt>
      <trkpt lat="44.53571" lon="6.15222">
        <ele>1089</ele>
        <time>2016-07-15T09:18:19.000Z</time>
      </trkpt>
      <trkpt lat="44.53573" lon="6.15214">
        <ele>1089.1999511719</ele>
        <time>2016-07-15T09:18:27.000Z</time>
      </trkpt>
      <trkpt lat="44.53572" lon="6.15199">
        <ele>1090</ele>
        <time>2016-07-15T09:18:35.000Z</time>
      </trkpt>
      <trkpt lat="44.53572" lon="6.15191">
        <ele>1090.4000244141</ele>
        <time>2016-07-15T09:18:39.000Z</time>
      </trkpt>
      <trkpt lat="44.53569" lon="6.15174">
        <ele>1091.4000244141</ele>
        <time>2016-07-15T09:18:48.000Z</time>
      </trkpt>
      <trkpt lat="44.53567" lon="6.1516">
        <ele>1092.1999511719</ele>
        <time>2016-07-15T09:18:56.000Z</time>
      </trkpt>
      <trkpt lat="44.53566" lon="6.15141">
        <ele>1093.4000244141</ele>
        <time>2016-07-15T09:19:06.000Z</time>
      </trkpt>
      <trkpt lat="44.53562" lon="6.15125">
        <ele>1094.4000244141</ele>
        <time>2016-07-15T09:19:15.000Z</time>
      </trkpt>
      <trkpt lat="44.53557" lon="6.15108">
        <ele>1095.5999755859</ele>
        <time>2016-07-15T09:19:24.000Z</time>
      </trkpt>
      <trkpt lat="44.53553" lon="6.15096">
        <ele>1096.4000244141</ele>
        <time>2016-07-15T09:19:32.000Z</time>
      </trkpt>
      <trkpt lat="44.53545" lon="6.1508">
        <ele>1097.5999755859</ele>
        <time>2016-07-15T09:19:42.000Z</time>
      </trkpt>
      <trkpt lat="44.53542" lon="6.15067">
        <ele>1098.5999755859</ele>
        <time>2016-07-15T09:19:50.000Z</time>
      </trkpt>
      <trkpt lat="44.53542" lon="6.1505">
        <ele>1099.5999755859</ele>
        <time>2016-07-15T09:19:58.000Z</time>
      </trkpt>
      <trkpt lat="44.53543" lon="6.15047">
        <ele>1099.8000488281</ele>
        <time>2016-07-15T09:20:00.000Z</time>
      </trkpt>
      <trkpt lat="44.53544" lon="6.15033">
        <ele>1100.5999755859</ele>
        <time>2016-07-15T09:20:07.000Z</time>
      </trkpt>
      <trkpt lat="44.53545" lon="6.14999">
        <ele>1102.5999755859</ele>
        <time>2016-07-15T09:20:25.000Z</time>
      </trkpt>
      <trkpt lat="44.53537" lon="6.14983">
        <ele>1103.5999755859</ele>
        <time>2016-07-15T09:20:35.000Z</time>
      </trkpt>
      <trkpt lat="44.53526" lon="6.14975">
        <ele>1104.8000488281</ele>
        <time>2016-07-15T09:20:45.000Z</time>
      </trkpt>
      <trkpt lat="44.53518" lon="6.14973">
        <ele>1105.4000244141</ele>
        <time>2016-07-15T09:20:52.000Z</time>
      </trkpt>
      <trkpt lat="44.53504" lon="6.14973">
        <ele>1106.4000244141</ele>
        <time>2016-07-15T09:21:03.000Z</time>
      </trkpt>
      <trkpt lat="44.53498" lon="6.14979">
        <ele>1106.5999755859</ele>
        <time>2016-07-15T09:21:10.000Z</time>
      </trkpt>
      <trkpt lat="44.5349" lon="6.14986">
        <ele>1106.5999755859</ele>
        <time>2016-07-15T09:21:17.000Z</time>
      </trkpt>
      <trkpt lat="44.53481" lon="6.14996">
        <ele>1106.8000488281</ele>
        <time>2016-07-15T09:21:25.000Z</time>
      </trkpt>
      <trkpt lat="44.53469" lon="6.15007">
        <ele>1107</ele>
        <time>2016-07-15T09:21:35.000Z</time>
      </trkpt>
      <trkpt lat="44.53456" lon="6.15016">
        <ele>1107.1999511719</ele>
        <time>2016-07-15T09:21:46.000Z</time>
      </trkpt>
      <trkpt lat="44.53445" lon="6.15027">
        <ele>1108</ele>
        <time>2016-07-15T09:21:56.000Z</time>
      </trkpt>
      <trkpt lat="44.53432" lon="6.15041">
        <ele>1109.4000244141</ele>
        <time>2016-07-15T09:22:07.000Z</time>
      </trkpt>
      <trkpt lat="44.53418" lon="6.15053">
        <ele>1108.8000488281</ele>
        <time>2016-07-15T09:22:19.000Z</time>
      </trkpt>
      <trkpt lat="44.53406" lon="6.15062">
        <ele>1108.5999755859</ele>
        <time>2016-07-15T09:22:29.000Z</time>
      </trkpt>
      <trkpt lat="44.53398" lon="6.15068">
        <ele>1109</ele>
        <time>2016-07-15T09:22:36.000Z</time>
      </trkpt>
      <trkpt lat="44.5339" lon="6.15073">
        <ele>1109.4000244141</ele>
        <time>2016-07-15T09:22:42.000Z</time>
      </trkpt>
      <trkpt lat="44.53377" lon="6.1508">
        <ele>1109.5999755859</ele>
        <time>2016-07-15T09:22:52.000Z</time>
      </trkpt>
      <trkpt lat="44.53366" lon="6.15088">
        <ele>1109.5999755859</ele>
        <time>2016-07-15T09:23:01.000Z</time>
      </trkpt>
      <trkpt lat="44.53356" lon="6.15096">
        <ele>1110</ele>
        <time>2016-07-15T09:23:09.000Z</time>
      </trkpt>
      <trkpt lat="44.53349" lon="6.15102">
        <ele>1110.1999511719</ele>
        <time>2016-07-15T09:23:15.000Z</time>
      </trkpt>
      <trkpt lat="44.53343" lon="6.15107">
        <ele>1110.5999755859</ele>
        <time>2016-07-15T09:23:20.000Z</time>
      </trkpt>
      <trkpt lat="44.53342" lon="6.15108">
        <ele>1110.5999755859</ele>
        <time>2016-07-15T09:23:26.000Z</time>
      </trkpt>
      <trkpt lat="44.53336" lon="6.15108">
        <ele>1111.1999511719</ele>
        <time>2016-07-15T09:23:43.000Z</time>
      </trkpt>
      <trkpt lat="44.53328" lon="6.15114">
        <ele>1111</ele>
        <time>2016-07-15T09:23:50.000Z</time>
      </trkpt>
      <trkpt lat="44.53319" lon="6.15123">
        <ele>1110</ele>
        <time>2016-07-15T09:23:58.000Z</time>
      </trkpt>
      <trkpt lat="44.53308" lon="6.15135">
        <ele>1108.4000244141</ele>
        <time>2016-07-15T09:24:08.000Z</time>
      </trkpt>
      <trkpt lat="44.53295" lon="6.1514">
        <ele>1108.1999511719</ele>
        <time>2016-07-15T09:24:18.000Z</time>
      </trkpt>
      <trkpt lat="44.53277" lon="6.1514">
        <ele>1107.8000488281</ele>
        <time>2016-07-15T09:24:31.000Z</time>
      </trkpt>
      <trkpt lat="44.5326" lon="6.15132">
        <ele>1107</ele>
        <time>2016-07-15T09:24:44.000Z</time>
      </trkpt>
      <trkpt lat="44.53247" lon="6.15118">
        <ele>1107.8000488281</ele>
        <time>2016-07-15T09:24:56.000Z</time>
      </trkpt>
      <trkpt lat="44.53236" lon="6.15104">
        <ele>1108.5999755859</ele>
        <time>2016-07-15T09:25:07.000Z</time>
      </trkpt>
      <trkpt lat="44.53228" lon="6.15093">
        <ele>1109.4000244141</ele>
        <time>2016-07-15T09:25:16.000Z</time>
      </trkpt>
      <trkpt lat="44.53214" lon="6.15076">
        <ele>1110.1999511719</ele>
        <time>2016-07-15T09:25:30.000Z</time>
      </trkpt>
      <trkpt lat="44.53207" lon="6.15064">
        <ele>1111.1999511719</ele>
        <time>2016-07-15T09:25:38.000Z</time>
      </trkpt>
      <trkpt lat="44.53199" lon="6.15054">
        <ele>1111.4000244141</ele>
        <time>2016-07-15T09:25:46.000Z</time>
      </trkpt>
      <trkpt lat="44.53187" lon="6.1504">
        <ele>1111</ele>
        <time>2016-07-15T09:25:57.000Z</time>
      </trkpt>
      <trkpt lat="44.53175" lon="6.15021">
        <ele>1111</ele>
        <time>2016-07-15T09:26:10.000Z</time>
      </trkpt>
      <trkpt lat="44.53167" lon="6.15006">
        <ele>1111.4000244141</ele>
        <time>2016-07-15T09:26:18.000Z</time>
      </trkpt>
      <trkpt lat="44.53162" lon="6.14995">
        <ele>1111.5999755859</ele>
        <time>2016-07-15T09:26:25.000Z</time>
      </trkpt>
      <trkpt lat="44.53156" lon="6.1498">
        <ele>1112.1999511719</ele>
        <time>2016-07-15T09:26:34.000Z</time>
      </trkpt>
      <trkpt lat="44.5315" lon="6.14969">
        <ele>1111.4000244141</ele>
        <time>2016-07-15T09:26:42.000Z</time>
      </trkpt>
      <trkpt lat="44.53141" lon="6.14955">
        <ele>1109.5999755859</ele>
        <time>2016-07-15T09:26:51.000Z</time>
      </trkpt>
      <trkpt lat="44.53134" lon="6.14944">
        <ele>1108.4000244141</ele>
        <time>2016-07-15T09:27:01.000Z</time>
      </trkpt>
      <trkpt lat="44.53135" lon="6.14943">
        <ele>1108.5999755859</ele>
        <time>2016-07-15T09:28:26.000Z</time>
      </trkpt>
      <trkpt lat="44.53135" lon="6.1494">
        <ele>1108.4000244141</ele>
        <time>2016-07-15T09:28:46.000Z</time>
      </trkpt>
      <trkpt lat="44.53131" lon="6.14932">
        <ele>1107.8000488281</ele>
        <time>2016-07-15T09:28:53.000Z</time>
      </trkpt>
      <trkpt lat="44.53129" lon="6.14928">
        <ele>1107.4000244141</ele>
        <time>2016-07-15T09:28:55.000Z</time>
      </trkpt>
      <trkpt lat="44.53125" lon="6.14918">
        <ele>1106.5999755859</ele>
        <time>2016-07-15T09:29:02.000Z</time>
      </trkpt>
      <trkpt lat="44.53121" lon="6.14912">
        <ele>1105.8000488281</ele>
        <time>2016-07-15T09:29:08.000Z</time>
      </trkpt>
      <trkpt lat="44.5312" lon="6.14909">
        <ele>1105.5999755859</ele>
        <time>2016-07-15T09:29:10.000Z</time>
      </trkpt>
      <trkpt lat="44.53113" lon="6.14897">
        <ele>1102.8000488281</ele>
        <time>2016-07-15T09:29:20.000Z</time>
      </trkpt>
      <trkpt lat="44.53107" lon="6.14888">
        <ele>1101</ele>
        <time>2016-07-15T09:29:26.000Z</time>
      </trkpt>
      <trkpt lat="44.531" lon="6.14879">
        <ele>1099.1999511719</ele>
        <time>2016-07-15T09:29:34.000Z</time>
      </trkpt>
      <trkpt lat="44.53093" lon="6.14871">
        <ele>1096.8000488281</ele>
        <time>2016-07-15T09:29:40.000Z</time>
      </trkpt>
      <trkpt lat="44.53086" lon="6.14864">
        <ele>1094.1999511719</ele>
        <time>2016-07-15T09:29:48.000Z</time>
      </trkpt>
      <trkpt lat="44.53076" lon="6.14855">
        <ele>1091</ele>
        <time>2016-07-15T09:29:56.000Z</time>
      </trkpt>
      <trkpt lat="44.53068" lon="6.1485">
        <ele>1088</ele>
        <time>2016-07-15T09:30:04.000Z</time>
      </trkpt>
      <trkpt lat="44.53061" lon="6.14844">
        <ele>1085.1999511719</ele>
        <time>2016-07-15T09:30:10.000Z</time>
      </trkpt>
      <trkpt lat="44.53054" lon="6.14837">
        <ele>1083</ele>
        <time>2016-07-15T09:30:17.000Z</time>
      </trkpt>
      <trkpt lat="44.53049" lon="6.14832">
        <ele>1081.1999511719</ele>
        <time>2016-07-15T09:30:24.000Z</time>
      </trkpt>
      <trkpt lat="44.53048" lon="6.14832">
        <ele>1080.8000488281</ele>
        <time>2016-07-15T09:30:35.000Z</time>
      </trkpt>
      <trkpt lat="44.53046" lon="6.14831">
        <ele>1080.1999511719</ele>
        <time>2016-07-15T09:30:58.000Z</time>
      </trkpt>
      <trkpt lat="44.53046" lon="6.14829">
        <ele>1080.1999511719</ele>
        <time>2016-07-15T09:30:59.000Z</time>
      </trkpt>
      <trkpt lat="44.53042" lon="6.14824">
        <ele>1079</ele>
        <time>2016-07-15T09:31:02.000Z</time>
      </trkpt>
      <trkpt lat="44.5304" lon="6.14818">
        <ele>1078.8000488281</ele>
        <time>2016-07-15T09:31:10.000Z</time>
      </trkpt>
      <trkpt lat="44.53037" lon="6.1481">
        <ele>1078.5999755859</ele>
        <time>2016-07-15T09:31:37.000Z</time>
      </trkpt>
      <trkpt lat="44.53035" lon="6.14807">
        <ele>1078.4000244141</ele>
        <time>2016-07-15T09:31:38.000Z</time>
      </trkpt>
      <trkpt lat="44.53034" lon="6.14803">
        <ele>1078.5999755859</ele>
        <time>2016-07-15T09:31:45.000Z</time>
      </trkpt>
      <trkpt lat="44.53031" lon="6.14795">
        <ele>1078.4000244141</ele>
        <time>2016-07-15T09:31:52.000Z</time>
      </trkpt>
      <trkpt lat="44.53029" lon="6.14788">
        <ele>1078.4000244141</ele>
        <time>2016-07-15T09:31:56.000Z</time>
      </trkpt>
      <trkpt lat="44.53029" lon="6.14787">
        <ele>1078.4000244141</ele>
        <time>2016-07-15T09:32:09.000Z</time>
      </trkpt>
      <trkpt lat="44.53027" lon="6.14781">
        <ele>1078.4000244141</ele>
        <time>2016-07-15T09:32:22.000Z</time>
      </trkpt>
      <trkpt lat="44.53026" lon="6.14776">
        <ele>1078.5999755859</ele>
        <time>2016-07-15T09:32:26.000Z</time>
      </trkpt>
      <trkpt lat="44.53024" lon="6.14772">
        <ele>1078.5999755859</ele>
        <time>2016-07-15T09:32:28.000Z</time>
      </trkpt>
      <trkpt lat="44.53025" lon="6.14764">
        <ele>1080.1999511719</ele>
        <time>2016-07-15T09:32:33.000Z</time>
      </trkpt>
      <trkpt lat="44.53025" lon="6.14756">
        <ele>1081.5999755859</ele>
        <time>2016-07-15T09:32:38.000Z</time>
      </trkpt>
      <trkpt lat="44.53026" lon="6.14746">
        <ele>1084</ele>
        <time>2016-07-15T09:32:44.000Z</time>
      </trkpt>
      <trkpt lat="44.53023" lon="6.14747">
        <ele>1082.1999511719</ele>
        <time>2016-07-15T09:32:48.000Z</time>
      </trkpt>
      <trkpt lat="44.53019" lon="6.14753">
        <ele>1079</ele>
        <time>2016-07-15T09:32:53.000Z</time>
      </trkpt>
      <trkpt lat="44.53013" lon="6.14758">
        <ele>1075.1999511719</ele>
        <time>2016-07-15T09:32:59.000Z</time>
      </trkpt>
      <trkpt lat="44.53011" lon="6.14762">
        <ele>1073.4000244141</ele>
        <time>2016-07-15T09:33:02.000Z</time>
      </trkpt>
      <trkpt lat="44.5301" lon="6.14765">
        <ele>1072.5999755859</ele>
        <time>2016-07-15T09:33:05.000Z</time>
      </trkpt>
      <trkpt lat="44.53008" lon="6.1477">
        <ele>1070.5999755859</ele>
        <time>2016-07-15T09:33:08.000Z</time>
      </trkpt>
      <trkpt lat="44.53006" lon="6.1478">
        <ele>1067.8000488281</ele>
        <time>2016-07-15T09:33:17.000Z</time>
      </trkpt>
      <trkpt lat="44.53005" lon="6.14781">
        <ele>1067.1999511719</ele>
        <time>2016-07-15T09:33:18.000Z</time>
      </trkpt>
      <trkpt lat="44.53" lon="6.14778">
        <ele>1065</ele>
        <time>2016-07-15T09:33:23.000Z</time>
      </trkpt>
      <trkpt lat="44.52999" lon="6.14777">
        <ele>1065</ele>
        <time>2016-07-15T09:33:24.000Z</time>
      </trkpt>
      <trkpt lat="44.52999" lon="6.14764">
        <ele>1066.5999755859</ele>
        <time>2016-07-15T09:33:32.000Z</time>
      </trkpt>
      <trkpt lat="44.52999" lon="6.14758">
        <ele>1068</ele>
        <time>2016-07-15T09:33:35.000Z</time>
      </trkpt>
      <trkpt lat="44.52996" lon="6.14758">
        <ele>1066.1999511719</ele>
        <time>2016-07-15T09:33:42.000Z</time>
      </trkpt>
      <trkpt lat="44.52992" lon="6.14763">
        <ele>1063.5999755859</ele>
        <time>2016-07-15T09:33:56.000Z</time>
      </trkpt>
      <trkpt lat="44.5299" lon="6.14774">
        <ele>1060.1999511719</ele>
        <time>2016-07-15T09:34:04.000Z</time>
      </trkpt>
      <trkpt lat="44.5299" lon="6.14781">
        <ele>1059.1999511719</ele>
        <time>2016-07-15T09:34:08.000Z</time>
      </trkpt>
      <trkpt lat="44.52989" lon="6.14785">
        <ele>1057.8000488281</ele>
        <time>2016-07-15T09:34:12.000Z</time>
      </trkpt>
      <trkpt lat="44.52983" lon="6.14783">
        <ele>1055</ele>
        <time>2016-07-15T09:34:19.000Z</time>
      </trkpt>
      <trkpt lat="44.52982" lon="6.14782">
        <ele>1054.5999755859</ele>
        <time>2016-07-15T09:34:20.000Z</time>
      </trkpt>
      <trkpt lat="44.52979" lon="6.14784">
        <ele>1052.4000244141</ele>
        <time>2016-07-15T09:34:26.000Z</time>
      </trkpt>
      <trkpt lat="44.52979" lon="6.14789">
        <ele>1051.5999755859</ele>
        <time>2016-07-15T09:34:29.000Z</time>
      </trkpt>
      <trkpt lat="44.52983" lon="6.148">
        <ele>1051.5999755859</ele>
        <time>2016-07-15T09:34:37.000Z</time>
      </trkpt>
      <trkpt lat="44.52983" lon="6.14801">
        <ele>1051.5999755859</ele>
        <time>2016-07-15T09:34:38.000Z</time>
      </trkpt>
      <trkpt lat="44.52984" lon="6.14814">
        <ele>1049.5999755859</ele>
        <time>2016-07-15T09:34:45.000Z</time>
      </trkpt>
      <trkpt lat="44.52985" lon="6.14819">
        <ele>1049.4000244141</ele>
        <time>2016-07-15T09:34:49.000Z</time>
      </trkpt>
      <trkpt lat="44.52981" lon="6.14823">
        <ele>1046.5999755859</ele>
        <time>2016-07-15T09:34:55.000Z</time>
      </trkpt>
      <trkpt lat="44.52978" lon="6.14816">
        <ele>1046</ele>
        <time>2016-07-15T09:35:00.000Z</time>
      </trkpt>
      <trkpt lat="44.52976" lon="6.14809">
        <ele>1046</ele>
        <time>2016-07-15T09:35:05.000Z</time>
      </trkpt>
      <trkpt lat="44.52971" lon="6.14801">
        <ele>1045</ele>
        <time>2016-07-15T09:35:13.000Z</time>
      </trkpt>
      <trkpt lat="44.5297" lon="6.14798">
        <ele>1045.1999511719</ele>
        <time>2016-07-15T09:35:26.000Z</time>
      </trkpt>
      <trkpt lat="44.5297" lon="6.14796">
        <ele>1045.1999511719</ele>
        <time>2016-07-15T09:35:28.000Z</time>
      </trkpt>
      <trkpt lat="44.52969" lon="6.14795">
        <ele>1045</ele>
        <time>2016-07-15T09:35:30.000Z</time>
      </trkpt>
      <trkpt lat="44.52965" lon="6.14791">
        <ele>1043.5999755859</ele>
        <time>2016-07-15T09:35:36.000Z</time>
      </trkpt>
      <trkpt lat="44.52962" lon="6.1479">
        <ele>1042.1999511719</ele>
        <time>2016-07-15T09:35:42.000Z</time>
      </trkpt>
      <trkpt lat="44.52961" lon="6.14793">
        <ele>1041</ele>
        <time>2016-07-15T09:35:47.000Z</time>
      </trkpt>
      <trkpt lat="44.52961" lon="6.14804">
        <ele>1038.5999755859</ele>
        <time>2016-07-15T09:35:55.000Z</time>
      </trkpt>
      <trkpt lat="44.52962" lon="6.14814">
        <ele>1037.8000488281</ele>
        <time>2016-07-15T09:36:02.000Z</time>
      </trkpt>
      <trkpt lat="44.52962" lon="6.14818">
        <ele>1037.4000244141</ele>
        <time>2016-07-15T09:36:05.000Z</time>
      </trkpt>
      <trkpt lat="44.52958" lon="6.14823">
        <ele>1034.5999755859</ele>
        <time>2016-07-15T09:36:10.000Z</time>
      </trkpt>
      <trkpt lat="44.52957" lon="6.14827">
        <ele>1033.5999755859</ele>
        <time>2016-07-15T09:36:14.000Z</time>
      </trkpt>
      <trkpt lat="44.52957" lon="6.14828">
        <ele>1033.5999755859</ele>
        <time>2016-07-15T09:36:16.000Z</time>
      </trkpt>
      <trkpt lat="44.52957" lon="6.14832">
        <ele>1033</ele>
        <time>2016-07-15T09:36:18.000Z</time>
      </trkpt>
      <trkpt lat="44.5296" lon="6.14841">
        <ele>1033.8000488281</ele>
        <time>2016-07-15T09:36:26.000Z</time>
      </trkpt>
      <trkpt lat="44.52961" lon="6.14847">
        <ele>1033.4000244141</ele>
        <time>2016-07-15T09:36:30.000Z</time>
      </trkpt>
      <trkpt lat="44.52957" lon="6.14848">
        <ele>1031.4000244141</ele>
        <time>2016-07-15T09:36:34.000Z</time>
      </trkpt>
      <trkpt lat="44.52952" lon="6.14841">
        <ele>1029.4000244141</ele>
        <time>2016-07-15T09:36:42.000Z</time>
      </trkpt>
      <trkpt lat="44.52951" lon="6.14836">
        <ele>1029.4000244141</ele>
        <time>2016-07-15T09:36:46.000Z</time>
      </trkpt>
      <trkpt lat="44.5295" lon="6.14835">
        <ele>1029.4000244141</ele>
        <time>2016-07-15T09:36:48.000Z</time>
      </trkpt>
      <trkpt lat="44.52948" lon="6.14832">
        <ele>1029</ele>
        <time>2016-07-15T09:36:50.000Z</time>
      </trkpt>
      <trkpt lat="44.52942" lon="6.1482">
        <ele>1028.5999755859</ele>
        <time>2016-07-15T09:37:01.000Z</time>
      </trkpt>
      <trkpt lat="44.52936" lon="6.14813">
        <ele>1027.5999755859</ele>
        <time>2016-07-15T09:37:08.000Z</time>
      </trkpt>
      <trkpt lat="44.52929" lon="6.14811">
        <ele>1025.5999755859</ele>
        <time>2016-07-15T09:37:20.000Z</time>
      </trkpt>
      <trkpt lat="44.52931" lon="6.14815">
        <ele>1025.5999755859</ele>
        <time>2016-07-15T09:37:25.000Z</time>
      </trkpt>
      <trkpt lat="44.52932" lon="6.14817">
        <ele>1025.8000488281</ele>
        <time>2016-07-15T09:37:27.000Z</time>
      </trkpt>
      <trkpt lat="44.52933" lon="6.14824">
        <ele>1025.1999511719</ele>
        <time>2016-07-15T09:37:34.000Z</time>
      </trkpt>
      <trkpt lat="44.52933" lon="6.14826">
        <ele>1025</ele>
        <time>2016-07-15T09:37:36.000Z</time>
      </trkpt>
      <trkpt lat="44.52933" lon="6.14832">
        <ele>1024.4000244141</ele>
        <time>2016-07-15T09:37:41.000Z</time>
      </trkpt>
      <trkpt lat="44.52933" lon="6.14842">
        <ele>1023.200012207</ele>
        <time>2016-07-15T09:37:49.000Z</time>
      </trkpt>
      <trkpt lat="44.52933" lon="6.14848">
        <ele>1022.799987793</ele>
        <time>2016-07-15T09:37:53.000Z</time>
      </trkpt>
      <trkpt lat="44.52934" lon="6.14851">
        <ele>1022.799987793</ele>
        <time>2016-07-15T09:37:56.000Z</time>
      </trkpt>
      <trkpt lat="44.52933" lon="6.14859">
        <ele>1021.5999755859</ele>
        <time>2016-07-15T09:38:02.000Z</time>
      </trkpt>
      <trkpt lat="44.52931" lon="6.1486">
        <ele>1020.5999755859</ele>
        <time>2016-07-15T09:38:05.000Z</time>
      </trkpt>
      <trkpt lat="44.52928" lon="6.1486">
        <ele>1020</ele>
        <time>2016-07-15T09:38:08.000Z</time>
      </trkpt>
      <trkpt lat="44.52921" lon="6.14854">
        <ele>1018.4000244141</ele>
        <time>2016-07-15T09:38:20.000Z</time>
      </trkpt>
      <trkpt lat="44.52917" lon="6.14847">
        <ele>1018</ele>
        <time>2016-07-15T09:38:27.000Z</time>
      </trkpt>
      <trkpt lat="44.52915" lon="6.14843">
        <ele>1018</ele>
        <time>2016-07-15T09:38:33.000Z</time>
      </trkpt>
      <trkpt lat="44.52915" lon="6.14836">
        <ele>1018.4000244141</ele>
        <time>2016-07-15T09:38:39.000Z</time>
      </trkpt>
      <trkpt lat="44.52914" lon="6.14835">
        <ele>1018.4000244141</ele>
        <time>2016-07-15T09:38:40.000Z</time>
      </trkpt>
      <trkpt lat="44.52912" lon="6.14832">
        <ele>1018.4000244141</ele>
        <time>2016-07-15T09:38:43.000Z</time>
      </trkpt>
      <trkpt lat="44.52912" lon="6.14828">
        <ele>1018.5999755859</ele>
        <time>2016-07-15T09:38:46.000Z</time>
      </trkpt>
      <trkpt lat="44.52909" lon="6.14824">
        <ele>1018.200012207</ele>
        <time>2016-07-15T09:38:50.000Z</time>
      </trkpt>
      <trkpt lat="44.52904" lon="6.14817">
        <ele>1017.4000244141</ele>
        <time>2016-07-15T09:38:58.000Z</time>
      </trkpt>
      <trkpt lat="44.52903" lon="6.14816">
        <ele>1017.200012207</ele>
        <time>2016-07-15T09:38:59.000Z</time>
      </trkpt>
      <trkpt lat="44.52903" lon="6.14812">
        <ele>1017.5999755859</ele>
        <time>2016-07-15T09:39:02.000Z</time>
      </trkpt>
      <trkpt lat="44.52899" lon="6.14803">
        <ele>1019.4000244141</ele>
        <time>2016-07-15T09:39:10.000Z</time>
      </trkpt>
      <trkpt lat="44.52897" lon="6.14795">
        <ele>1021.5999755859</ele>
        <time>2016-07-15T09:39:17.000Z</time>
      </trkpt>
      <trkpt lat="44.52896" lon="6.14787">
        <ele>1024</ele>
        <time>2016-07-15T09:39:22.000Z</time>
      </trkpt>
      <trkpt lat="44.52892" lon="6.14781">
        <ele>1025</ele>
        <time>2016-07-15T09:39:27.000Z</time>
      </trkpt>
      <trkpt lat="44.5289" lon="6.14778">
        <ele>1025.1999511719</ele>
        <time>2016-07-15T09:39:29.000Z</time>
      </trkpt>
      <trkpt lat="44.52889" lon="6.14772">
        <ele>1026.8000488281</ele>
        <time>2016-07-15T09:39:36.000Z</time>
      </trkpt>
      <trkpt lat="44.52888" lon="6.14774">
        <ele>1025.8000488281</ele>
        <time>2016-07-15T09:39:45.000Z</time>
      </trkpt>
      <trkpt lat="44.52885" lon="6.14777">
        <ele>1024.1999511719</ele>
        <time>2016-07-15T09:40:12.000Z</time>
      </trkpt>
      <trkpt lat="44.52889" lon="6.14778">
        <ele>1025</ele>
        <time>2016-07-15T09:40:46.000Z</time>
      </trkpt>
      <trkpt lat="44.52884" lon="6.14777">
        <ele>1024</ele>
        <time>2016-07-15T09:40:50.000Z</time>
      </trkpt>
      <trkpt lat="44.52879" lon="6.14778">
        <ele>1021.799987793</ele>
        <time>2016-07-15T09:40:56.000Z</time>
      </trkpt>
      <trkpt lat="44.52872" lon="6.14781">
        <ele>1018.5999755859</ele>
        <time>2016-07-15T09:41:01.000Z</time>
      </trkpt>
      <trkpt lat="44.5287" lon="6.14783">
        <ele>1017.4000244141</ele>
        <time>2016-07-15T09:41:06.000Z</time>
      </trkpt>
      <trkpt lat="44.52865" lon="6.14785">
        <ele>1015.5999755859</ele>
        <time>2016-07-15T09:41:12.000Z</time>
      </trkpt>
      <trkpt lat="44.52862" lon="6.14786">
        <ele>1014.5999755859</ele>
        <time>2016-07-15T09:41:16.000Z</time>
      </trkpt>
      <trkpt lat="44.5286" lon="6.14786">
        <ele>1014.200012207</ele>
        <time>2016-07-15T09:41:20.000Z</time>
      </trkpt>
      <trkpt lat="44.52858" lon="6.14784">
        <ele>1014.200012207</ele>
        <time>2016-07-15T09:41:25.000Z</time>
      </trkpt>
      <trkpt lat="44.52857" lon="6.14783">
        <ele>1014.200012207</ele>
        <time>2016-07-15T09:41:29.000Z</time>
      </trkpt>
      <trkpt lat="44.52857" lon="6.14782">
        <ele>1014.799987793</ele>
        <time>2016-07-15T09:41:33.000Z</time>
      </trkpt>
      <trkpt lat="44.52858" lon="6.14779">
        <ele>1016</ele>
        <time>2016-07-15T09:41:37.000Z</time>
      </trkpt>
      <trkpt lat="44.5286" lon="6.14776">
        <ele>1017.4000244141</ele>
        <time>2016-07-15T09:41:41.000Z</time>
      </trkpt>
      <trkpt lat="44.52859" lon="6.1478">
        <ele>1015.5999755859</ele>
        <time>2016-07-15T09:41:48.000Z</time>
      </trkpt>
      <trkpt lat="44.52859" lon="6.14782">
        <ele>1015.200012207</ele>
        <time>2016-07-15T09:41:59.000Z</time>
      </trkpt>
      <trkpt lat="44.52859" lon="6.14783">
        <ele>1014.799987793</ele>
        <time>2016-07-15T09:42:08.000Z</time>
      </trkpt>
      <trkpt lat="44.5286" lon="6.14781">
        <ele>1015.5999755859</ele>
        <time>2016-07-15T09:42:17.000Z</time>
      </trkpt>
      <trkpt lat="44.52859" lon="6.14783">
        <ele>1015</ele>
        <time>2016-07-15T09:42:22.000Z</time>
      </trkpt>
      <trkpt lat="44.52856" lon="6.14786">
        <ele>1013</ele>
        <time>2016-07-15T09:42:26.000Z</time>
      </trkpt>
      <trkpt lat="44.52853" lon="6.14795">
        <ele>1009.4000244141</ele>
        <time>2016-07-15T09:42:32.000Z</time>
      </trkpt>
      <trkpt lat="44.5285" lon="6.14801">
        <ele>1007.200012207</ele>
        <time>2016-07-15T09:42:36.000Z</time>
      </trkpt>
      <trkpt lat="44.52848" lon="6.14804">
        <ele>1006.200012207</ele>
        <time>2016-07-15T09:42:47.000Z</time>
      </trkpt>
      <trkpt lat="44.52846" lon="6.14805">
        <ele>1005.799987793</ele>
        <time>2016-07-15T09:42:48.000Z</time>
      </trkpt>
      <trkpt lat="44.5284" lon="6.14812">
        <ele>1003.200012207</ele>
        <time>2016-07-15T09:42:55.000Z</time>
      </trkpt>
      <trkpt lat="44.52839" lon="6.14813">
        <ele>1002.799987793</ele>
        <time>2016-07-15T09:43:01.000Z</time>
      </trkpt>
      <trkpt lat="44.52836" lon="6.14817">
        <ele>1001.5999755859</ele>
        <time>2016-07-15T09:43:07.000Z</time>
      </trkpt>
      <trkpt lat="44.52829" lon="6.14828">
        <ele>998.40002441406</ele>
        <time>2016-07-15T09:43:14.000Z</time>
      </trkpt>
      <trkpt lat="44.5282" lon="6.14831">
        <ele>996.40002441406</ele>
        <time>2016-07-15T09:43:24.000Z</time>
      </trkpt>
      <trkpt lat="44.52814" lon="6.14835">
        <ele>994.79998779297</ele>
        <time>2016-07-15T09:43:31.000Z</time>
      </trkpt>
      <trkpt lat="44.52814" lon="6.14836">
        <ele>994.59997558594</ele>
        <time>2016-07-15T09:43:32.000Z</time>
      </trkpt>
      <trkpt lat="44.52812" lon="6.14843">
        <ele>992.40002441406</ele>
        <time>2016-07-15T09:43:40.000Z</time>
      </trkpt>
      <trkpt lat="44.52813" lon="6.14847">
        <ele>991.40002441406</ele>
        <time>2016-07-15T09:43:46.000Z</time>
      </trkpt>
      <trkpt lat="44.52808" lon="6.14854">
        <ele>988.59997558594</ele>
        <time>2016-07-15T09:43:53.000Z</time>
      </trkpt>
      <trkpt lat="44.52807" lon="6.14854">
        <ele>988.20001220703</ele>
        <time>2016-07-15T09:43:55.000Z</time>
      </trkpt>
      <trkpt lat="44.52802" lon="6.14855">
        <ele>986.79998779297</ele>
        <time>2016-07-15T09:44:00.000Z</time>
      </trkpt>
      <trkpt lat="44.52799" lon="6.14857">
        <ele>985.59997558594</ele>
        <time>2016-07-15T09:44:03.000Z</time>
      </trkpt>
      <trkpt lat="44.5279" lon="6.14862">
        <ele>982.40002441406</ele>
        <time>2016-07-15T09:44:10.000Z</time>
      </trkpt>
      <trkpt lat="44.52778" lon="6.14864">
        <ele>979.20001220703</ele>
        <time>2016-07-15T09:44:19.000Z</time>
      </trkpt>
      <trkpt lat="44.5277" lon="6.14859">
        <ele>978.40002441406</ele>
        <time>2016-07-15T09:44:26.000Z</time>
      </trkpt>
      <trkpt lat="44.52765" lon="6.14847">
        <ele>980.59997558594</ele>
        <time>2016-07-15T09:44:33.000Z</time>
      </trkpt>
      <trkpt lat="44.52759" lon="6.14833">
        <ele>982.59997558594</ele>
        <time>2016-07-15T09:44:43.000Z</time>
      </trkpt>
      <trkpt lat="44.52752" lon="6.14834">
        <ele>980.59997558594</ele>
        <time>2016-07-15T09:44:49.000Z</time>
      </trkpt>
      <trkpt lat="44.52744" lon="6.14838">
        <ele>977</ele>
        <time>2016-07-15T09:44:56.000Z</time>
      </trkpt>
      <trkpt lat="44.5274" lon="6.14842">
        <ele>975</ele>
        <time>2016-07-15T09:45:00.000Z</time>
      </trkpt>
      <trkpt lat="44.52735" lon="6.14848">
        <ele>972.40002441406</ele>
        <time>2016-07-15T09:45:06.000Z</time>
      </trkpt>
      <trkpt lat="44.52734" lon="6.1485">
        <ele>972.20001220703</ele>
        <time>2016-07-15T09:45:07.000Z</time>
      </trkpt>
      <trkpt lat="44.52727" lon="6.14859">
        <ele>971.20001220703</ele>
        <time>2016-07-15T09:45:14.000Z</time>
      </trkpt>
      <trkpt lat="44.52725" lon="6.1486">
        <ele>971</ele>
        <time>2016-07-15T09:45:16.000Z</time>
      </trkpt>
      <trkpt lat="44.52716" lon="6.14866">
        <ele>970</ele>
        <time>2016-07-15T09:45:24.000Z</time>
      </trkpt>
      <trkpt lat="44.52712" lon="6.14872">
        <ele>969.20001220703</ele>
        <time>2016-07-15T09:45:30.000Z</time>
      </trkpt>
      <trkpt lat="44.52711" lon="6.14873">
        <ele>969.20001220703</ele>
        <time>2016-07-15T09:45:31.000Z</time>
      </trkpt>
      <trkpt lat="44.5271" lon="6.14881">
        <ele>968.59997558594</ele>
        <time>2016-07-15T09:45:37.000Z</time>
      </trkpt>
      <trkpt lat="44.52708" lon="6.14889">
        <ele>967.79998779297</ele>
        <time>2016-07-15T09:45:44.000Z</time>
      </trkpt>
      <trkpt lat="44.52705" lon="6.14893">
        <ele>967.40002441406</ele>
        <time>2016-07-15T09:45:48.000Z</time>
      </trkpt>
      <trkpt lat="44.52697" lon="6.14895">
        <ele>966.40002441406</ele>
        <time>2016-07-15T09:45:56.000Z</time>
      </trkpt>
      <trkpt lat="44.5269" lon="6.14895">
        <ele>965.59997558594</ele>
        <time>2016-07-15T09:46:02.000Z</time>
      </trkpt>
      <trkpt lat="44.52683" lon="6.14896">
        <ele>964.40002441406</ele>
        <time>2016-07-15T09:46:08.000Z</time>
      </trkpt>
      <trkpt lat="44.52674" lon="6.14899">
        <ele>962.79998779297</ele>
        <time>2016-07-15T09:46:15.000Z</time>
      </trkpt>
      <trkpt lat="44.52668" lon="6.149">
        <ele>961.79998779297</ele>
        <time>2016-07-15T09:46:20.000Z</time>
      </trkpt>
      <trkpt lat="44.52658" lon="6.14903">
        <ele>960</ele>
        <time>2016-07-15T09:46:29.000Z</time>
      </trkpt>
      <trkpt lat="44.52652" lon="6.14906">
        <ele>958.40002441406</ele>
        <time>2016-07-15T09:46:36.000Z</time>
      </trkpt>
      <trkpt lat="44.52646" lon="6.14909">
        <ele>957.20001220703</ele>
        <time>2016-07-15T09:46:42.000Z</time>
      </trkpt>
      <trkpt lat="44.52643" lon="6.14912">
        <ele>956.20001220703</ele>
        <time>2016-07-15T09:46:46.000Z</time>
      </trkpt>
      <trkpt lat="44.52642" lon="6.14914">
        <ele>955.59997558594</ele>
        <time>2016-07-15T09:46:48.000Z</time>
      </trkpt>
      <trkpt lat="44.52639" lon="6.14916">
        <ele>954.59997558594</ele>
        <time>2016-07-15T09:46:50.000Z</time>
      </trkpt>
      <trkpt lat="44.52629" lon="6.14927">
        <ele>954.40002441406</ele>
        <time>2016-07-15T09:47:02.000Z</time>
      </trkpt>
      <trkpt lat="44.52621" lon="6.14933">
        <ele>954.40002441406</ele>
        <time>2016-07-15T09:47:09.000Z</time>
      </trkpt>
      <trkpt lat="44.52615" lon="6.14938">
        <ele>953.59997558594</ele>
        <time>2016-07-15T09:47:15.000Z</time>
      </trkpt>
      <trkpt lat="44.52605" lon="6.14947">
        <ele>950.59997558594</ele>
        <time>2016-07-15T09:47:24.000Z</time>
      </trkpt>
      <trkpt lat="44.52594" lon="6.14957">
        <ele>947.20001220703</ele>
        <time>2016-07-15T09:47:35.000Z</time>
      </trkpt>
      <trkpt lat="44.52588" lon="6.14965">
        <ele>947.59997558594</ele>
        <time>2016-07-15T09:47:42.000Z</time>
      </trkpt>
      <trkpt lat="44.52583" lon="6.14971">
        <ele>948</ele>
        <time>2016-07-15T09:47:49.000Z</time>
      </trkpt>
      <trkpt lat="44.52583" lon="6.14972">
        <ele>948</ele>
        <time>2016-07-15T09:47:50.000Z</time>
      </trkpt>
      <trkpt lat="44.52582" lon="6.14975">
        <ele>948.20001220703</ele>
        <time>2016-07-15T09:47:52.000Z</time>
      </trkpt>
      <trkpt lat="44.52578" lon="6.14977">
        <ele>948.20001220703</ele>
        <time>2016-07-15T09:47:57.000Z</time>
      </trkpt>
      <trkpt lat="44.52574" lon="6.14982">
        <ele>947</ele>
        <time>2016-07-15T09:48:02.000Z</time>
      </trkpt>
      <trkpt lat="44.52573" lon="6.14983">
        <ele>946.40002441406</ele>
        <time>2016-07-15T09:48:04.000Z</time>
      </trkpt>
      <trkpt lat="44.52569" lon="6.14987">
        <ele>945.20001220703</ele>
        <time>2016-07-15T09:48:10.000Z</time>
      </trkpt>
      <trkpt lat="44.52568" lon="6.14987">
        <ele>945.20001220703</ele>
        <time>2016-07-15T09:48:11.000Z</time>
      </trkpt>
      <trkpt lat="44.52567" lon="6.14987">
        <ele>945</ele>
        <time>2016-07-15T09:48:12.000Z</time>
      </trkpt>
      <trkpt lat="44.52558" lon="6.14992">
        <ele>943</ele>
        <time>2016-07-15T09:48:23.000Z</time>
      </trkpt>
      <trkpt lat="44.52553" lon="6.14993">
        <ele>942.20001220703</ele>
        <time>2016-07-15T09:48:29.000Z</time>
      </trkpt>
      <trkpt lat="44.5255" lon="6.14993">
        <ele>941.79998779297</ele>
        <time>2016-07-15T09:48:31.000Z</time>
      </trkpt>
      <trkpt lat="44.52543" lon="6.14991">
        <ele>942.20001220703</ele>
        <time>2016-07-15T09:48:39.000Z</time>
      </trkpt>
      <trkpt lat="44.52538" lon="6.1499">
        <ele>942.40002441406</ele>
        <time>2016-07-15T09:49:01.000Z</time>
      </trkpt>
      <trkpt lat="44.52533" lon="6.14988">
        <ele>942.20001220703</ele>
        <time>2016-07-15T09:49:07.000Z</time>
      </trkpt>
      <trkpt lat="44.52527" lon="6.14986">
        <ele>941.20001220703</ele>
        <time>2016-07-15T09:49:11.000Z</time>
      </trkpt>
      <trkpt lat="44.52522" lon="6.14985">
        <ele>940.20001220703</ele>
        <time>2016-07-15T09:49:15.000Z</time>
      </trkpt>
      <trkpt lat="44.52513" lon="6.14986">
        <ele>938</ele>
        <time>2016-07-15T09:49:23.000Z</time>
      </trkpt>
      <trkpt lat="44.52509" lon="6.14989">
        <ele>936.40002441406</ele>
        <time>2016-07-15T09:49:28.000Z</time>
      </trkpt>
      <trkpt lat="44.52507" lon="6.14989">
        <ele>936</ele>
        <time>2016-07-15T09:49:29.000Z</time>
      </trkpt>
      <trkpt lat="44.52504" lon="6.1499">
        <ele>935.20001220703</ele>
        <time>2016-07-15T09:49:32.000Z</time>
      </trkpt>
      <trkpt lat="44.52497" lon="6.14993">
        <ele>933</ele>
        <time>2016-07-15T09:49:39.000Z</time>
      </trkpt>
      <trkpt lat="44.52487" lon="6.14991">
        <ele>930.79998779297</ele>
        <time>2016-07-15T09:49:48.000Z</time>
      </trkpt>
      <trkpt lat="44.52477" lon="6.14989">
        <ele>928.79998779297</ele>
        <time>2016-07-15T09:49:57.000Z</time>
      </trkpt>
      <trkpt lat="44.52469" lon="6.14987">
        <ele>927.20001220703</ele>
        <time>2016-07-15T09:50:05.000Z</time>
      </trkpt>
      <trkpt lat="44.52462" lon="6.14985">
        <ele>925.59997558594</ele>
        <time>2016-07-15T09:50:13.000Z</time>
      </trkpt>
      <trkpt lat="44.52456" lon="6.14983">
        <ele>924.40002441406</ele>
        <time>2016-07-15T09:50:20.000Z</time>
      </trkpt>
      <trkpt lat="44.52448" lon="6.14984">
        <ele>922.79998779297</ele>
        <time>2016-07-15T09:50:28.000Z</time>
      </trkpt>
      <trkpt lat="44.52443" lon="6.14981">
        <ele>921.79998779297</ele>
        <time>2016-07-15T09:50:34.000Z</time>
      </trkpt>
      <trkpt lat="44.52436" lon="6.14979">
        <ele>920.59997558594</ele>
        <time>2016-07-15T09:50:41.000Z</time>
      </trkpt>
      <trkpt lat="44.52432" lon="6.14978">
        <ele>919.79998779297</ele>
        <time>2016-07-15T09:50:45.000Z</time>
      </trkpt>
      <trkpt lat="44.52427" lon="6.14974">
        <ele>918.79998779297</ele>
        <time>2016-07-15T09:50:52.000Z</time>
      </trkpt>
      <trkpt lat="44.52425" lon="6.14973">
        <ele>918.20001220703</ele>
        <time>2016-07-15T09:50:53.000Z</time>
      </trkpt>
      <trkpt lat="44.52416" lon="6.14969">
        <ele>916.40002441406</ele>
        <time>2016-07-15T09:51:01.000Z</time>
      </trkpt>
      <trkpt lat="44.52415" lon="6.14967">
        <ele>916</ele>
        <time>2016-07-15T09:51:03.000Z</time>
      </trkpt>
      <trkpt lat="44.52412" lon="6.14962">
        <ele>915.59997558594</ele>
        <time>2016-07-15T09:51:07.000Z</time>
      </trkpt>
      <trkpt lat="44.52411" lon="6.1496">
        <ele>915.20001220703</ele>
        <time>2016-07-15T09:51:09.000Z</time>
      </trkpt>
      <trkpt lat="44.52405" lon="6.14959">
        <ele>914</ele>
        <time>2016-07-15T09:51:16.000Z</time>
      </trkpt>
      <trkpt lat="44.52404" lon="6.1496">
        <ele>913.79998779297</ele>
        <time>2016-07-15T09:51:17.000Z</time>
      </trkpt>
      <trkpt lat="44.52403" lon="6.14965">
        <ele>913.40002441406</ele>
        <time>2016-07-15T09:51:20.000Z</time>
      </trkpt>
      <trkpt lat="44.52401" lon="6.14975">
        <ele>912.79998779297</ele>
        <time>2016-07-15T09:51:29.000Z</time>
      </trkpt>
      <trkpt lat="44.52399" lon="6.14978">
        <ele>912.20001220703</ele>
        <time>2016-07-15T09:51:32.000Z</time>
      </trkpt>
      <trkpt lat="44.52397" lon="6.1498">
        <ele>911.59997558594</ele>
        <time>2016-07-15T09:51:34.000Z</time>
      </trkpt>
      <trkpt lat="44.52393" lon="6.14976">
        <ele>911</ele>
        <time>2016-07-15T09:51:38.000Z</time>
      </trkpt>
      <trkpt lat="44.52392" lon="6.14974">
        <ele>910.59997558594</ele>
        <time>2016-07-15T09:51:41.000Z</time>
      </trkpt>
      <trkpt lat="44.52389" lon="6.1497">
        <ele>910.20001220703</ele>
        <time>2016-07-15T09:51:45.000Z</time>
      </trkpt>
      <trkpt lat="44.52387" lon="6.14965">
        <ele>909.79998779297</ele>
        <time>2016-07-15T09:51:49.000Z</time>
      </trkpt>
      <trkpt lat="44.52385" lon="6.14954">
        <ele>909.40002441406</ele>
        <time>2016-07-15T09:51:58.000Z</time>
      </trkpt>
      <trkpt lat="44.52385" lon="6.14949">
        <ele>909.40002441406</ele>
        <time>2016-07-15T09:52:02.000Z</time>
      </trkpt>
      <trkpt lat="44.52386" lon="6.14938">
        <ele>909.79998779297</ele>
        <time>2016-07-15T09:52:10.000Z</time>
      </trkpt>
      <trkpt lat="44.5239" lon="6.14928">
        <ele>910.79998779297</ele>
        <time>2016-07-15T09:52:19.000Z</time>
      </trkpt>
      <trkpt lat="44.52389" lon="6.14927">
        <ele>910.59997558594</ele>
        <time>2016-07-15T09:52:20.000Z</time>
      </trkpt>
      <trkpt lat="44.52388" lon="6.14923">
        <ele>910.40002441406</ele>
        <time>2016-07-15T09:52:23.000Z</time>
      </trkpt>
      <trkpt lat="44.52385" lon="6.14923">
        <ele>909.59997558594</ele>
        <time>2016-07-15T09:52:26.000Z</time>
      </trkpt>
      <trkpt lat="44.52383" lon="6.14923">
        <ele>909.20001220703</ele>
        <time>2016-07-15T09:52:28.000Z</time>
      </trkpt>
      <trkpt lat="44.52373" lon="6.14923">
        <ele>907</ele>
        <time>2016-07-15T09:52:38.000Z</time>
      </trkpt>
      <trkpt lat="44.52366" lon="6.14927">
        <ele>906</ele>
        <time>2016-07-15T09:52:45.000Z</time>
      </trkpt>
      <trkpt lat="44.52363" lon="6.14932">
        <ele>906.79998779297</ele>
        <time>2016-07-15T09:52:51.000Z</time>
      </trkpt>
      <trkpt lat="44.52361" lon="6.14936">
        <ele>907.40002441406</ele>
        <time>2016-07-15T09:52:53.000Z</time>
      </trkpt>
      <trkpt lat="44.52363" lon="6.14949">
        <ele>906.59997558594</ele>
        <time>2016-07-15T09:53:02.000Z</time>
      </trkpt>
      <trkpt lat="44.52364" lon="6.14954">
        <ele>906.40002441406</ele>
        <time>2016-07-15T09:53:06.000Z</time>
      </trkpt>
      <trkpt lat="44.5236" lon="6.14951">
        <ele>907.59997558594</ele>
        <time>2016-07-15T09:53:10.000Z</time>
      </trkpt>
      <trkpt lat="44.5235" lon="6.14939">
        <ele>910.79998779297</ele>
        <time>2016-07-15T09:53:20.000Z</time>
      </trkpt>
      <trkpt lat="44.52347" lon="6.14931">
        <ele>912.20001220703</ele>
        <time>2016-07-15T09:53:27.000Z</time>
      </trkpt>
      <trkpt lat="44.52342" lon="6.14921">
        <ele>913.59997558594</ele>
        <time>2016-07-15T09:53:33.000Z</time>
      </trkpt>
      <trkpt lat="44.52337" lon="6.14912">
        <ele>915.59997558594</ele>
        <time>2016-07-15T09:53:40.000Z</time>
      </trkpt>
      <trkpt lat="44.5233" lon="6.14901">
        <ele>917.79998779297</ele>
        <time>2016-07-15T09:53:47.000Z</time>
      </trkpt>
      <trkpt lat="44.5233" lon="6.149">
        <ele>918</ele>
        <time>2016-07-15T09:53:48.000Z</time>
      </trkpt>
      <trkpt lat="44.52331" lon="6.14896">
        <ele>917.59997558594</ele>
        <time>2016-07-15T09:53:55.000Z</time>
      </trkpt>
      <trkpt lat="44.52328" lon="6.14899">
        <ele>918.79998779297</ele>
        <time>2016-07-15T09:54:00.000Z</time>
      </trkpt>
      <trkpt lat="44.52328" lon="6.149">
        <ele>918.79998779297</ele>
        <time>2016-07-15T09:54:05.000Z</time>
      </trkpt>
      <trkpt lat="44.52325" lon="6.14901">
        <ele>919.40002441406</ele>
        <time>2016-07-15T09:54:21.000Z</time>
      </trkpt>
      <trkpt lat="44.52318" lon="6.14903">
        <ele>921.79998779297</ele>
        <time>2016-07-15T09:54:27.000Z</time>
      </trkpt>
      <trkpt lat="44.5231" lon="6.14909">
        <ele>924.40002441406</ele>
        <time>2016-07-15T09:54:35.000Z</time>
      </trkpt>
      <trkpt lat="44.52307" lon="6.14913">
        <ele>925.20001220703</ele>
        <time>2016-07-15T09:54:38.000Z</time>
      </trkpt>
      <trkpt lat="44.52305" lon="6.14921">
        <ele>925.40002441406</ele>
        <time>2016-07-15T09:54:43.000Z</time>
      </trkpt>
      <trkpt lat="44.52306" lon="6.14933">
        <ele>924</ele>
        <time>2016-07-15T09:54:50.000Z</time>
      </trkpt>
      <trkpt lat="44.52305" lon="6.14938">
        <ele>923.59997558594</ele>
        <time>2016-07-15T09:54:54.000Z</time>
      </trkpt>
      <trkpt lat="44.52305" lon="6.14948">
        <ele>922.79998779297</ele>
        <time>2016-07-15T09:55:00.000Z</time>
      </trkpt>
      <trkpt lat="44.52304" lon="6.14954">
        <ele>922.40002441406</ele>
        <time>2016-07-15T09:55:04.000Z</time>
      </trkpt>
      <trkpt lat="44.52301" lon="6.14965">
        <ele>922</ele>
        <time>2016-07-15T09:55:12.000Z</time>
      </trkpt>
      <trkpt lat="44.52296" lon="6.14985">
        <ele>922</ele>
        <time>2016-07-15T09:55:27.000Z</time>
      </trkpt>
      <trkpt lat="44.52291" lon="6.14995">
        <ele>921.40002441406</ele>
        <time>2016-07-15T09:55:33.000Z</time>
      </trkpt>
      <trkpt lat="44.52285" lon="6.15002">
        <ele>920.40002441406</ele>
        <time>2016-07-15T09:55:40.000Z</time>
      </trkpt>
      <trkpt lat="44.5228" lon="6.1501">
        <ele>919.59997558594</ele>
        <time>2016-07-15T09:55:47.000Z</time>
      </trkpt>
      <trkpt lat="44.52277" lon="6.15015">
        <ele>919</ele>
        <time>2016-07-15T09:55:52.000Z</time>
      </trkpt>
      <trkpt lat="44.52271" lon="6.1502">
        <ele>918.40002441406</ele>
        <time>2016-07-15T09:55:58.000Z</time>
      </trkpt>
      <trkpt lat="44.52266" lon="6.15025">
        <ele>918.20001220703</ele>
        <time>2016-07-15T09:56:03.000Z</time>
      </trkpt>
      <trkpt lat="44.52262" lon="6.1503">
        <ele>917.59997558594</ele>
        <time>2016-07-15T09:56:06.000Z</time>
      </trkpt>
      <trkpt lat="44.52256" lon="6.15037">
        <ele>916.79998779297</ele>
        <time>2016-07-15T09:56:11.000Z</time>
      </trkpt>
      <trkpt lat="44.52247" lon="6.15054">
        <ele>914</ele>
        <time>2016-07-15T09:56:20.000Z</time>
      </trkpt>
      <trkpt lat="44.52242" lon="6.15068">
        <ele>912.20001220703</ele>
        <time>2016-07-15T09:56:27.000Z</time>
      </trkpt>
      <trkpt lat="44.52236" lon="6.15079">
        <ele>911.20001220703</ele>
        <time>2016-07-15T09:56:33.000Z</time>
      </trkpt>
      <trkpt lat="44.52225" lon="6.15091">
        <ele>910.79998779297</ele>
        <time>2016-07-15T09:56:42.000Z</time>
      </trkpt>
      <trkpt lat="44.52217" lon="6.15096">
        <ele>911.20001220703</ele>
        <time>2016-07-15T09:56:49.000Z</time>
      </trkpt>
      <trkpt lat="44.52208" lon="6.151">
        <ele>911.79998779297</ele>
        <time>2016-07-15T09:56:56.000Z</time>
      </trkpt>
      <trkpt lat="44.52199" lon="6.15104">
        <ele>912.40002441406</ele>
        <time>2016-07-15T09:57:02.000Z</time>
      </trkpt>
      <trkpt lat="44.52186" lon="6.15109">
        <ele>912.40002441406</ele>
        <time>2016-07-15T09:57:09.000Z</time>
      </trkpt>
      <trkpt lat="44.52173" lon="6.15115">
        <ele>912.40002441406</ele>
        <time>2016-07-15T09:57:18.000Z</time>
      </trkpt>
      <trkpt lat="44.5216" lon="6.15123">
        <ele>911.59997558594</ele>
        <time>2016-07-15T09:57:27.000Z</time>
      </trkpt>
      <trkpt lat="44.52147" lon="6.15132">
        <ele>910.40002441406</ele>
        <time>2016-07-15T09:57:37.000Z</time>
      </trkpt>
      <trkpt lat="44.52136" lon="6.15139">
        <ele>909.59997558594</ele>
        <time>2016-07-15T09:57:46.000Z</time>
      </trkpt>
      <trkpt lat="44.52124" lon="6.15145">
        <ele>908.79998779297</ele>
        <time>2016-07-15T09:57:55.000Z</time>
      </trkpt>
      <trkpt lat="44.52113" lon="6.15147">
        <ele>908.79998779297</ele>
        <time>2016-07-15T09:58:02.000Z</time>
      </trkpt>
      <trkpt lat="44.52101" lon="6.15148">
        <ele>908.59997558594</ele>
        <time>2016-07-15T09:58:10.000Z</time>
      </trkpt>
      <trkpt lat="44.52092" lon="6.15148">
        <ele>908.40002441406</ele>
        <time>2016-07-15T09:58:17.000Z</time>
      </trkpt>
      <trkpt lat="44.52083" lon="6.15148">
        <ele>908.40002441406</ele>
        <time>2016-07-15T09:58:24.000Z</time>
      </trkpt>
      <trkpt lat="44.52072" lon="6.15146">
        <ele>908.40002441406</ele>
        <time>2016-07-15T09:58:32.000Z</time>
      </trkpt>
      <trkpt lat="44.52055" lon="6.15143">
        <ele>908.40002441406</ele>
        <time>2016-07-15T09:58:44.000Z</time>
      </trkpt>
      <trkpt lat="44.52041" lon="6.15142">
        <ele>908.40002441406</ele>
        <time>2016-07-15T09:58:53.000Z</time>
      </trkpt>
      <trkpt lat="44.52031" lon="6.15139">
        <ele>908</ele>
        <time>2016-07-15T09:59:02.000Z</time>
      </trkpt>
      <trkpt lat="44.52021" lon="6.15136">
        <ele>907.20001220703</ele>
        <time>2016-07-15T09:59:10.000Z</time>
      </trkpt>
      <trkpt lat="44.52008" lon="6.15132">
        <ele>906.20001220703</ele>
        <time>2016-07-15T09:59:20.000Z</time>
      </trkpt>
      <trkpt lat="44.51997" lon="6.1513">
        <ele>905.20001220703</ele>
        <time>2016-07-15T09:59:28.000Z</time>
      </trkpt>
      <trkpt lat="44.51987" lon="6.15135">
        <ele>904</ele>
        <time>2016-07-15T09:59:36.000Z</time>
      </trkpt>
      <trkpt lat="44.51985" lon="6.15135">
        <ele>903.79998779297</ele>
        <time>2016-07-15T09:59:38.000Z</time>
      </trkpt>
      <trkpt lat="44.51989" lon="6.15132">
        <ele>904.20001220703</ele>
        <time>2016-07-15T09:59:44.000Z</time>
      </trkpt>
      <trkpt lat="44.5199" lon="6.15133">
        <ele>904.40002441406</ele>
        <time>2016-07-15T09:59:45.000Z</time>
      </trkpt>
      <trkpt lat="44.52001" lon="6.15134">
        <ele>905.40002441406</ele>
        <time>2016-07-15T09:59:53.000Z</time>
      </trkpt>
      <trkpt lat="44.52011" lon="6.15135">
        <ele>906.20001220703</ele>
        <time>2016-07-15T10:00:01.000Z</time>
      </trkpt>
      <trkpt lat="44.52021" lon="6.15138">
        <ele>907</ele>
        <time>2016-07-15T10:00:08.000Z</time>
      </trkpt>
      <trkpt lat="44.52028" lon="6.1514">
        <ele>907.59997558594</ele>
        <time>2016-07-15T10:00:15.000Z</time>
      </trkpt>
      <trkpt lat="44.5203" lon="6.15142">
        <ele>907.79998779297</ele>
        <time>2016-07-15T10:00:46.000Z</time>
      </trkpt>
      <trkpt lat="44.52032" lon="6.1515">
        <ele>907.20001220703</ele>
        <time>2016-07-15T10:00:53.000Z</time>
      </trkpt>
      <trkpt lat="44.52031" lon="6.15151">
        <ele>907</ele>
        <time>2016-07-15T10:00:55.000Z</time>
      </trkpt>
      <trkpt lat="44.52031" lon="6.15147">
        <ele>907.40002441406</ele>
        <time>2016-07-15T10:00:59.000Z</time>
      </trkpt>
      <trkpt lat="44.5203" lon="6.15141">
        <ele>907.79998779297</ele>
        <time>2016-07-15T10:01:04.000Z</time>
      </trkpt>
      <trkpt lat="44.5202" lon="6.15136">
        <ele>907</ele>
        <time>2016-07-15T10:01:13.000Z</time>
      </trkpt>
      <trkpt lat="44.52009" lon="6.15133">
        <ele>906.20001220703</ele>
        <time>2016-07-15T10:01:21.000Z</time>
      </trkpt>
      <trkpt lat="44.51998" lon="6.15131">
        <ele>905.20001220703</ele>
        <time>2016-07-15T10:01:29.000Z</time>
      </trkpt>
      <trkpt lat="44.51983" lon="6.15134">
        <ele>903.59997558594</ele>
        <time>2016-07-15T10:01:39.000Z</time>
      </trkpt>
      <trkpt lat="44.51982" lon="6.15133">
        <ele>903.59997558594</ele>
        <time>2016-07-15T10:01:46.000Z</time>
      </trkpt>
      <trkpt lat="44.51964" lon="6.15135">
        <ele>901.79998779297</ele>
        <time>2016-07-15T10:02:23.000Z</time>
      </trkpt>
      <trkpt lat="44.51957" lon="6.15136">
        <ele>901</ele>
        <time>2016-07-15T10:02:30.000Z</time>
      </trkpt>
      <trkpt lat="44.51953" lon="6.15136">
        <ele>900.59997558594</ele>
        <time>2016-07-15T10:02:34.000Z</time>
      </trkpt>
      <trkpt lat="44.51947" lon="6.15136">
        <ele>900</ele>
        <time>2016-07-15T10:02:40.000Z</time>
      </trkpt>
      <trkpt lat="44.51937" lon="6.15138">
        <ele>898.79998779297</ele>
        <time>2016-07-15T10:02:48.000Z</time>
      </trkpt>
      <trkpt lat="44.51925" lon="6.1514">
        <ele>897</ele>
        <time>2016-07-15T10:02:57.000Z</time>
      </trkpt>
      <trkpt lat="44.51914" lon="6.15139">
        <ele>895.59997558594</ele>
        <time>2016-07-15T10:03:05.000Z</time>
      </trkpt>
      <trkpt lat="44.51891" lon="6.15131">
        <ele>893.20001220703</ele>
        <time>2016-07-15T10:03:23.000Z</time>
      </trkpt>
      <trkpt lat="44.51881" lon="6.15129">
        <ele>892</ele>
        <time>2016-07-15T10:03:31.000Z</time>
      </trkpt>
      <trkpt lat="44.51863" lon="6.15125">
        <ele>890.20001220703</ele>
        <time>2016-07-15T10:03:43.000Z</time>
      </trkpt>
      <trkpt lat="44.51845" lon="6.15126">
        <ele>888.59997558594</ele>
        <time>2016-07-15T10:03:55.000Z</time>
      </trkpt>
      <trkpt lat="44.51837" lon="6.15125">
        <ele>888.40002441406</ele>
        <time>2016-07-15T10:04:04.000Z</time>
      </trkpt>
      <trkpt lat="44.51836" lon="6.15124">
        <ele>888.40002441406</ele>
        <time>2016-07-15T10:04:11.000Z</time>
      </trkpt>
      <trkpt lat="44.51834" lon="6.15119">
        <ele>888.40002441406</ele>
        <time>2016-07-15T10:04:17.000Z</time>
      </trkpt>
      <trkpt lat="44.51833" lon="6.1512">
        <ele>888.40002441406</ele>
        <time>2016-07-15T10:04:24.000Z</time>
      </trkpt>
      <trkpt lat="44.51835" lon="6.15122">
        <ele>888.40002441406</ele>
        <time>2016-07-15T10:04:29.000Z</time>
      </trkpt>
      <trkpt lat="44.51835" lon="6.15125">
        <ele>888.40002441406</ele>
        <time>2016-07-15T10:04:34.000Z</time>
      </trkpt>
      <trkpt lat="44.51834" lon="6.15122">
        <ele>888.40002441406</ele>
        <time>2016-07-15T10:04:46.000Z</time>
      </trkpt>
      <trkpt lat="44.51833" lon="6.15122">
        <ele>888.40002441406</ele>
        <time>2016-07-15T10:04:52.000Z</time>
      </trkpt>
      <trkpt lat="44.51829" lon="6.15116">
        <ele>888.40002441406</ele>
        <time>2016-07-15T10:05:00.000Z</time>
      </trkpt>
      <trkpt lat="44.51821" lon="6.151">
        <ele>888.40002441406</ele>
        <time>2016-07-15T10:05:10.000Z</time>
      </trkpt>
      <trkpt lat="44.51812" lon="6.15083">
        <ele>888.79998779297</ele>
        <time>2016-07-15T10:05:20.000Z</time>
      </trkpt>
      <trkpt lat="44.518" lon="6.15062">
        <ele>889.40002441406</ele>
        <time>2016-07-15T10:05:33.000Z</time>
      </trkpt>
      <trkpt lat="44.51791" lon="6.15046">
        <ele>889.59997558594</ele>
        <time>2016-07-15T10:05:43.000Z</time>
      </trkpt>
      <trkpt lat="44.51786" lon="6.15027">
        <ele>890.20001220703</ele>
        <time>2016-07-15T10:05:54.000Z</time>
      </trkpt>
      <trkpt lat="44.51786" lon="6.15024">
        <ele>890.40002441406</ele>
        <time>2016-07-15T10:05:56.000Z</time>
      </trkpt>
      <trkpt lat="44.51789" lon="6.15016">
        <ele>891.20001220703</ele>
        <time>2016-07-15T10:06:00.000Z</time>
      </trkpt>
      <trkpt lat="44.51798" lon="6.14996">
        <ele>893.20001220703</ele>
        <time>2016-07-15T10:06:12.000Z</time>
      </trkpt>
      <trkpt lat="44.51798" lon="6.14981">
        <ele>894.40002441406</ele>
        <time>2016-07-15T10:06:19.000Z</time>
      </trkpt>
      <trkpt lat="44.51798" lon="6.14977">
        <ele>894.79998779297</ele>
        <time>2016-07-15T10:06:21.000Z</time>
      </trkpt>
      <trkpt lat="44.51795" lon="6.1497">
        <ele>895.20001220703</ele>
        <time>2016-07-15T10:06:25.000Z</time>
      </trkpt>
      <trkpt lat="44.51785" lon="6.14952">
        <ele>896.40002441406</ele>
        <time>2016-07-15T10:06:36.000Z</time>
      </trkpt>
      <trkpt lat="44.51783" lon="6.14948">
        <ele>896.59997558594</ele>
        <time>2016-07-15T10:06:39.000Z</time>
      </trkpt>
      <trkpt lat="44.51772" lon="6.14947">
        <ele>896</ele>
        <time>2016-07-15T10:06:47.000Z</time>
      </trkpt>
      <trkpt lat="44.51766" lon="6.14949">
        <ele>895.40002441406</ele>
        <time>2016-07-15T10:06:53.000Z</time>
      </trkpt>
      <trkpt lat="44.51757" lon="6.14952">
        <ele>894.40002441406</ele>
        <time>2016-07-15T10:07:02.000Z</time>
      </trkpt>
      <trkpt lat="44.51749" lon="6.14951">
        <ele>893.59997558594</ele>
        <time>2016-07-15T10:07:08.000Z</time>
      </trkpt>
      <trkpt lat="44.51742" lon="6.14941">
        <ele>894.59997558594</ele>
        <time>2016-07-15T10:07:16.000Z</time>
      </trkpt>
      <trkpt lat="44.51742" lon="6.14924">
        <ele>897</ele>
        <time>2016-07-15T10:07:26.000Z</time>
      </trkpt>
      <trkpt lat="44.51742" lon="6.14923">
        <ele>897</ele>
        <time>2016-07-15T10:07:34.000Z</time>
      </trkpt>
      <trkpt lat="44.51744" lon="6.14917">
        <ele>897.79998779297</ele>
        <time>2016-07-15T10:07:46.000Z</time>
      </trkpt>
      <trkpt lat="44.5175" lon="6.14904">
        <ele>899.79998779297</ele>
        <time>2016-07-15T10:07:55.000Z</time>
      </trkpt>
      <trkpt lat="44.51755" lon="6.14886">
        <ele>903</ele>
        <time>2016-07-15T10:08:05.000Z</time>
      </trkpt>
      <trkpt lat="44.51757" lon="6.14871">
        <ele>906.40002441406</ele>
        <time>2016-07-15T10:08:14.000Z</time>
      </trkpt>
      <trkpt lat="44.51746" lon="6.14866">
        <ele>906.79998779297</ele>
        <time>2016-07-15T10:08:24.000Z</time>
      </trkpt>
      <trkpt lat="44.51732" lon="6.14876">
        <ele>903.79998779297</ele>
        <time>2016-07-15T10:08:35.000Z</time>
      </trkpt>
      <trkpt lat="44.51728" lon="6.14877">
        <ele>903.20001220703</ele>
        <time>2016-07-15T10:08:38.000Z</time>
      </trkpt>
      <trkpt lat="44.51718" lon="6.14876">
        <ele>903</ele>
        <time>2016-07-15T10:08:46.000Z</time>
      </trkpt>
      <trkpt lat="44.51707" lon="6.14881">
        <ele>901.20001220703</ele>
        <time>2016-07-15T10:08:55.000Z</time>
      </trkpt>
      <trkpt lat="44.51695" lon="6.14882">
        <ele>899.40002441406</ele>
        <time>2016-07-15T10:09:04.000Z</time>
      </trkpt>
      <trkpt lat="44.51673" lon="6.14878">
        <ele>896</ele>
        <time>2016-07-15T10:09:20.000Z</time>
      </trkpt>
      <trkpt lat="44.51668" lon="6.14876">
        <ele>895.59997558594</ele>
        <time>2016-07-15T10:09:26.000Z</time>
      </trkpt>
      <trkpt lat="44.51658" lon="6.14877">
        <ele>894</ele>
        <time>2016-07-15T10:09:34.000Z</time>
      </trkpt>
      <trkpt lat="44.51648" lon="6.14881">
        <ele>892.20001220703</ele>
        <time>2016-07-15T10:09:41.000Z</time>
      </trkpt>
      <trkpt lat="44.51647" lon="6.14881">
        <ele>891.79998779297</ele>
        <time>2016-07-15T10:09:42.000Z</time>
      </trkpt>
      <trkpt lat="44.51643" lon="6.14883">
        <ele>891.20001220703</ele>
        <time>2016-07-15T10:09:45.000Z</time>
      </trkpt>
      <trkpt lat="44.5163" lon="6.14885">
        <ele>889</ele>
        <time>2016-07-15T10:09:54.000Z</time>
      </trkpt>
      <trkpt lat="44.51616" lon="6.1488">
        <ele>887.79998779297</ele>
        <time>2016-07-15T10:10:03.000Z</time>
      </trkpt>
      <trkpt lat="44.5161" lon="6.14875">
        <ele>889</ele>
        <time>2016-07-15T10:10:08.000Z</time>
      </trkpt>
      <trkpt lat="44.51602" lon="6.14856">
        <ele>892.20001220703</ele>
        <time>2016-07-15T10:10:19.000Z</time>
      </trkpt>
      <trkpt lat="44.51602" lon="6.14841">
        <ele>894</ele>
        <time>2016-07-15T10:10:27.000Z</time>
      </trkpt>
      <trkpt lat="44.516" lon="6.14823">
        <ele>896.40002441406</ele>
        <time>2016-07-15T10:10:36.000Z</time>
      </trkpt>
      <trkpt lat="44.51597" lon="6.14797">
        <ele>900.40002441406</ele>
        <time>2016-07-15T10:10:49.000Z</time>
      </trkpt>
      <trkpt lat="44.51594" lon="6.1478">
        <ele>903.59997558594</ele>
        <time>2016-07-15T10:10:58.000Z</time>
      </trkpt>
      <trkpt lat="44.51593" lon="6.14765">
        <ele>906.59997558594</ele>
        <time>2016-07-15T10:11:06.000Z</time>
      </trkpt>
      <trkpt lat="44.51589" lon="6.1475">
        <ele>909.59997558594</ele>
        <time>2016-07-15T10:11:15.000Z</time>
      </trkpt>
      <trkpt lat="44.51588" lon="6.14749">
        <ele>909.79998779297</ele>
        <time>2016-07-15T10:11:16.000Z</time>
      </trkpt>
      <trkpt lat="44.51584" lon="6.1475">
        <ele>910.20001220703</ele>
        <time>2016-07-15T10:11:19.000Z</time>
      </trkpt>
      <trkpt lat="44.51583" lon="6.14752">
        <ele>909.79998779297</ele>
        <time>2016-07-15T10:11:21.000Z</time>
      </trkpt>
      <trkpt lat="44.51578" lon="6.14759">
        <ele>909</ele>
        <time>2016-07-15T10:11:27.000Z</time>
      </trkpt>
      <trkpt lat="44.51576" lon="6.14763">
        <ele>908.59997558594</ele>
        <time>2016-07-15T10:11:33.000Z</time>
      </trkpt>
      <trkpt lat="44.51574" lon="6.14768">
        <ele>907.79998779297</ele>
        <time>2016-07-15T10:11:40.000Z</time>
      </trkpt>
      <trkpt lat="44.5157" lon="6.14776">
        <ele>907</ele>
        <time>2016-07-15T10:11:46.000Z</time>
      </trkpt>
      <trkpt lat="44.51565" lon="6.14783">
        <ele>906.20001220703</ele>
        <time>2016-07-15T10:11:52.000Z</time>
      </trkpt>
      <trkpt lat="44.51564" lon="6.14784">
        <ele>906.20001220703</ele>
        <time>2016-07-15T10:11:53.000Z</time>
      </trkpt>
      <trkpt lat="44.51556" lon="6.14797">
        <ele>904.79998779297</ele>
        <time>2016-07-15T10:12:03.000Z</time>
      </trkpt>
      <trkpt lat="44.51555" lon="6.14798">
        <ele>904.79998779297</ele>
        <time>2016-07-15T10:12:04.000Z</time>
      </trkpt>
      <trkpt lat="44.51553" lon="6.14803">
        <ele>904.40002441406</ele>
        <time>2016-07-15T10:12:07.000Z</time>
      </trkpt>
      <trkpt lat="44.51546" lon="6.14815">
        <ele>903.20001220703</ele>
        <time>2016-07-15T10:12:15.000Z</time>
      </trkpt>
      <trkpt lat="44.51544" lon="6.14817">
        <ele>903</ele>
        <time>2016-07-15T10:12:16.000Z</time>
      </trkpt>
      <trkpt lat="44.51541" lon="6.14822">
        <ele>902.59997558594</ele>
        <time>2016-07-15T10:12:20.000Z</time>
      </trkpt>
      <trkpt lat="44.51537" lon="6.14828">
        <ele>901.79998779297</ele>
        <time>2016-07-15T10:12:24.000Z</time>
      </trkpt>
      <trkpt lat="44.51531" lon="6.14837">
        <ele>900.20001220703</ele>
        <time>2016-07-15T10:12:32.000Z</time>
      </trkpt>
      <trkpt lat="44.51526" lon="6.14846">
        <ele>898.40002441406</ele>
        <time>2016-07-15T10:12:38.000Z</time>
      </trkpt>
      <trkpt lat="44.51517" lon="6.14853">
        <ele>896.79998779297</ele>
        <time>2016-07-15T10:12:45.000Z</time>
      </trkpt>
      <trkpt lat="44.51513" lon="6.14854">
        <ele>896.40002441406</ele>
        <time>2016-07-15T10:12:50.000Z</time>
      </trkpt>
      <trkpt lat="44.5151" lon="6.14853">
        <ele>896.59997558594</ele>
        <time>2016-07-15T10:12:52.000Z</time>
      </trkpt>
      <trkpt lat="44.51507" lon="6.14846">
        <ele>897.79998779297</ele>
        <time>2016-07-15T10:12:58.000Z</time>
      </trkpt>
      <trkpt lat="44.51506" lon="6.14839">
        <ele>899</ele>
        <time>2016-07-15T10:13:03.000Z</time>
      </trkpt>
      <trkpt lat="44.51507" lon="6.14835">
        <ele>899.79998779297</ele>
        <time>2016-07-15T10:13:07.000Z</time>
      </trkpt>
      <trkpt lat="44.51507" lon="6.1483">
        <ele>900.59997558594</ele>
        <time>2016-07-15T10:13:11.000Z</time>
      </trkpt>
      <trkpt lat="44.51506" lon="6.14826">
        <ele>901.20001220703</ele>
        <time>2016-07-15T10:13:14.000Z</time>
      </trkpt>
      <trkpt lat="44.51508" lon="6.14816">
        <ele>903.20001220703</ele>
        <time>2016-07-15T10:13:22.000Z</time>
      </trkpt>
      <trkpt lat="44.51509" lon="6.14814">
        <ele>903.59997558594</ele>
        <time>2016-07-15T10:13:24.000Z</time>
      </trkpt>
      <trkpt lat="44.51508" lon="6.14806">
        <ele>904.59997558594</ele>
        <time>2016-07-15T10:13:30.000Z</time>
      </trkpt>
      <trkpt lat="44.51506" lon="6.14796">
        <ele>905.20001220703</ele>
        <time>2016-07-15T10:13:51.000Z</time>
      </trkpt>
      <trkpt lat="44.51506" lon="6.14788">
        <ele>906</ele>
        <time>2016-07-15T10:13:56.000Z</time>
      </trkpt>
      <trkpt lat="44.51506" lon="6.14786">
        <ele>906.20001220703</ele>
        <time>2016-07-15T10:13:58.000Z</time>
      </trkpt>
      <trkpt lat="44.51507" lon="6.1478">
        <ele>907</ele>
        <time>2016-07-15T10:14:02.000Z</time>
      </trkpt>
      <trkpt lat="44.51507" lon="6.14778">
        <ele>907.40002441406</ele>
        <time>2016-07-15T10:14:05.000Z</time>
      </trkpt>
      <trkpt lat="44.51509" lon="6.14774">
        <ele>908.20001220703</ele>
        <time>2016-07-15T10:14:09.000Z</time>
      </trkpt>
      <trkpt lat="44.51509" lon="6.14772">
        <ele>908.59997558594</ele>
        <time>2016-07-15T10:14:11.000Z</time>
      </trkpt>
      <trkpt lat="44.51512" lon="6.14766">
        <ele>910</ele>
        <time>2016-07-15T10:14:16.000Z</time>
      </trkpt>
      <trkpt lat="44.51513" lon="6.14761">
        <ele>911</ele>
        <time>2016-07-15T10:14:20.000Z</time>
      </trkpt>
      <trkpt lat="44.51514" lon="6.14757">
        <ele>911.59997558594</ele>
        <time>2016-07-15T10:14:22.000Z</time>
      </trkpt>
      <trkpt lat="44.51516" lon="6.14752">
        <ele>912.79998779297</ele>
        <time>2016-07-15T10:14:26.000Z</time>
      </trkpt>
      <trkpt lat="44.51518" lon="6.14747">
        <ele>913.79998779297</ele>
        <time>2016-07-15T10:14:30.000Z</time>
      </trkpt>
      <trkpt lat="44.51518" lon="6.14745">
        <ele>914.20001220703</ele>
        <time>2016-07-15T10:14:32.000Z</time>
      </trkpt>
      <trkpt lat="44.51526" lon="6.1473">
        <ele>917.59997558594</ele>
        <time>2016-07-15T10:14:40.000Z</time>
      </trkpt>
      <trkpt lat="44.5153" lon="6.14722">
        <ele>919.79998779297</ele>
        <time>2016-07-15T10:14:45.000Z</time>
      </trkpt>
      <trkpt lat="44.51531" lon="6.14718">
        <ele>920.40002441406</ele>
        <time>2016-07-15T10:14:47.000Z</time>
      </trkpt>
      <trkpt lat="44.51532" lon="6.14713">
        <ele>921.40002441406</ele>
        <time>2016-07-15T10:14:51.000Z</time>
      </trkpt>
      <trkpt lat="44.51531" lon="6.14709">
        <ele>922</ele>
        <time>2016-07-15T10:14:54.000Z</time>
      </trkpt>
      <trkpt lat="44.51532" lon="6.147">
        <ele>923.79998779297</ele>
        <time>2016-07-15T10:15:00.000Z</time>
      </trkpt>
      <trkpt lat="44.51532" lon="6.14698">
        <ele>924.20001220703</ele>
        <time>2016-07-15T10:15:02.000Z</time>
      </trkpt>
      <trkpt lat="44.51527" lon="6.14689">
        <ele>925.40002441406</ele>
        <time>2016-07-15T10:15:08.000Z</time>
      </trkpt>
      <trkpt lat="44.51525" lon="6.14686">
        <ele>925.59997558594</ele>
        <time>2016-07-15T10:15:10.000Z</time>
      </trkpt>
      <trkpt lat="44.51522" lon="6.14679">
        <ele>926.59997558594</ele>
        <time>2016-07-15T10:15:14.000Z</time>
      </trkpt>
      <trkpt lat="44.5152" lon="6.14674">
        <ele>927.20001220703</ele>
        <time>2016-07-15T10:15:17.000Z</time>
      </trkpt>
      <trkpt lat="44.51517" lon="6.14667">
        <ele>928.20001220703</ele>
        <time>2016-07-15T10:15:22.000Z</time>
      </trkpt>
      <trkpt lat="44.51513" lon="6.14661">
        <ele>929</ele>
        <time>2016-07-15T10:15:27.000Z</time>
      </trkpt>
      <trkpt lat="44.51512" lon="6.14658">
        <ele>929.40002441406</ele>
        <time>2016-07-15T10:15:29.000Z</time>
      </trkpt>
      <trkpt lat="44.51511" lon="6.14656">
        <ele>929.79998779297</ele>
        <time>2016-07-15T10:15:31.000Z</time>
      </trkpt>
      <trkpt lat="44.51508" lon="6.14646">
        <ele>931.20001220703</ele>
        <time>2016-07-15T10:15:37.000Z</time>
      </trkpt>
      <trkpt lat="44.51505" lon="6.14638">
        <ele>932.59997558594</ele>
        <time>2016-07-15T10:15:42.000Z</time>
      </trkpt>
      <trkpt lat="44.51502" lon="6.14629">
        <ele>934.40002441406</ele>
        <time>2016-07-15T10:15:48.000Z</time>
      </trkpt>
      <trkpt lat="44.51501" lon="6.14628">
        <ele>934.59997558594</ele>
        <time>2016-07-15T10:15:49.000Z</time>
      </trkpt>
      <trkpt lat="44.51497" lon="6.14621">
        <ele>935.59997558594</ele>
        <time>2016-07-15T10:15:53.000Z</time>
      </trkpt>
      <trkpt lat="44.51497" lon="6.14611">
        <ele>938</ele>
        <time>2016-07-15T10:15:58.000Z</time>
      </trkpt>
      <trkpt lat="44.51497" lon="6.14599">
        <ele>941.20001220703</ele>
        <time>2016-07-15T10:16:03.000Z</time>
      </trkpt>
      <trkpt lat="44.51495" lon="6.14586">
        <ele>944.40002441406</ele>
        <time>2016-07-15T10:16:06.000Z</time>
      </trkpt>
      <trkpt lat="44.51489" lon="6.1457">
        <ele>947.59997558594</ele>
        <time>2016-07-15T10:16:11.000Z</time>
      </trkpt>
      <trkpt lat="44.51488" lon="6.14569">
        <ele>947.79998779297</ele>
        <time>2016-07-15T10:16:12.000Z</time>
      </trkpt>
      <trkpt lat="44.51486" lon="6.14567">
        <ele>948</ele>
        <time>2016-07-15T10:16:14.000Z</time>
      </trkpt>
      <trkpt lat="44.51487" lon="6.14541">
        <ele>950</ele>
        <time>2016-07-15T10:16:29.000Z</time>
      </trkpt>
      <trkpt lat="44.5149" lon="6.1454">
        <ele>950.40002441406</ele>
        <time>2016-07-15T10:16:46.000Z</time>
      </trkpt>
      <trkpt lat="44.51498" lon="6.14543">
        <ele>951.59997558594</ele>
        <time>2016-07-15T10:16:53.000Z</time>
      </trkpt>
      <trkpt lat="44.51506" lon="6.14546">
        <ele>952.59997558594</ele>
        <time>2016-07-15T10:17:00.000Z</time>
      </trkpt>
      <trkpt lat="44.51508" lon="6.14547">
        <ele>952.79998779297</ele>
        <time>2016-07-15T10:17:02.000Z</time>
      </trkpt>
      <trkpt lat="44.51512" lon="6.14549">
        <ele>953.40002441406</ele>
        <time>2016-07-15T10:17:06.000Z</time>
      </trkpt>
      <trkpt lat="44.51522" lon="6.14555">
        <ele>954.59997558594</ele>
        <time>2016-07-15T10:17:14.000Z</time>
      </trkpt>
      <trkpt lat="44.51539" lon="6.14561">
        <ele>956</ele>
        <time>2016-07-15T10:17:28.000Z</time>
      </trkpt>
      <trkpt lat="44.51548" lon="6.14562">
        <ele>956.20001220703</ele>
        <time>2016-07-15T10:17:35.000Z</time>
      </trkpt>
      <trkpt lat="44.51555" lon="6.14557">
        <ele>957.59997558594</ele>
        <time>2016-07-15T10:17:42.000Z</time>
      </trkpt>
      <trkpt lat="44.51556" lon="6.14555">
        <ele>958</ele>
        <time>2016-07-15T10:17:43.000Z</time>
      </trkpt>
      <trkpt lat="44.51555" lon="6.14543">
        <ele>959.79998779297</ele>
        <time>2016-07-15T10:17:50.000Z</time>
      </trkpt>
      <trkpt lat="44.5155" lon="6.14539">
        <ele>960.20001220703</ele>
        <time>2016-07-15T10:17:56.000Z</time>
      </trkpt>
      <trkpt lat="44.51549" lon="6.14538">
        <ele>960.40002441406</ele>
        <time>2016-07-15T10:17:57.000Z</time>
      </trkpt>
      <trkpt lat="44.51543" lon="6.1453">
        <ele>961.20001220703</ele>
        <time>2016-07-15T10:18:05.000Z</time>
      </trkpt>
      <trkpt lat="44.51542" lon="6.14529">
        <ele>961.40002441406</ele>
        <time>2016-07-15T10:18:06.000Z</time>
      </trkpt>
      <trkpt lat="44.5154" lon="6.14524">
        <ele>962</ele>
        <time>2016-07-15T10:18:09.000Z</time>
      </trkpt>
      <trkpt lat="44.51536" lon="6.1451">
        <ele>964</ele>
        <time>2016-07-15T10:18:18.000Z</time>
      </trkpt>
      <trkpt lat="44.51534" lon="6.14499">
        <ele>965.59997558594</ele>
        <time>2016-07-15T10:18:25.000Z</time>
      </trkpt>
      <trkpt lat="44.51533" lon="6.14497">
        <ele>965.79998779297</ele>
        <time>2016-07-15T10:18:26.000Z</time>
      </trkpt>
      <trkpt lat="44.51529" lon="6.14488">
        <ele>966.20001220703</ele>
        <time>2016-07-15T10:18:33.000Z</time>
      </trkpt>
      <trkpt lat="44.51529" lon="6.14487">
        <ele>966.20001220703</ele>
        <time>2016-07-15T10:18:34.000Z</time>
      </trkpt>
      <trkpt lat="44.51529" lon="6.14484">
        <ele>966.79998779297</ele>
        <time>2016-07-15T10:18:43.000Z</time>
      </trkpt>
      <trkpt lat="44.51532" lon="6.14487">
        <ele>967.20001220703</ele>
        <time>2016-07-15T10:18:48.000Z</time>
      </trkpt>
      <trkpt lat="44.51537" lon="6.14498">
        <ele>966</ele>
        <time>2016-07-15T10:18:56.000Z</time>
      </trkpt>
      <trkpt lat="44.51538" lon="6.14503">
        <ele>965.20001220703</ele>
        <time>2016-07-15T10:18:59.000Z</time>
      </trkpt>
      <trkpt lat="44.5154" lon="6.145">
        <ele>965.79998779297</ele>
        <time>2016-07-15T10:19:04.000Z</time>
      </trkpt>
      <trkpt lat="44.5154" lon="6.14498">
        <ele>966</ele>
        <time>2016-07-15T10:19:05.000Z</time>
      </trkpt>
      <trkpt lat="44.5154" lon="6.14492">
        <ele>967</ele>
        <time>2016-07-15T10:19:09.000Z</time>
      </trkpt>
      <trkpt lat="44.51541" lon="6.14481">
        <ele>969.20001220703</ele>
        <time>2016-07-15T10:19:15.000Z</time>
      </trkpt>
      <trkpt lat="44.5154" lon="6.14475">
        <ele>970</ele>
        <time>2016-07-15T10:19:19.000Z</time>
      </trkpt>
      <trkpt lat="44.5154" lon="6.14473">
        <ele>970</ele>
        <time>2016-07-15T10:19:20.000Z</time>
      </trkpt>
      <trkpt lat="44.51539" lon="6.14466">
        <ele>969.79998779297</ele>
        <time>2016-07-15T10:19:24.000Z</time>
      </trkpt>
      <trkpt lat="44.51538" lon="6.14452">
        <ele>969.59997558594</ele>
        <time>2016-07-15T10:19:32.000Z</time>
      </trkpt>
      <trkpt lat="44.51538" lon="6.14445">
        <ele>969.40002441406</ele>
        <time>2016-07-15T10:19:36.000Z</time>
      </trkpt>
      <trkpt lat="44.51538" lon="6.14432">
        <ele>969.20001220703</ele>
        <time>2016-07-15T10:19:43.000Z</time>
      </trkpt>
      <trkpt lat="44.51539" lon="6.1443">
        <ele>969.40002441406</ele>
        <time>2016-07-15T10:19:45.000Z</time>
      </trkpt>
      <trkpt lat="44.51545" lon="6.14426">
        <ele>970.40002441406</ele>
        <time>2016-07-15T10:19:52.000Z</time>
      </trkpt>
      <trkpt lat="44.51547" lon="6.14427">
        <ele>970.79998779297</ele>
        <time>2016-07-15T10:19:54.000Z</time>
      </trkpt>
      <trkpt lat="44.51554" lon="6.14431">
        <ele>972.20001220703</ele>
        <time>2016-07-15T10:20:01.000Z</time>
      </trkpt>
      <trkpt lat="44.5156" lon="6.14433">
        <ele>973.20001220703</ele>
        <time>2016-07-15T10:20:07.000Z</time>
      </trkpt>
      <trkpt lat="44.51566" lon="6.14435">
        <ele>974.40002441406</ele>
        <time>2016-07-15T10:20:13.000Z</time>
      </trkpt>
      <trkpt lat="44.51567" lon="6.14435">
        <ele>974.59997558594</ele>
        <time>2016-07-15T10:20:14.000Z</time>
      </trkpt>
      <trkpt lat="44.51569" lon="6.14435">
        <ele>974.79998779297</ele>
        <time>2016-07-15T10:20:15.000Z</time>
      </trkpt>
      <trkpt lat="44.51574" lon="6.14438">
        <ele>975.79998779297</ele>
        <time>2016-07-15T10:20:21.000Z</time>
      </trkpt>
      <trkpt lat="44.51575" lon="6.14438">
        <ele>976</ele>
        <time>2016-07-15T10:20:22.000Z</time>
      </trkpt>
      <trkpt lat="44.5158" lon="6.1444">
        <ele>977</ele>
        <time>2016-07-15T10:20:26.000Z</time>
      </trkpt>
      <trkpt lat="44.51589" lon="6.14437">
        <ele>980</ele>
        <time>2016-07-15T10:20:33.000Z</time>
      </trkpt>
      <trkpt lat="44.51596" lon="6.14434">
        <ele>982.40002441406</ele>
        <time>2016-07-15T10:20:39.000Z</time>
      </trkpt>
      <trkpt lat="44.51603" lon="6.14433">
        <ele>984.59997558594</ele>
        <time>2016-07-15T10:20:44.000Z</time>
      </trkpt>
      <trkpt lat="44.51615" lon="6.14434">
        <ele>988.20001220703</ele>
        <time>2016-07-15T10:20:53.000Z</time>
      </trkpt>
      <trkpt lat="44.51625" lon="6.14433">
        <ele>989.40002441406</ele>
        <time>2016-07-15T10:21:01.000Z</time>
      </trkpt>
      <trkpt lat="44.51634" lon="6.14435">
        <ele>989.79998779297</ele>
        <time>2016-07-15T10:21:08.000Z</time>
      </trkpt>
      <trkpt lat="44.51644" lon="6.1443">
        <ele>991</ele>
        <time>2016-07-15T10:21:20.000Z</time>
      </trkpt>
      <trkpt lat="44.51644" lon="6.14428">
        <ele>991.20001220703</ele>
        <time>2016-07-15T10:21:21.000Z</time>
      </trkpt>
      <trkpt lat="44.51641" lon="6.14412">
        <ele>994.20001220703</ele>
        <time>2016-07-15T10:21:29.000Z</time>
      </trkpt>
      <trkpt lat="44.51641" lon="6.14399">
        <ele>997.79998779297</ele>
        <time>2016-07-15T10:21:38.000Z</time>
      </trkpt>
      <trkpt lat="44.51641" lon="6.14389">
        <ele>999.59997558594</ele>
        <time>2016-07-15T10:21:45.000Z</time>
      </trkpt>
      <trkpt lat="44.51645" lon="6.14378">
        <ele>1000.799987793</ele>
        <time>2016-07-15T10:21:52.000Z</time>
      </trkpt>
      <trkpt lat="44.51647" lon="6.14372">
        <ele>1001.4000244141</ele>
        <time>2016-07-15T10:21:56.000Z</time>
      </trkpt>
      <trkpt lat="44.51651" lon="6.1436">
        <ele>1002.799987793</ele>
        <time>2016-07-15T10:22:04.000Z</time>
      </trkpt>
      <trkpt lat="44.51652" lon="6.14354">
        <ele>1003.200012207</ele>
        <time>2016-07-15T10:22:08.000Z</time>
      </trkpt>
      <trkpt lat="44.51654" lon="6.14344">
        <ele>1004.4000244141</ele>
        <time>2016-07-15T10:22:15.000Z</time>
      </trkpt>
      <trkpt lat="44.51658" lon="6.1433">
        <ele>1008.4000244141</ele>
        <time>2016-07-15T10:22:24.000Z</time>
      </trkpt>
      <trkpt lat="44.51664" lon="6.14318">
        <ele>1012.5999755859</ele>
        <time>2016-07-15T10:22:33.000Z</time>
      </trkpt>
      <trkpt lat="44.51669" lon="6.1431">
        <ele>1015.5999755859</ele>
        <time>2016-07-15T10:22:40.000Z</time>
      </trkpt>
      <trkpt lat="44.51674" lon="6.14304">
        <ele>1018.5999755859</ele>
        <time>2016-07-15T10:22:46.000Z</time>
      </trkpt>
      <trkpt lat="44.5168" lon="6.14294">
        <ele>1022.4000244141</ele>
        <time>2016-07-15T10:22:53.000Z</time>
      </trkpt>
      <trkpt lat="44.51684" lon="6.14286">
        <ele>1023.799987793</ele>
        <time>2016-07-15T10:22:59.000Z</time>
      </trkpt>
      <trkpt lat="44.51684" lon="6.14285">
        <ele>1023.799987793</ele>
        <time>2016-07-15T10:23:00.000Z</time>
      </trkpt>
      <trkpt lat="44.51684" lon="6.14277">
        <ele>1023.5999755859</ele>
        <time>2016-07-15T10:23:04.000Z</time>
      </trkpt>
      <trkpt lat="44.51684" lon="6.14267">
        <ele>1023.4000244141</ele>
        <time>2016-07-15T10:23:10.000Z</time>
      </trkpt>
      <trkpt lat="44.51684" lon="6.14262">
        <ele>1023.4000244141</ele>
        <time>2016-07-15T10:23:13.000Z</time>
      </trkpt>
      <trkpt lat="44.51682" lon="6.14256">
        <ele>1023</ele>
        <time>2016-07-15T10:23:17.000Z</time>
      </trkpt>
      <trkpt lat="44.51683" lon="6.14252">
        <ele>1023.200012207</ele>
        <time>2016-07-15T10:23:19.000Z</time>
      </trkpt>
      <trkpt lat="44.51685" lon="6.14241">
        <ele>1023.5999755859</ele>
        <time>2016-07-15T10:23:25.000Z</time>
      </trkpt>
      <trkpt lat="44.51687" lon="6.14237">
        <ele>1023.799987793</ele>
        <time>2016-07-15T10:23:27.000Z</time>
      </trkpt>
      <trkpt lat="44.5169" lon="6.14227">
        <ele>1024.5999755859</ele>
        <time>2016-07-15T10:23:33.000Z</time>
      </trkpt>
      <trkpt lat="44.5169" lon="6.14218">
        <ele>1026.5999755859</ele>
        <time>2016-07-15T10:23:38.000Z</time>
      </trkpt>
      <trkpt lat="44.5169" lon="6.14214">
        <ele>1026.8000488281</ele>
        <time>2016-07-15T10:23:40.000Z</time>
      </trkpt>
      <trkpt lat="44.51692" lon="6.14201">
        <ele>1026.8000488281</ele>
        <time>2016-07-15T10:23:47.000Z</time>
      </trkpt>
      <trkpt lat="44.51695" lon="6.14191">
        <ele>1027</ele>
        <time>2016-07-15T10:23:53.000Z</time>
      </trkpt>
      <trkpt lat="44.51699" lon="6.14179">
        <ele>1027</ele>
        <time>2016-07-15T10:24:00.000Z</time>
      </trkpt>
      <trkpt lat="44.51699" lon="6.14178">
        <ele>1027</ele>
        <time>2016-07-15T10:24:01.000Z</time>
      </trkpt>
      <trkpt lat="44.51698" lon="6.14166">
        <ele>1027</ele>
        <time>2016-07-15T10:24:07.000Z</time>
      </trkpt>
      <trkpt lat="44.51698" lon="6.14163">
        <ele>1027</ele>
        <time>2016-07-15T10:24:09.000Z</time>
      </trkpt>
      <trkpt lat="44.51697" lon="6.14147">
        <ele>1027</ele>
        <time>2016-07-15T10:24:17.000Z</time>
      </trkpt>
      <trkpt lat="44.51696" lon="6.1414">
        <ele>1027.8000488281</ele>
        <time>2016-07-15T10:24:21.000Z</time>
      </trkpt>
      <trkpt lat="44.51697" lon="6.14129">
        <ele>1029.1999511719</ele>
        <time>2016-07-15T10:24:30.000Z</time>
      </trkpt>
      <trkpt lat="44.51697" lon="6.14125">
        <ele>1029.8000488281</ele>
        <time>2016-07-15T10:24:32.000Z</time>
      </trkpt>
      <trkpt lat="44.51693" lon="6.14111">
        <ele>1031.8000488281</ele>
        <time>2016-07-15T10:24:40.000Z</time>
      </trkpt>
      <trkpt lat="44.51689" lon="6.14087">
        <ele>1035.1999511719</ele>
        <time>2016-07-15T10:24:53.000Z</time>
      </trkpt>
      <trkpt lat="44.51688" lon="6.14079">
        <ele>1036.4000244141</ele>
        <time>2016-07-15T10:24:58.000Z</time>
      </trkpt>
      <trkpt lat="44.51687" lon="6.14072">
        <ele>1037.5999755859</ele>
        <time>2016-07-15T10:25:03.000Z</time>
      </trkpt>
      <trkpt lat="44.5169" lon="6.14067">
        <ele>1038</ele>
        <time>2016-07-15T10:25:07.000Z</time>
      </trkpt>
      <trkpt lat="44.51694" lon="6.14064">
        <ele>1038.1999511719</ele>
        <time>2016-07-15T10:25:11.000Z</time>
      </trkpt>
      <trkpt lat="44.51697" lon="6.1406">
        <ele>1038.4000244141</ele>
        <time>2016-07-15T10:25:14.000Z</time>
      </trkpt>
      <trkpt lat="44.51702" lon="6.14052">
        <ele>1041</ele>
        <time>2016-07-15T10:25:19.000Z</time>
      </trkpt>
      <trkpt lat="44.51707" lon="6.14044">
        <ele>1044.1999511719</ele>
        <time>2016-07-15T10:25:24.000Z</time>
      </trkpt>
      <trkpt lat="44.51708" lon="6.14042">
        <ele>1045</ele>
        <time>2016-07-15T10:25:25.000Z</time>
      </trkpt>
      <trkpt lat="44.5171" lon="6.14041">
        <ele>1045.5999755859</ele>
        <time>2016-07-15T10:25:26.000Z</time>
      </trkpt>
      <trkpt lat="44.51715" lon="6.14032">
        <ele>1049.1999511719</ele>
        <time>2016-07-15T10:25:32.000Z</time>
      </trkpt>
      <trkpt lat="44.51717" lon="6.14031">
        <ele>1049.8000488281</ele>
        <time>2016-07-15T10:25:33.000Z</time>
      </trkpt>
      <trkpt lat="44.51723" lon="6.14024">
        <ele>1053.5999755859</ele>
        <time>2016-07-15T10:25:40.000Z</time>
      </trkpt>
      <trkpt lat="44.51726" lon="6.14022">
        <ele>1054.5999755859</ele>
        <time>2016-07-15T10:25:43.000Z</time>
      </trkpt>
      <trkpt lat="44.5173" lon="6.14021">
        <ele>1056.1999511719</ele>
        <time>2016-07-15T10:25:47.000Z</time>
      </trkpt>
      <trkpt lat="44.51735" lon="6.14017">
        <ele>1058.4000244141</ele>
        <time>2016-07-15T10:25:53.000Z</time>
      </trkpt>
      <trkpt lat="44.51729" lon="6.14011">
        <ele>1058.4000244141</ele>
        <time>2016-07-15T10:25:59.000Z</time>
      </trkpt>
      <trkpt lat="44.51724" lon="6.14008">
        <ele>1057.8000488281</ele>
        <time>2016-07-15T10:26:01.000Z</time>
      </trkpt>
      <trkpt lat="44.51715" lon="6.13999">
        <ele>1058</ele>
        <time>2016-07-15T10:26:06.000Z</time>
      </trkpt>
      <trkpt lat="44.51709" lon="6.13995">
        <ele>1057.4000244141</ele>
        <time>2016-07-15T10:26:09.000Z</time>
      </trkpt>
      <trkpt lat="44.51707" lon="6.13994">
        <ele>1057.1999511719</ele>
        <time>2016-07-15T10:26:10.000Z</time>
      </trkpt>
      <trkpt lat="44.51697" lon="6.13991">
        <ele>1056.5999755859</ele>
        <time>2016-07-15T10:26:15.000Z</time>
      </trkpt>
      <trkpt lat="44.51692" lon="6.1399">
        <ele>1057.1999511719</ele>
        <time>2016-07-15T10:26:19.000Z</time>
      </trkpt>
      <trkpt lat="44.51688" lon="6.13984">
        <ele>1058.8000488281</ele>
        <time>2016-07-15T10:26:25.000Z</time>
      </trkpt>
      <trkpt lat="44.51684" lon="6.1398">
        <ele>1060</ele>
        <time>2016-07-15T10:26:31.000Z</time>
      </trkpt>
      <trkpt lat="44.51679" lon="6.13977">
        <ele>1061</ele>
        <time>2016-07-15T10:26:38.000Z</time>
      </trkpt>
      <trkpt lat="44.51673" lon="6.13974">
        <ele>1062</ele>
        <time>2016-07-15T10:26:44.000Z</time>
      </trkpt>
      <trkpt lat="44.51665" lon="6.13971">
        <ele>1063</ele>
        <time>2016-07-15T10:26:52.000Z</time>
      </trkpt>
      <trkpt lat="44.51664" lon="6.13971">
        <ele>1063</ele>
        <time>2016-07-15T10:26:53.000Z</time>
      </trkpt>
      <trkpt lat="44.51663" lon="6.1397">
        <ele>1063.1999511719</ele>
        <time>2016-07-15T10:26:54.000Z</time>
      </trkpt>
      <trkpt lat="44.51658" lon="6.13968">
        <ele>1063.8000488281</ele>
        <time>2016-07-15T10:26:58.000Z</time>
      </trkpt>
      <trkpt lat="44.51652" lon="6.13963">
        <ele>1065.1999511719</ele>
        <time>2016-07-15T10:27:04.000Z</time>
      </trkpt>
      <trkpt lat="44.51647" lon="6.13961">
        <ele>1065.8000488281</ele>
        <time>2016-07-15T10:27:08.000Z</time>
      </trkpt>
      <trkpt lat="44.51642" lon="6.13958">
        <ele>1066.5999755859</ele>
        <time>2016-07-15T10:27:13.000Z</time>
      </trkpt>
      <trkpt lat="44.51628" lon="6.13957">
        <ele>1067.4000244141</ele>
        <time>2016-07-15T10:27:26.000Z</time>
      </trkpt>
      <trkpt lat="44.51619" lon="6.13957">
        <ele>1067.8000488281</ele>
        <time>2016-07-15T10:27:33.000Z</time>
      </trkpt>
      <trkpt lat="44.51613" lon="6.13955">
        <ele>1068.4000244141</ele>
        <time>2016-07-15T10:27:39.000Z</time>
      </trkpt>
      <trkpt lat="44.51607" lon="6.13956">
        <ele>1068.4000244141</ele>
        <time>2016-07-15T10:27:43.000Z</time>
      </trkpt>
      <trkpt lat="44.51601" lon="6.13959">
        <ele>1068.1999511719</ele>
        <time>2016-07-15T10:27:49.000Z</time>
      </trkpt>
      <trkpt lat="44.51599" lon="6.13959">
        <ele>1068.1999511719</ele>
        <time>2016-07-15T10:27:50.000Z</time>
      </trkpt>
      <trkpt lat="44.51594" lon="6.13956">
        <ele>1069</ele>
        <time>2016-07-15T10:27:54.000Z</time>
      </trkpt>
      <trkpt lat="44.51585" lon="6.13953">
        <ele>1070</ele>
        <time>2016-07-15T10:28:00.000Z</time>
      </trkpt>
      <trkpt lat="44.51576" lon="6.13949">
        <ele>1071</ele>
        <time>2016-07-15T10:28:06.000Z</time>
      </trkpt>
      <trkpt lat="44.51574" lon="6.13948">
        <ele>1071.4000244141</ele>
        <time>2016-07-15T10:28:08.000Z</time>
      </trkpt>
      <trkpt lat="44.51566" lon="6.13945">
        <ele>1072.1999511719</ele>
        <time>2016-07-15T10:28:14.000Z</time>
      </trkpt>
      <trkpt lat="44.51561" lon="6.13936">
        <ele>1074</ele>
        <time>2016-07-15T10:28:25.000Z</time>
      </trkpt>
      <trkpt lat="44.51564" lon="6.1393">
        <ele>1075.1999511719</ele>
        <time>2016-07-15T10:28:30.000Z</time>
      </trkpt>
      <trkpt lat="44.51569" lon="6.13923">
        <ele>1076</ele>
        <time>2016-07-15T10:28:35.000Z</time>
      </trkpt>
      <trkpt lat="44.51576" lon="6.13914">
        <ele>1077.5999755859</ele>
        <time>2016-07-15T10:28:44.000Z</time>
      </trkpt>
      <trkpt lat="44.51581" lon="6.13909">
        <ele>1078.5999755859</ele>
        <time>2016-07-15T10:28:49.000Z</time>
      </trkpt>
      <trkpt lat="44.51585" lon="6.13903">
        <ele>1079.4000244141</ele>
        <time>2016-07-15T10:28:54.000Z</time>
      </trkpt>
      <trkpt lat="44.51595" lon="6.139">
        <ele>1079.5999755859</ele>
        <time>2016-07-15T10:29:00.000Z</time>
      </trkpt>
      <trkpt lat="44.51604" lon="6.13897">
        <ele>1079.8000488281</ele>
        <time>2016-07-15T10:29:07.000Z</time>
      </trkpt>
      <trkpt lat="44.51611" lon="6.13896">
        <ele>1079.8000488281</ele>
        <time>2016-07-15T10:29:12.000Z</time>
      </trkpt>
      <trkpt lat="44.51612" lon="6.13895">
        <ele>1080</ele>
        <time>2016-07-15T10:29:13.000Z</time>
      </trkpt>
      <trkpt lat="44.5162" lon="6.13893">
        <ele>1080.1999511719</ele>
        <time>2016-07-15T10:29:19.000Z</time>
      </trkpt>
      <trkpt lat="44.51629" lon="6.1389">
        <ele>1080.5999755859</ele>
        <time>2016-07-15T10:29:25.000Z</time>
      </trkpt>
      <trkpt lat="44.51633" lon="6.13888">
        <ele>1081</ele>
        <time>2016-07-15T10:29:30.000Z</time>
      </trkpt>
      <trkpt lat="44.51639" lon="6.13889">
        <ele>1080.8000488281</ele>
        <time>2016-07-15T10:29:35.000Z</time>
      </trkpt>
      <trkpt lat="44.51648" lon="6.13888">
        <ele>1081</ele>
        <time>2016-07-15T10:29:43.000Z</time>
      </trkpt>
      <trkpt lat="44.51651" lon="6.13888">
        <ele>1080.8000488281</ele>
        <time>2016-07-15T10:29:46.000Z</time>
      </trkpt>
      <trkpt lat="44.51657" lon="6.13888">
        <ele>1080.8000488281</ele>
        <time>2016-07-15T10:29:50.000Z</time>
      </trkpt>
      <trkpt lat="44.5166" lon="6.13887">
        <ele>1081</ele>
        <time>2016-07-15T10:29:52.000Z</time>
      </trkpt>
      <trkpt lat="44.5167" lon="6.13887">
        <ele>1080.8000488281</ele>
        <time>2016-07-15T10:29:59.000Z</time>
      </trkpt>
      <trkpt lat="44.51681" lon="6.13886">
        <ele>1081</ele>
        <time>2016-07-15T10:30:07.000Z</time>
      </trkpt>
      <trkpt lat="44.51689" lon="6.13884">
        <ele>1081.1999511719</ele>
        <time>2016-07-15T10:30:13.000Z</time>
      </trkpt>
      <trkpt lat="44.51695" lon="6.13884">
        <ele>1081</ele>
        <time>2016-07-15T10:30:19.000Z</time>
      </trkpt>
      <trkpt lat="44.51706" lon="6.13884">
        <ele>1081.4000244141</ele>
        <time>2016-07-15T10:30:26.000Z</time>
      </trkpt>
      <trkpt lat="44.51709" lon="6.13884">
        <ele>1081.4000244141</ele>
        <time>2016-07-15T10:30:29.000Z</time>
      </trkpt>
      <trkpt lat="44.51715" lon="6.13883">
        <ele>1081.5999755859</ele>
        <time>2016-07-15T10:30:33.000Z</time>
      </trkpt>
      <trkpt lat="44.51725" lon="6.13885">
        <ele>1081.5999755859</ele>
        <time>2016-07-15T10:30:40.000Z</time>
      </trkpt>
      <trkpt lat="44.51726" lon="6.13885">
        <ele>1081.5999755859</ele>
        <time>2016-07-15T10:30:41.000Z</time>
      </trkpt>
      <trkpt lat="44.51732" lon="6.13885">
        <ele>1081.8000488281</ele>
        <time>2016-07-15T10:30:45.000Z</time>
      </trkpt>
      <trkpt lat="44.5174" lon="6.13886">
        <ele>1081.5999755859</ele>
        <time>2016-07-15T10:30:51.000Z</time>
      </trkpt>
      <trkpt lat="44.51742" lon="6.13887">
        <ele>1081.5999755859</ele>
        <time>2016-07-15T10:30:52.000Z</time>
      </trkpt>
      <trkpt lat="44.51752" lon="6.13887">
        <ele>1081.5999755859</ele>
        <time>2016-07-15T10:30:59.000Z</time>
      </trkpt>
      <trkpt lat="44.51755" lon="6.13888">
        <ele>1081.5999755859</ele>
        <time>2016-07-15T10:31:01.000Z</time>
      </trkpt>
      <trkpt lat="44.51758" lon="6.13891">
        <ele>1081</ele>
        <time>2016-07-15T10:31:04.000Z</time>
      </trkpt>
      <trkpt lat="44.51764" lon="6.13895">
        <ele>1080.1999511719</ele>
        <time>2016-07-15T10:31:11.000Z</time>
      </trkpt>
      <trkpt lat="44.51774" lon="6.13899">
        <ele>1079.8000488281</ele>
        <time>2016-07-15T10:31:18.000Z</time>
      </trkpt>
      <trkpt lat="44.51782" lon="6.13901">
        <ele>1079.1999511719</ele>
        <time>2016-07-15T10:31:23.000Z</time>
      </trkpt>
      <trkpt lat="44.51789" lon="6.13906">
        <ele>1079.5999755859</ele>
        <time>2016-07-15T10:31:27.000Z</time>
      </trkpt>
      <trkpt lat="44.51796" lon="6.13912">
        <ele>1080.1999511719</ele>
        <time>2016-07-15T10:31:31.000Z</time>
      </trkpt>
      <trkpt lat="44.51804" lon="6.13922">
        <ele>1080.1999511719</ele>
        <time>2016-07-15T10:31:37.000Z</time>
      </trkpt>
      <trkpt lat="44.51805" lon="6.13924">
        <ele>1080</ele>
        <time>2016-07-15T10:31:38.000Z</time>
      </trkpt>
      <trkpt lat="44.5181" lon="6.13936">
        <ele>1078.1999511719</ele>
        <time>2016-07-15T10:31:45.000Z</time>
      </trkpt>
      <trkpt lat="44.51812" lon="6.13941">
        <ele>1077.8000488281</ele>
        <time>2016-07-15T10:31:48.000Z</time>
      </trkpt>
      <trkpt lat="44.51816" lon="6.13952">
        <ele>1076.4000244141</ele>
        <time>2016-07-15T10:31:53.000Z</time>
      </trkpt>
      <trkpt lat="44.51818" lon="6.13955">
        <ele>1076</ele>
        <time>2016-07-15T10:31:55.000Z</time>
      </trkpt>
      <trkpt lat="44.51823" lon="6.13971">
        <ele>1074</ele>
        <time>2016-07-15T10:32:04.000Z</time>
      </trkpt>
      <trkpt lat="44.5183" lon="6.13984">
        <ele>1073.8000488281</ele>
        <time>2016-07-15T10:32:12.000Z</time>
      </trkpt>
      <trkpt lat="44.51833" lon="6.13986">
        <ele>1074.1999511719</ele>
        <time>2016-07-15T10:32:18.000Z</time>
      </trkpt>
      <trkpt lat="44.51837" lon="6.13988">
        <ele>1075.1999511719</ele>
        <time>2016-07-15T10:32:22.000Z</time>
      </trkpt>
      <trkpt lat="44.51838" lon="6.13989">
        <ele>1075.1999511719</ele>
        <time>2016-07-15T10:32:23.000Z</time>
      </trkpt>
      <trkpt lat="44.51844" lon="6.13993">
        <ele>1076.8000488281</ele>
        <time>2016-07-15T10:32:31.000Z</time>
      </trkpt>
      <trkpt lat="44.51845" lon="6.13994">
        <ele>1076.8000488281</ele>
        <time>2016-07-15T10:32:32.000Z</time>
      </trkpt>
      <trkpt lat="44.51846" lon="6.13997">
        <ele>1077</ele>
        <time>2016-07-15T10:32:34.000Z</time>
      </trkpt>
      <trkpt lat="44.51847" lon="6.13999">
        <ele>1076.8000488281</ele>
        <time>2016-07-15T10:32:36.000Z</time>
      </trkpt>
      <trkpt lat="44.51849" lon="6.14005">
        <ele>1076.8000488281</ele>
        <time>2016-07-15T10:32:40.000Z</time>
      </trkpt>
      <trkpt lat="44.5185" lon="6.14011">
        <ele>1076.5999755859</ele>
        <time>2016-07-15T10:32:43.000Z</time>
      </trkpt>
      <trkpt lat="44.5185" lon="6.14022">
        <ele>1075.8000488281</ele>
        <time>2016-07-15T10:32:49.000Z</time>
      </trkpt>
      <trkpt lat="44.51851" lon="6.14024">
        <ele>1075.8000488281</ele>
        <time>2016-07-15T10:32:50.000Z</time>
      </trkpt>
      <trkpt lat="44.51852" lon="6.1403">
        <ele>1075.5999755859</ele>
        <time>2016-07-15T10:32:54.000Z</time>
      </trkpt>
      <trkpt lat="44.51853" lon="6.1404">
        <ele>1075.1999511719</ele>
        <time>2016-07-15T10:33:00.000Z</time>
      </trkpt>
      <trkpt lat="44.51854" lon="6.14042">
        <ele>1075.1999511719</ele>
        <time>2016-07-15T10:33:01.000Z</time>
      </trkpt>
      <trkpt lat="44.51855" lon="6.14043">
        <ele>1075.1999511719</ele>
        <time>2016-07-15T10:33:02.000Z</time>
      </trkpt>
      <trkpt lat="44.51857" lon="6.14049">
        <ele>1075.4000244141</ele>
        <time>2016-07-15T10:33:06.000Z</time>
      </trkpt>
      <trkpt lat="44.51859" lon="6.14051">
        <ele>1075.8000488281</ele>
        <time>2016-07-15T10:33:08.000Z</time>
      </trkpt>
      <trkpt lat="44.51862" lon="6.14052">
        <ele>1076.4000244141</ele>
        <time>2016-07-15T10:33:10.000Z</time>
      </trkpt>
      <trkpt lat="44.51864" lon="6.14056">
        <ele>1076.5999755859</ele>
        <time>2016-07-15T10:33:13.000Z</time>
      </trkpt>
      <trkpt lat="44.51867" lon="6.14069">
        <ele>1078</ele>
        <time>2016-07-15T10:33:21.000Z</time>
      </trkpt>
      <trkpt lat="44.51873" lon="6.14074">
        <ele>1080</ele>
        <time>2016-07-15T10:33:27.000Z</time>
      </trkpt>
      <trkpt lat="44.51881" lon="6.1408">
        <ele>1082.5999755859</ele>
        <time>2016-07-15T10:33:34.000Z</time>
      </trkpt>
      <trkpt lat="44.5189" lon="6.14087">
        <ele>1085.1999511719</ele>
        <time>2016-07-15T10:33:41.000Z</time>
      </trkpt>
      <trkpt lat="44.51895" lon="6.14093">
        <ele>1087</ele>
        <time>2016-07-15T10:33:46.000Z</time>
      </trkpt>
      <trkpt lat="44.51896" lon="6.14094">
        <ele>1087.4000244141</ele>
        <time>2016-07-15T10:33:48.000Z</time>
      </trkpt>
      <trkpt lat="44.51898" lon="6.14102">
        <ele>1088.8000488281</ele>
        <time>2016-07-15T10:33:52.000Z</time>
      </trkpt>
      <trkpt lat="44.51893" lon="6.14101">
        <ele>1087.8000488281</ele>
        <time>2016-07-15T10:33:55.000Z</time>
      </trkpt>
      <trkpt lat="44.51885" lon="6.14103">
        <ele>1086.1999511719</ele>
        <time>2016-07-15T10:34:01.000Z</time>
      </trkpt>
      <trkpt lat="44.5188" lon="6.14109">
        <ele>1086</ele>
        <time>2016-07-15T10:34:06.000Z</time>
      </trkpt>
      <trkpt lat="44.51884" lon="6.14113">
        <ele>1087.4000244141</ele>
        <time>2016-07-15T10:34:10.000Z</time>
      </trkpt>
      <trkpt lat="44.51886" lon="6.14117">
        <ele>1088.4000244141</ele>
        <time>2016-07-15T10:34:14.000Z</time>
      </trkpt>
      <trkpt lat="44.51882" lon="6.14122">
        <ele>1088.1999511719</ele>
        <time>2016-07-15T10:34:18.000Z</time>
      </trkpt>
      <trkpt lat="44.51881" lon="6.14124">
        <ele>1088.4000244141</ele>
        <time>2016-07-15T10:34:19.000Z</time>
      </trkpt>
      <trkpt lat="44.51881" lon="6.14127">
        <ele>1088.4000244141</ele>
        <time>2016-07-15T10:34:20.000Z</time>
      </trkpt>
      <trkpt lat="44.51871" lon="6.14139">
        <ele>1088.1999511719</ele>
        <time>2016-07-15T10:34:26.000Z</time>
      </trkpt>
      <trkpt lat="44.51868" lon="6.14144">
        <ele>1088.1999511719</ele>
        <time>2016-07-15T10:34:30.000Z</time>
      </trkpt>
      <trkpt lat="44.51864" lon="6.14149">
        <ele>1087.8000488281</ele>
        <time>2016-07-15T10:34:35.000Z</time>
      </trkpt>
      <trkpt lat="44.51863" lon="6.1415">
        <ele>1087.8000488281</ele>
        <time>2016-07-15T10:34:36.000Z</time>
      </trkpt>
      <trkpt lat="44.51858" lon="6.14156">
        <ele>1087.4000244141</ele>
        <time>2016-07-15T10:34:41.000Z</time>
      </trkpt>
      <trkpt lat="44.51855" lon="6.14165">
        <ele>1087.8000488281</ele>
        <time>2016-07-15T10:34:46.000Z</time>
      </trkpt>
      <trkpt lat="44.51853" lon="6.14169">
        <ele>1087.8000488281</ele>
        <time>2016-07-15T10:34:49.000Z</time>
      </trkpt>
      <trkpt lat="44.51848" lon="6.14179">
        <ele>1088.1999511719</ele>
        <time>2016-07-15T10:34:54.000Z</time>
      </trkpt>
      <trkpt lat="44.51845" lon="6.14184">
        <ele>1088.4000244141</ele>
        <time>2016-07-15T10:34:57.000Z</time>
      </trkpt>
      <trkpt lat="44.51841" lon="6.14191">
        <ele>1088.4000244141</ele>
        <time>2016-07-15T10:35:03.000Z</time>
      </trkpt>
      <trkpt lat="44.51841" lon="6.14193">
        <ele>1088.5999755859</ele>
        <time>2016-07-15T10:35:04.000Z</time>
      </trkpt>
      <trkpt lat="44.51839" lon="6.14201">
        <ele>1089.1999511719</ele>
        <time>2016-07-15T10:35:08.000Z</time>
      </trkpt>
      <trkpt lat="44.51836" lon="6.14212">
        <ele>1088</ele>
        <time>2016-07-15T10:35:16.000Z</time>
      </trkpt>
      <trkpt lat="44.51835" lon="6.14224">
        <ele>1088</ele>
        <time>2016-07-15T10:35:23.000Z</time>
      </trkpt>
      <trkpt lat="44.51833" lon="6.14231">
        <ele>1087.4000244141</ele>
        <time>2016-07-15T10:35:27.000Z</time>
      </trkpt>
      <trkpt lat="44.51828" lon="6.14244">
        <ele>1084.5999755859</ele>
        <time>2016-07-15T10:35:33.000Z</time>
      </trkpt>
      <trkpt lat="44.51828" lon="6.1425">
        <ele>1084.5999755859</ele>
        <time>2016-07-15T10:35:37.000Z</time>
      </trkpt>
      <trkpt lat="44.51829" lon="6.1425">
        <ele>1085</ele>
        <time>2016-07-15T10:35:38.000Z</time>
      </trkpt>
      <trkpt lat="44.51834" lon="6.14245">
        <ele>1087.8000488281</ele>
        <time>2016-07-15T10:35:45.000Z</time>
      </trkpt>
      <trkpt lat="44.5184" lon="6.1424">
        <ele>1090.5999755859</ele>
        <time>2016-07-15T10:35:51.000Z</time>
      </trkpt>
      <trkpt lat="44.51845" lon="6.14237">
        <ele>1093.4000244141</ele>
        <time>2016-07-15T10:35:56.000Z</time>
      </trkpt>
      <trkpt lat="44.5185" lon="6.14235">
        <ele>1096</ele>
        <time>2016-07-15T10:36:03.000Z</time>
      </trkpt>
      <trkpt lat="44.51849" lon="6.14242">
        <ele>1095.4000244141</ele>
        <time>2016-07-15T10:36:32.000Z</time>
      </trkpt>
      <trkpt lat="44.51848" lon="6.14253">
        <ele>1094.8000488281</ele>
        <time>2016-07-15T10:36:39.000Z</time>
      </trkpt>
      <trkpt lat="44.51844" lon="6.14264">
        <ele>1092.8000488281</ele>
        <time>2016-07-15T10:36:46.000Z</time>
      </trkpt>
      <trkpt lat="44.51842" lon="6.14283">
        <ele>1092</ele>
        <time>2016-07-15T10:36:57.000Z</time>
      </trkpt>
      <trkpt lat="44.5184" lon="6.14297">
        <ele>1090.4000244141</ele>
        <time>2016-07-15T10:37:05.000Z</time>
      </trkpt>
      <trkpt lat="44.5184" lon="6.14299">
        <ele>1090.1999511719</ele>
        <time>2016-07-15T10:37:06.000Z</time>
      </trkpt>
      <trkpt lat="44.5184" lon="6.14303">
        <ele>1089.8000488281</ele>
        <time>2016-07-15T10:37:15.000Z</time>
      </trkpt>
      <trkpt lat="44.5184" lon="6.14314">
        <ele>1088.4000244141</ele>
        <time>2016-07-15T10:37:21.000Z</time>
      </trkpt>
      <trkpt lat="44.51838" lon="6.14323">
        <ele>1084.5999755859</ele>
        <time>2016-07-15T10:37:27.000Z</time>
      </trkpt>
      <trkpt lat="44.51838" lon="6.14334">
        <ele>1081.4000244141</ele>
        <time>2016-07-15T10:37:34.000Z</time>
      </trkpt>
      <trkpt lat="44.51842" lon="6.14346">
        <ele>1080</ele>
        <time>2016-07-15T10:37:43.000Z</time>
      </trkpt>
      <trkpt lat="44.51848" lon="6.14355">
        <ele>1080.8000488281</ele>
        <time>2016-07-15T10:37:51.000Z</time>
      </trkpt>
      <trkpt lat="44.51852" lon="6.14364">
        <ele>1080.5999755859</ele>
        <time>2016-07-15T10:37:59.000Z</time>
      </trkpt>
      <trkpt lat="44.5186" lon="6.14373">
        <ele>1082</ele>
        <time>2016-07-15T10:38:07.000Z</time>
      </trkpt>
      <trkpt lat="44.51866" lon="6.14382">
        <ele>1082.8000488281</ele>
        <time>2016-07-15T10:38:15.000Z</time>
      </trkpt>
      <trkpt lat="44.51873" lon="6.14388">
        <ele>1085.1999511719</ele>
        <time>2016-07-15T10:38:24.000Z</time>
      </trkpt>
      <trkpt lat="44.5188" lon="6.14398">
        <ele>1084.8000488281</ele>
        <time>2016-07-15T10:38:34.000Z</time>
      </trkpt>
      <trkpt lat="44.51886" lon="6.14405">
        <ele>1084</ele>
        <time>2016-07-15T10:38:41.000Z</time>
      </trkpt>
      <trkpt lat="44.51887" lon="6.14405">
        <ele>1084</ele>
        <time>2016-07-15T10:38:42.000Z</time>
      </trkpt>
      <trkpt lat="44.51894" lon="6.14414">
        <ele>1082.8000488281</ele>
        <time>2016-07-15T10:38:50.000Z</time>
      </trkpt>
      <trkpt lat="44.519" lon="6.14423">
        <ele>1080.5999755859</ele>
        <time>2016-07-15T10:38:58.000Z</time>
      </trkpt>
      <trkpt lat="44.51904" lon="6.14427">
        <ele>1079.5999755859</ele>
        <time>2016-07-15T10:39:02.000Z</time>
      </trkpt>
      <trkpt lat="44.51905" lon="6.14437">
        <ele>1075</ele>
        <time>2016-07-15T10:39:11.000Z</time>
      </trkpt>
      <trkpt lat="44.51905" lon="6.1444">
        <ele>1073.5999755859</ele>
        <time>2016-07-15T10:39:18.000Z</time>
      </trkpt>
      <trkpt lat="44.51906" lon="6.1444">
        <ele>1074</ele>
        <time>2016-07-15T10:39:26.000Z</time>
      </trkpt>
      <trkpt lat="44.51905" lon="6.1444">
        <ele>1073.5999755859</ele>
        <time>2016-07-15T10:40:09.000Z</time>
      </trkpt>
      <trkpt lat="44.5191" lon="6.1444">
        <ele>1075.5999755859</ele>
        <time>2016-07-15T10:40:25.000Z</time>
      </trkpt>
      <trkpt lat="44.51913" lon="6.1444">
        <ele>1076.4000244141</ele>
        <time>2016-07-15T10:40:30.000Z</time>
      </trkpt>
      <trkpt lat="44.51917" lon="6.14441">
        <ele>1078.4000244141</ele>
        <time>2016-07-15T10:40:35.000Z</time>
      </trkpt>
      <trkpt lat="44.51918" lon="6.14441">
        <ele>1079.1999511719</ele>
        <time>2016-07-15T10:40:36.000Z</time>
      </trkpt>
      <trkpt lat="44.51925" lon="6.14441">
        <ele>1083</ele>
        <time>2016-07-15T10:40:41.000Z</time>
      </trkpt>
      <trkpt lat="44.51926" lon="6.14441">
        <ele>1083.4000244141</ele>
        <time>2016-07-15T10:40:42.000Z</time>
      </trkpt>
      <trkpt lat="44.51931" lon="6.14441">
        <ele>1086.5999755859</ele>
        <time>2016-07-15T10:40:48.000Z</time>
      </trkpt>
      <trkpt lat="44.51936" lon="6.1444">
        <ele>1089.5999755859</ele>
        <time>2016-07-15T10:40:54.000Z</time>
      </trkpt>
      <trkpt lat="44.51941" lon="6.14441">
        <ele>1091.8000488281</ele>
        <time>2016-07-15T10:41:01.000Z</time>
      </trkpt>
      <trkpt lat="44.51939" lon="6.14445">
        <ele>1088.1999511719</ele>
        <time>2016-07-15T10:41:05.000Z</time>
      </trkpt>
      <trkpt lat="44.51938" lon="6.14446">
        <ele>1087.4000244141</ele>
        <time>2016-07-15T10:41:06.000Z</time>
      </trkpt>
      <trkpt lat="44.51934" lon="6.14454">
        <ele>1079.8000488281</ele>
        <time>2016-07-15T10:41:14.000Z</time>
      </trkpt>
      <trkpt lat="44.51933" lon="6.14456">
        <ele>1077.8000488281</ele>
        <time>2016-07-15T10:41:16.000Z</time>
      </trkpt>
      <trkpt lat="44.51929" lon="6.14462">
        <ele>1073</ele>
        <time>2016-07-15T10:41:25.000Z</time>
      </trkpt>
      <trkpt lat="44.51926" lon="6.14468">
        <ele>1069.4000244141</ele>
        <time>2016-07-15T10:41:32.000Z</time>
      </trkpt>
      <trkpt lat="44.5193" lon="6.14467">
        <ele>1071</ele>
        <time>2016-07-15T10:41:36.000Z</time>
      </trkpt>
      <trkpt lat="44.51931" lon="6.14467">
        <ele>1071.5999755859</ele>
        <time>2016-07-15T10:41:37.000Z</time>
      </trkpt>
      <trkpt lat="44.51934" lon="6.14466">
        <ele>1073</ele>
        <time>2016-07-15T10:41:43.000Z</time>
      </trkpt>
      <trkpt lat="44.51929" lon="6.14474">
        <ele>1067.5999755859</ele>
        <time>2016-07-15T10:41:51.000Z</time>
      </trkpt>
      <trkpt lat="44.51925" lon="6.14478">
        <ele>1064.1999511719</ele>
        <time>2016-07-15T10:41:56.000Z</time>
      </trkpt>
      <trkpt lat="44.51925" lon="6.14479">
        <ele>1063.5999755859</ele>
        <time>2016-07-15T10:41:57.000Z</time>
      </trkpt>
      <trkpt lat="44.51928" lon="6.14479">
        <ele>1065.1999511719</ele>
        <time>2016-07-15T10:42:04.000Z</time>
      </trkpt>
      <trkpt lat="44.51932" lon="6.14478">
        <ele>1067</ele>
        <time>2016-07-15T10:42:08.000Z</time>
      </trkpt>
      <trkpt lat="44.51936" lon="6.14477">
        <ele>1068.5999755859</ele>
        <time>2016-07-15T10:42:13.000Z</time>
      </trkpt>
      <trkpt lat="44.51938" lon="6.14476">
        <ele>1070</ele>
        <time>2016-07-15T10:42:16.000Z</time>
      </trkpt>
      <trkpt lat="44.51938" lon="6.14475">
        <ele>1070.8000488281</ele>
        <time>2016-07-15T10:42:18.000Z</time>
      </trkpt>
      <trkpt lat="44.51952" lon="6.14473">
        <ele>1076.8000488281</ele>
        <time>2016-07-15T10:42:27.000Z</time>
      </trkpt>
      <trkpt lat="44.51957" lon="6.14473">
        <ele>1076.1999511719</ele>
        <time>2016-07-15T10:42:31.000Z</time>
      </trkpt>
      <trkpt lat="44.5196" lon="6.14473">
        <ele>1075.8000488281</ele>
        <time>2016-07-15T10:42:34.000Z</time>
      </trkpt>
      <trkpt lat="44.51967" lon="6.14473">
        <ele>1075.4000244141</ele>
        <time>2016-07-15T10:42:39.000Z</time>
      </trkpt>
      <trkpt lat="44.5197" lon="6.14472">
        <ele>1075.5999755859</ele>
        <time>2016-07-15T10:42:42.000Z</time>
      </trkpt>
      <trkpt lat="44.51974" lon="6.1447">
        <ele>1076.4000244141</ele>
        <time>2016-07-15T10:42:47.000Z</time>
      </trkpt>
      <trkpt lat="44.51973" lon="6.14468">
        <ele>1077.8000488281</ele>
        <time>2016-07-15T10:42:57.000Z</time>
      </trkpt>
      <trkpt lat="44.51977" lon="6.14465">
        <ele>1079.4000244141</ele>
        <time>2016-07-15T10:43:02.000Z</time>
      </trkpt>
      <trkpt lat="44.51979" lon="6.14465">
        <ele>1079.1999511719</ele>
        <time>2016-07-15T10:43:04.000Z</time>
      </trkpt>
      <trkpt lat="44.51978" lon="6.14469">
        <ele>1077</ele>
        <time>2016-07-15T10:43:09.000Z</time>
      </trkpt>
      <trkpt lat="44.51974" lon="6.14473">
        <ele>1074.4000244141</ele>
        <time>2016-07-15T10:43:14.000Z</time>
      </trkpt>
      <trkpt lat="44.51973" lon="6.14475">
        <ele>1073.5999755859</ele>
        <time>2016-07-15T10:43:16.000Z</time>
      </trkpt>
      <trkpt lat="44.51967" lon="6.14481">
        <ele>1071.1999511719</ele>
        <time>2016-07-15T10:43:23.000Z</time>
      </trkpt>
      <trkpt lat="44.51966" lon="6.14482">
        <ele>1070.8000488281</ele>
        <time>2016-07-15T10:43:24.000Z</time>
      </trkpt>
      <trkpt lat="44.5196" lon="6.1449">
        <ele>1068</ele>
        <time>2016-07-15T10:43:31.000Z</time>
      </trkpt>
      <trkpt lat="44.51955" lon="6.14498">
        <ele>1064.5999755859</ele>
        <time>2016-07-15T10:43:38.000Z</time>
      </trkpt>
      <trkpt lat="44.51951" lon="6.14503">
        <ele>1062.1999511719</ele>
        <time>2016-07-15T10:43:42.000Z</time>
      </trkpt>
      <trkpt lat="44.51946" lon="6.14512">
        <ele>1056</ele>
        <time>2016-07-15T10:43:49.000Z</time>
      </trkpt>
      <trkpt lat="44.51941" lon="6.14518">
        <ele>1051.4000244141</ele>
        <time>2016-07-15T10:43:54.000Z</time>
      </trkpt>
      <trkpt lat="44.51936" lon="6.14526">
        <ele>1046.1999511719</ele>
        <time>2016-07-15T10:44:00.000Z</time>
      </trkpt>
      <trkpt lat="44.51931" lon="6.14537">
        <ele>1039.4000244141</ele>
        <time>2016-07-15T10:44:08.000Z</time>
      </trkpt>
      <trkpt lat="44.51931" lon="6.14539">
        <ele>1038</ele>
        <time>2016-07-15T10:44:10.000Z</time>
      </trkpt>
      <trkpt lat="44.51933" lon="6.14545">
        <ele>1036.1999511719</ele>
        <time>2016-07-15T10:44:15.000Z</time>
      </trkpt>
      <trkpt lat="44.51937" lon="6.14557">
        <ele>1033.8000488281</ele>
        <time>2016-07-15T10:44:24.000Z</time>
      </trkpt>
      <trkpt lat="44.51939" lon="6.14565">
        <ele>1031.8000488281</ele>
        <time>2016-07-15T10:44:31.000Z</time>
      </trkpt>
      <trkpt lat="44.5194" lon="6.14566">
        <ele>1031.4000244141</ele>
        <time>2016-07-15T10:44:32.000Z</time>
      </trkpt>
      <trkpt lat="44.51942" lon="6.14571">
        <ele>1030</ele>
        <time>2016-07-15T10:44:37.000Z</time>
      </trkpt>
      <trkpt lat="44.51943" lon="6.14574">
        <ele>1029.1999511719</ele>
        <time>2016-07-15T10:44:40.000Z</time>
      </trkpt>
      <trkpt lat="44.51945" lon="6.1458">
        <ele>1027.4000244141</ele>
        <time>2016-07-15T10:44:46.000Z</time>
      </trkpt>
      <trkpt lat="44.51949" lon="6.14585">
        <ele>1026.1999511719</ele>
        <time>2016-07-15T10:44:52.000Z</time>
      </trkpt>
      <trkpt lat="44.51949" lon="6.14589">
        <ele>1024.8000488281</ele>
        <time>2016-07-15T10:44:55.000Z</time>
      </trkpt>
      <trkpt lat="44.51954" lon="6.14597">
        <ele>1022.799987793</ele>
        <time>2016-07-15T10:45:02.000Z</time>
      </trkpt>
      <trkpt lat="44.51958" lon="6.14604">
        <ele>1021</ele>
        <time>2016-07-15T10:45:07.000Z</time>
      </trkpt>
      <trkpt lat="44.5196" lon="6.1461">
        <ele>1019.200012207</ele>
        <time>2016-07-15T10:45:11.000Z</time>
      </trkpt>
      <trkpt lat="44.51966" lon="6.14624">
        <ele>1015.4000244141</ele>
        <time>2016-07-15T10:45:21.000Z</time>
      </trkpt>
      <trkpt lat="44.51966" lon="6.14625">
        <ele>1015.200012207</ele>
        <time>2016-07-15T10:45:22.000Z</time>
      </trkpt>
      <trkpt lat="44.51967" lon="6.14626">
        <ele>1014.799987793</ele>
        <time>2016-07-15T10:45:23.000Z</time>
      </trkpt>
      <trkpt lat="44.51973" lon="6.14632">
        <ele>1013.799987793</ele>
        <time>2016-07-15T10:45:29.000Z</time>
      </trkpt>
      <trkpt lat="44.51976" lon="6.14639">
        <ele>1011.799987793</ele>
        <time>2016-07-15T10:45:35.000Z</time>
      </trkpt>
      <trkpt lat="44.51976" lon="6.14641">
        <ele>1011.200012207</ele>
        <time>2016-07-15T10:45:36.000Z</time>
      </trkpt>
      <trkpt lat="44.51978" lon="6.14646">
        <ele>1009.5999755859</ele>
        <time>2016-07-15T10:45:41.000Z</time>
      </trkpt>
      <trkpt lat="44.51979" lon="6.14651">
        <ele>1008.4000244141</ele>
        <time>2016-07-15T10:45:47.000Z</time>
      </trkpt>
      <trkpt lat="44.51978" lon="6.14651">
        <ele>1008</ele>
        <time>2016-07-15T10:45:59.000Z</time>
      </trkpt>
      <trkpt lat="44.51977" lon="6.14654">
        <ele>1007.200012207</ele>
        <time>2016-07-15T10:46:42.000Z</time>
      </trkpt>
      <trkpt lat="44.51979" lon="6.14658">
        <ele>1006</ele>
        <time>2016-07-15T10:48:39.000Z</time>
      </trkpt>
      <trkpt lat="44.51978" lon="6.14658">
        <ele>1006</ele>
        <time>2016-07-15T10:48:44.000Z</time>
      </trkpt>
      <trkpt lat="44.51981" lon="6.14659">
        <ele>1006.200012207</ele>
        <time>2016-07-15T10:49:28.000Z</time>
      </trkpt>
      <trkpt lat="44.5198" lon="6.14658">
        <ele>1006.4000244141</ele>
        <time>2016-07-15T10:51:21.000Z</time>
      </trkpt>
      <trkpt lat="44.51979" lon="6.14658">
        <ele>1006.200012207</ele>
        <time>2016-07-15T10:51:28.000Z</time>
      </trkpt>
      <trkpt lat="44.51978" lon="6.14657">
        <ele>1006.4000244141</ele>
        <time>2016-07-15T10:51:50.000Z</time>
      </trkpt>
      <trkpt lat="44.51978" lon="6.14655">
        <ele>1006.799987793</ele>
        <time>2016-07-15T10:53:06.000Z</time>
      </trkpt>
      <trkpt lat="44.51977" lon="6.14653">
        <ele>1007.5999755859</ele>
        <time>2016-07-15T10:53:10.000Z</time>
      </trkpt>
      <trkpt lat="44.51974" lon="6.14643">
        <ele>1010</ele>
        <time>2016-07-15T10:53:17.000Z</time>
      </trkpt>
      <trkpt lat="44.51974" lon="6.1464">
        <ele>1011</ele>
        <time>2016-07-15T10:53:19.000Z</time>
      </trkpt>
      <trkpt lat="44.51968" lon="6.14633">
        <ele>1012.5999755859</ele>
        <time>2016-07-15T10:53:26.000Z</time>
      </trkpt>
      <trkpt lat="44.51967" lon="6.14631">
        <ele>1013</ele>
        <time>2016-07-15T10:53:27.000Z</time>
      </trkpt>
      <trkpt lat="44.51963" lon="6.14623">
        <ele>1015.200012207</ele>
        <time>2016-07-15T10:53:34.000Z</time>
      </trkpt>
      <trkpt lat="44.5196" lon="6.14617">
        <ele>1016.799987793</ele>
        <time>2016-07-15T10:53:38.000Z</time>
      </trkpt>
      <trkpt lat="44.51956" lon="6.1461">
        <ele>1018.799987793</ele>
        <time>2016-07-15T10:53:45.000Z</time>
      </trkpt>
      <trkpt lat="44.51951" lon="6.14603">
        <ele>1020.5999755859</ele>
        <time>2016-07-15T10:53:51.000Z</time>
      </trkpt>
      <trkpt lat="44.51948" lon="6.14595">
        <ele>1022.5999755859</ele>
        <time>2016-07-15T10:53:57.000Z</time>
      </trkpt>
      <trkpt lat="44.51947" lon="6.14594">
        <ele>1022.799987793</ele>
        <time>2016-07-15T10:53:58.000Z</time>
      </trkpt>
      <trkpt lat="44.51946" lon="6.1459">
        <ele>1024</ele>
        <time>2016-07-15T10:54:02.000Z</time>
      </trkpt>
      <trkpt lat="44.51944" lon="6.14586">
        <ele>1025</ele>
        <time>2016-07-15T10:54:06.000Z</time>
      </trkpt>
      <trkpt lat="44.51943" lon="6.14585">
        <ele>1025.5999755859</ele>
        <time>2016-07-15T10:54:08.000Z</time>
      </trkpt>
      <trkpt lat="44.51939" lon="6.14577">
        <ele>1027.4000244141</ele>
        <time>2016-07-15T10:54:16.000Z</time>
      </trkpt>
      <trkpt lat="44.51936" lon="6.14573">
        <ele>1028.4000244141</ele>
        <time>2016-07-15T10:54:21.000Z</time>
      </trkpt>
      <trkpt lat="44.51935" lon="6.14568">
        <ele>1029.8000488281</ele>
        <time>2016-07-15T10:54:25.000Z</time>
      </trkpt>
      <trkpt lat="44.51936" lon="6.14571">
        <ele>1029</ele>
        <time>2016-07-15T10:54:30.000Z</time>
      </trkpt>
      <trkpt lat="44.51936" lon="6.14568">
        <ele>1030.1999511719</ele>
        <time>2016-07-15T10:54:35.000Z</time>
      </trkpt>
      <trkpt lat="44.51936" lon="6.14556">
        <ele>1033.8000488281</ele>
        <time>2016-07-15T10:54:42.000Z</time>
      </trkpt>
      <trkpt lat="44.51936" lon="6.14544">
        <ele>1037.5999755859</ele>
        <time>2016-07-15T10:54:49.000Z</time>
      </trkpt>
      <trkpt lat="44.51939" lon="6.14532">
        <ele>1044.4000244141</ele>
        <time>2016-07-15T10:54:53.000Z</time>
      </trkpt>
      <trkpt lat="44.51941" lon="6.14526">
        <ele>1047.5999755859</ele>
        <time>2016-07-15T10:54:55.000Z</time>
      </trkpt>
      <trkpt lat="44.51943" lon="6.14523">
        <ele>1050</ele>
        <time>2016-07-15T10:54:57.000Z</time>
      </trkpt>
      <trkpt lat="44.51944" lon="6.14513">
        <ele>1055</ele>
        <time>2016-07-15T10:55:03.000Z</time>
      </trkpt>
      <trkpt lat="44.51949" lon="6.14503">
        <ele>1061.4000244141</ele>
        <time>2016-07-15T10:55:10.000Z</time>
      </trkpt>
      <trkpt lat="44.51956" lon="6.14492">
        <ele>1067.1999511719</ele>
        <time>2016-07-15T10:55:20.000Z</time>
      </trkpt>
      <trkpt lat="44.51958" lon="6.14489">
        <ele>1068.4000244141</ele>
        <time>2016-07-15T10:55:22.000Z</time>
      </trkpt>
      <trkpt lat="44.51962" lon="6.14484">
        <ele>1070.4000244141</ele>
        <time>2016-07-15T10:55:26.000Z</time>
      </trkpt>
      <trkpt lat="44.51965" lon="6.14479">
        <ele>1072.1999511719</ele>
        <time>2016-07-15T10:55:30.000Z</time>
      </trkpt>
      <trkpt lat="44.51966" lon="6.14469">
        <ele>1077.8000488281</ele>
        <time>2016-07-15T10:55:36.000Z</time>
      </trkpt>
      <trkpt lat="44.51967" lon="6.14468">
        <ele>1078.5999755859</ele>
        <time>2016-07-15T10:55:37.000Z</time>
      </trkpt>
      <trkpt lat="44.51968" lon="6.14465">
        <ele>1080</ele>
        <time>2016-07-15T10:55:39.000Z</time>
      </trkpt>
      <trkpt lat="44.51968" lon="6.14463">
        <ele>1081.8000488281</ele>
        <time>2016-07-15T10:55:43.000Z</time>
      </trkpt>
      <trkpt lat="44.51967" lon="6.14463">
        <ele>1081.8000488281</ele>
        <time>2016-07-15T10:55:44.000Z</time>
      </trkpt>
      <trkpt lat="44.51966" lon="6.14463">
        <ele>1082</ele>
        <time>2016-07-15T10:55:49.000Z</time>
      </trkpt>
      <trkpt lat="44.51965" lon="6.14462">
        <ele>1082</ele>
        <time>2016-07-15T10:55:58.000Z</time>
      </trkpt>
      <trkpt lat="44.51973" lon="6.1446">
        <ele>1082.5999755859</ele>
        <time>2016-07-15T10:56:30.000Z</time>
      </trkpt>
      <trkpt lat="44.51978" lon="6.14459">
        <ele>1083.1999511719</ele>
        <time>2016-07-15T10:56:52.000Z</time>
      </trkpt>
      <trkpt lat="44.51978" lon="6.1446">
        <ele>1082.4000244141</ele>
        <time>2016-07-15T10:57:08.000Z</time>
      </trkpt>
      <trkpt lat="44.51979" lon="6.14459">
        <ele>1083</ele>
        <time>2016-07-15T10:57:33.000Z</time>
      </trkpt>
      <trkpt lat="44.5198" lon="6.14459">
        <ele>1082.8000488281</ele>
        <time>2016-07-15T10:57:44.000Z</time>
      </trkpt>
      <trkpt lat="44.51978" lon="6.14461">
        <ele>1082</ele>
        <time>2016-07-15T10:57:46.000Z</time>
      </trkpt>
      <trkpt lat="44.51976" lon="6.14462">
        <ele>1081.4000244141</ele>
        <time>2016-07-15T10:57:52.000Z</time>
      </trkpt>
      <trkpt lat="44.51973" lon="6.14461">
        <ele>1082.4000244141</ele>
        <time>2016-07-15T10:58:08.000Z</time>
      </trkpt>
      <trkpt lat="44.51971" lon="6.14459">
        <ele>1083.5999755859</ele>
        <time>2016-07-15T10:58:21.000Z</time>
      </trkpt>
      <trkpt lat="44.5197" lon="6.1446">
        <ele>1083.1999511719</ele>
        <time>2016-07-15T10:58:34.000Z</time>
      </trkpt>
      <trkpt lat="44.51973" lon="6.14461">
        <ele>1082.5999755859</ele>
        <time>2016-07-15T10:59:10.000Z</time>
      </trkpt>
      <trkpt lat="44.51973" lon="6.1446">
        <ele>1082.5999755859</ele>
        <time>2016-07-15T10:59:27.000Z</time>
      </trkpt>
      <trkpt lat="44.51974" lon="6.1446">
        <ele>1082.5999755859</ele>
        <time>2016-07-15T10:59:29.000Z</time>
      </trkpt>
      <trkpt lat="44.51979" lon="6.14461">
        <ele>1081.8000488281</ele>
        <time>2016-07-15T10:59:33.000Z</time>
      </trkpt>
      <trkpt lat="44.51979" lon="6.14462">
        <ele>1081.1999511719</ele>
        <time>2016-07-15T10:59:40.000Z</time>
      </trkpt>
      <trkpt lat="44.51975" lon="6.14464">
        <ele>1080.4000244141</ele>
        <time>2016-07-15T10:59:44.000Z</time>
      </trkpt>
      <trkpt lat="44.51977" lon="6.14466">
        <ele>1078.8000488281</ele>
        <time>2016-07-15T11:00:27.000Z</time>
      </trkpt>
      <trkpt lat="44.51978" lon="6.14468">
        <ele>1077.5999755859</ele>
        <time>2016-07-15T11:00:31.000Z</time>
      </trkpt>
      <trkpt lat="44.51978" lon="6.14467">
        <ele>1077.8000488281</ele>
        <time>2016-07-15T11:00:36.000Z</time>
      </trkpt>
      <trkpt lat="44.51976" lon="6.14466">
        <ele>1078.5999755859</ele>
        <time>2016-07-15T11:00:41.000Z</time>
      </trkpt>
      <trkpt lat="44.51975" lon="6.14466">
        <ele>1078.8000488281</ele>
        <time>2016-07-15T11:00:47.000Z</time>
      </trkpt>
      <trkpt lat="44.51973" lon="6.14468">
        <ele>1077.5999755859</ele>
        <time>2016-07-15T11:00:56.000Z</time>
      </trkpt>
      <trkpt lat="44.51975" lon="6.14468">
        <ele>1078</ele>
        <time>2016-07-15T11:01:00.000Z</time>
      </trkpt>
      <trkpt lat="44.51977" lon="6.14467">
        <ele>1078.1999511719</ele>
        <time>2016-07-15T11:01:24.000Z</time>
      </trkpt>
      <trkpt lat="44.51976" lon="6.14465">
        <ele>1079.8000488281</ele>
        <time>2016-07-15T11:01:39.000Z</time>
      </trkpt>
      <trkpt lat="44.51977" lon="6.14463">
        <ele>1080.4000244141</ele>
        <time>2016-07-15T11:01:47.000Z</time>
      </trkpt>
      <trkpt lat="44.51975" lon="6.14463">
        <ele>1080.5999755859</ele>
        <time>2016-07-15T11:02:17.000Z</time>
      </trkpt>
      <trkpt lat="44.51971" lon="6.14463">
        <ele>1081.4000244141</ele>
        <time>2016-07-15T11:02:50.000Z</time>
      </trkpt>
      <trkpt lat="44.51971" lon="6.14462">
        <ele>1081.5999755859</ele>
        <time>2016-07-15T11:02:54.000Z</time>
      </trkpt>
      <trkpt lat="44.51971" lon="6.14464">
        <ele>1080.8000488281</ele>
        <time>2016-07-15T11:03:00.000Z</time>
      </trkpt>
      <trkpt lat="44.51972" lon="6.14463">
        <ele>1080.8000488281</ele>
        <time>2016-07-15T11:03:14.000Z</time>
      </trkpt>
      <trkpt lat="44.51976" lon="6.14464">
        <ele>1079.8000488281</ele>
        <time>2016-07-15T11:03:18.000Z</time>
      </trkpt>
      <trkpt lat="44.51975" lon="6.14463">
        <ele>1080.5999755859</ele>
        <time>2016-07-15T11:03:27.000Z</time>
      </trkpt>
      <trkpt lat="44.51971" lon="6.14465">
        <ele>1079.5999755859</ele>
        <time>2016-07-15T11:03:51.000Z</time>
      </trkpt>
      <trkpt lat="44.51972" lon="6.14465">
        <ele>1079.8000488281</ele>
        <time>2016-07-15T11:03:55.000Z</time>
      </trkpt>
      <trkpt lat="44.51975" lon="6.14463">
        <ele>1080.8000488281</ele>
        <time>2016-07-15T11:04:09.000Z</time>
      </trkpt>
      <trkpt lat="44.51976" lon="6.14462">
        <ele>1081</ele>
        <time>2016-07-15T11:04:20.000Z</time>
      </trkpt>
      <trkpt lat="44.51975" lon="6.14462">
        <ele>1081.1999511719</ele>
        <time>2016-07-15T11:04:32.000Z</time>
      </trkpt>
      <trkpt lat="44.51977" lon="6.14461">
        <ele>1081.8000488281</ele>
        <time>2016-07-15T11:04:44.000Z</time>
      </trkpt>
      <trkpt lat="44.51978" lon="6.14461">
        <ele>1081.8000488281</ele>
        <time>2016-07-15T11:04:50.000Z</time>
      </trkpt>
      <trkpt lat="44.51979" lon="6.14462">
        <ele>1081.4000244141</ele>
        <time>2016-07-15T11:04:59.000Z</time>
      </trkpt>
      <trkpt lat="44.51975" lon="6.14463">
        <ele>1080.8000488281</ele>
        <time>2016-07-15T11:05:04.000Z</time>
      </trkpt>
      <trkpt lat="44.51975" lon="6.14462">
        <ele>1081.4000244141</ele>
        <time>2016-07-15T11:05:14.000Z</time>
      </trkpt>
      <trkpt lat="44.51976" lon="6.14462">
        <ele>1081.1999511719</ele>
        <time>2016-07-15T11:05:18.000Z</time>
      </trkpt>
      <trkpt lat="44.51977" lon="6.14462">
        <ele>1081.1999511719</ele>
        <time>2016-07-15T11:05:22.000Z</time>
      </trkpt>
      <trkpt lat="44.51976" lon="6.14462">
        <ele>1081.1999511719</ele>
        <time>2016-07-15T11:05:29.000Z</time>
      </trkpt>
      <trkpt lat="44.51974" lon="6.1446">
        <ele>1082.8000488281</ele>
        <time>2016-07-15T11:05:42.000Z</time>
      </trkpt>
      <trkpt lat="44.51972" lon="6.14462">
        <ele>1082</ele>
        <time>2016-07-15T11:05:46.000Z</time>
      </trkpt>
      <trkpt lat="44.51968" lon="6.14465">
        <ele>1080.4000244141</ele>
        <time>2016-07-15T11:05:51.000Z</time>
      </trkpt>
      <trkpt lat="44.51967" lon="6.14465">
        <ele>1080.5999755859</ele>
        <time>2016-07-15T11:05:58.000Z</time>
      </trkpt>
      <trkpt lat="44.51966" lon="6.14464">
        <ele>1080.8000488281</ele>
        <time>2016-07-15T11:06:07.000Z</time>
      </trkpt>
      <trkpt lat="44.5196" lon="6.14466">
        <ele>1080</ele>
        <time>2016-07-15T11:06:18.000Z</time>
      </trkpt>
      <trkpt lat="44.51951" lon="6.14469">
        <ele>1079</ele>
        <time>2016-07-15T11:06:25.000Z</time>
      </trkpt>
      <trkpt lat="44.51945" lon="6.14471">
        <ele>1075.1999511719</ele>
        <time>2016-07-15T11:06:30.000Z</time>
      </trkpt>
      <trkpt lat="44.51944" lon="6.14472">
        <ele>1074.1999511719</ele>
        <time>2016-07-15T11:06:31.000Z</time>
      </trkpt>
      <trkpt lat="44.51939" lon="6.14473">
        <ele>1072</ele>
        <time>2016-07-15T11:06:35.000Z</time>
      </trkpt>
      <trkpt lat="44.51931" lon="6.14474">
        <ele>1068.4000244141</ele>
        <time>2016-07-15T11:06:41.000Z</time>
      </trkpt>
      <trkpt lat="44.51926" lon="6.14476">
        <ele>1065.5999755859</ele>
        <time>2016-07-15T11:06:45.000Z</time>
      </trkpt>
      <trkpt lat="44.51927" lon="6.14472">
        <ele>1067.5999755859</ele>
        <time>2016-07-15T11:06:50.000Z</time>
      </trkpt>
      <trkpt lat="44.51929" lon="6.14468">
        <ele>1070.1999511719</ele>
        <time>2016-07-15T11:06:53.000Z</time>
      </trkpt>
      <trkpt lat="44.51934" lon="6.14461">
        <ele>1075</ele>
        <time>2016-07-15T11:07:00.000Z</time>
      </trkpt>
      <trkpt lat="44.51934" lon="6.1446">
        <ele>1075.5999755859</ele>
        <time>2016-07-15T11:07:01.000Z</time>
      </trkpt>
      <trkpt lat="44.51931" lon="6.14462">
        <ele>1073.5999755859</ele>
        <time>2016-07-15T11:07:06.000Z</time>
      </trkpt>
      <trkpt lat="44.51928" lon="6.14462">
        <ele>1072.5999755859</ele>
        <time>2016-07-15T11:07:08.000Z</time>
      </trkpt>
      <trkpt lat="44.51926" lon="6.1446">
        <ele>1072.8000488281</ele>
        <time>2016-07-15T11:07:11.000Z</time>
      </trkpt>
      <trkpt lat="44.5193" lon="6.14454">
        <ele>1077.1999511719</ele>
        <time>2016-07-15T11:07:18.000Z</time>
      </trkpt>
      <trkpt lat="44.51931" lon="6.1445">
        <ele>1080.1999511719</ele>
        <time>2016-07-15T11:07:23.000Z</time>
      </trkpt>
      <trkpt lat="44.51933" lon="6.14446">
        <ele>1084.5999755859</ele>
        <time>2016-07-15T11:07:28.000Z</time>
      </trkpt>
      <trkpt lat="44.51935" lon="6.1444">
        <ele>1089.4000244141</ele>
        <time>2016-07-15T11:07:32.000Z</time>
      </trkpt>
      <trkpt lat="44.51931" lon="6.1444">
        <ele>1086.8000488281</ele>
        <time>2016-07-15T11:07:38.000Z</time>
      </trkpt>
      <trkpt lat="44.51924" lon="6.14441">
        <ele>1082.5999755859</ele>
        <time>2016-07-15T11:07:45.000Z</time>
      </trkpt>
      <trkpt lat="44.51919" lon="6.1444">
        <ele>1080.1999511719</ele>
        <time>2016-07-15T11:07:50.000Z</time>
      </trkpt>
      <trkpt lat="44.51918" lon="6.1444">
        <ele>1079.4000244141</ele>
        <time>2016-07-15T11:07:51.000Z</time>
      </trkpt>
      <trkpt lat="44.51914" lon="6.14441">
        <ele>1076.4000244141</ele>
        <time>2016-07-15T11:07:56.000Z</time>
      </trkpt>
      <trkpt lat="44.5191" lon="6.14442">
        <ele>1074.5999755859</ele>
        <time>2016-07-15T11:08:00.000Z</time>
      </trkpt>
      <trkpt lat="44.51907" lon="6.14444">
        <ele>1072.8000488281</ele>
        <time>2016-07-15T11:08:07.000Z</time>
      </trkpt>
      <trkpt lat="44.51904" lon="6.14442">
        <ele>1072.5999755859</ele>
        <time>2016-07-15T11:08:14.000Z</time>
      </trkpt>
      <trkpt lat="44.51903" lon="6.14441">
        <ele>1072.5999755859</ele>
        <time>2016-07-15T11:08:16.000Z</time>
      </trkpt>
      <trkpt lat="44.51902" lon="6.14428">
        <ele>1077.8000488281</ele>
        <time>2016-07-15T11:08:26.000Z</time>
      </trkpt>
      <trkpt lat="44.51899" lon="6.14423">
        <ele>1079.1999511719</ele>
        <time>2016-07-15T11:08:33.000Z</time>
      </trkpt>
      <trkpt lat="44.51895" lon="6.14417">
        <ele>1081.1999511719</ele>
        <time>2016-07-15T11:08:39.000Z</time>
      </trkpt>
      <trkpt lat="44.5189" lon="6.14408">
        <ele>1083.8000488281</ele>
        <time>2016-07-15T11:08:47.000Z</time>
      </trkpt>
      <trkpt lat="44.51881" lon="6.144">
        <ele>1084.4000244141</ele>
        <time>2016-07-15T11:08:56.000Z</time>
      </trkpt>
      <trkpt lat="44.51874" lon="6.14389">
        <ele>1085.5999755859</ele>
        <time>2016-07-15T11:09:06.000Z</time>
      </trkpt>
      <trkpt lat="44.51872" lon="6.14386">
        <ele>1085.4000244141</ele>
        <time>2016-07-15T11:09:09.000Z</time>
      </trkpt>
      <trkpt lat="44.51865" lon="6.14376">
        <ele>1084</ele>
        <time>2016-07-15T11:09:19.000Z</time>
      </trkpt>
      <trkpt lat="44.51857" lon="6.14365">
        <ele>1083.1999511719</ele>
        <time>2016-07-15T11:09:28.000Z</time>
      </trkpt>
      <trkpt lat="44.51852" lon="6.14355">
        <ele>1083</ele>
        <time>2016-07-15T11:09:35.000Z</time>
      </trkpt>
      <trkpt lat="44.51849" lon="6.14348">
        <ele>1083</ele>
        <time>2016-07-15T11:09:41.000Z</time>
      </trkpt>
      <trkpt lat="44.51847" lon="6.14347">
        <ele>1082.8000488281</ele>
        <time>2016-07-15T11:09:43.000Z</time>
      </trkpt>
      <trkpt lat="44.51846" lon="6.14344">
        <ele>1083.1999511719</ele>
        <time>2016-07-15T11:09:48.000Z</time>
      </trkpt>
      <trkpt lat="44.51844" lon="6.14338">
        <ele>1083.8000488281</ele>
        <time>2016-07-15T11:09:55.000Z</time>
      </trkpt>
      <trkpt lat="44.51842" lon="6.14329">
        <ele>1085</ele>
        <time>2016-07-15T11:10:00.000Z</time>
      </trkpt>
      <trkpt lat="44.51842" lon="6.14316">
        <ele>1089</ele>
        <time>2016-07-15T11:10:08.000Z</time>
      </trkpt>
      <trkpt lat="44.51842" lon="6.14303">
        <ele>1090.8000488281</ele>
        <time>2016-07-15T11:10:16.000Z</time>
      </trkpt>
      <trkpt lat="44.51842" lon="6.14302">
        <ele>1090.8000488281</ele>
        <time>2016-07-15T11:10:17.000Z</time>
      </trkpt>
      <trkpt lat="44.51843" lon="6.1429">
        <ele>1092</ele>
        <time>2016-07-15T11:10:24.000Z</time>
      </trkpt>
      <trkpt lat="44.51843" lon="6.1428">
        <ele>1092.5999755859</ele>
        <time>2016-07-15T11:10:30.000Z</time>
      </trkpt>
      <trkpt lat="44.51845" lon="6.14271">
        <ele>1093.1999511719</ele>
        <time>2016-07-15T11:10:36.000Z</time>
      </trkpt>
      <trkpt lat="44.51848" lon="6.14259">
        <ele>1095</ele>
        <time>2016-07-15T11:10:44.000Z</time>
      </trkpt>
      <trkpt lat="44.51851" lon="6.14252">
        <ele>1096.4000244141</ele>
        <time>2016-07-15T11:10:49.000Z</time>
      </trkpt>
      <trkpt lat="44.51852" lon="6.14253">
        <ele>1097</ele>
        <time>2016-07-15T11:12:00.000Z</time>
      </trkpt>
      <trkpt lat="44.51853" lon="6.1425">
        <ele>1097.4000244141</ele>
        <time>2016-07-15T11:12:04.000Z</time>
      </trkpt>
      <trkpt lat="44.51853" lon="6.14241">
        <ele>1097.8000488281</ele>
        <time>2016-07-15T11:12:09.000Z</time>
      </trkpt>
      <trkpt lat="44.51852" lon="6.14239">
        <ele>1097.4000244141</ele>
        <time>2016-07-15T11:12:12.000Z</time>
      </trkpt>
      <trkpt lat="44.51849" lon="6.1424">
        <ele>1095.4000244141</ele>
        <time>2016-07-15T11:12:17.000Z</time>
      </trkpt>
      <trkpt lat="44.51845" lon="6.14243">
        <ele>1093.5999755859</ele>
        <time>2016-07-15T11:12:22.000Z</time>
      </trkpt>
      <trkpt lat="44.51841" lon="6.14247">
        <ele>1091.1999511719</ele>
        <time>2016-07-15T11:12:29.000Z</time>
      </trkpt>
      <trkpt lat="44.51837" lon="6.14252">
        <ele>1089.4000244141</ele>
        <time>2016-07-15T11:12:35.000Z</time>
      </trkpt>
      <trkpt lat="44.51834" lon="6.14255">
        <ele>1087.8000488281</ele>
        <time>2016-07-15T11:12:39.000Z</time>
      </trkpt>
      <trkpt lat="44.51831" lon="6.14255">
        <ele>1086</ele>
        <time>2016-07-15T11:12:44.000Z</time>
      </trkpt>
      <trkpt lat="44.51831" lon="6.14253">
        <ele>1086</ele>
        <time>2016-07-15T11:12:45.000Z</time>
      </trkpt>
      <trkpt lat="44.51832" lon="6.14241">
        <ele>1086.8000488281</ele>
        <time>2016-07-15T11:12:53.000Z</time>
      </trkpt>
      <trkpt lat="44.51833" lon="6.14232">
        <ele>1087</ele>
        <time>2016-07-15T11:12:59.000Z</time>
      </trkpt>
      <trkpt lat="44.51833" lon="6.14227">
        <ele>1087</ele>
        <time>2016-07-15T11:13:03.000Z</time>
      </trkpt>
      <trkpt lat="44.51835" lon="6.14219">
        <ele>1088</ele>
        <time>2016-07-15T11:13:10.000Z</time>
      </trkpt>
      <trkpt lat="44.51836" lon="6.14218">
        <ele>1088.1999511719</ele>
        <time>2016-07-15T11:13:11.000Z</time>
      </trkpt>
      <trkpt lat="44.51838" lon="6.14207">
        <ele>1089.1999511719</ele>
        <time>2016-07-15T11:13:19.000Z</time>
      </trkpt>
      <trkpt lat="44.51843" lon="6.14198">
        <ele>1090.4000244141</ele>
        <time>2016-07-15T11:13:26.000Z</time>
      </trkpt>
      <trkpt lat="44.51844" lon="6.14197">
        <ele>1090.4000244141</ele>
        <time>2016-07-15T11:13:27.000Z</time>
      </trkpt>
      <trkpt lat="44.51847" lon="6.14188">
        <ele>1089.5999755859</ele>
        <time>2016-07-15T11:13:34.000Z</time>
      </trkpt>
      <trkpt lat="44.51849" lon="6.1418">
        <ele>1089</ele>
        <time>2016-07-15T11:13:41.000Z</time>
      </trkpt>
      <trkpt lat="44.51851" lon="6.14178">
        <ele>1089</ele>
        <time>2016-07-15T11:13:43.000Z</time>
      </trkpt>
      <trkpt lat="44.51855" lon="6.14164">
        <ele>1087.8000488281</ele>
        <time>2016-07-15T11:13:51.000Z</time>
      </trkpt>
      <trkpt lat="44.51857" lon="6.14161">
        <ele>1087.8000488281</ele>
        <time>2016-07-15T11:13:53.000Z</time>
      </trkpt>
      <trkpt lat="44.51862" lon="6.14156">
        <ele>1088.5999755859</ele>
        <time>2016-07-15T11:13:59.000Z</time>
      </trkpt>
      <trkpt lat="44.51863" lon="6.14155">
        <ele>1088.5999755859</ele>
        <time>2016-07-15T11:14:00.000Z</time>
      </trkpt>
      <trkpt lat="44.51868" lon="6.14148">
        <ele>1089.1999511719</ele>
        <time>2016-07-15T11:14:06.000Z</time>
      </trkpt>
      <trkpt lat="44.51872" lon="6.14144">
        <ele>1089</ele>
        <time>2016-07-15T11:14:13.000Z</time>
      </trkpt>
      <trkpt lat="44.51872" lon="6.14143">
        <ele>1089</ele>
        <time>2016-07-15T11:14:14.000Z</time>
      </trkpt>
      <trkpt lat="44.51875" lon="6.14138">
        <ele>1088.8000488281</ele>
        <time>2016-07-15T11:14:20.000Z</time>
      </trkpt>
      <trkpt lat="44.51877" lon="6.14134">
        <ele>1088.5999755859</ele>
        <time>2016-07-15T11:14:23.000Z</time>
      </trkpt>
      <trkpt lat="44.51881" lon="6.14127">
        <ele>1088.5999755859</ele>
        <time>2016-07-15T11:14:31.000Z</time>
      </trkpt>
      <trkpt lat="44.51885" lon="6.14124">
        <ele>1089</ele>
        <time>2016-07-15T11:14:36.000Z</time>
      </trkpt>
      <trkpt lat="44.51884" lon="6.14122">
        <ele>1088.5999755859</ele>
        <time>2016-07-15T11:14:38.000Z</time>
      </trkpt>
      <trkpt lat="44.51884" lon="6.14121">
        <ele>1088.4000244141</ele>
        <time>2016-07-15T11:14:39.000Z</time>
      </trkpt>
      <trkpt lat="44.51879" lon="6.14122">
        <ele>1087.5999755859</ele>
        <time>2016-07-15T11:14:45.000Z</time>
      </trkpt>
      <trkpt lat="44.51877" lon="6.14119">
        <ele>1086.8000488281</ele>
        <time>2016-07-15T11:14:51.000Z</time>
      </trkpt>
      <trkpt lat="44.51882" lon="6.14115">
        <ele>1087.1999511719</ele>
        <time>2016-07-15T11:14:57.000Z</time>
      </trkpt>
      <trkpt lat="44.51886" lon="6.14115">
        <ele>1088</ele>
        <time>2016-07-15T11:15:01.000Z</time>
      </trkpt>
      <trkpt lat="44.5189" lon="6.14115">
        <ele>1089</ele>
        <time>2016-07-15T11:15:06.000Z</time>
      </trkpt>
      <trkpt lat="44.51893" lon="6.14113">
        <ele>1089.1999511719</ele>
        <time>2016-07-15T11:15:10.000Z</time>
      </trkpt>
      <trkpt lat="44.51894" lon="6.14112">
        <ele>1089.1999511719</ele>
        <time>2016-07-15T11:15:11.000Z</time>
      </trkpt>
      <trkpt lat="44.51895" lon="6.14109">
        <ele>1089</ele>
        <time>2016-07-15T11:15:14.000Z</time>
      </trkpt>
      <trkpt lat="44.51892" lon="6.14101">
        <ele>1087.4000244141</ele>
        <time>2016-07-15T11:15:22.000Z</time>
      </trkpt>
      <trkpt lat="44.51893" lon="6.14102">
        <ele>1087.8000488281</ele>
        <time>2016-07-15T11:15:24.000Z</time>
      </trkpt>
      <trkpt lat="44.51893" lon="6.14104">
        <ele>1088</ele>
        <time>2016-07-15T11:15:29.000Z</time>
      </trkpt>
      <trkpt lat="44.51893" lon="6.141">
        <ele>1087.5999755859</ele>
        <time>2016-07-15T11:15:35.000Z</time>
      </trkpt>
      <trkpt lat="44.5189" lon="6.14096">
        <ele>1086.4000244141</ele>
        <time>2016-07-15T11:15:39.000Z</time>
      </trkpt>
      <trkpt lat="44.51889" lon="6.14094">
        <ele>1085.8000488281</ele>
        <time>2016-07-15T11:15:41.000Z</time>
      </trkpt>
      <trkpt lat="44.51883" lon="6.14092">
        <ele>1084.4000244141</ele>
        <time>2016-07-15T11:15:48.000Z</time>
      </trkpt>
      <trkpt lat="44.51876" lon="6.14086">
        <ele>1082.1999511719</ele>
        <time>2016-07-15T11:15:55.000Z</time>
      </trkpt>
      <trkpt lat="44.51875" lon="6.14085">
        <ele>1081.8000488281</ele>
        <time>2016-07-15T11:15:57.000Z</time>
      </trkpt>
      <trkpt lat="44.51872" lon="6.1408">
        <ele>1080.5999755859</ele>
        <time>2016-07-15T11:16:03.000Z</time>
      </trkpt>
      <trkpt lat="44.51873" lon="6.14073">
        <ele>1079.8000488281</ele>
        <time>2016-07-15T11:16:09.000Z</time>
      </trkpt>
      <trkpt lat="44.51868" lon="6.14063">
        <ele>1077.5999755859</ele>
        <time>2016-07-15T11:16:17.000Z</time>
      </trkpt>
      <trkpt lat="44.51865" lon="6.14053">
        <ele>1077.1999511719</ele>
        <time>2016-07-15T11:16:24.000Z</time>
      </trkpt>
      <trkpt lat="44.51865" lon="6.14044">
        <ele>1078</ele>
        <time>2016-07-15T11:16:30.000Z</time>
      </trkpt>
      <trkpt lat="44.51866" lon="6.14034">
        <ele>1078.8000488281</ele>
        <time>2016-07-15T11:16:37.000Z</time>
      </trkpt>
      <trkpt lat="44.51866" lon="6.14033">
        <ele>1079</ele>
        <time>2016-07-15T11:16:38.000Z</time>
      </trkpt>
      <trkpt lat="44.51865" lon="6.14027">
        <ele>1079.4000244141</ele>
        <time>2016-07-15T11:16:42.000Z</time>
      </trkpt>
      <trkpt lat="44.51866" lon="6.14021">
        <ele>1080</ele>
        <time>2016-07-15T11:16:47.000Z</time>
      </trkpt>
      <trkpt lat="44.51866" lon="6.1402">
        <ele>1080</ele>
        <time>2016-07-15T11:16:48.000Z</time>
      </trkpt>
      <trkpt lat="44.5186" lon="6.14009">
        <ele>1079.5999755859</ele>
        <time>2016-07-15T11:16:56.000Z</time>
      </trkpt>
      <trkpt lat="44.51857" lon="6.14008">
        <ele>1078.8000488281</ele>
        <time>2016-07-15T11:17:00.000Z</time>
      </trkpt>
      <trkpt lat="44.51848" lon="6.14002">
        <ele>1076.8000488281</ele>
        <time>2016-07-15T11:17:09.000Z</time>
      </trkpt>
      <trkpt lat="44.51847" lon="6.14001">
        <ele>1076.8000488281</ele>
        <time>2016-07-15T11:17:11.000Z</time>
      </trkpt>
      <trkpt lat="44.5184" lon="6.13986">
        <ele>1076</ele>
        <time>2016-07-15T11:17:22.000Z</time>
      </trkpt>
      <trkpt lat="44.51835" lon="6.13973">
        <ele>1076.5999755859</ele>
        <time>2016-07-15T11:17:30.000Z</time>
      </trkpt>
      <trkpt lat="44.5183" lon="6.13962">
        <ele>1077.8000488281</ele>
        <time>2016-07-15T11:17:37.000Z</time>
      </trkpt>
      <trkpt lat="44.51828" lon="6.13959">
        <ele>1078</ele>
        <time>2016-07-15T11:17:39.000Z</time>
      </trkpt>
      <trkpt lat="44.51827" lon="6.13957">
        <ele>1078.1999511719</ele>
        <time>2016-07-15T11:17:41.000Z</time>
      </trkpt>
      <trkpt lat="44.51825" lon="6.13949">
        <ele>1079.1999511719</ele>
        <time>2016-07-15T11:17:49.000Z</time>
      </trkpt>
      <trkpt lat="44.51821" lon="6.13942">
        <ele>1080</ele>
        <time>2016-07-15T11:17:55.000Z</time>
      </trkpt>
      <trkpt lat="44.51815" lon="6.13936">
        <ele>1079.8000488281</ele>
        <time>2016-07-15T11:18:02.000Z</time>
      </trkpt>
      <trkpt lat="44.51813" lon="6.13934">
        <ele>1079.5999755859</ele>
        <time>2016-07-15T11:18:04.000Z</time>
      </trkpt>
      <trkpt lat="44.51808" lon="6.13931">
        <ele>1079</ele>
        <time>2016-07-15T11:18:09.000Z</time>
      </trkpt>
      <trkpt lat="44.51798" lon="6.13925">
        <ele>1078</ele>
        <time>2016-07-15T11:18:16.000Z</time>
      </trkpt>
      <trkpt lat="44.51795" lon="6.13914">
        <ele>1079.4000244141</ele>
        <time>2016-07-15T11:18:22.000Z</time>
      </trkpt>
      <trkpt lat="44.51796" lon="6.13908">
        <ele>1081.1999511719</ele>
        <time>2016-07-15T11:18:27.000Z</time>
      </trkpt>
      <trkpt lat="44.51797" lon="6.13904">
        <ele>1082.1999511719</ele>
        <time>2016-07-15T11:18:30.000Z</time>
      </trkpt>
      <trkpt lat="44.51799" lon="6.13894">
        <ele>1085.1999511719</ele>
        <time>2016-07-15T11:18:36.000Z</time>
      </trkpt>
      <trkpt lat="44.518" lon="6.13883">
        <ele>1087.8000488281</ele>
        <time>2016-07-15T11:18:42.000Z</time>
      </trkpt>
      <trkpt lat="44.518" lon="6.13879">
        <ele>1088.4000244141</ele>
        <time>2016-07-15T11:18:44.000Z</time>
      </trkpt>
      <trkpt lat="44.51801" lon="6.13867">
        <ele>1091</ele>
        <time>2016-07-15T11:18:51.000Z</time>
      </trkpt>
      <trkpt lat="44.51804" lon="6.13855">
        <ele>1094.4000244141</ele>
        <time>2016-07-15T11:18:58.000Z</time>
      </trkpt>
      <trkpt lat="44.51807" lon="6.13848">
        <ele>1096.5999755859</ele>
        <time>2016-07-15T11:19:03.000Z</time>
      </trkpt>
      <trkpt lat="44.51809" lon="6.1384">
        <ele>1098.8000488281</ele>
        <time>2016-07-15T11:19:08.000Z</time>
      </trkpt>
      <trkpt lat="44.51809" lon="6.13835">
        <ele>1099.8000488281</ele>
        <time>2016-07-15T11:19:11.000Z</time>
      </trkpt>
      <trkpt lat="44.5181" lon="6.13823">
        <ele>1101.8000488281</ele>
        <time>2016-07-15T11:19:18.000Z</time>
      </trkpt>
      <trkpt lat="44.51811" lon="6.13816">
        <ele>1103</ele>
        <time>2016-07-15T11:19:22.000Z</time>
      </trkpt>
      <trkpt lat="44.51813" lon="6.13807">
        <ele>1104.8000488281</ele>
        <time>2016-07-15T11:19:27.000Z</time>
      </trkpt>
      <trkpt lat="44.51816" lon="6.13797">
        <ele>1107</ele>
        <time>2016-07-15T11:19:33.000Z</time>
      </trkpt>
      <trkpt lat="44.51816" lon="6.13795">
        <ele>1107.4000244141</ele>
        <time>2016-07-15T11:19:34.000Z</time>
      </trkpt>
      <trkpt lat="44.51817" lon="6.13789">
        <ele>1108.4000244141</ele>
        <time>2016-07-15T11:19:37.000Z</time>
      </trkpt>
      <trkpt lat="44.51819" lon="6.13781">
        <ele>1109.8000488281</ele>
        <time>2016-07-15T11:19:42.000Z</time>
      </trkpt>
      <trkpt lat="44.51819" lon="6.13779">
        <ele>1110.1999511719</ele>
        <time>2016-07-15T11:19:43.000Z</time>
      </trkpt>
      <trkpt lat="44.5182" lon="6.13777">
        <ele>1110.5999755859</ele>
        <time>2016-07-15T11:19:44.000Z</time>
      </trkpt>
      <trkpt lat="44.51823" lon="6.13774">
        <ele>1111.8000488281</ele>
        <time>2016-07-15T11:19:51.000Z</time>
      </trkpt>
      <trkpt lat="44.51824" lon="6.13773">
        <ele>1112</ele>
        <time>2016-07-15T11:19:53.000Z</time>
      </trkpt>
      <trkpt lat="44.51826" lon="6.13775">
        <ele>1112.4000244141</ele>
        <time>2016-07-15T11:19:58.000Z</time>
      </trkpt>
      <trkpt lat="44.51826" lon="6.13773">
        <ele>1112.5999755859</ele>
        <time>2016-07-15T11:20:04.000Z</time>
      </trkpt>
      <trkpt lat="44.51828" lon="6.13768">
        <ele>1113</ele>
        <time>2016-07-15T11:20:10.000Z</time>
      </trkpt>
      <trkpt lat="44.51829" lon="6.13764">
        <ele>1112.8000488281</ele>
        <time>2016-07-15T11:20:17.000Z</time>
      </trkpt>
      <trkpt lat="44.51827" lon="6.13759">
        <ele>1112.4000244141</ele>
        <time>2016-07-15T11:20:21.000Z</time>
      </trkpt>
      <trkpt lat="44.51824" lon="6.13752">
        <ele>1112</ele>
        <time>2016-07-15T11:20:29.000Z</time>
      </trkpt>
      <trkpt lat="44.51826" lon="6.13751">
        <ele>1112</ele>
        <time>2016-07-15T11:20:38.000Z</time>
      </trkpt>
      <trkpt lat="44.51827" lon="6.13747">
        <ele>1111.5999755859</ele>
        <time>2016-07-15T11:20:56.000Z</time>
      </trkpt>
      <trkpt lat="44.51826" lon="6.13742">
        <ele>1111.4000244141</ele>
        <time>2016-07-15T11:21:04.000Z</time>
      </trkpt>
      <trkpt lat="44.51826" lon="6.13735">
        <ele>1111</ele>
        <time>2016-07-15T11:21:09.000Z</time>
      </trkpt>
      <trkpt lat="44.51823" lon="6.13729">
        <ele>1110.5999755859</ele>
        <time>2016-07-15T11:21:15.000Z</time>
      </trkpt>
      <trkpt lat="44.51821" lon="6.13726">
        <ele>1110.1999511719</ele>
        <time>2016-07-15T11:21:19.000Z</time>
      </trkpt>
      <trkpt lat="44.51821" lon="6.13716">
        <ele>1108.4000244141</ele>
        <time>2016-07-15T11:21:28.000Z</time>
      </trkpt>
      <trkpt lat="44.51821" lon="6.13711">
        <ele>1107.4000244141</ele>
        <time>2016-07-15T11:21:31.000Z</time>
      </trkpt>
      <trkpt lat="44.5182" lon="6.13703">
        <ele>1106</ele>
        <time>2016-07-15T11:21:37.000Z</time>
      </trkpt>
      <trkpt lat="44.51816" lon="6.13692">
        <ele>1104</ele>
        <time>2016-07-15T11:21:44.000Z</time>
      </trkpt>
      <trkpt lat="44.51816" lon="6.13689">
        <ele>1103.4000244141</ele>
        <time>2016-07-15T11:21:46.000Z</time>
      </trkpt>
      <trkpt lat="44.51814" lon="6.13684">
        <ele>1102.5999755859</ele>
        <time>2016-07-15T11:21:50.000Z</time>
      </trkpt>
      <trkpt lat="44.51808" lon="6.13679">
        <ele>1101.5999755859</ele>
        <time>2016-07-15T11:21:56.000Z</time>
      </trkpt>
      <trkpt lat="44.51805" lon="6.13676">
        <ele>1101</ele>
        <time>2016-07-15T11:21:59.000Z</time>
      </trkpt>
      <trkpt lat="44.518" lon="6.13668">
        <ele>1099.5999755859</ele>
        <time>2016-07-15T11:22:06.000Z</time>
      </trkpt>
      <trkpt lat="44.51797" lon="6.13665">
        <ele>1099</ele>
        <time>2016-07-15T11:22:10.000Z</time>
      </trkpt>
      <trkpt lat="44.51789" lon="6.13656">
        <ele>1097.1999511719</ele>
        <time>2016-07-15T11:22:18.000Z</time>
      </trkpt>
      <trkpt lat="44.51782" lon="6.1365">
        <ele>1096</ele>
        <time>2016-07-15T11:22:25.000Z</time>
      </trkpt>
      <trkpt lat="44.51779" lon="6.13645">
        <ele>1095.1999511719</ele>
        <time>2016-07-15T11:22:29.000Z</time>
      </trkpt>
      <trkpt lat="44.51776" lon="6.13642">
        <ele>1094.5999755859</ele>
        <time>2016-07-15T11:22:34.000Z</time>
      </trkpt>
      <trkpt lat="44.51775" lon="6.1364">
        <ele>1094.1999511719</ele>
        <time>2016-07-15T11:22:36.000Z</time>
      </trkpt>
      <trkpt lat="44.51773" lon="6.13633">
        <ele>1092.4000244141</ele>
        <time>2016-07-15T11:22:41.000Z</time>
      </trkpt>
      <trkpt lat="44.51771" lon="6.13629">
        <ele>1091.8000488281</ele>
        <time>2016-07-15T11:22:43.000Z</time>
      </trkpt>
      <trkpt lat="44.51767" lon="6.13621">
        <ele>1090</ele>
        <time>2016-07-15T11:22:51.000Z</time>
      </trkpt>
      <trkpt lat="44.51765" lon="6.13619">
        <ele>1089.4000244141</ele>
        <time>2016-07-15T11:22:54.000Z</time>
      </trkpt>
      <trkpt lat="44.51765" lon="6.13617">
        <ele>1089.1999511719</ele>
        <time>2016-07-15T11:22:56.000Z</time>
      </trkpt>
      <trkpt lat="44.51758" lon="6.13604">
        <ele>1086.1999511719</ele>
        <time>2016-07-15T11:23:06.000Z</time>
      </trkpt>
      <trkpt lat="44.51753" lon="6.13595">
        <ele>1084.4000244141</ele>
        <time>2016-07-15T11:23:13.000Z</time>
      </trkpt>
      <trkpt lat="44.51751" lon="6.13592">
        <ele>1083.5999755859</ele>
        <time>2016-07-15T11:23:16.000Z</time>
      </trkpt>
      <trkpt lat="44.51745" lon="6.13589">
        <ele>1082.8000488281</ele>
        <time>2016-07-15T11:23:22.000Z</time>
      </trkpt>
      <trkpt lat="44.51742" lon="6.13587">
        <ele>1082.4000244141</ele>
        <time>2016-07-15T11:23:25.000Z</time>
      </trkpt>
      <trkpt lat="44.51738" lon="6.13582">
        <ele>1081.4000244141</ele>
        <time>2016-07-15T11:23:30.000Z</time>
      </trkpt>
      <trkpt lat="44.51735" lon="6.1358">
        <ele>1080.8000488281</ele>
        <time>2016-07-15T11:23:32.000Z</time>
      </trkpt>
      <trkpt lat="44.5173" lon="6.13573">
        <ele>1079.1999511719</ele>
        <time>2016-07-15T11:23:38.000Z</time>
      </trkpt>
      <trkpt lat="44.51729" lon="6.13572">
        <ele>1079</ele>
        <time>2016-07-15T11:23:39.000Z</time>
      </trkpt>
      <trkpt lat="44.51729" lon="6.13571">
        <ele>1078.8000488281</ele>
        <time>2016-07-15T11:23:40.000Z</time>
      </trkpt>
      <trkpt lat="44.51723" lon="6.13566">
        <ele>1077.5999755859</ele>
        <time>2016-07-15T11:23:45.000Z</time>
      </trkpt>
      <trkpt lat="44.51721" lon="6.13564">
        <ele>1077.1999511719</ele>
        <time>2016-07-15T11:23:47.000Z</time>
      </trkpt>
      <trkpt lat="44.51718" lon="6.1356">
        <ele>1076.4000244141</ele>
        <time>2016-07-15T11:23:51.000Z</time>
      </trkpt>
      <trkpt lat="44.51713" lon="6.13547">
        <ele>1073.1999511719</ele>
        <time>2016-07-15T11:23:59.000Z</time>
      </trkpt>
      <trkpt lat="44.51709" lon="6.13536">
        <ele>1070.4000244141</ele>
        <time>2016-07-15T11:24:06.000Z</time>
      </trkpt>
      <trkpt lat="44.51704" lon="6.13523">
        <ele>1067</ele>
        <time>2016-07-15T11:24:15.000Z</time>
      </trkpt>
      <trkpt lat="44.51696" lon="6.13506">
        <ele>1062.5999755859</ele>
        <time>2016-07-15T11:24:29.000Z</time>
      </trkpt>
      <trkpt lat="44.51698" lon="6.13504">
        <ele>1062.1999511719</ele>
        <time>2016-07-15T11:24:31.000Z</time>
      </trkpt>
      <trkpt lat="44.51709" lon="6.13499">
        <ele>1061.4000244141</ele>
        <time>2016-07-15T11:24:40.000Z</time>
      </trkpt>
      <trkpt lat="44.51712" lon="6.13497">
        <ele>1061</ele>
        <time>2016-07-15T11:24:43.000Z</time>
      </trkpt>
      <trkpt lat="44.51709" lon="6.13487">
        <ele>1058.5999755859</ele>
        <time>2016-07-15T11:24:50.000Z</time>
      </trkpt>
      <trkpt lat="44.51702" lon="6.13483">
        <ele>1057.4000244141</ele>
        <time>2016-07-15T11:24:56.000Z</time>
      </trkpt>
      <trkpt lat="44.51695" lon="6.13479">
        <ele>1056</ele>
        <time>2016-07-15T11:25:02.000Z</time>
      </trkpt>
      <trkpt lat="44.51684" lon="6.1347">
        <ele>1053.8000488281</ele>
        <time>2016-07-15T11:25:12.000Z</time>
      </trkpt>
      <trkpt lat="44.51676" lon="6.13465">
        <ele>1052.4000244141</ele>
        <time>2016-07-15T11:25:20.000Z</time>
      </trkpt>
      <trkpt lat="44.51678" lon="6.13467">
        <ele>1052.8000488281</ele>
        <time>2016-07-15T11:25:26.000Z</time>
      </trkpt>
      <trkpt lat="44.51684" lon="6.13468">
        <ele>1053.4000244141</ele>
        <time>2016-07-15T11:25:31.000Z</time>
      </trkpt>
      <trkpt lat="44.51684" lon="6.13467">
        <ele>1053.1999511719</ele>
        <time>2016-07-15T11:25:38.000Z</time>
      </trkpt>
      <trkpt lat="44.51684" lon="6.13465">
        <ele>1052.8000488281</ele>
        <time>2016-07-15T11:25:42.000Z</time>
      </trkpt>
      <trkpt lat="44.51684" lon="6.13463">
        <ele>1052.4000244141</ele>
        <time>2016-07-15T11:25:49.000Z</time>
      </trkpt>
      <trkpt lat="44.51683" lon="6.13463">
        <ele>1052.4000244141</ele>
        <time>2016-07-15T11:26:18.000Z</time>
      </trkpt>
      <trkpt lat="44.51683" lon="6.13462">
        <ele>1052.1999511719</ele>
        <time>2016-07-15T11:26:19.000Z</time>
      </trkpt>
      <trkpt lat="44.51676" lon="6.1346">
        <ele>1051.4000244141</ele>
        <time>2016-07-15T11:26:24.000Z</time>
      </trkpt>
      <trkpt lat="44.51665" lon="6.13455">
        <ele>1050</ele>
        <time>2016-07-15T11:26:33.000Z</time>
      </trkpt>
      <trkpt lat="44.51654" lon="6.13451">
        <ele>1048.4000244141</ele>
        <time>2016-07-15T11:26:42.000Z</time>
      </trkpt>
      <trkpt lat="44.51653" lon="6.13451">
        <ele>1048.4000244141</ele>
        <time>2016-07-15T11:26:43.000Z</time>
      </trkpt>
      <trkpt lat="44.51649" lon="6.13449">
        <ele>1047.8000488281</ele>
        <time>2016-07-15T11:26:47.000Z</time>
      </trkpt>
      <trkpt lat="44.51645" lon="6.13447">
        <ele>1047.1999511719</ele>
        <time>2016-07-15T11:26:50.000Z</time>
      </trkpt>
      <trkpt lat="44.5164" lon="6.13441">
        <ele>1045.8000488281</ele>
        <time>2016-07-15T11:26:56.000Z</time>
      </trkpt>
      <trkpt lat="44.5164" lon="6.1344">
        <ele>1045.5999755859</ele>
        <time>2016-07-15T11:26:57.000Z</time>
      </trkpt>
      <trkpt lat="44.51639" lon="6.13438">
        <ele>1045.1999511719</ele>
        <time>2016-07-15T11:26:58.000Z</time>
      </trkpt>
      <trkpt lat="44.51635" lon="6.13431">
        <ele>1043.8000488281</ele>
        <time>2016-07-15T11:27:03.000Z</time>
      </trkpt>
      <trkpt lat="44.5163" lon="6.13422">
        <ele>1042</ele>
        <time>2016-07-15T11:27:10.000Z</time>
      </trkpt>
      <trkpt lat="44.51625" lon="6.13415">
        <ele>1040.1999511719</ele>
        <time>2016-07-15T11:27:16.000Z</time>
      </trkpt>
      <trkpt lat="44.51613" lon="6.1341">
        <ele>1038.8000488281</ele>
        <time>2016-07-15T11:27:25.000Z</time>
      </trkpt>
      <trkpt lat="44.51607" lon="6.13408">
        <ele>1038.4000244141</ele>
        <time>2016-07-15T11:27:31.000Z</time>
      </trkpt>
      <trkpt lat="44.516" lon="6.13402">
        <ele>1037.1999511719</ele>
        <time>2016-07-15T11:27:37.000Z</time>
      </trkpt>
      <trkpt lat="44.51598" lon="6.134">
        <ele>1037</ele>
        <time>2016-07-15T11:27:39.000Z</time>
      </trkpt>
      <trkpt lat="44.51592" lon="6.13391">
        <ele>1035.1999511719</ele>
        <time>2016-07-15T11:27:46.000Z</time>
      </trkpt>
      <trkpt lat="44.51589" lon="6.13382">
        <ele>1033.5999755859</ele>
        <time>2016-07-15T11:27:53.000Z</time>
      </trkpt>
      <trkpt lat="44.51586" lon="6.13375">
        <ele>1032.4000244141</ele>
        <time>2016-07-15T11:27:58.000Z</time>
      </trkpt>
      <trkpt lat="44.51585" lon="6.13374">
        <ele>1032.1999511719</ele>
        <time>2016-07-15T11:27:59.000Z</time>
      </trkpt>
      <trkpt lat="44.51584" lon="6.13368">
        <ele>1031.1999511719</ele>
        <time>2016-07-15T11:28:03.000Z</time>
      </trkpt>
      <trkpt lat="44.51578" lon="6.1336">
        <ele>1029.8000488281</ele>
        <time>2016-07-15T11:28:10.000Z</time>
      </trkpt>
      <trkpt lat="44.51577" lon="6.1336">
        <ele>1029.8000488281</ele>
        <time>2016-07-15T11:28:11.000Z</time>
      </trkpt>
      <trkpt lat="44.51571" lon="6.13355">
        <ele>1029</ele>
        <time>2016-07-15T11:28:16.000Z</time>
      </trkpt>
      <trkpt lat="44.51563" lon="6.13355">
        <ele>1028.8000488281</ele>
        <time>2016-07-15T11:28:23.000Z</time>
      </trkpt>
      <trkpt lat="44.51554" lon="6.13354">
        <ele>1028.5999755859</ele>
        <time>2016-07-15T11:28:30.000Z</time>
      </trkpt>
      <trkpt lat="44.51552" lon="6.13355">
        <ele>1028.5999755859</ele>
        <time>2016-07-15T11:28:31.000Z</time>
      </trkpt>
      <trkpt lat="44.51545" lon="6.13355">
        <ele>1028.5999755859</ele>
        <time>2016-07-15T11:28:36.000Z</time>
      </trkpt>
      <trkpt lat="44.5154" lon="6.13355">
        <ele>1028.5999755859</ele>
        <time>2016-07-15T11:28:40.000Z</time>
      </trkpt>
      <trkpt lat="44.51537" lon="6.13358">
        <ele>1029</ele>
        <time>2016-07-15T11:28:44.000Z</time>
      </trkpt>
      <trkpt lat="44.51535" lon="6.13364">
        <ele>1030</ele>
        <time>2016-07-15T11:28:49.000Z</time>
      </trkpt>
      <trkpt lat="44.51532" lon="6.13373">
        <ele>1031.5999755859</ele>
        <time>2016-07-15T11:28:55.000Z</time>
      </trkpt>
      <trkpt lat="44.51527" lon="6.13376">
        <ele>1032.8000488281</ele>
        <time>2016-07-15T11:28:59.000Z</time>
      </trkpt>
      <trkpt lat="44.51523" lon="6.13377">
        <ele>1033.4000244141</ele>
        <time>2016-07-15T11:29:02.000Z</time>
      </trkpt>
      <trkpt lat="44.51514" lon="6.13375">
        <ele>1034.1999511719</ele>
        <time>2016-07-15T11:29:08.000Z</time>
      </trkpt>
      <trkpt lat="44.51504" lon="6.13364">
        <ele>1033.5999755859</ele>
        <time>2016-07-15T11:29:18.000Z</time>
      </trkpt>
      <trkpt lat="44.51502" lon="6.13353">
        <ele>1032</ele>
        <time>2016-07-15T11:29:24.000Z</time>
      </trkpt>
      <trkpt lat="44.51502" lon="6.13351">
        <ele>1031.5999755859</ele>
        <time>2016-07-15T11:29:25.000Z</time>
      </trkpt>
      <trkpt lat="44.51499" lon="6.13339">
        <ele>1029.8000488281</ele>
        <time>2016-07-15T11:29:32.000Z</time>
      </trkpt>
      <trkpt lat="44.51498" lon="6.13337">
        <ele>1029.5999755859</ele>
        <time>2016-07-15T11:29:33.000Z</time>
      </trkpt>
      <trkpt lat="44.51494" lon="6.13327">
        <ele>1028.4000244141</ele>
        <time>2016-07-15T11:29:39.000Z</time>
      </trkpt>
      <trkpt lat="44.51492" lon="6.13315">
        <ele>1026.8000488281</ele>
        <time>2016-07-15T11:29:45.000Z</time>
      </trkpt>
      <trkpt lat="44.51489" lon="6.13305">
        <ele>1025.1999511719</ele>
        <time>2016-07-15T11:29:51.000Z</time>
      </trkpt>
      <trkpt lat="44.51488" lon="6.13303">
        <ele>1025</ele>
        <time>2016-07-15T11:29:52.000Z</time>
      </trkpt>
      <trkpt lat="44.51483" lon="6.13288">
        <ele>1022.200012207</ele>
        <time>2016-07-15T11:30:01.000Z</time>
      </trkpt>
      <trkpt lat="44.51477" lon="6.13277">
        <ele>1020.5999755859</ele>
        <time>2016-07-15T11:30:09.000Z</time>
      </trkpt>
      <trkpt lat="44.51471" lon="6.13263">
        <ele>1018.200012207</ele>
        <time>2016-07-15T11:30:18.000Z</time>
      </trkpt>
      <trkpt lat="44.5147" lon="6.13253">
        <ele>1016.200012207</ele>
        <time>2016-07-15T11:30:23.000Z</time>
      </trkpt>
      <trkpt lat="44.51469" lon="6.13243">
        <ele>1014.5999755859</ele>
        <time>2016-07-15T11:30:29.000Z</time>
      </trkpt>
      <trkpt lat="44.51461" lon="6.13233">
        <ele>1013.799987793</ele>
        <time>2016-07-15T11:30:37.000Z</time>
      </trkpt>
      <trkpt lat="44.51459" lon="6.13232">
        <ele>1013.5999755859</ele>
        <time>2016-07-15T11:30:39.000Z</time>
      </trkpt>
      <trkpt lat="44.51452" lon="6.13229">
        <ele>1013.4000244141</ele>
        <time>2016-07-15T11:30:45.000Z</time>
      </trkpt>
      <trkpt lat="44.51449" lon="6.1323">
        <ele>1013.799987793</ele>
        <time>2016-07-15T11:30:47.000Z</time>
      </trkpt>
      <trkpt lat="44.51443" lon="6.13229">
        <ele>1014.200012207</ele>
        <time>2016-07-15T11:30:53.000Z</time>
      </trkpt>
      <trkpt lat="44.51441" lon="6.13229">
        <ele>1014.200012207</ele>
        <time>2016-07-15T11:30:55.000Z</time>
      </trkpt>
      <trkpt lat="44.51433" lon="6.13226">
        <ele>1014.4000244141</ele>
        <time>2016-07-15T11:31:03.000Z</time>
      </trkpt>
      <trkpt lat="44.51429" lon="6.13224">
        <ele>1014.5999755859</ele>
        <time>2016-07-15T11:31:08.000Z</time>
      </trkpt>
      <trkpt lat="44.51423" lon="6.13218">
        <ele>1014</ele>
        <time>2016-07-15T11:31:14.000Z</time>
      </trkpt>
      <trkpt lat="44.51415" lon="6.13207">
        <ele>1012.799987793</ele>
        <time>2016-07-15T11:31:22.000Z</time>
      </trkpt>
      <trkpt lat="44.51411" lon="6.13198">
        <ele>1011.4000244141</ele>
        <time>2016-07-15T11:31:28.000Z</time>
      </trkpt>
      <trkpt lat="44.5141" lon="6.13195">
        <ele>1011.200012207</ele>
        <time>2016-07-15T11:31:30.000Z</time>
      </trkpt>
      <trkpt lat="44.51408" lon="6.13184">
        <ele>1009.4000244141</ele>
        <time>2016-07-15T11:31:36.000Z</time>
      </trkpt>
      <trkpt lat="44.51408" lon="6.13178">
        <ele>1008.4000244141</ele>
        <time>2016-07-15T11:31:40.000Z</time>
      </trkpt>
      <trkpt lat="44.51408" lon="6.13163">
        <ele>1006.200012207</ele>
        <time>2016-07-15T11:31:48.000Z</time>
      </trkpt>
      <trkpt lat="44.51408" lon="6.13159">
        <ele>1005.799987793</ele>
        <time>2016-07-15T11:31:50.000Z</time>
      </trkpt>
      <trkpt lat="44.51401" lon="6.13146">
        <ele>1004.200012207</ele>
        <time>2016-07-15T11:31:58.000Z</time>
      </trkpt>
      <trkpt lat="44.51398" lon="6.13136">
        <ele>1003.4000244141</ele>
        <time>2016-07-15T11:32:04.000Z</time>
      </trkpt>
      <trkpt lat="44.51398" lon="6.13132">
        <ele>1003.200012207</ele>
        <time>2016-07-15T11:32:06.000Z</time>
      </trkpt>
      <trkpt lat="44.51397" lon="6.13122">
        <ele>1002.4000244141</ele>
        <time>2016-07-15T11:32:12.000Z</time>
      </trkpt>
      <trkpt lat="44.51396" lon="6.13119">
        <ele>1002.200012207</ele>
        <time>2016-07-15T11:32:14.000Z</time>
      </trkpt>
      <trkpt lat="44.51395" lon="6.13113">
        <ele>1001.799987793</ele>
        <time>2016-07-15T11:32:20.000Z</time>
      </trkpt>
      <trkpt lat="44.51395" lon="6.13111">
        <ele>1001.5999755859</ele>
        <time>2016-07-15T11:32:21.000Z</time>
      </trkpt>
      <trkpt lat="44.51392" lon="6.13098">
        <ele>1000.5999755859</ele>
        <time>2016-07-15T11:32:28.000Z</time>
      </trkpt>
      <trkpt lat="44.51391" lon="6.13091">
        <ele>1000.200012207</ele>
        <time>2016-07-15T11:32:32.000Z</time>
      </trkpt>
      <trkpt lat="44.51389" lon="6.13081">
        <ele>999.40002441406</ele>
        <time>2016-07-15T11:32:37.000Z</time>
      </trkpt>
      <trkpt lat="44.51388" lon="6.13067">
        <ele>998.59997558594</ele>
        <time>2016-07-15T11:32:44.000Z</time>
      </trkpt>
      <trkpt lat="44.51387" lon="6.13065">
        <ele>998.59997558594</ele>
        <time>2016-07-15T11:32:45.000Z</time>
      </trkpt>
      <trkpt lat="44.51388" lon="6.13063">
        <ele>998.40002441406</ele>
        <time>2016-07-15T11:32:46.000Z</time>
      </trkpt>
      <trkpt lat="44.51387" lon="6.13057">
        <ele>998.20001220703</ele>
        <time>2016-07-15T11:32:49.000Z</time>
      </trkpt>
      <trkpt lat="44.51387" lon="6.13043">
        <ele>998.20001220703</ele>
        <time>2016-07-15T11:32:56.000Z</time>
      </trkpt>
      <trkpt lat="44.51388" lon="6.13042">
        <ele>998.20001220703</ele>
        <time>2016-07-15T11:32:57.000Z</time>
      </trkpt>
      <trkpt lat="44.51389" lon="6.13035">
        <ele>998.20001220703</ele>
        <time>2016-07-15T11:33:01.000Z</time>
      </trkpt>
      <trkpt lat="44.51388" lon="6.13032">
        <ele>998.20001220703</ele>
        <time>2016-07-15T11:33:05.000Z</time>
      </trkpt>
      <trkpt lat="44.51389" lon="6.13019">
        <ele>998.20001220703</ele>
        <time>2016-07-15T11:33:12.000Z</time>
      </trkpt>
      <trkpt lat="44.5139" lon="6.13002">
        <ele>998.20001220703</ele>
        <time>2016-07-15T11:33:21.000Z</time>
      </trkpt>
      <trkpt lat="44.51393" lon="6.12989">
        <ele>996.79998779297</ele>
        <time>2016-07-15T11:33:29.000Z</time>
      </trkpt>
      <trkpt lat="44.51393" lon="6.12987">
        <ele>996.79998779297</ele>
        <time>2016-07-15T11:33:30.000Z</time>
      </trkpt>
      <trkpt lat="44.51395" lon="6.1298">
        <ele>995.79998779297</ele>
        <time>2016-07-15T11:33:34.000Z</time>
      </trkpt>
      <trkpt lat="44.51396" lon="6.12973">
        <ele>995.59997558594</ele>
        <time>2016-07-15T11:33:38.000Z</time>
      </trkpt>
      <trkpt lat="44.51395" lon="6.12963">
        <ele>995.40002441406</ele>
        <time>2016-07-15T11:33:45.000Z</time>
      </trkpt>
      <trkpt lat="44.51395" lon="6.12961">
        <ele>995.40002441406</ele>
        <time>2016-07-15T11:33:46.000Z</time>
      </trkpt>
      <trkpt lat="44.51393" lon="6.12951">
        <ele>995.59997558594</ele>
        <time>2016-07-15T11:33:52.000Z</time>
      </trkpt>
      <trkpt lat="44.51392" lon="6.12949">
        <ele>995.59997558594</ele>
        <time>2016-07-15T11:33:53.000Z</time>
      </trkpt>
      <trkpt lat="44.5139" lon="6.12937">
        <ele>995.59997558594</ele>
        <time>2016-07-15T11:34:00.000Z</time>
      </trkpt>
      <trkpt lat="44.5139" lon="6.12933">
        <ele>995.59997558594</ele>
        <time>2016-07-15T11:34:02.000Z</time>
      </trkpt>
      <trkpt lat="44.51391" lon="6.12918">
        <ele>995.40002441406</ele>
        <time>2016-07-15T11:34:10.000Z</time>
      </trkpt>
      <trkpt lat="44.51395" lon="6.12903">
        <ele>993.79998779297</ele>
        <time>2016-07-15T11:34:19.000Z</time>
      </trkpt>
      <trkpt lat="44.514" lon="6.12891">
        <ele>992.40002441406</ele>
        <time>2016-07-15T11:34:26.000Z</time>
      </trkpt>
      <trkpt lat="44.51409" lon="6.12887">
        <ele>990.79998779297</ele>
        <time>2016-07-15T11:34:33.000Z</time>
      </trkpt>
      <trkpt lat="44.51419" lon="6.12883">
        <ele>989</ele>
        <time>2016-07-15T11:34:42.000Z</time>
      </trkpt>
      <trkpt lat="44.51424" lon="6.12878">
        <ele>988</ele>
        <time>2016-07-15T11:34:47.000Z</time>
      </trkpt>
      <trkpt lat="44.51429" lon="6.12872">
        <ele>987</ele>
        <time>2016-07-15T11:34:53.000Z</time>
      </trkpt>
      <trkpt lat="44.51433" lon="6.12863">
        <ele>986.20001220703</ele>
        <time>2016-07-15T11:35:01.000Z</time>
      </trkpt>
      <trkpt lat="44.51439" lon="6.12855">
        <ele>985</ele>
        <time>2016-07-15T11:35:08.000Z</time>
      </trkpt>
      <trkpt lat="44.51441" lon="6.1285">
        <ele>984.40002441406</ele>
        <time>2016-07-15T11:35:11.000Z</time>
      </trkpt>
      <trkpt lat="44.51449" lon="6.1284">
        <ele>983</ele>
        <time>2016-07-15T11:35:18.000Z</time>
      </trkpt>
      <trkpt lat="44.51455" lon="6.12826">
        <ele>982.40002441406</ele>
        <time>2016-07-15T11:35:26.000Z</time>
      </trkpt>
      <trkpt lat="44.5146" lon="6.12814">
        <ele>981.59997558594</ele>
        <time>2016-07-15T11:35:33.000Z</time>
      </trkpt>
      <trkpt lat="44.51469" lon="6.12802">
        <ele>979.79998779297</ele>
        <time>2016-07-15T11:35:41.000Z</time>
      </trkpt>
      <trkpt lat="44.51473" lon="6.12798">
        <ele>979</ele>
        <time>2016-07-15T11:35:45.000Z</time>
      </trkpt>
      <trkpt lat="44.51479" lon="6.1279">
        <ele>977.79998779297</ele>
        <time>2016-07-15T11:35:51.000Z</time>
      </trkpt>
      <trkpt lat="44.51487" lon="6.12778">
        <ele>976.20001220703</ele>
        <time>2016-07-15T11:35:58.000Z</time>
      </trkpt>
      <trkpt lat="44.51488" lon="6.12777">
        <ele>976</ele>
        <time>2016-07-15T11:35:59.000Z</time>
      </trkpt>
      <trkpt lat="44.51493" lon="6.12768">
        <ele>975</ele>
        <time>2016-07-15T11:36:05.000Z</time>
      </trkpt>
      <trkpt lat="44.51498" lon="6.12758">
        <ele>974.20001220703</ele>
        <time>2016-07-15T11:36:11.000Z</time>
      </trkpt>
      <trkpt lat="44.51508" lon="6.12745">
        <ele>973</ele>
        <time>2016-07-15T11:36:21.000Z</time>
      </trkpt>
      <trkpt lat="44.51509" lon="6.12744">
        <ele>973</ele>
        <time>2016-07-15T11:36:22.000Z</time>
      </trkpt>
      <trkpt lat="44.51514" lon="6.12737">
        <ele>972.40002441406</ele>
        <time>2016-07-15T11:36:27.000Z</time>
      </trkpt>
      <trkpt lat="44.51516" lon="6.12734">
        <ele>972.20001220703</ele>
        <time>2016-07-15T11:36:29.000Z</time>
      </trkpt>
      <trkpt lat="44.51521" lon="6.12724">
        <ele>971.40002441406</ele>
        <time>2016-07-15T11:36:35.000Z</time>
      </trkpt>
      <trkpt lat="44.51525" lon="6.12719">
        <ele>971</ele>
        <time>2016-07-15T11:36:39.000Z</time>
      </trkpt>
      <trkpt lat="44.51531" lon="6.12712">
        <ele>970</ele>
        <time>2016-07-15T11:36:46.000Z</time>
      </trkpt>
      <trkpt lat="44.51535" lon="6.12714">
        <ele>970</ele>
        <time>2016-07-15T11:36:50.000Z</time>
      </trkpt>
      <trkpt lat="44.51539" lon="6.12711">
        <ele>969.79998779297</ele>
        <time>2016-07-15T11:36:59.000Z</time>
      </trkpt>
      <trkpt lat="44.51539" lon="6.12709">
        <ele>969.59997558594</ele>
        <time>2016-07-15T11:37:11.000Z</time>
      </trkpt>
      <trkpt lat="44.51545" lon="6.12708">
        <ele>969.59997558594</ele>
        <time>2016-07-15T11:37:20.000Z</time>
      </trkpt>
      <trkpt lat="44.51546" lon="6.12708">
        <ele>969.59997558594</ele>
        <time>2016-07-15T11:37:21.000Z</time>
      </trkpt>
      <trkpt lat="44.5155" lon="6.12705">
        <ele>969.40002441406</ele>
        <time>2016-07-15T11:37:25.000Z</time>
      </trkpt>
      <trkpt lat="44.51553" lon="6.12702">
        <ele>969.20001220703</ele>
        <time>2016-07-15T11:37:29.000Z</time>
      </trkpt>
      <trkpt lat="44.51554" lon="6.12702">
        <ele>969.20001220703</ele>
        <time>2016-07-15T11:37:31.000Z</time>
      </trkpt>
      <trkpt lat="44.51557" lon="6.12701">
        <ele>969.20001220703</ele>
        <time>2016-07-15T11:37:35.000Z</time>
      </trkpt>
      <trkpt lat="44.51559" lon="6.12698">
        <ele>969</ele>
        <time>2016-07-15T11:37:38.000Z</time>
      </trkpt>
      <trkpt lat="44.51557" lon="6.1269">
        <ele>968.40002441406</ele>
        <time>2016-07-15T11:37:44.000Z</time>
      </trkpt>
      <trkpt lat="44.51557" lon="6.12688">
        <ele>968.20001220703</ele>
        <time>2016-07-15T11:37:45.000Z</time>
      </trkpt>
      <trkpt lat="44.51557" lon="6.12684">
        <ele>967.79998779297</ele>
        <time>2016-07-15T11:37:47.000Z</time>
      </trkpt>
      <trkpt lat="44.51555" lon="6.12677">
        <ele>967.40002441406</ele>
        <time>2016-07-15T11:37:52.000Z</time>
      </trkpt>
      <trkpt lat="44.51554" lon="6.12676">
        <ele>967.20001220703</ele>
        <time>2016-07-15T11:37:53.000Z</time>
      </trkpt>
      <trkpt lat="44.51553" lon="6.12675">
        <ele>967.20001220703</ele>
        <time>2016-07-15T11:37:54.000Z</time>
      </trkpt>
      <trkpt lat="44.51547" lon="6.12674">
        <ele>967.20001220703</ele>
        <time>2016-07-15T11:37:59.000Z</time>
      </trkpt>
      <trkpt lat="44.51545" lon="6.12674">
        <ele>967.20001220703</ele>
        <time>2016-07-15T11:38:01.000Z</time>
      </trkpt>
      <trkpt lat="44.51539" lon="6.12673">
        <ele>967.20001220703</ele>
        <time>2016-07-15T11:38:07.000Z</time>
      </trkpt>
      <trkpt lat="44.51535" lon="6.12663">
        <ele>966.40002441406</ele>
        <time>2016-07-15T11:38:14.000Z</time>
      </trkpt>
      <trkpt lat="44.51535" lon="6.12662">
        <ele>966.20001220703</ele>
        <time>2016-07-15T11:38:15.000Z</time>
      </trkpt>
      <trkpt lat="44.51535" lon="6.12659">
        <ele>966</ele>
        <time>2016-07-15T11:38:17.000Z</time>
      </trkpt>
      <trkpt lat="44.51535" lon="6.12653">
        <ele>965.59997558594</ele>
        <time>2016-07-15T11:38:20.000Z</time>
      </trkpt>
      <trkpt lat="44.51535" lon="6.1264">
        <ele>964.79998779297</ele>
        <time>2016-07-15T11:38:27.000Z</time>
      </trkpt>
      <trkpt lat="44.51534" lon="6.12638">
        <ele>964.59997558594</ele>
        <time>2016-07-15T11:38:28.000Z</time>
      </trkpt>
      <trkpt lat="44.51533" lon="6.12625">
        <ele>963.79998779297</ele>
        <time>2016-07-15T11:38:36.000Z</time>
      </trkpt>
      <trkpt lat="44.51533" lon="6.12623">
        <ele>963.79998779297</ele>
        <time>2016-07-15T11:38:37.000Z</time>
      </trkpt>
      <trkpt lat="44.51538" lon="6.12617">
        <ele>963.59997558594</ele>
        <time>2016-07-15T11:38:43.000Z</time>
      </trkpt>
      <trkpt lat="44.51538" lon="6.12614">
        <ele>963.20001220703</ele>
        <time>2016-07-15T11:38:52.000Z</time>
      </trkpt>
      <trkpt lat="44.51539" lon="6.12611">
        <ele>963.20001220703</ele>
        <time>2016-07-15T11:39:01.000Z</time>
      </trkpt>
      <trkpt lat="44.5154" lon="6.12605">
        <ele>962.79998779297</ele>
        <time>2016-07-15T11:39:20.000Z</time>
      </trkpt>
      <trkpt lat="44.5154" lon="6.12606">
        <ele>962.79998779297</ele>
        <time>2016-07-15T11:39:28.000Z</time>
      </trkpt>
      <trkpt lat="44.5154" lon="6.12609">
        <ele>963</ele>
        <time>2016-07-15T11:39:33.000Z</time>
      </trkpt>
      <trkpt lat="44.51539" lon="6.12607">
        <ele>963</ele>
        <time>2016-07-15T11:39:36.000Z</time>
      </trkpt>
      <trkpt lat="44.51539" lon="6.12606">
        <ele>962.79998779297</ele>
        <time>2016-07-15T11:39:43.000Z</time>
      </trkpt>
      <trkpt lat="44.51541" lon="6.12606">
        <ele>963</ele>
        <time>2016-07-15T11:39:48.000Z</time>
      </trkpt>
      <trkpt lat="44.51539" lon="6.126">
        <ele>962.59997558594</ele>
        <time>2016-07-15T11:39:55.000Z</time>
      </trkpt>
      <trkpt lat="44.51536" lon="6.12596">
        <ele>962.20001220703</ele>
        <time>2016-07-15T11:39:59.000Z</time>
      </trkpt>
      <trkpt lat="44.5155" lon="6.12628">
        <ele>964.40002441406</ele>
        <time>2016-07-15T12:23:41.000Z</time>
      </trkpt>
      <trkpt lat="44.51548" lon="6.12624">
        <ele>964.20001220703</ele>
        <time>2016-07-15T12:23:46.000Z</time>
      </trkpt>
      <trkpt lat="44.51541" lon="6.12615">
        <ele>963.40002441406</ele>
        <time>2016-07-15T12:23:54.000Z</time>
      </trkpt>
      <trkpt lat="44.51541" lon="6.12613">
        <ele>963.40002441406</ele>
        <time>2016-07-15T12:23:55.000Z</time>
      </trkpt>
      <trkpt lat="44.5154" lon="6.12611">
        <ele>963.20001220703</ele>
        <time>2016-07-15T12:23:56.000Z</time>
      </trkpt>
      <trkpt lat="44.51542" lon="6.12603">
        <ele>962.79998779297</ele>
        <time>2016-07-15T12:24:01.000Z</time>
      </trkpt>
      <trkpt lat="44.51545" lon="6.12588">
        <ele>962</ele>
        <time>2016-07-15T12:24:10.000Z</time>
      </trkpt>
      <trkpt lat="44.51549" lon="6.12576">
        <ele>961.40002441406</ele>
        <time>2016-07-15T12:24:17.000Z</time>
      </trkpt>
      <trkpt lat="44.51555" lon="6.12564">
        <ele>961.79998779297</ele>
        <time>2016-07-15T12:24:26.000Z</time>
      </trkpt>
      <trkpt lat="44.51562" lon="6.12554">
        <ele>962.40002441406</ele>
        <time>2016-07-15T12:24:35.000Z</time>
      </trkpt>
      <trkpt lat="44.51571" lon="6.12546">
        <ele>963.20001220703</ele>
        <time>2016-07-15T12:24:43.000Z</time>
      </trkpt>
      <trkpt lat="44.51582" lon="6.12536">
        <ele>964.40002441406</ele>
        <time>2016-07-15T12:24:53.000Z</time>
      </trkpt>
      <trkpt lat="44.51583" lon="6.12536">
        <ele>964.40002441406</ele>
        <time>2016-07-15T12:24:54.000Z</time>
      </trkpt>
      <trkpt lat="44.51589" lon="6.12533">
        <ele>965</ele>
        <time>2016-07-15T12:24:59.000Z</time>
      </trkpt>
      <trkpt lat="44.51591" lon="6.12529">
        <ele>965.40002441406</ele>
        <time>2016-07-15T12:25:02.000Z</time>
      </trkpt>
      <trkpt lat="44.51593" lon="6.12518">
        <ele>966.40002441406</ele>
        <time>2016-07-15T12:25:08.000Z</time>
      </trkpt>
      <trkpt lat="44.51594" lon="6.12503">
        <ele>967.40002441406</ele>
        <time>2016-07-15T12:25:16.000Z</time>
      </trkpt>
      <trkpt lat="44.51596" lon="6.1249">
        <ele>968.59997558594</ele>
        <time>2016-07-15T12:25:23.000Z</time>
      </trkpt>
      <trkpt lat="44.51599" lon="6.12477">
        <ele>969.59997558594</ele>
        <time>2016-07-15T12:25:30.000Z</time>
      </trkpt>
      <trkpt lat="44.51601" lon="6.1247">
        <ele>970</ele>
        <time>2016-07-15T12:25:34.000Z</time>
      </trkpt>
      <trkpt lat="44.51601" lon="6.12455">
        <ele>970.59997558594</ele>
        <time>2016-07-15T12:25:42.000Z</time>
      </trkpt>
      <trkpt lat="44.516" lon="6.12448">
        <ele>971</ele>
        <time>2016-07-15T12:25:47.000Z</time>
      </trkpt>
      <trkpt lat="44.51598" lon="6.12432">
        <ele>971.59997558594</ele>
        <time>2016-07-15T12:25:55.000Z</time>
      </trkpt>
      <trkpt lat="44.51591" lon="6.12418">
        <ele>971.20001220703</ele>
        <time>2016-07-15T12:26:03.000Z</time>
      </trkpt>
      <trkpt lat="44.51581" lon="6.12402">
        <ele>970.40002441406</ele>
        <time>2016-07-15T12:26:12.000Z</time>
      </trkpt>
      <trkpt lat="44.51572" lon="6.12391">
        <ele>969.59997558594</ele>
        <time>2016-07-15T12:26:20.000Z</time>
      </trkpt>
      <trkpt lat="44.51566" lon="6.12381">
        <ele>968.59997558594</ele>
        <time>2016-07-15T12:26:27.000Z</time>
      </trkpt>
      <trkpt lat="44.51559" lon="6.12364">
        <ele>967.59997558594</ele>
        <time>2016-07-15T12:26:36.000Z</time>
      </trkpt>
      <trkpt lat="44.51557" lon="6.12345">
        <ele>967.59997558594</ele>
        <time>2016-07-15T12:26:45.000Z</time>
      </trkpt>
      <trkpt lat="44.51558" lon="6.12337">
        <ele>967.79998779297</ele>
        <time>2016-07-15T12:26:49.000Z</time>
      </trkpt>
      <trkpt lat="44.51567" lon="6.12326">
        <ele>969.20001220703</ele>
        <time>2016-07-15T12:26:58.000Z</time>
      </trkpt>
      <trkpt lat="44.51571" lon="6.12325">
        <ele>969.79998779297</ele>
        <time>2016-07-15T12:27:02.000Z</time>
      </trkpt>
      <trkpt lat="44.51583" lon="6.12328">
        <ele>971.59997558594</ele>
        <time>2016-07-15T12:27:10.000Z</time>
      </trkpt>
      <trkpt lat="44.5159" lon="6.1233">
        <ele>972.79998779297</ele>
        <time>2016-07-15T12:27:16.000Z</time>
      </trkpt>
      <trkpt lat="44.51591" lon="6.1233">
        <ele>973</ele>
        <time>2016-07-15T12:27:17.000Z</time>
      </trkpt>
      <trkpt lat="44.51594" lon="6.1233">
        <ele>973.40002441406</ele>
        <time>2016-07-15T12:27:19.000Z</time>
      </trkpt>
      <trkpt lat="44.51599" lon="6.12333">
        <ele>974.20001220703</ele>
        <time>2016-07-15T12:27:25.000Z</time>
      </trkpt>
      <trkpt lat="44.51604" lon="6.12337">
        <ele>975</ele>
        <time>2016-07-15T12:27:30.000Z</time>
      </trkpt>
      <trkpt lat="44.51605" lon="6.12339">
        <ele>975.20001220703</ele>
        <time>2016-07-15T12:27:33.000Z</time>
      </trkpt>
      <trkpt lat="44.51608" lon="6.12342">
        <ele>975.59997558594</ele>
        <time>2016-07-15T12:27:36.000Z</time>
      </trkpt>
      <trkpt lat="44.51616" lon="6.12336">
        <ele>976.79998779297</ele>
        <time>2016-07-15T12:27:43.000Z</time>
      </trkpt>
      <trkpt lat="44.51616" lon="6.12335">
        <ele>976.79998779297</ele>
        <time>2016-07-15T12:27:44.000Z</time>
      </trkpt>
      <trkpt lat="44.51616" lon="6.12333">
        <ele>976.79998779297</ele>
        <time>2016-07-15T12:27:46.000Z</time>
      </trkpt>
      <trkpt lat="44.51611" lon="6.12321">
        <ele>976</ele>
        <time>2016-07-15T12:27:55.000Z</time>
      </trkpt>
      <trkpt lat="44.51606" lon="6.12314">
        <ele>975.20001220703</ele>
        <time>2016-07-15T12:28:01.000Z</time>
      </trkpt>
      <trkpt lat="44.51605" lon="6.12312">
        <ele>975</ele>
        <time>2016-07-15T12:28:03.000Z</time>
      </trkpt>
      <trkpt lat="44.51599" lon="6.12308">
        <ele>974.20001220703</ele>
        <time>2016-07-15T12:28:08.000Z</time>
      </trkpt>
      <trkpt lat="44.51596" lon="6.12305">
        <ele>973.59997558594</ele>
        <time>2016-07-15T12:28:13.000Z</time>
      </trkpt>
      <trkpt lat="44.51591" lon="6.12301">
        <ele>972.79998779297</ele>
        <time>2016-07-15T12:28:18.000Z</time>
      </trkpt>
      <trkpt lat="44.51588" lon="6.123">
        <ele>972.40002441406</ele>
        <time>2016-07-15T12:28:22.000Z</time>
      </trkpt>
      <trkpt lat="44.51584" lon="6.12298">
        <ele>971.79998779297</ele>
        <time>2016-07-15T12:28:28.000Z</time>
      </trkpt>
      <trkpt lat="44.51583" lon="6.12296">
        <ele>971.79998779297</ele>
        <time>2016-07-15T12:28:29.000Z</time>
      </trkpt>
      <trkpt lat="44.51576" lon="6.12288">
        <ele>970.59997558594</ele>
        <time>2016-07-15T12:28:35.000Z</time>
      </trkpt>
      <trkpt lat="44.51575" lon="6.12288">
        <ele>970.40002441406</ele>
        <time>2016-07-15T12:28:36.000Z</time>
      </trkpt>
      <trkpt lat="44.51566" lon="6.12286">
        <ele>969</ele>
        <time>2016-07-15T12:28:42.000Z</time>
      </trkpt>
      <trkpt lat="44.51558" lon="6.12284">
        <ele>967.79998779297</ele>
        <time>2016-07-15T12:28:48.000Z</time>
      </trkpt>
      <trkpt lat="44.51547" lon="6.12281">
        <ele>966.20001220703</ele>
        <time>2016-07-15T12:28:57.000Z</time>
      </trkpt>
      <trkpt lat="44.51539" lon="6.12276">
        <ele>964.79998779297</ele>
        <time>2016-07-15T12:29:05.000Z</time>
      </trkpt>
      <trkpt lat="44.5153" lon="6.1227">
        <ele>963.59997558594</ele>
        <time>2016-07-15T12:29:12.000Z</time>
      </trkpt>
      <trkpt lat="44.51525" lon="6.1226">
        <ele>963.20001220703</ele>
        <time>2016-07-15T12:29:18.000Z</time>
      </trkpt>
      <trkpt lat="44.51518" lon="6.12246">
        <ele>962.59997558594</ele>
        <time>2016-07-15T12:29:26.000Z</time>
      </trkpt>
      <trkpt lat="44.51512" lon="6.12228">
        <ele>962</ele>
        <time>2016-07-15T12:29:35.000Z</time>
      </trkpt>
      <trkpt lat="44.51508" lon="6.12216">
        <ele>962.20001220703</ele>
        <time>2016-07-15T12:29:41.000Z</time>
      </trkpt>
      <trkpt lat="44.51503" lon="6.122">
        <ele>962.79998779297</ele>
        <time>2016-07-15T12:29:49.000Z</time>
      </trkpt>
      <trkpt lat="44.515" lon="6.12182">
        <ele>963.59997558594</ele>
        <time>2016-07-15T12:29:58.000Z</time>
      </trkpt>
      <trkpt lat="44.51503" lon="6.12165">
        <ele>964.79998779297</ele>
        <time>2016-07-15T12:30:07.000Z</time>
      </trkpt>
      <trkpt lat="44.51509" lon="6.12147">
        <ele>966.40002441406</ele>
        <time>2016-07-15T12:30:17.000Z</time>
      </trkpt>
      <trkpt lat="44.51506" lon="6.12136">
        <ele>966.59997558594</ele>
        <time>2016-07-15T12:30:23.000Z</time>
      </trkpt>
      <trkpt lat="44.51495" lon="6.12122">
        <ele>966.40002441406</ele>
        <time>2016-07-15T12:30:33.000Z</time>
      </trkpt>
      <trkpt lat="44.51487" lon="6.12112">
        <ele>966</ele>
        <time>2016-07-15T12:30:40.000Z</time>
      </trkpt>
      <trkpt lat="44.51481" lon="6.12102">
        <ele>966</ele>
        <time>2016-07-15T12:30:47.000Z</time>
      </trkpt>
      <trkpt lat="44.51475" lon="6.12089">
        <ele>966</ele>
        <time>2016-07-15T12:30:55.000Z</time>
      </trkpt>
      <trkpt lat="44.51464" lon="6.12054">
        <ele>967.20001220703</ele>
        <time>2016-07-15T12:31:14.000Z</time>
      </trkpt>
      <trkpt lat="44.51459" lon="6.12038">
        <ele>967.79998779297</ele>
        <time>2016-07-15T12:31:23.000Z</time>
      </trkpt>
      <trkpt lat="44.51454" lon="6.12021">
        <ele>968.40002441406</ele>
        <time>2016-07-15T12:31:32.000Z</time>
      </trkpt>
      <trkpt lat="44.51447" lon="6.12">
        <ele>969</ele>
        <time>2016-07-15T12:31:44.000Z</time>
      </trkpt>
      <trkpt lat="44.5144" lon="6.11977">
        <ele>970</ele>
        <time>2016-07-15T12:31:56.000Z</time>
      </trkpt>
      <trkpt lat="44.51435" lon="6.1196">
        <ele>971</ele>
        <time>2016-07-15T12:32:07.000Z</time>
      </trkpt>
      <trkpt lat="44.51432" lon="6.11946">
        <ele>972</ele>
        <time>2016-07-15T12:32:15.000Z</time>
      </trkpt>
      <trkpt lat="44.51427" lon="6.11927">
        <ele>973.20001220703</ele>
        <time>2016-07-15T12:32:25.000Z</time>
      </trkpt>
      <trkpt lat="44.51422" lon="6.11911">
        <ele>974.40002441406</ele>
        <time>2016-07-15T12:32:34.000Z</time>
      </trkpt>
      <trkpt lat="44.51416" lon="6.11889">
        <ele>975.20001220703</ele>
        <time>2016-07-15T12:32:45.000Z</time>
      </trkpt>
      <trkpt lat="44.51411" lon="6.11865">
        <ele>974.40002441406</ele>
        <time>2016-07-15T12:32:58.000Z</time>
      </trkpt>
      <trkpt lat="44.51407" lon="6.11838">
        <ele>974.79998779297</ele>
        <time>2016-07-15T12:33:12.000Z</time>
      </trkpt>
      <trkpt lat="44.51405" lon="6.11824">
        <ele>975.40002441406</ele>
        <time>2016-07-15T12:33:19.000Z</time>
      </trkpt>
      <trkpt lat="44.51403" lon="6.11813">
        <ele>975.79998779297</ele>
        <time>2016-07-15T12:33:25.000Z</time>
      </trkpt>
      <trkpt lat="44.514" lon="6.11796">
        <ele>974.59997558594</ele>
        <time>2016-07-15T12:33:33.000Z</time>
      </trkpt>
      <trkpt lat="44.51395" lon="6.1177">
        <ele>972.40002441406</ele>
        <time>2016-07-15T12:33:46.000Z</time>
      </trkpt>
      <trkpt lat="44.51393" lon="6.11749">
        <ele>971.40002441406</ele>
        <time>2016-07-15T12:33:57.000Z</time>
      </trkpt>
      <trkpt lat="44.51396" lon="6.1173">
        <ele>973.20001220703</ele>
        <time>2016-07-15T12:34:07.000Z</time>
      </trkpt>
      <trkpt lat="44.514" lon="6.11711">
        <ele>975</ele>
        <time>2016-07-15T12:34:16.000Z</time>
      </trkpt>
      <trkpt lat="44.51401" lon="6.117">
        <ele>975.79998779297</ele>
        <time>2016-07-15T12:34:23.000Z</time>
      </trkpt>
      <trkpt lat="44.51405" lon="6.11676">
        <ele>977.20001220703</ele>
        <time>2016-07-15T12:34:34.000Z</time>
      </trkpt>
      <trkpt lat="44.5141" lon="6.11659">
        <ele>977.40002441406</ele>
        <time>2016-07-15T12:34:43.000Z</time>
      </trkpt>
      <trkpt lat="44.51414" lon="6.11641">
        <ele>978</ele>
        <time>2016-07-15T12:34:53.000Z</time>
      </trkpt>
      <trkpt lat="44.51412" lon="6.11624">
        <ele>980.59997558594</ele>
        <time>2016-07-15T12:35:02.000Z</time>
      </trkpt>
      <trkpt lat="44.51408" lon="6.11609">
        <ele>982.20001220703</ele>
        <time>2016-07-15T12:35:10.000Z</time>
      </trkpt>
      <trkpt lat="44.51398" lon="6.11598">
        <ele>982</ele>
        <time>2016-07-15T12:35:19.000Z</time>
      </trkpt>
      <trkpt lat="44.51385" lon="6.11583">
        <ele>981.79998779297</ele>
        <time>2016-07-15T12:35:31.000Z</time>
      </trkpt>
      <trkpt lat="44.51375" lon="6.1158">
        <ele>980.40002441406</ele>
        <time>2016-07-15T12:35:38.000Z</time>
      </trkpt>
      <trkpt lat="44.51363" lon="6.11577">
        <ele>979.40002441406</ele>
        <time>2016-07-15T12:35:47.000Z</time>
      </trkpt>
      <trkpt lat="44.51336" lon="6.11569">
        <ele>982</ele>
        <time>2016-07-15T12:36:07.000Z</time>
      </trkpt>
      <trkpt lat="44.51321" lon="6.11561">
        <ele>984</ele>
        <time>2016-07-15T12:36:19.000Z</time>
      </trkpt>
      <trkpt lat="44.5131" lon="6.11558">
        <ele>984.79998779297</ele>
        <time>2016-07-15T12:36:28.000Z</time>
      </trkpt>
      <trkpt lat="44.51295" lon="6.11554">
        <ele>985.79998779297</ele>
        <time>2016-07-15T12:36:39.000Z</time>
      </trkpt>
      <trkpt lat="44.51279" lon="6.1155">
        <ele>986.20001220703</ele>
        <time>2016-07-15T12:36:53.000Z</time>
      </trkpt>
      <trkpt lat="44.51269" lon="6.11545">
        <ele>985.59997558594</ele>
        <time>2016-07-15T12:37:01.000Z</time>
      </trkpt>
      <trkpt lat="44.51266" lon="6.11539">
        <ele>985.79998779297</ele>
        <time>2016-07-15T12:37:05.000Z</time>
      </trkpt>
      <trkpt lat="44.51266" lon="6.11533">
        <ele>986.20001220703</ele>
        <time>2016-07-15T12:37:13.000Z</time>
      </trkpt>
      <trkpt lat="44.51267" lon="6.11532">
        <ele>986.20001220703</ele>
        <time>2016-07-15T12:37:28.000Z</time>
      </trkpt>
      <trkpt lat="44.51271" lon="6.11532">
        <ele>986.59997558594</ele>
        <time>2016-07-15T12:37:55.000Z</time>
      </trkpt>
      <trkpt lat="44.51273" lon="6.11532">
        <ele>986.79998779297</ele>
        <time>2016-07-15T12:37:59.000Z</time>
      </trkpt>
      <trkpt lat="44.5128" lon="6.11526">
        <ele>987.79998779297</ele>
        <time>2016-07-15T12:38:05.000Z</time>
      </trkpt>
      <trkpt lat="44.51285" lon="6.11512">
        <ele>988.79998779297</ele>
        <time>2016-07-15T12:38:13.000Z</time>
      </trkpt>
      <trkpt lat="44.5129" lon="6.11501">
        <ele>989.20001220703</ele>
        <time>2016-07-15T12:38:20.000Z</time>
      </trkpt>
      <trkpt lat="44.51296" lon="6.11488">
        <ele>990</ele>
        <time>2016-07-15T12:38:28.000Z</time>
      </trkpt>
      <trkpt lat="44.51298" lon="6.11483">
        <ele>991.40002441406</ele>
        <time>2016-07-15T12:38:31.000Z</time>
      </trkpt>
      <trkpt lat="44.51303" lon="6.1147">
        <ele>993.59997558594</ele>
        <time>2016-07-15T12:38:38.000Z</time>
      </trkpt>
      <trkpt lat="44.51306" lon="6.1146">
        <ele>994.20001220703</ele>
        <time>2016-07-15T12:38:43.000Z</time>
      </trkpt>
      <trkpt lat="44.51315" lon="6.11454">
        <ele>995.40002441406</ele>
        <time>2016-07-15T12:38:55.000Z</time>
      </trkpt>
      <trkpt lat="44.51316" lon="6.11454">
        <ele>995.59997558594</ele>
        <time>2016-07-15T12:38:56.000Z</time>
      </trkpt>
      <trkpt lat="44.51328" lon="6.11449">
        <ele>997.20001220703</ele>
        <time>2016-07-15T12:39:07.000Z</time>
      </trkpt>
      <trkpt lat="44.51335" lon="6.11443">
        <ele>998.20001220703</ele>
        <time>2016-07-15T12:39:13.000Z</time>
      </trkpt>
      <trkpt lat="44.51343" lon="6.11437">
        <ele>1000.4000244141</ele>
        <time>2016-07-15T12:39:21.000Z</time>
      </trkpt>
      <trkpt lat="44.51351" lon="6.11432">
        <ele>1002.5999755859</ele>
        <time>2016-07-15T12:39:29.000Z</time>
      </trkpt>
      <trkpt lat="44.51359" lon="6.11427">
        <ele>1004.5999755859</ele>
        <time>2016-07-15T12:39:38.000Z</time>
      </trkpt>
      <trkpt lat="44.51366" lon="6.11425">
        <ele>1006.200012207</ele>
        <time>2016-07-15T12:39:45.000Z</time>
      </trkpt>
      <trkpt lat="44.51375" lon="6.11428">
        <ele>1007.799987793</ele>
        <time>2016-07-15T12:39:53.000Z</time>
      </trkpt>
      <trkpt lat="44.5138" lon="6.11428">
        <ele>1008.799987793</ele>
        <time>2016-07-15T12:39:57.000Z</time>
      </trkpt>
      <trkpt lat="44.51389" lon="6.11432">
        <ele>1010.4000244141</ele>
        <time>2016-07-15T12:40:05.000Z</time>
      </trkpt>
      <trkpt lat="44.51399" lon="6.11439">
        <ele>1011.5999755859</ele>
        <time>2016-07-15T12:40:13.000Z</time>
      </trkpt>
      <trkpt lat="44.514" lon="6.11439">
        <ele>1011.799987793</ele>
        <time>2016-07-15T12:40:14.000Z</time>
      </trkpt>
      <trkpt lat="44.51403" lon="6.11441">
        <ele>1012.4000244141</ele>
        <time>2016-07-15T12:40:17.000Z</time>
      </trkpt>
      <trkpt lat="44.51408" lon="6.11441">
        <ele>1013.4000244141</ele>
        <time>2016-07-15T12:40:21.000Z</time>
      </trkpt>
      <trkpt lat="44.51416" lon="6.11434">
        <ele>1015.799987793</ele>
        <time>2016-07-15T12:40:28.000Z</time>
      </trkpt>
      <trkpt lat="44.51424" lon="6.11427">
        <ele>1018.799987793</ele>
        <time>2016-07-15T12:40:34.000Z</time>
      </trkpt>
      <trkpt lat="44.51431" lon="6.11429">
        <ele>1020.200012207</ele>
        <time>2016-07-15T12:40:38.000Z</time>
      </trkpt>
      <trkpt lat="44.5144" lon="6.11436">
        <ele>1021.4000244141</ele>
        <time>2016-07-15T12:40:43.000Z</time>
      </trkpt>
      <trkpt lat="44.51448" lon="6.1145">
        <ele>1021.799987793</ele>
        <time>2016-07-15T12:40:48.000Z</time>
      </trkpt>
      <trkpt lat="44.51452" lon="6.11454">
        <ele>1022.4000244141</ele>
        <time>2016-07-15T12:40:50.000Z</time>
      </trkpt>
      <trkpt lat="44.5146" lon="6.11455">
        <ele>1024.5999755859</ele>
        <time>2016-07-15T12:40:57.000Z</time>
      </trkpt>
      <trkpt lat="44.5146" lon="6.11459">
        <ele>1024</ele>
        <time>2016-07-15T12:40:59.000Z</time>
      </trkpt>
      <trkpt lat="44.51463" lon="6.11476">
        <ele>1023</ele>
        <time>2016-07-15T12:41:08.000Z</time>
      </trkpt>
      <trkpt lat="44.51471" lon="6.11487">
        <ele>1023</ele>
        <time>2016-07-15T12:41:16.000Z</time>
      </trkpt>
      <trkpt lat="44.51472" lon="6.11488">
        <ele>1023</ele>
        <time>2016-07-15T12:41:17.000Z</time>
      </trkpt>
      <trkpt lat="44.51476" lon="6.11489">
        <ele>1023.799987793</ele>
        <time>2016-07-15T12:41:26.000Z</time>
      </trkpt>
      <trkpt lat="44.51487" lon="6.11499">
        <ele>1024.5999755859</ele>
        <time>2016-07-15T12:41:36.000Z</time>
      </trkpt>
      <trkpt lat="44.51498" lon="6.11511">
        <ele>1025</ele>
        <time>2016-07-15T12:41:46.000Z</time>
      </trkpt>
      <trkpt lat="44.51512" lon="6.11524">
        <ele>1026.1999511719</ele>
        <time>2016-07-15T12:41:59.000Z</time>
      </trkpt>
      <trkpt lat="44.51524" lon="6.11536">
        <ele>1027</ele>
        <time>2016-07-15T12:42:10.000Z</time>
      </trkpt>
      <trkpt lat="44.51539" lon="6.11546">
        <ele>1028.8000488281</ele>
        <time>2016-07-15T12:42:22.000Z</time>
      </trkpt>
      <trkpt lat="44.51555" lon="6.11554">
        <ele>1031.5999755859</ele>
        <time>2016-07-15T12:42:35.000Z</time>
      </trkpt>
      <trkpt lat="44.51571" lon="6.11556">
        <ele>1035.5999755859</ele>
        <time>2016-07-15T12:42:47.000Z</time>
      </trkpt>
      <trkpt lat="44.51589" lon="6.11557">
        <ele>1040</ele>
        <time>2016-07-15T12:43:00.000Z</time>
      </trkpt>
      <trkpt lat="44.51602" lon="6.11555">
        <ele>1044</ele>
        <time>2016-07-15T12:43:09.000Z</time>
      </trkpt>
      <trkpt lat="44.51615" lon="6.11552">
        <ele>1047.5999755859</ele>
        <time>2016-07-15T12:43:18.000Z</time>
      </trkpt>
      <trkpt lat="44.51628" lon="6.11553">
        <ele>1048.5999755859</ele>
        <time>2016-07-15T12:43:27.000Z</time>
      </trkpt>
      <trkpt lat="44.51638" lon="6.11555">
        <ele>1049</ele>
        <time>2016-07-15T12:43:34.000Z</time>
      </trkpt>
      <trkpt lat="44.51651" lon="6.11559">
        <ele>1049.1999511719</ele>
        <time>2016-07-15T12:43:43.000Z</time>
      </trkpt>
      <trkpt lat="44.5167" lon="6.11564">
        <ele>1049.4000244141</ele>
        <time>2016-07-15T12:43:57.000Z</time>
      </trkpt>
      <trkpt lat="44.51682" lon="6.11563">
        <ele>1050.4000244141</ele>
        <time>2016-07-15T12:44:06.000Z</time>
      </trkpt>
      <trkpt lat="44.51691" lon="6.11559">
        <ele>1051.5999755859</ele>
        <time>2016-07-15T12:44:12.000Z</time>
      </trkpt>
      <trkpt lat="44.51699" lon="6.11554">
        <ele>1053</ele>
        <time>2016-07-15T12:44:19.000Z</time>
      </trkpt>
      <trkpt lat="44.51705" lon="6.1155">
        <ele>1054.8000488281</ele>
        <time>2016-07-15T12:44:24.000Z</time>
      </trkpt>
      <trkpt lat="44.51718" lon="6.11542">
        <ele>1058.4000244141</ele>
        <time>2016-07-15T12:44:33.000Z</time>
      </trkpt>
      <trkpt lat="44.51733" lon="6.11534">
        <ele>1062.4000244141</ele>
        <time>2016-07-15T12:44:44.000Z</time>
      </trkpt>
      <trkpt lat="44.51748" lon="6.11534">
        <ele>1064.8000488281</ele>
        <time>2016-07-15T12:44:54.000Z</time>
      </trkpt>
      <trkpt lat="44.51755" lon="6.11536">
        <ele>1065.5999755859</ele>
        <time>2016-07-15T12:45:01.000Z</time>
      </trkpt>
      <trkpt lat="44.51758" lon="6.11536">
        <ele>1066</ele>
        <time>2016-07-15T12:45:11.000Z</time>
      </trkpt>
      <trkpt lat="44.51759" lon="6.11535">
        <ele>1066.1999511719</ele>
        <time>2016-07-15T12:45:22.000Z</time>
      </trkpt>
      <trkpt lat="44.51763" lon="6.11525">
        <ele>1068.4000244141</ele>
        <time>2016-07-15T12:45:29.000Z</time>
      </trkpt>
      <trkpt lat="44.51763" lon="6.11519">
        <ele>1069.4000244141</ele>
        <time>2016-07-15T12:45:32.000Z</time>
      </trkpt>
      <trkpt lat="44.51768" lon="6.11506">
        <ele>1072.1999511719</ele>
        <time>2016-07-15T12:45:40.000Z</time>
      </trkpt>
      <trkpt lat="44.51775" lon="6.11504">
        <ele>1073.5999755859</ele>
        <time>2016-07-15T12:45:48.000Z</time>
      </trkpt>
      <trkpt lat="44.5178" lon="6.11499">
        <ele>1074.8000488281</ele>
        <time>2016-07-15T12:45:54.000Z</time>
      </trkpt>
      <trkpt lat="44.5179" lon="6.11489">
        <ele>1077.8000488281</ele>
        <time>2016-07-15T12:46:03.000Z</time>
      </trkpt>
      <trkpt lat="44.518" lon="6.11477">
        <ele>1079.4000244141</ele>
        <time>2016-07-15T12:46:13.000Z</time>
      </trkpt>
      <trkpt lat="44.51805" lon="6.11462">
        <ele>1081.1999511719</ele>
        <time>2016-07-15T12:46:21.000Z</time>
      </trkpt>
      <trkpt lat="44.51809" lon="6.11445">
        <ele>1083</ele>
        <time>2016-07-15T12:46:30.000Z</time>
      </trkpt>
      <trkpt lat="44.51812" lon="6.11426">
        <ele>1085.1999511719</ele>
        <time>2016-07-15T12:46:39.000Z</time>
      </trkpt>
      <trkpt lat="44.5181" lon="6.11402">
        <ele>1087</ele>
        <time>2016-07-15T12:46:51.000Z</time>
      </trkpt>
      <trkpt lat="44.5181" lon="6.11379">
        <ele>1087.4000244141</ele>
        <time>2016-07-15T12:47:02.000Z</time>
      </trkpt>
      <trkpt lat="44.51809" lon="6.11361">
        <ele>1087</ele>
        <time>2016-07-15T12:47:11.000Z</time>
      </trkpt>
      <trkpt lat="44.51808" lon="6.11337">
        <ele>1086.4000244141</ele>
        <time>2016-07-15T12:47:23.000Z</time>
      </trkpt>
      <trkpt lat="44.51808" lon="6.11325">
        <ele>1086.5999755859</ele>
        <time>2016-07-15T12:47:30.000Z</time>
      </trkpt>
      <trkpt lat="44.51807" lon="6.11301">
        <ele>1086.4000244141</ele>
        <time>2016-07-15T12:47:42.000Z</time>
      </trkpt>
      <trkpt lat="44.51806" lon="6.11282">
        <ele>1085.4000244141</ele>
        <time>2016-07-15T12:47:51.000Z</time>
      </trkpt>
      <trkpt lat="44.51803" lon="6.11262">
        <ele>1084.4000244141</ele>
        <time>2016-07-15T12:48:01.000Z</time>
      </trkpt>
      <trkpt lat="44.518" lon="6.11242">
        <ele>1083.4000244141</ele>
        <time>2016-07-15T12:48:11.000Z</time>
      </trkpt>
      <trkpt lat="44.51797" lon="6.1123">
        <ele>1083.5999755859</ele>
        <time>2016-07-15T12:48:17.000Z</time>
      </trkpt>
      <trkpt lat="44.51796" lon="6.11213">
        <ele>1083.1999511719</ele>
        <time>2016-07-15T12:48:25.000Z</time>
      </trkpt>
      <trkpt lat="44.51792" lon="6.11193">
        <ele>1082.5999755859</ele>
        <time>2016-07-15T12:48:35.000Z</time>
      </trkpt>
      <trkpt lat="44.5179" lon="6.11173">
        <ele>1082.1999511719</ele>
        <time>2016-07-15T12:48:45.000Z</time>
      </trkpt>
      <trkpt lat="44.51792" lon="6.1115">
        <ele>1082.1999511719</ele>
        <time>2016-07-15T12:48:57.000Z</time>
      </trkpt>
      <trkpt lat="44.51796" lon="6.1113">
        <ele>1082.4000244141</ele>
        <time>2016-07-15T12:49:08.000Z</time>
      </trkpt>
      <trkpt lat="44.51798" lon="6.11112">
        <ele>1081.8000488281</ele>
        <time>2016-07-15T12:49:17.000Z</time>
      </trkpt>
      <trkpt lat="44.51799" lon="6.11094">
        <ele>1081.1999511719</ele>
        <time>2016-07-15T12:49:26.000Z</time>
      </trkpt>
      <trkpt lat="44.51803" lon="6.1108">
        <ele>1081.1999511719</ele>
        <time>2016-07-15T12:49:34.000Z</time>
      </trkpt>
      <trkpt lat="44.51805" lon="6.11071">
        <ele>1081.8000488281</ele>
        <time>2016-07-15T12:49:40.000Z</time>
      </trkpt>
      <trkpt lat="44.51807" lon="6.11056">
        <ele>1081.8000488281</ele>
        <time>2016-07-15T12:49:48.000Z</time>
      </trkpt>
      <trkpt lat="44.51807" lon="6.11038">
        <ele>1080.1999511719</ele>
        <time>2016-07-15T12:49:57.000Z</time>
      </trkpt>
      <trkpt lat="44.51808" lon="6.11014">
        <ele>1078</ele>
        <time>2016-07-15T12:50:09.000Z</time>
      </trkpt>
      <trkpt lat="44.51808" lon="6.11002">
        <ele>1077</ele>
        <time>2016-07-15T12:50:16.000Z</time>
      </trkpt>
      <trkpt lat="44.51811" lon="6.10985">
        <ele>1077.1999511719</ele>
        <time>2016-07-15T12:50:25.000Z</time>
      </trkpt>
      <trkpt lat="44.51813" lon="6.10976">
        <ele>1077.4000244141</ele>
        <time>2016-07-15T12:50:32.000Z</time>
      </trkpt>
      <trkpt lat="44.51814" lon="6.10968">
        <ele>1077.1999511719</ele>
        <time>2016-07-15T12:50:43.000Z</time>
      </trkpt>
      <trkpt lat="44.5182" lon="6.10945">
        <ele>1076.8000488281</ele>
        <time>2016-07-15T12:50:56.000Z</time>
      </trkpt>
      <trkpt lat="44.51825" lon="6.10926">
        <ele>1076.4000244141</ele>
        <time>2016-07-15T12:51:06.000Z</time>
      </trkpt>
      <trkpt lat="44.51831" lon="6.10903">
        <ele>1075.4000244141</ele>
        <time>2016-07-15T12:51:18.000Z</time>
      </trkpt>
      <trkpt lat="44.51833" lon="6.1089">
        <ele>1075</ele>
        <time>2016-07-15T12:51:26.000Z</time>
      </trkpt>
      <trkpt lat="44.51835" lon="6.10884">
        <ele>1075.1999511719</ele>
        <time>2016-07-15T12:51:29.000Z</time>
      </trkpt>
      <trkpt lat="44.51835" lon="6.10878">
        <ele>1075.1999511719</ele>
        <time>2016-07-15T12:51:32.000Z</time>
      </trkpt>
      <trkpt lat="44.51837" lon="6.1086">
        <ele>1074.5999755859</ele>
        <time>2016-07-15T12:51:41.000Z</time>
      </trkpt>
      <trkpt lat="44.51838" lon="6.10841">
        <ele>1073</ele>
        <time>2016-07-15T12:51:51.000Z</time>
      </trkpt>
      <trkpt lat="44.51839" lon="6.10821">
        <ele>1071.1999511719</ele>
        <time>2016-07-15T12:52:01.000Z</time>
      </trkpt>
      <trkpt lat="44.51842" lon="6.10798">
        <ele>1070.5999755859</ele>
        <time>2016-07-15T12:52:13.000Z</time>
      </trkpt>
      <trkpt lat="44.5185" lon="6.10782">
        <ele>1071</ele>
        <time>2016-07-15T12:52:23.000Z</time>
      </trkpt>
      <trkpt lat="44.51857" lon="6.10765">
        <ele>1070.4000244141</ele>
        <time>2016-07-15T12:52:33.000Z</time>
      </trkpt>
      <trkpt lat="44.51865" lon="6.10751">
        <ele>1070.1999511719</ele>
        <time>2016-07-15T12:52:43.000Z</time>
      </trkpt>
      <trkpt lat="44.51872" lon="6.10745">
        <ele>1071</ele>
        <time>2016-07-15T12:52:51.000Z</time>
      </trkpt>
      <trkpt lat="44.5188" lon="6.10743">
        <ele>1072.5999755859</ele>
        <time>2016-07-15T12:52:57.000Z</time>
      </trkpt>
      <trkpt lat="44.51889" lon="6.10736">
        <ele>1072.4000244141</ele>
        <time>2016-07-15T12:53:05.000Z</time>
      </trkpt>
      <trkpt lat="44.519" lon="6.10727">
        <ele>1071.4000244141</ele>
        <time>2016-07-15T12:53:13.000Z</time>
      </trkpt>
      <trkpt lat="44.51901" lon="6.10722">
        <ele>1070.8000488281</ele>
        <time>2016-07-15T12:53:22.000Z</time>
      </trkpt>
      <trkpt lat="44.51899" lon="6.10706">
        <ele>1067.5999755859</ele>
        <time>2016-07-15T12:54:16.000Z</time>
      </trkpt>
      <trkpt lat="44.519" lon="6.10714">
        <ele>1069</ele>
        <time>2016-07-15T12:54:26.000Z</time>
      </trkpt>
      <trkpt lat="44.51905" lon="6.10714">
        <ele>1069.5999755859</ele>
        <time>2016-07-15T12:54:52.000Z</time>
      </trkpt>
      <trkpt lat="44.51914" lon="6.10707">
        <ele>1069.1999511719</ele>
        <time>2016-07-15T12:54:59.000Z</time>
      </trkpt>
      <trkpt lat="44.51924" lon="6.10703">
        <ele>1069.5999755859</ele>
        <time>2016-07-15T12:55:06.000Z</time>
      </trkpt>
      <trkpt lat="44.5193" lon="6.10701">
        <ele>1070.1999511719</ele>
        <time>2016-07-15T12:55:12.000Z</time>
      </trkpt>
      <trkpt lat="44.51934" lon="6.107">
        <ele>1070.5999755859</ele>
        <time>2016-07-15T12:55:15.000Z</time>
      </trkpt>
      <trkpt lat="44.51942" lon="6.10697">
        <ele>1071.4000244141</ele>
        <time>2016-07-15T12:55:21.000Z</time>
      </trkpt>
      <trkpt lat="44.51949" lon="6.10694">
        <ele>1072</ele>
        <time>2016-07-15T12:55:27.000Z</time>
      </trkpt>
      <trkpt lat="44.5195" lon="6.10693">
        <ele>1072.1999511719</ele>
        <time>2016-07-15T12:55:28.000Z</time>
      </trkpt>
      <trkpt lat="44.51952" lon="6.10691">
        <ele>1072</ele>
        <time>2016-07-15T12:55:30.000Z</time>
      </trkpt>
      <trkpt lat="44.51958" lon="6.10688">
        <ele>1071.5999755859</ele>
        <time>2016-07-15T12:55:36.000Z</time>
      </trkpt>
      <trkpt lat="44.51959" lon="6.10687">
        <ele>1071.4000244141</ele>
        <time>2016-07-15T12:55:37.000Z</time>
      </trkpt>
      <trkpt lat="44.51972" lon="6.10684">
        <ele>1071.4000244141</ele>
        <time>2016-07-15T12:55:46.000Z</time>
      </trkpt>
      <trkpt lat="44.51983" lon="6.10683">
        <ele>1071.4000244141</ele>
        <time>2016-07-15T12:55:55.000Z</time>
      </trkpt>
      <trkpt lat="44.51988" lon="6.10683">
        <ele>1071.5999755859</ele>
        <time>2016-07-15T12:56:00.000Z</time>
      </trkpt>
      <trkpt lat="44.51998" lon="6.10686">
        <ele>1072.1999511719</ele>
        <time>2016-07-15T12:56:07.000Z</time>
      </trkpt>
      <trkpt lat="44.52001" lon="6.10687">
        <ele>1072.1999511719</ele>
        <time>2016-07-15T12:56:09.000Z</time>
      </trkpt>
      <trkpt lat="44.52005" lon="6.10688">
        <ele>1072.4000244141</ele>
        <time>2016-07-15T12:56:12.000Z</time>
      </trkpt>
      <trkpt lat="44.52015" lon="6.10687">
        <ele>1072</ele>
        <time>2016-07-15T12:56:19.000Z</time>
      </trkpt>
      <trkpt lat="44.5202" lon="6.10688">
        <ele>1072.1999511719</ele>
        <time>2016-07-15T12:56:22.000Z</time>
      </trkpt>
      <trkpt lat="44.52031" lon="6.10689">
        <ele>1072.1999511719</ele>
        <time>2016-07-15T12:56:29.000Z</time>
      </trkpt>
      <trkpt lat="44.52037" lon="6.10688">
        <ele>1071.8000488281</ele>
        <time>2016-07-15T12:56:34.000Z</time>
      </trkpt>
      <trkpt lat="44.52047" lon="6.10686">
        <ele>1070.8000488281</ele>
        <time>2016-07-15T12:56:41.000Z</time>
      </trkpt>
      <trkpt lat="44.52052" lon="6.10686">
        <ele>1070.5999755859</ele>
        <time>2016-07-15T12:56:45.000Z</time>
      </trkpt>
      <trkpt lat="44.52064" lon="6.10686">
        <ele>1069.8000488281</ele>
        <time>2016-07-15T12:56:53.000Z</time>
      </trkpt>
      <trkpt lat="44.52074" lon="6.10686">
        <ele>1069.1999511719</ele>
        <time>2016-07-15T12:57:00.000Z</time>
      </trkpt>
      <trkpt lat="44.52089" lon="6.10685">
        <ele>1068.1999511719</ele>
        <time>2016-07-15T12:57:10.000Z</time>
      </trkpt>
      <trkpt lat="44.52098" lon="6.10686">
        <ele>1067.8000488281</ele>
        <time>2016-07-15T12:57:16.000Z</time>
      </trkpt>
      <trkpt lat="44.52107" lon="6.10686">
        <ele>1067.4000244141</ele>
        <time>2016-07-15T12:57:22.000Z</time>
      </trkpt>
      <trkpt lat="44.52108" lon="6.10686">
        <ele>1067.1999511719</ele>
        <time>2016-07-15T12:57:23.000Z</time>
      </trkpt>
      <trkpt lat="44.52118" lon="6.10684">
        <ele>1066.1999511719</ele>
        <time>2016-07-15T12:57:30.000Z</time>
      </trkpt>
      <trkpt lat="44.52125" lon="6.10687">
        <ele>1065</ele>
        <time>2016-07-15T12:57:36.000Z</time>
      </trkpt>
      <trkpt lat="44.52133" lon="6.10694">
        <ele>1064.4000244141</ele>
        <time>2016-07-15T12:57:43.000Z</time>
      </trkpt>
      <trkpt lat="44.52141" lon="6.10704">
        <ele>1064.4000244141</ele>
        <time>2016-07-15T12:57:51.000Z</time>
      </trkpt>
      <trkpt lat="44.5215" lon="6.10713">
        <ele>1064</ele>
        <time>2016-07-15T12:57:58.000Z</time>
      </trkpt>
      <trkpt lat="44.52163" lon="6.10719">
        <ele>1062.1999511719</ele>
        <time>2016-07-15T12:58:06.000Z</time>
      </trkpt>
      <trkpt lat="44.52171" lon="6.10724">
        <ele>1061.1999511719</ele>
        <time>2016-07-15T12:58:12.000Z</time>
      </trkpt>
      <trkpt lat="44.52179" lon="6.10733">
        <ele>1061</ele>
        <time>2016-07-15T12:58:20.000Z</time>
      </trkpt>
      <trkpt lat="44.5218" lon="6.10735">
        <ele>1061</ele>
        <time>2016-07-15T12:58:21.000Z</time>
      </trkpt>
      <trkpt lat="44.52187" lon="6.10748">
        <ele>1061.1999511719</ele>
        <time>2016-07-15T12:58:29.000Z</time>
      </trkpt>
      <trkpt lat="44.52193" lon="6.10762">
        <ele>1062.1999511719</ele>
        <time>2016-07-15T12:58:37.000Z</time>
      </trkpt>
      <trkpt lat="44.52199" lon="6.10776">
        <ele>1063</ele>
        <time>2016-07-15T12:58:45.000Z</time>
      </trkpt>
      <trkpt lat="44.52201" lon="6.10784">
        <ele>1063.4000244141</ele>
        <time>2016-07-15T12:58:50.000Z</time>
      </trkpt>
      <trkpt lat="44.52211" lon="6.10795">
        <ele>1061.5999755859</ele>
        <time>2016-07-15T12:58:58.000Z</time>
      </trkpt>
      <trkpt lat="44.52217" lon="6.10803">
        <ele>1060.4000244141</ele>
        <time>2016-07-15T12:59:04.000Z</time>
      </trkpt>
      <trkpt lat="44.52225" lon="6.10812">
        <ele>1059</ele>
        <time>2016-07-15T12:59:12.000Z</time>
      </trkpt>
      <trkpt lat="44.52226" lon="6.10816">
        <ele>1059.1999511719</ele>
        <time>2016-07-15T12:59:15.000Z</time>
      </trkpt>
      <trkpt lat="44.52228" lon="6.10819">
        <ele>1059</ele>
        <time>2016-07-15T12:59:18.000Z</time>
      </trkpt>
      <trkpt lat="44.52235" lon="6.10822">
        <ele>1057.1999511719</ele>
        <time>2016-07-15T12:59:23.000Z</time>
      </trkpt>
      <trkpt lat="44.52242" lon="6.10824">
        <ele>1054.5999755859</ele>
        <time>2016-07-15T12:59:30.000Z</time>
      </trkpt>
      <trkpt lat="44.52249" lon="6.10828">
        <ele>1053</ele>
        <time>2016-07-15T12:59:36.000Z</time>
      </trkpt>
      <trkpt lat="44.52253" lon="6.1083">
        <ele>1051.5999755859</ele>
        <time>2016-07-15T12:59:40.000Z</time>
      </trkpt>
      <trkpt lat="44.52257" lon="6.10832">
        <ele>1050.4000244141</ele>
        <time>2016-07-15T12:59:45.000Z</time>
      </trkpt>
      <trkpt lat="44.52265" lon="6.10838">
        <ele>1048.4000244141</ele>
        <time>2016-07-15T12:59:51.000Z</time>
      </trkpt>
      <trkpt lat="44.52274" lon="6.10843">
        <ele>1046.1999511719</ele>
        <time>2016-07-15T12:59:57.000Z</time>
      </trkpt>
      <trkpt lat="44.52287" lon="6.10851">
        <ele>1043</ele>
        <time>2016-07-15T13:00:07.000Z</time>
      </trkpt>
      <trkpt lat="44.52288" lon="6.10852">
        <ele>1043</ele>
        <time>2016-07-15T13:00:08.000Z</time>
      </trkpt>
      <trkpt lat="44.52296" lon="6.10857">
        <ele>1042</ele>
        <time>2016-07-15T13:00:13.000Z</time>
      </trkpt>
      <trkpt lat="44.52301" lon="6.1086">
        <ele>1041.5999755859</ele>
        <time>2016-07-15T13:00:18.000Z</time>
      </trkpt>
      <trkpt lat="44.52309" lon="6.10862">
        <ele>1040</ele>
        <time>2016-07-15T13:00:24.000Z</time>
      </trkpt>
      <trkpt lat="44.52316" lon="6.10867">
        <ele>1039</ele>
        <time>2016-07-15T13:00:29.000Z</time>
      </trkpt>
      <trkpt lat="44.52326" lon="6.10875">
        <ele>1038.4000244141</ele>
        <time>2016-07-15T13:00:36.000Z</time>
      </trkpt>
      <trkpt lat="44.52331" lon="6.10879">
        <ele>1037.8000488281</ele>
        <time>2016-07-15T13:00:40.000Z</time>
      </trkpt>
      <trkpt lat="44.5234" lon="6.10889">
        <ele>1037.5999755859</ele>
        <time>2016-07-15T13:00:47.000Z</time>
      </trkpt>
      <trkpt lat="44.52354" lon="6.10925">
        <ele>1038.1999511719</ele>
        <time>2016-07-15T13:01:06.000Z</time>
      </trkpt>
      <trkpt lat="44.5236" lon="6.10936">
        <ele>1037.8000488281</ele>
        <time>2016-07-15T13:01:13.000Z</time>
      </trkpt>
      <trkpt lat="44.52362" lon="6.10939">
        <ele>1037.5999755859</ele>
        <time>2016-07-15T13:01:15.000Z</time>
      </trkpt>
      <trkpt lat="44.52367" lon="6.10947">
        <ele>1037.1999511719</ele>
        <time>2016-07-15T13:01:20.000Z</time>
      </trkpt>
      <trkpt lat="44.52377" lon="6.10964">
        <ele>1036.5999755859</ele>
        <time>2016-07-15T13:01:29.000Z</time>
      </trkpt>
      <trkpt lat="44.52377" lon="6.10977">
        <ele>1037.8000488281</ele>
        <time>2016-07-15T13:01:36.000Z</time>
      </trkpt>
      <trkpt lat="44.52372" lon="6.10984">
        <ele>1039.5999755859</ele>
        <time>2016-07-15T13:01:42.000Z</time>
      </trkpt>
      <trkpt lat="44.52366" lon="6.10986">
        <ele>1041</ele>
        <time>2016-07-15T13:01:48.000Z</time>
      </trkpt>
      <trkpt lat="44.52364" lon="6.10989">
        <ele>1041.5999755859</ele>
        <time>2016-07-15T13:01:55.000Z</time>
      </trkpt>
      <trkpt lat="44.52358" lon="6.10993">
        <ele>1043.5999755859</ele>
        <time>2016-07-15T13:02:01.000Z</time>
      </trkpt>
      <trkpt lat="44.52355" lon="6.10997">
        <ele>1044.5999755859</ele>
        <time>2016-07-15T13:02:04.000Z</time>
      </trkpt>
      <trkpt lat="44.52353" lon="6.11008">
        <ele>1046</ele>
        <time>2016-07-15T13:02:10.000Z</time>
      </trkpt>
      <trkpt lat="44.52353" lon="6.1101">
        <ele>1046</ele>
        <time>2016-07-15T13:02:11.000Z</time>
      </trkpt>
      <trkpt lat="44.52356" lon="6.1102">
        <ele>1046.1999511719</ele>
        <time>2016-07-15T13:02:17.000Z</time>
      </trkpt>
      <trkpt lat="44.52363" lon="6.11027">
        <ele>1044.8000488281</ele>
        <time>2016-07-15T13:02:24.000Z</time>
      </trkpt>
      <trkpt lat="44.52364" lon="6.11028">
        <ele>1044.5999755859</ele>
        <time>2016-07-15T13:02:25.000Z</time>
      </trkpt>
      <trkpt lat="44.52366" lon="6.11037">
        <ele>1044.5999755859</ele>
        <time>2016-07-15T13:02:32.000Z</time>
      </trkpt>
      <trkpt lat="44.52366" lon="6.11039">
        <ele>1044.8000488281</ele>
        <time>2016-07-15T13:02:33.000Z</time>
      </trkpt>
      <trkpt lat="44.52364" lon="6.11047">
        <ele>1045.8000488281</ele>
        <time>2016-07-15T13:02:37.000Z</time>
      </trkpt>
      <trkpt lat="44.52367" lon="6.11052">
        <ele>1045.4000244141</ele>
        <time>2016-07-15T13:02:43.000Z</time>
      </trkpt>
      <trkpt lat="44.52369" lon="6.11052">
        <ele>1045.1999511719</ele>
        <time>2016-07-15T13:02:44.000Z</time>
      </trkpt>
      <trkpt lat="44.52381" lon="6.11055">
        <ele>1043.4000244141</ele>
        <time>2016-07-15T13:02:52.000Z</time>
      </trkpt>
      <trkpt lat="44.52388" lon="6.11056">
        <ele>1042.1999511719</ele>
        <time>2016-07-15T13:02:58.000Z</time>
      </trkpt>
      <trkpt lat="44.5239" lon="6.11056">
        <ele>1041.8000488281</ele>
        <time>2016-07-15T13:03:01.000Z</time>
      </trkpt>
      <trkpt lat="44.52393" lon="6.11062">
        <ele>1042</ele>
        <time>2016-07-15T13:03:05.000Z</time>
      </trkpt>
      <trkpt lat="44.52395" lon="6.11069">
        <ele>1043.1999511719</ele>
        <time>2016-07-15T13:03:10.000Z</time>
      </trkpt>
      <trkpt lat="44.52403" lon="6.1107">
        <ele>1042.1999511719</ele>
        <time>2016-07-15T13:03:16.000Z</time>
      </trkpt>
      <trkpt lat="44.52408" lon="6.11069">
        <ele>1041</ele>
        <time>2016-07-15T13:03:20.000Z</time>
      </trkpt>
      <trkpt lat="44.52419" lon="6.11066">
        <ele>1038.5999755859</ele>
        <time>2016-07-15T13:03:28.000Z</time>
      </trkpt>
      <trkpt lat="44.52422" lon="6.11067">
        <ele>1038</ele>
        <time>2016-07-15T13:03:32.000Z</time>
      </trkpt>
      <trkpt lat="44.52427" lon="6.11067">
        <ele>1037.4000244141</ele>
        <time>2016-07-15T13:03:38.000Z</time>
      </trkpt>
      <trkpt lat="44.52435" lon="6.11066">
        <ele>1036</ele>
        <time>2016-07-15T13:03:44.000Z</time>
      </trkpt>
      <trkpt lat="44.52442" lon="6.11074">
        <ele>1036.4000244141</ele>
        <time>2016-07-15T13:03:50.000Z</time>
      </trkpt>
      <trkpt lat="44.52449" lon="6.11081">
        <ele>1036.8000488281</ele>
        <time>2016-07-15T13:03:55.000Z</time>
      </trkpt>
      <trkpt lat="44.52455" lon="6.11086">
        <ele>1036.8000488281</ele>
        <time>2016-07-15T13:04:00.000Z</time>
      </trkpt>
      <trkpt lat="44.52459" lon="6.11088">
        <ele>1036.5999755859</ele>
        <time>2016-07-15T13:04:03.000Z</time>
      </trkpt>
      <trkpt lat="44.52464" lon="6.1109">
        <ele>1036.4000244141</ele>
        <time>2016-07-15T13:04:06.000Z</time>
      </trkpt>
      <trkpt lat="44.52474" lon="6.11088">
        <ele>1034.5999755859</ele>
        <time>2016-07-15T13:04:12.000Z</time>
      </trkpt>
      <trkpt lat="44.52485" lon="6.11083">
        <ele>1031.5999755859</ele>
        <time>2016-07-15T13:04:20.000Z</time>
      </trkpt>
      <trkpt lat="44.525" lon="6.11078">
        <ele>1028</ele>
        <time>2016-07-15T13:04:30.000Z</time>
      </trkpt>
      <trkpt lat="44.52515" lon="6.11075">
        <ele>1024.8000488281</ele>
        <time>2016-07-15T13:04:40.000Z</time>
      </trkpt>
      <trkpt lat="44.52522" lon="6.11082">
        <ele>1025</ele>
        <time>2016-07-15T13:04:46.000Z</time>
      </trkpt>
      <trkpt lat="44.52525" lon="6.11087">
        <ele>1026</ele>
        <time>2016-07-15T13:04:49.000Z</time>
      </trkpt>
      <trkpt lat="44.52528" lon="6.11097">
        <ele>1027.8000488281</ele>
        <time>2016-07-15T13:04:55.000Z</time>
      </trkpt>
      <trkpt lat="44.5253" lon="6.11098">
        <ele>1027.8000488281</ele>
        <time>2016-07-15T13:04:56.000Z</time>
      </trkpt>
      <trkpt lat="44.52531" lon="6.11098">
        <ele>1027.4000244141</ele>
        <time>2016-07-15T13:04:57.000Z</time>
      </trkpt>
      <trkpt lat="44.52539" lon="6.11091">
        <ele>1025.5999755859</ele>
        <time>2016-07-15T13:05:03.000Z</time>
      </trkpt>
      <trkpt lat="44.5254" lon="6.1109">
        <ele>1025.4000244141</ele>
        <time>2016-07-15T13:05:04.000Z</time>
      </trkpt>
      <trkpt lat="44.52549" lon="6.11077">
        <ele>1022.4000244141</ele>
        <time>2016-07-15T13:05:13.000Z</time>
      </trkpt>
      <trkpt lat="44.52558" lon="6.11066">
        <ele>1019</ele>
        <time>2016-07-15T13:05:21.000Z</time>
      </trkpt>
      <trkpt lat="44.52569" lon="6.1106">
        <ele>1017.200012207</ele>
        <time>2016-07-15T13:05:29.000Z</time>
      </trkpt>
      <trkpt lat="44.52581" lon="6.11058">
        <ele>1016.5999755859</ele>
        <time>2016-07-15T13:05:38.000Z</time>
      </trkpt>
      <trkpt lat="44.52589" lon="6.1106">
        <ele>1016.5999755859</ele>
        <time>2016-07-15T13:05:44.000Z</time>
      </trkpt>
      <trkpt lat="44.5259" lon="6.1106">
        <ele>1016.5999755859</ele>
        <time>2016-07-15T13:05:45.000Z</time>
      </trkpt>
      <trkpt lat="44.52599" lon="6.11057">
        <ele>1016</ele>
        <time>2016-07-15T13:05:52.000Z</time>
      </trkpt>
      <trkpt lat="44.52607" lon="6.11051">
        <ele>1015</ele>
        <time>2016-07-15T13:05:59.000Z</time>
      </trkpt>
      <trkpt lat="44.52614" lon="6.11047">
        <ele>1013.799987793</ele>
        <time>2016-07-15T13:06:04.000Z</time>
      </trkpt>
      <trkpt lat="44.52618" lon="6.11045">
        <ele>1013</ele>
        <time>2016-07-15T13:06:09.000Z</time>
      </trkpt>
      <trkpt lat="44.52623" lon="6.11046">
        <ele>1013.5999755859</ele>
        <time>2016-07-15T13:06:13.000Z</time>
      </trkpt>
      <trkpt lat="44.5263" lon="6.11046">
        <ele>1014</ele>
        <time>2016-07-15T13:06:18.000Z</time>
      </trkpt>
      <trkpt lat="44.52641" lon="6.11041">
        <ele>1013.5999755859</ele>
        <time>2016-07-15T13:06:26.000Z</time>
      </trkpt>
      <trkpt lat="44.52651" lon="6.11033">
        <ele>1012.4000244141</ele>
        <time>2016-07-15T13:06:33.000Z</time>
      </trkpt>
      <trkpt lat="44.52663" lon="6.11022">
        <ele>1010.799987793</ele>
        <time>2016-07-15T13:06:43.000Z</time>
      </trkpt>
      <trkpt lat="44.52671" lon="6.1101">
        <ele>1007.4000244141</ele>
        <time>2016-07-15T13:06:51.000Z</time>
      </trkpt>
      <trkpt lat="44.52681" lon="6.11001">
        <ele>1004.200012207</ele>
        <time>2016-07-15T13:06:59.000Z</time>
      </trkpt>
      <trkpt lat="44.52688" lon="6.10996">
        <ele>1002.799987793</ele>
        <time>2016-07-15T13:07:05.000Z</time>
      </trkpt>
      <trkpt lat="44.52694" lon="6.10993">
        <ele>1001.799987793</ele>
        <time>2016-07-15T13:07:10.000Z</time>
      </trkpt>
      <trkpt lat="44.52699" lon="6.10994">
        <ele>1001.799987793</ele>
        <time>2016-07-15T13:07:14.000Z</time>
      </trkpt>
      <trkpt lat="44.527" lon="6.10995">
        <ele>1002</ele>
        <time>2016-07-15T13:07:16.000Z</time>
      </trkpt>
      <trkpt lat="44.52704" lon="6.10996">
        <ele>1002.5999755859</ele>
        <time>2016-07-15T13:07:20.000Z</time>
      </trkpt>
      <trkpt lat="44.52714" lon="6.1099">
        <ele>1002</ele>
        <time>2016-07-15T13:07:27.000Z</time>
      </trkpt>
      <trkpt lat="44.5272" lon="6.10981">
        <ele>998.59997558594</ele>
        <time>2016-07-15T13:07:33.000Z</time>
      </trkpt>
      <trkpt lat="44.5273" lon="6.10976">
        <ele>996.59997558594</ele>
        <time>2016-07-15T13:07:41.000Z</time>
      </trkpt>
      <trkpt lat="44.52738" lon="6.10974">
        <ele>996</ele>
        <time>2016-07-15T13:07:47.000Z</time>
      </trkpt>
      <trkpt lat="44.52748" lon="6.10971">
        <ele>995.20001220703</ele>
        <time>2016-07-15T13:07:55.000Z</time>
      </trkpt>
      <trkpt lat="44.52768" lon="6.1097">
        <ele>995</ele>
        <time>2016-07-15T13:08:09.000Z</time>
      </trkpt>
      <trkpt lat="44.52778" lon="6.10971">
        <ele>995</ele>
        <time>2016-07-15T13:08:16.000Z</time>
      </trkpt>
      <trkpt lat="44.5278" lon="6.10972">
        <ele>995</ele>
        <time>2016-07-15T13:08:17.000Z</time>
      </trkpt>
      <trkpt lat="44.52783" lon="6.10972">
        <ele>994.79998779297</ele>
        <time>2016-07-15T13:08:19.000Z</time>
      </trkpt>
      <trkpt lat="44.52791" lon="6.10973">
        <ele>994.79998779297</ele>
        <time>2016-07-15T13:08:24.000Z</time>
      </trkpt>
      <trkpt lat="44.52802" lon="6.10973">
        <ele>994.40002441406</ele>
        <time>2016-07-15T13:08:32.000Z</time>
      </trkpt>
      <trkpt lat="44.52815" lon="6.10971">
        <ele>993.20001220703</ele>
        <time>2016-07-15T13:08:40.000Z</time>
      </trkpt>
      <trkpt lat="44.52828" lon="6.10966">
        <ele>991.20001220703</ele>
        <time>2016-07-15T13:08:49.000Z</time>
      </trkpt>
      <trkpt lat="44.52839" lon="6.10964">
        <ele>990.40002441406</ele>
        <time>2016-07-15T13:08:56.000Z</time>
      </trkpt>
      <trkpt lat="44.52852" lon="6.10965">
        <ele>990</ele>
        <time>2016-07-15T13:09:04.000Z</time>
      </trkpt>
      <trkpt lat="44.52861" lon="6.10966">
        <ele>990</ele>
        <time>2016-07-15T13:09:11.000Z</time>
      </trkpt>
      <trkpt lat="44.52868" lon="6.1097">
        <ele>990.79998779297</ele>
        <time>2016-07-15T13:09:17.000Z</time>
      </trkpt>
      <trkpt lat="44.52879" lon="6.10968">
        <ele>989.20001220703</ele>
        <time>2016-07-15T13:09:24.000Z</time>
      </trkpt>
      <trkpt lat="44.52891" lon="6.10962">
        <ele>986.40002441406</ele>
        <time>2016-07-15T13:09:32.000Z</time>
      </trkpt>
      <trkpt lat="44.52901" lon="6.10967">
        <ele>986.59997558594</ele>
        <time>2016-07-15T13:09:39.000Z</time>
      </trkpt>
      <trkpt lat="44.52912" lon="6.1097">
        <ele>986.59997558594</ele>
        <time>2016-07-15T13:09:46.000Z</time>
      </trkpt>
      <trkpt lat="44.52925" lon="6.10969">
        <ele>985</ele>
        <time>2016-07-15T13:09:54.000Z</time>
      </trkpt>
      <trkpt lat="44.5294" lon="6.10972">
        <ele>984.59997558594</ele>
        <time>2016-07-15T13:10:04.000Z</time>
      </trkpt>
      <trkpt lat="44.5295" lon="6.10969">
        <ele>983.20001220703</ele>
        <time>2016-07-15T13:10:11.000Z</time>
      </trkpt>
      <trkpt lat="44.5296" lon="6.10967">
        <ele>982.20001220703</ele>
        <time>2016-07-15T13:10:15.000Z</time>
      </trkpt>
      <trkpt lat="44.52976" lon="6.10973">
        <ele>982.59997558594</ele>
        <time>2016-07-15T13:10:21.000Z</time>
      </trkpt>
      <trkpt lat="44.52993" lon="6.10978">
        <ele>982.79998779297</ele>
        <time>2016-07-15T13:10:26.000Z</time>
      </trkpt>
      <trkpt lat="44.53004" lon="6.10977">
        <ele>982</ele>
        <time>2016-07-15T13:10:30.000Z</time>
      </trkpt>
      <trkpt lat="44.53013" lon="6.10982">
        <ele>983</ele>
        <time>2016-07-15T13:10:34.000Z</time>
      </trkpt>
      <trkpt lat="44.53014" lon="6.10982">
        <ele>983</ele>
        <time>2016-07-15T13:10:35.000Z</time>
      </trkpt>
      <trkpt lat="44.53022" lon="6.10985">
        <ele>983.40002441406</ele>
        <time>2016-07-15T13:10:40.000Z</time>
      </trkpt>
      <trkpt lat="44.53026" lon="6.10986">
        <ele>983.79998779297</ele>
        <time>2016-07-15T13:10:42.000Z</time>
      </trkpt>
      <trkpt lat="44.53038" lon="6.10993">
        <ele>985.20001220703</ele>
        <time>2016-07-15T13:10:50.000Z</time>
      </trkpt>
      <trkpt lat="44.53051" lon="6.11001">
        <ele>986.40002441406</ele>
        <time>2016-07-15T13:10:59.000Z</time>
      </trkpt>
      <trkpt lat="44.53056" lon="6.11004">
        <ele>987</ele>
        <time>2016-07-15T13:11:03.000Z</time>
      </trkpt>
      <trkpt lat="44.53063" lon="6.11005">
        <ele>986.79998779297</ele>
        <time>2016-07-15T13:11:09.000Z</time>
      </trkpt>
      <trkpt lat="44.53067" lon="6.11006">
        <ele>986.79998779297</ele>
        <time>2016-07-15T13:11:12.000Z</time>
      </trkpt>
      <trkpt lat="44.53078" lon="6.11007">
        <ele>987</ele>
        <time>2016-07-15T13:11:19.000Z</time>
      </trkpt>
      <trkpt lat="44.53093" lon="6.11007">
        <ele>986.40002441406</ele>
        <time>2016-07-15T13:11:28.000Z</time>
      </trkpt>
      <trkpt lat="44.53098" lon="6.11005">
        <ele>986</ele>
        <time>2016-07-15T13:11:32.000Z</time>
      </trkpt>
      <trkpt lat="44.53107" lon="6.11">
        <ele>984.40002441406</ele>
        <time>2016-07-15T13:11:39.000Z</time>
      </trkpt>
      <trkpt lat="44.53115" lon="6.10998">
        <ele>983.59997558594</ele>
        <time>2016-07-15T13:11:46.000Z</time>
      </trkpt>
      <trkpt lat="44.53116" lon="6.10997">
        <ele>983.40002441406</ele>
        <time>2016-07-15T13:11:47.000Z</time>
      </trkpt>
      <trkpt lat="44.53124" lon="6.10988">
        <ele>980.20001220703</ele>
        <time>2016-07-15T13:11:55.000Z</time>
      </trkpt>
      <trkpt lat="44.53129" lon="6.10987">
        <ele>979.20001220703</ele>
        <time>2016-07-15T13:12:03.000Z</time>
      </trkpt>
      <trkpt lat="44.53134" lon="6.10989">
        <ele>979.20001220703</ele>
        <time>2016-07-15T13:12:08.000Z</time>
      </trkpt>
      <trkpt lat="44.53143" lon="6.1099">
        <ele>978.40002441406</ele>
        <time>2016-07-15T13:12:16.000Z</time>
      </trkpt>
      <trkpt lat="44.53147" lon="6.1099">
        <ele>978</ele>
        <time>2016-07-15T13:12:18.000Z</time>
      </trkpt>
      <trkpt lat="44.53154" lon="6.10988">
        <ele>976.79998779297</ele>
        <time>2016-07-15T13:12:25.000Z</time>
      </trkpt>
      <trkpt lat="44.53159" lon="6.10984">
        <ele>975.20001220703</ele>
        <time>2016-07-15T13:12:31.000Z</time>
      </trkpt>
      <trkpt lat="44.53161" lon="6.10984">
        <ele>975.20001220703</ele>
        <time>2016-07-15T13:12:32.000Z</time>
      </trkpt>
      <trkpt lat="44.53164" lon="6.10987">
        <ele>975.59997558594</ele>
        <time>2016-07-15T13:12:35.000Z</time>
      </trkpt>
      <trkpt lat="44.5317" lon="6.10988">
        <ele>975</ele>
        <time>2016-07-15T13:12:41.000Z</time>
      </trkpt>
      <trkpt lat="44.53176" lon="6.10988">
        <ele>974.40002441406</ele>
        <time>2016-07-15T13:12:47.000Z</time>
      </trkpt>
      <trkpt lat="44.53179" lon="6.10989">
        <ele>974.20001220703</ele>
        <time>2016-07-15T13:12:49.000Z</time>
      </trkpt>
      <trkpt lat="44.53181" lon="6.10989">
        <ele>974</ele>
        <time>2016-07-15T13:12:51.000Z</time>
      </trkpt>
      <trkpt lat="44.5319" lon="6.10991">
        <ele>973.79998779297</ele>
        <time>2016-07-15T13:12:59.000Z</time>
      </trkpt>
      <trkpt lat="44.53193" lon="6.10991">
        <ele>973.40002441406</ele>
        <time>2016-07-15T13:13:01.000Z</time>
      </trkpt>
      <trkpt lat="44.53205" lon="6.10986">
        <ele>969.79998779297</ele>
        <time>2016-07-15T13:13:09.000Z</time>
      </trkpt>
      <trkpt lat="44.53214" lon="6.10987">
        <ele>967.40002441406</ele>
        <time>2016-07-15T13:13:16.000Z</time>
      </trkpt>
      <trkpt lat="44.53215" lon="6.10989">
        <ele>967.40002441406</ele>
        <time>2016-07-15T13:13:17.000Z</time>
      </trkpt>
      <trkpt lat="44.53221" lon="6.10993">
        <ele>966.40002441406</ele>
        <time>2016-07-15T13:13:23.000Z</time>
      </trkpt>
      <trkpt lat="44.53222" lon="6.10994">
        <ele>966.20001220703</ele>
        <time>2016-07-15T13:13:24.000Z</time>
      </trkpt>
      <trkpt lat="44.53224" lon="6.10995">
        <ele>965.79998779297</ele>
        <time>2016-07-15T13:13:26.000Z</time>
      </trkpt>
      <trkpt lat="44.5323" lon="6.10994">
        <ele>963.79998779297</ele>
        <time>2016-07-15T13:13:31.000Z</time>
      </trkpt>
      <trkpt lat="44.53231" lon="6.10994">
        <ele>963.59997558594</ele>
        <time>2016-07-15T13:13:32.000Z</time>
      </trkpt>
      <trkpt lat="44.53236" lon="6.10993">
        <ele>962</ele>
        <time>2016-07-15T13:13:36.000Z</time>
      </trkpt>
      <trkpt lat="44.53242" lon="6.10999">
        <ele>961.20001220703</ele>
        <time>2016-07-15T13:13:41.000Z</time>
      </trkpt>
      <trkpt lat="44.53244" lon="6.11006">
        <ele>962.20001220703</ele>
        <time>2016-07-15T13:13:44.000Z</time>
      </trkpt>
      <trkpt lat="44.53245" lon="6.1101">
        <ele>962.79998779297</ele>
        <time>2016-07-15T13:13:46.000Z</time>
      </trkpt>
      <trkpt lat="44.53246" lon="6.11017">
        <ele>964</ele>
        <time>2016-07-15T13:13:50.000Z</time>
      </trkpt>
      <trkpt lat="44.53247" lon="6.11028">
        <ele>966.40002441406</ele>
        <time>2016-07-15T13:13:59.000Z</time>
      </trkpt>
      <trkpt lat="44.53252" lon="6.11032">
        <ele>965.40002441406</ele>
        <time>2016-07-15T13:14:14.000Z</time>
      </trkpt>
      <trkpt lat="44.53254" lon="6.11033">
        <ele>965</ele>
        <time>2016-07-15T13:14:16.000Z</time>
      </trkpt>
      <trkpt lat="44.53259" lon="6.11033">
        <ele>963.59997558594</ele>
        <time>2016-07-15T13:14:22.000Z</time>
      </trkpt>
      <trkpt lat="44.5326" lon="6.11033">
        <ele>963.20001220703</ele>
        <time>2016-07-15T13:14:23.000Z</time>
      </trkpt>
      <trkpt lat="44.53265" lon="6.11033">
        <ele>961.79998779297</ele>
        <time>2016-07-15T13:14:28.000Z</time>
      </trkpt>
      <trkpt lat="44.53271" lon="6.11034">
        <ele>960.20001220703</ele>
        <time>2016-07-15T13:14:33.000Z</time>
      </trkpt>
      <trkpt lat="44.53276" lon="6.11039">
        <ele>959.59997558594</ele>
        <time>2016-07-15T13:14:38.000Z</time>
      </trkpt>
      <trkpt lat="44.53282" lon="6.11043">
        <ele>958.79998779297</ele>
        <time>2016-07-15T13:14:43.000Z</time>
      </trkpt>
      <trkpt lat="44.53283" lon="6.11043">
        <ele>958.59997558594</ele>
        <time>2016-07-15T13:14:44.000Z</time>
      </trkpt>
      <trkpt lat="44.53287" lon="6.11044">
        <ele>957.59997558594</ele>
        <time>2016-07-15T13:14:47.000Z</time>
      </trkpt>
      <trkpt lat="44.5329" lon="6.11049">
        <ele>957.79998779297</ele>
        <time>2016-07-15T13:14:51.000Z</time>
      </trkpt>
      <trkpt lat="44.53291" lon="6.11053">
        <ele>958.20001220703</ele>
        <time>2016-07-15T13:14:53.000Z</time>
      </trkpt>
      <trkpt lat="44.53292" lon="6.11058">
        <ele>959</ele>
        <time>2016-07-15T13:14:56.000Z</time>
      </trkpt>
      <trkpt lat="44.53296" lon="6.11066">
        <ele>959.40002441406</ele>
        <time>2016-07-15T13:15:02.000Z</time>
      </trkpt>
      <trkpt lat="44.53301" lon="6.11067">
        <ele>958.40002441406</ele>
        <time>2016-07-15T13:15:06.000Z</time>
      </trkpt>
      <trkpt lat="44.53303" lon="6.11067">
        <ele>957.59997558594</ele>
        <time>2016-07-15T13:15:08.000Z</time>
      </trkpt>
      <trkpt lat="44.53304" lon="6.11068">
        <ele>957.59997558594</ele>
        <time>2016-07-15T13:15:13.000Z</time>
      </trkpt>
      <trkpt lat="44.5331" lon="6.11071">
        <ele>956.40002441406</ele>
        <time>2016-07-15T13:15:21.000Z</time>
      </trkpt>
      <trkpt lat="44.53317" lon="6.11077">
        <ele>955.59997558594</ele>
        <time>2016-07-15T13:15:27.000Z</time>
      </trkpt>
      <trkpt lat="44.53325" lon="6.11093">
        <ele>956.40002441406</ele>
        <time>2016-07-15T13:15:34.000Z</time>
      </trkpt>
      <trkpt lat="44.5333" lon="6.11099">
        <ele>956</ele>
        <time>2016-07-15T13:15:38.000Z</time>
      </trkpt>
      <trkpt lat="44.53335" lon="6.11107">
        <ele>956.20001220703</ele>
        <time>2016-07-15T13:15:45.000Z</time>
      </trkpt>
      <trkpt lat="44.53337" lon="6.11109">
        <ele>955.79998779297</ele>
        <time>2016-07-15T13:15:47.000Z</time>
      </trkpt>
      <trkpt lat="44.53344" lon="6.11122">
        <ele>956.79998779297</ele>
        <time>2016-07-15T13:16:15.000Z</time>
      </trkpt>
      <trkpt lat="44.53345" lon="6.11123">
        <ele>956.59997558594</ele>
        <time>2016-07-15T13:16:28.000Z</time>
      </trkpt>
      <trkpt lat="44.5335" lon="6.11127">
        <ele>955.79998779297</ele>
        <time>2016-07-15T13:16:40.000Z</time>
      </trkpt>
      <trkpt lat="44.5335" lon="6.11128">
        <ele>956.20001220703</ele>
        <time>2016-07-15T13:16:41.000Z</time>
      </trkpt>
      <trkpt lat="44.53352" lon="6.11133">
        <ele>956.59997558594</ele>
        <time>2016-07-15T13:16:44.000Z</time>
      </trkpt>
      <trkpt lat="44.53357" lon="6.11148">
        <ele>959.20001220703</ele>
        <time>2016-07-15T13:16:52.000Z</time>
      </trkpt>
      <trkpt lat="44.53359" lon="6.11151">
        <ele>959.20001220703</ele>
        <time>2016-07-15T13:16:54.000Z</time>
      </trkpt>
      <trkpt lat="44.53364" lon="6.11159">
        <ele>959.79998779297</ele>
        <time>2016-07-15T13:17:01.000Z</time>
      </trkpt>
      <trkpt lat="44.53367" lon="6.11164">
        <ele>960</ele>
        <time>2016-07-15T13:17:05.000Z</time>
      </trkpt>
      <trkpt lat="44.53375" lon="6.11176">
        <ele>960.79998779297</ele>
        <time>2016-07-15T13:17:13.000Z</time>
      </trkpt>
      <trkpt lat="44.53374" lon="6.11178">
        <ele>961.40002441406</ele>
        <time>2016-07-15T13:17:14.000Z</time>
      </trkpt>
      <trkpt lat="44.53373" lon="6.11188">
        <ele>964.79998779297</ele>
        <time>2016-07-15T13:17:20.000Z</time>
      </trkpt>
      <trkpt lat="44.53377" lon="6.11196">
        <ele>966</ele>
        <time>2016-07-15T13:17:25.000Z</time>
      </trkpt>
      <trkpt lat="44.53382" lon="6.11202">
        <ele>965.59997558594</ele>
        <time>2016-07-15T13:17:29.000Z</time>
      </trkpt>
      <trkpt lat="44.53391" lon="6.11213">
        <ele>965.59997558594</ele>
        <time>2016-07-15T13:17:37.000Z</time>
      </trkpt>
      <trkpt lat="44.53394" lon="6.11215">
        <ele>965.40002441406</ele>
        <time>2016-07-15T13:17:39.000Z</time>
      </trkpt>
      <trkpt lat="44.53403" lon="6.11223">
        <ele>964.20001220703</ele>
        <time>2016-07-15T13:17:45.000Z</time>
      </trkpt>
      <trkpt lat="44.53405" lon="6.11224">
        <ele>964</ele>
        <time>2016-07-15T13:17:46.000Z</time>
      </trkpt>
      <trkpt lat="44.53417" lon="6.11234">
        <ele>961.59997558594</ele>
        <time>2016-07-15T13:17:55.000Z</time>
      </trkpt>
      <trkpt lat="44.53426" lon="6.11247">
        <ele>960.20001220703</ele>
        <time>2016-07-15T13:18:03.000Z</time>
      </trkpt>
      <trkpt lat="44.53432" lon="6.11255">
        <ele>958.79998779297</ele>
        <time>2016-07-15T13:18:09.000Z</time>
      </trkpt>
      <trkpt lat="44.53435" lon="6.11259">
        <ele>958.40002441406</ele>
        <time>2016-07-15T13:18:12.000Z</time>
      </trkpt>
      <trkpt lat="44.53441" lon="6.11274">
        <ele>958</ele>
        <time>2016-07-15T13:18:20.000Z</time>
      </trkpt>
      <trkpt lat="44.53446" lon="6.11282">
        <ele>957.20001220703</ele>
        <time>2016-07-15T13:18:26.000Z</time>
      </trkpt>
      <trkpt lat="44.53447" lon="6.11283">
        <ele>957</ele>
        <time>2016-07-15T13:18:27.000Z</time>
      </trkpt>
      <trkpt lat="44.53449" lon="6.11288">
        <ele>957</ele>
        <time>2016-07-15T13:18:31.000Z</time>
      </trkpt>
      <trkpt lat="44.53452" lon="6.11293">
        <ele>956.79998779297</ele>
        <time>2016-07-15T13:18:34.000Z</time>
      </trkpt>
      <trkpt lat="44.5346" lon="6.11307">
        <ele>957.59997558594</ele>
        <time>2016-07-15T13:18:42.000Z</time>
      </trkpt>
      <trkpt lat="44.53467" lon="6.11319">
        <ele>957.40002441406</ele>
        <time>2016-07-15T13:18:49.000Z</time>
      </trkpt>
      <trkpt lat="44.53469" lon="6.11331">
        <ele>957.40002441406</ele>
        <time>2016-07-15T13:18:55.000Z</time>
      </trkpt>
      <trkpt lat="44.53469" lon="6.11334">
        <ele>957.59997558594</ele>
        <time>2016-07-15T13:18:57.000Z</time>
      </trkpt>
      <trkpt lat="44.5348" lon="6.11347">
        <ele>956.79998779297</ele>
        <time>2016-07-15T13:19:04.000Z</time>
      </trkpt>
      <trkpt lat="44.53485" lon="6.11355">
        <ele>956.59997558594</ele>
        <time>2016-07-15T13:19:08.000Z</time>
      </trkpt>
      <trkpt lat="44.53487" lon="6.11365">
        <ele>957.20001220703</ele>
        <time>2016-07-15T13:19:13.000Z</time>
      </trkpt>
      <trkpt lat="44.53487" lon="6.11369">
        <ele>957.59997558594</ele>
        <time>2016-07-15T13:19:15.000Z</time>
      </trkpt>
      <trkpt lat="44.53486" lon="6.11384">
        <ele>959.20001220703</ele>
        <time>2016-07-15T13:19:22.000Z</time>
      </trkpt>
      <trkpt lat="44.53487" lon="6.11397">
        <ele>960.40002441406</ele>
        <time>2016-07-15T13:19:28.000Z</time>
      </trkpt>
      <trkpt lat="44.53487" lon="6.11405">
        <ele>961.20001220703</ele>
        <time>2016-07-15T13:19:32.000Z</time>
      </trkpt>
      <trkpt lat="44.53489" lon="6.11409">
        <ele>961</ele>
        <time>2016-07-15T13:19:38.000Z</time>
      </trkpt>
      <trkpt lat="44.53493" lon="6.11418">
        <ele>961.20001220703</ele>
        <time>2016-07-15T13:20:12.000Z</time>
      </trkpt>
      <trkpt lat="44.53503" lon="6.11424">
        <ele>959.79998779297</ele>
        <time>2016-07-15T13:20:20.000Z</time>
      </trkpt>
      <trkpt lat="44.5351" lon="6.11432">
        <ele>959.40002441406</ele>
        <time>2016-07-15T13:20:26.000Z</time>
      </trkpt>
      <trkpt lat="44.53516" lon="6.11442">
        <ele>959.20001220703</ele>
        <time>2016-07-15T13:20:33.000Z</time>
      </trkpt>
      <trkpt lat="44.53516" lon="6.11444">
        <ele>959.20001220703</ele>
        <time>2016-07-15T13:20:34.000Z</time>
      </trkpt>
      <trkpt lat="44.53518" lon="6.11454">
        <ele>959.79998779297</ele>
        <time>2016-07-15T13:20:40.000Z</time>
      </trkpt>
      <trkpt lat="44.53518" lon="6.11456">
        <ele>960</ele>
        <time>2016-07-15T13:20:41.000Z</time>
      </trkpt>
      <trkpt lat="44.53519" lon="6.1146">
        <ele>960.40002441406</ele>
        <time>2016-07-15T13:20:44.000Z</time>
      </trkpt>
      <trkpt lat="44.53516" lon="6.11465">
        <ele>961.79998779297</ele>
        <time>2016-07-15T13:20:47.000Z</time>
      </trkpt>
      <trkpt lat="44.53515" lon="6.11469">
        <ele>962.79998779297</ele>
        <time>2016-07-15T13:20:50.000Z</time>
      </trkpt>
      <trkpt lat="44.53518" lon="6.11478">
        <ele>963.59997558594</ele>
        <time>2016-07-15T13:20:54.000Z</time>
      </trkpt>
      <trkpt lat="44.53519" lon="6.11483">
        <ele>964.40002441406</ele>
        <time>2016-07-15T13:20:57.000Z</time>
      </trkpt>
      <trkpt lat="44.53519" lon="6.11501">
        <ele>967.59997558594</ele>
        <time>2016-07-15T13:21:04.000Z</time>
      </trkpt>
      <trkpt lat="44.5352" lon="6.11507">
        <ele>968.40002441406</ele>
        <time>2016-07-15T13:21:07.000Z</time>
      </trkpt>
      <trkpt lat="44.5352" lon="6.11516">
        <ele>970</ele>
        <time>2016-07-15T13:21:12.000Z</time>
      </trkpt>
      <trkpt lat="44.53522" lon="6.11524">
        <ele>970.79998779297</ele>
        <time>2016-07-15T13:21:16.000Z</time>
      </trkpt>
      <trkpt lat="44.53524" lon="6.11539">
        <ele>973</ele>
        <time>2016-07-15T13:21:25.000Z</time>
      </trkpt>
      <trkpt lat="44.53527" lon="6.11549">
        <ele>974.20001220703</ele>
        <time>2016-07-15T13:21:32.000Z</time>
      </trkpt>
      <trkpt lat="44.53532" lon="6.11556">
        <ele>973.79998779297</ele>
        <time>2016-07-15T13:21:38.000Z</time>
      </trkpt>
      <trkpt lat="44.53539" lon="6.11565">
        <ele>973.40002441406</ele>
        <time>2016-07-15T13:21:45.000Z</time>
      </trkpt>
      <trkpt lat="44.53547" lon="6.11578">
        <ele>972.59997558594</ele>
        <time>2016-07-15T13:21:53.000Z</time>
      </trkpt>
      <trkpt lat="44.53552" lon="6.11583">
        <ele>971.59997558594</ele>
        <time>2016-07-15T13:21:59.000Z</time>
      </trkpt>
      <trkpt lat="44.53553" lon="6.11584">
        <ele>971.59997558594</ele>
        <time>2016-07-15T13:22:00.000Z</time>
      </trkpt>
      <trkpt lat="44.53561" lon="6.11587">
        <ele>969.79998779297</ele>
        <time>2016-07-15T13:22:07.000Z</time>
      </trkpt>
      <trkpt lat="44.53567" lon="6.11591">
        <ele>968.79998779297</ele>
        <time>2016-07-15T13:22:10.000Z</time>
      </trkpt>
      <trkpt lat="44.53574" lon="6.11592">
        <ele>967.20001220703</ele>
        <time>2016-07-15T13:22:14.000Z</time>
      </trkpt>
      <trkpt lat="44.5358" lon="6.11592">
        <ele>965.59997558594</ele>
        <time>2016-07-15T13:22:20.000Z</time>
      </trkpt>
      <trkpt lat="44.53581" lon="6.1159">
        <ele>965.40002441406</ele>
        <time>2016-07-15T13:22:21.000Z</time>
      </trkpt>
      <trkpt lat="44.53591" lon="6.11575">
        <ele>962</ele>
        <time>2016-07-15T13:22:31.000Z</time>
      </trkpt>
      <trkpt lat="44.53601" lon="6.11565">
        <ele>959</ele>
        <time>2016-07-15T13:22:39.000Z</time>
      </trkpt>
      <trkpt lat="44.53617" lon="6.11554">
        <ele>954.79998779297</ele>
        <time>2016-07-15T13:22:51.000Z</time>
      </trkpt>
      <trkpt lat="44.53625" lon="6.11555">
        <ele>955.40002441406</ele>
        <time>2016-07-15T13:22:56.000Z</time>
      </trkpt>
      <trkpt lat="44.53635" lon="6.11563">
        <ele>956.20001220703</ele>
        <time>2016-07-15T13:23:05.000Z</time>
      </trkpt>
      <trkpt lat="44.53644" lon="6.11573">
        <ele>956.79998779297</ele>
        <time>2016-07-15T13:23:13.000Z</time>
      </trkpt>
      <trkpt lat="44.53648" lon="6.11586">
        <ele>957.40002441406</ele>
        <time>2016-07-15T13:23:20.000Z</time>
      </trkpt>
      <trkpt lat="44.53655" lon="6.11604">
        <ele>958.59997558594</ele>
        <time>2016-07-15T13:23:30.000Z</time>
      </trkpt>
      <trkpt lat="44.53662" lon="6.11621">
        <ele>960</ele>
        <time>2016-07-15T13:23:40.000Z</time>
      </trkpt>
      <trkpt lat="44.5367" lon="6.11638">
        <ele>961.20001220703</ele>
        <time>2016-07-15T13:23:50.000Z</time>
      </trkpt>
      <trkpt lat="44.53677" lon="6.11654">
        <ele>961.79998779297</ele>
        <time>2016-07-15T13:23:59.000Z</time>
      </trkpt>
      <trkpt lat="44.53686" lon="6.11673">
        <ele>961.79998779297</ele>
        <time>2016-07-15T13:24:09.000Z</time>
      </trkpt>
      <trkpt lat="44.53693" lon="6.11689">
        <ele>962</ele>
        <time>2016-07-15T13:24:18.000Z</time>
      </trkpt>
      <trkpt lat="44.53701" lon="6.11707">
        <ele>962</ele>
        <time>2016-07-15T13:24:28.000Z</time>
      </trkpt>
      <trkpt lat="44.53708" lon="6.11721">
        <ele>962</ele>
        <time>2016-07-15T13:24:36.000Z</time>
      </trkpt>
      <trkpt lat="44.53714" lon="6.11736">
        <ele>962.20001220703</ele>
        <time>2016-07-15T13:24:44.000Z</time>
      </trkpt>
      <trkpt lat="44.53722" lon="6.11757">
        <ele>962.40002441406</ele>
        <time>2016-07-15T13:24:55.000Z</time>
      </trkpt>
      <trkpt lat="44.53729" lon="6.11773">
        <ele>962.59997558594</ele>
        <time>2016-07-15T13:25:04.000Z</time>
      </trkpt>
      <trkpt lat="44.53734" lon="6.11786">
        <ele>962.79998779297</ele>
        <time>2016-07-15T13:25:11.000Z</time>
      </trkpt>
      <trkpt lat="44.53742" lon="6.11801">
        <ele>962.79998779297</ele>
        <time>2016-07-15T13:25:19.000Z</time>
      </trkpt>
      <trkpt lat="44.5375" lon="6.11817">
        <ele>962.79998779297</ele>
        <time>2016-07-15T13:25:28.000Z</time>
      </trkpt>
      <trkpt lat="44.5376" lon="6.11838">
        <ele>962.40002441406</ele>
        <time>2016-07-15T13:25:39.000Z</time>
      </trkpt>
      <trkpt lat="44.53766" lon="6.11853">
        <ele>962</ele>
        <time>2016-07-15T13:25:48.000Z</time>
      </trkpt>
      <trkpt lat="44.53771" lon="6.11864">
        <ele>961.79998779297</ele>
        <time>2016-07-15T13:25:55.000Z</time>
      </trkpt>
      <trkpt lat="44.53778" lon="6.11878">
        <ele>961.40002441406</ele>
        <time>2016-07-15T13:26:03.000Z</time>
      </trkpt>
      <trkpt lat="44.53785" lon="6.11894">
        <ele>961</ele>
        <time>2016-07-15T13:26:11.000Z</time>
      </trkpt>
      <trkpt lat="44.53791" lon="6.11908">
        <ele>961.40002441406</ele>
        <time>2016-07-15T13:26:19.000Z</time>
      </trkpt>
      <trkpt lat="44.53793" lon="6.11912">
        <ele>961.40002441406</ele>
        <time>2016-07-15T13:26:21.000Z</time>
      </trkpt>
      <trkpt lat="44.53799" lon="6.11927">
        <ele>961.79998779297</ele>
        <time>2016-07-15T13:26:28.000Z</time>
      </trkpt>
      <trkpt lat="44.53803" lon="6.11944">
        <ele>962.20001220703</ele>
        <time>2016-07-15T13:26:36.000Z</time>
      </trkpt>
      <trkpt lat="44.53808" lon="6.11958">
        <ele>962.59997558594</ele>
        <time>2016-07-15T13:26:42.000Z</time>
      </trkpt>
      <trkpt lat="44.53817" lon="6.11978">
        <ele>963</ele>
        <time>2016-07-15T13:26:53.000Z</time>
      </trkpt>
      <trkpt lat="44.53818" lon="6.11981">
        <ele>963</ele>
        <time>2016-07-15T13:26:57.000Z</time>
      </trkpt>
      <trkpt lat="44.53821" lon="6.11986">
        <ele>962.79998779297</ele>
        <time>2016-07-15T13:27:03.000Z</time>
      </trkpt>
      <trkpt lat="44.53818" lon="6.11982">
        <ele>963</ele>
        <time>2016-07-15T13:27:06.000Z</time>
      </trkpt>
      <trkpt lat="44.53814" lon="6.11974">
        <ele>963</ele>
        <time>2016-07-15T13:27:12.000Z</time>
      </trkpt>
      <trkpt lat="44.53809" lon="6.11963">
        <ele>962.59997558594</ele>
        <time>2016-07-15T13:27:20.000Z</time>
      </trkpt>
      <trkpt lat="44.53801" lon="6.11943">
        <ele>962.20001220703</ele>
        <time>2016-07-15T13:27:31.000Z</time>
      </trkpt>
      <trkpt lat="44.53799" lon="6.11936">
        <ele>962</ele>
        <time>2016-07-15T13:27:35.000Z</time>
      </trkpt>
      <trkpt lat="44.53793" lon="6.11934">
        <ele>962</ele>
        <time>2016-07-15T13:27:41.000Z</time>
      </trkpt>
      <trkpt lat="44.53793" lon="6.11933">
        <ele>962</ele>
        <time>2016-07-15T13:27:59.000Z</time>
      </trkpt>
      <trkpt lat="44.53796" lon="6.11932">
        <ele>962</ele>
        <time>2016-07-15T13:28:18.000Z</time>
      </trkpt>
      <trkpt lat="44.538" lon="6.1194">
        <ele>962.20001220703</ele>
        <time>2016-07-15T13:28:22.000Z</time>
      </trkpt>
      <trkpt lat="44.53809" lon="6.11964">
        <ele>962.59997558594</ele>
        <time>2016-07-15T13:28:29.000Z</time>
      </trkpt>
      <trkpt lat="44.53819" lon="6.11986">
        <ele>962.79998779297</ele>
        <time>2016-07-15T13:28:35.000Z</time>
      </trkpt>
      <trkpt lat="44.5383" lon="6.12008">
        <ele>962.59997558594</ele>
        <time>2016-07-15T13:28:41.000Z</time>
      </trkpt>
      <trkpt lat="44.53843" lon="6.12032">
        <ele>962.40002441406</ele>
        <time>2016-07-15T13:28:46.000Z</time>
      </trkpt>
      <trkpt lat="44.53855" lon="6.12056">
        <ele>962.40002441406</ele>
        <time>2016-07-15T13:28:51.000Z</time>
      </trkpt>
      <trkpt lat="44.53868" lon="6.12081">
        <ele>962.79998779297</ele>
        <time>2016-07-15T13:28:56.000Z</time>
      </trkpt>
      <trkpt lat="44.53878" lon="6.12102">
        <ele>962.79998779297</ele>
        <time>2016-07-15T13:29:00.000Z</time>
      </trkpt>
      <trkpt lat="44.5389" lon="6.12126">
        <ele>963</ele>
        <time>2016-07-15T13:29:04.000Z</time>
      </trkpt>
      <trkpt lat="44.53902" lon="6.12149">
        <ele>963</ele>
        <time>2016-07-15T13:29:08.000Z</time>
      </trkpt>
      <trkpt lat="44.53914" lon="6.12173">
        <ele>962.79998779297</ele>
        <time>2016-07-15T13:29:12.000Z</time>
      </trkpt>
      <trkpt lat="44.53925" lon="6.12196">
        <ele>962.79998779297</ele>
        <time>2016-07-15T13:29:16.000Z</time>
      </trkpt>
      <trkpt lat="44.53937" lon="6.12219">
        <ele>962.79998779297</ele>
        <time>2016-07-15T13:29:20.000Z</time>
      </trkpt>
      <trkpt lat="44.53948" lon="6.12242">
        <ele>962.59997558594</ele>
        <time>2016-07-15T13:29:24.000Z</time>
      </trkpt>
      <trkpt lat="44.53957" lon="6.1226">
        <ele>962.59997558594</ele>
        <time>2016-07-15T13:29:29.000Z</time>
      </trkpt>
      <trkpt lat="44.53968" lon="6.12283">
        <ele>962.59997558594</ele>
        <time>2016-07-15T13:29:37.000Z</time>
      </trkpt>
      <trkpt lat="44.5398" lon="6.12307">
        <ele>962.79998779297</ele>
        <time>2016-07-15T13:29:45.000Z</time>
      </trkpt>
      <trkpt lat="44.53991" lon="6.1233">
        <ele>963.20001220703</ele>
        <time>2016-07-15T13:29:53.000Z</time>
      </trkpt>
      <trkpt lat="44.54002" lon="6.12354">
        <ele>963.79998779297</ele>
        <time>2016-07-15T13:30:01.000Z</time>
      </trkpt>
      <trkpt lat="44.54014" lon="6.12377">
        <ele>964</ele>
        <time>2016-07-15T13:30:09.000Z</time>
      </trkpt>
      <trkpt lat="44.54021" lon="6.12391">
        <ele>964.20001220703</ele>
        <time>2016-07-15T13:30:16.000Z</time>
      </trkpt>
      <trkpt lat="44.54027" lon="6.12404">
        <ele>964.20001220703</ele>
        <time>2016-07-15T13:30:23.000Z</time>
      </trkpt>
      <trkpt lat="44.54035" lon="6.12419">
        <ele>964.20001220703</ele>
        <time>2016-07-15T13:30:32.000Z</time>
      </trkpt>
      <trkpt lat="44.54043" lon="6.12427">
        <ele>963.59997558594</ele>
        <time>2016-07-15T13:30:38.000Z</time>
      </trkpt>
      <trkpt lat="44.54051" lon="6.12441">
        <ele>963.20001220703</ele>
        <time>2016-07-15T13:30:46.000Z</time>
      </trkpt>
      <trkpt lat="44.54058" lon="6.1246">
        <ele>962.79998779297</ele>
        <time>2016-07-15T13:30:56.000Z</time>
      </trkpt>
      <trkpt lat="44.54067" lon="6.12484">
        <ele>962.59997558594</ele>
        <time>2016-07-15T13:31:08.000Z</time>
      </trkpt>
      <trkpt lat="44.54071" lon="6.12498">
        <ele>962.79998779297</ele>
        <time>2016-07-15T13:31:15.000Z</time>
      </trkpt>
      <trkpt lat="44.54079" lon="6.12523">
        <ele>963.40002441406</ele>
        <time>2016-07-15T13:31:27.000Z</time>
      </trkpt>
      <trkpt lat="44.54086" lon="6.12543">
        <ele>963.20001220703</ele>
        <time>2016-07-15T13:31:38.000Z</time>
      </trkpt>
      <trkpt lat="44.54093" lon="6.12559">
        <ele>962.79998779297</ele>
        <time>2016-07-15T13:31:47.000Z</time>
      </trkpt>
      <trkpt lat="44.541" lon="6.12573">
        <ele>962.40002441406</ele>
        <time>2016-07-15T13:31:55.000Z</time>
      </trkpt>
      <trkpt lat="44.54109" lon="6.12589">
        <ele>961.59997558594</ele>
        <time>2016-07-15T13:32:05.000Z</time>
      </trkpt>
      <trkpt lat="44.54114" lon="6.12601">
        <ele>961.20001220703</ele>
        <time>2016-07-15T13:32:12.000Z</time>
      </trkpt>
      <trkpt lat="44.54125" lon="6.1262">
        <ele>960.20001220703</ele>
        <time>2016-07-15T13:32:23.000Z</time>
      </trkpt>
      <trkpt lat="44.54132" lon="6.12633">
        <ele>959.59997558594</ele>
        <time>2016-07-15T13:32:31.000Z</time>
      </trkpt>
      <trkpt lat="44.54141" lon="6.12646">
        <ele>959</ele>
        <time>2016-07-15T13:32:40.000Z</time>
      </trkpt>
      <trkpt lat="44.54149" lon="6.12653">
        <ele>959.20001220703</ele>
        <time>2016-07-15T13:32:47.000Z</time>
      </trkpt>
      <trkpt lat="44.54156" lon="6.12667">
        <ele>959.79998779297</ele>
        <time>2016-07-15T13:32:55.000Z</time>
      </trkpt>
      <trkpt lat="44.54159" lon="6.1267">
        <ele>959.79998779297</ele>
        <time>2016-07-15T13:33:00.000Z</time>
      </trkpt>
      <trkpt lat="44.54166" lon="6.12671">
        <ele>959.59997558594</ele>
        <time>2016-07-15T13:33:05.000Z</time>
      </trkpt>
      <trkpt lat="44.54172" lon="6.1267">
        <ele>959.20001220703</ele>
        <time>2016-07-15T13:33:11.000Z</time>
      </trkpt>
      <trkpt lat="44.54173" lon="6.12668">
        <ele>959</ele>
        <time>2016-07-15T13:33:13.000Z</time>
      </trkpt>
      <trkpt lat="44.54173" lon="6.12662">
        <ele>958.59997558594</ele>
        <time>2016-07-15T13:33:20.000Z</time>
      </trkpt>
      <trkpt lat="44.54175" lon="6.12663">
        <ele>958.59997558594</ele>
        <time>2016-07-15T13:33:24.000Z</time>
      </trkpt>
      <trkpt lat="44.54174" lon="6.12669">
        <ele>959.20001220703</ele>
        <time>2016-07-15T13:33:35.000Z</time>
      </trkpt>
      <trkpt lat="44.54173" lon="6.12675">
        <ele>959.59997558594</ele>
        <time>2016-07-15T13:33:38.000Z</time>
      </trkpt>
      <trkpt lat="44.54177" lon="6.1269">
        <ele>960.40002441406</ele>
        <time>2016-07-15T13:33:44.000Z</time>
      </trkpt>
      <trkpt lat="44.54189" lon="6.12709">
        <ele>961.20001220703</ele>
        <time>2016-07-15T13:33:55.000Z</time>
      </trkpt>
      <trkpt lat="44.542" lon="6.12725">
        <ele>961.79998779297</ele>
        <time>2016-07-15T13:34:05.000Z</time>
      </trkpt>
      <trkpt lat="44.54214" lon="6.12745">
        <ele>961.79998779297</ele>
        <time>2016-07-15T13:34:17.000Z</time>
      </trkpt>
      <trkpt lat="44.54225" lon="6.1276">
        <ele>961.59997558594</ele>
        <time>2016-07-15T13:34:27.000Z</time>
      </trkpt>
      <trkpt lat="44.54235" lon="6.12775">
        <ele>961.59997558594</ele>
        <time>2016-07-15T13:34:36.000Z</time>
      </trkpt>
      <trkpt lat="44.54243" lon="6.12787">
        <ele>961.40002441406</ele>
        <time>2016-07-15T13:34:44.000Z</time>
      </trkpt>
      <trkpt lat="44.54246" lon="6.12792">
        <ele>961.40002441406</ele>
        <time>2016-07-15T13:34:47.000Z</time>
      </trkpt>
      <trkpt lat="44.54254" lon="6.12804">
        <ele>961.40002441406</ele>
        <time>2016-07-15T13:34:54.000Z</time>
      </trkpt>
      <trkpt lat="44.54267" lon="6.12823">
        <ele>960.59997558594</ele>
        <time>2016-07-15T13:35:06.000Z</time>
      </trkpt>
      <trkpt lat="44.54276" lon="6.12836">
        <ele>960</ele>
        <time>2016-07-15T13:35:14.000Z</time>
      </trkpt>
      <trkpt lat="44.54286" lon="6.12851">
        <ele>959.20001220703</ele>
        <time>2016-07-15T13:35:23.000Z</time>
      </trkpt>
      <trkpt lat="44.54294" lon="6.12865">
        <ele>959.20001220703</ele>
        <time>2016-07-15T13:35:31.000Z</time>
      </trkpt>
      <trkpt lat="44.54299" lon="6.1288">
        <ele>959.40002441406</ele>
        <time>2016-07-15T13:35:39.000Z</time>
      </trkpt>
      <trkpt lat="44.54308" lon="6.12894">
        <ele>959.20001220703</ele>
        <time>2016-07-15T13:35:47.000Z</time>
      </trkpt>
      <trkpt lat="44.54313" lon="6.12903">
        <ele>959</ele>
        <time>2016-07-15T13:35:53.000Z</time>
      </trkpt>
      <trkpt lat="44.54339" lon="6.12946">
        <ele>957.59997558594</ele>
        <time>2016-07-15T13:36:18.000Z</time>
      </trkpt>
      <trkpt lat="44.54349" lon="6.1296">
        <ele>957.20001220703</ele>
        <time>2016-07-15T13:36:27.000Z</time>
      </trkpt>
      <trkpt lat="44.54356" lon="6.12974">
        <ele>956.59997558594</ele>
        <time>2016-07-15T13:36:35.000Z</time>
      </trkpt>
      <trkpt lat="44.54365" lon="6.12988">
        <ele>955.79998779297</ele>
        <time>2016-07-15T13:36:43.000Z</time>
      </trkpt>
      <trkpt lat="44.54374" lon="6.13005">
        <ele>955.59997558594</ele>
        <time>2016-07-15T13:36:53.000Z</time>
      </trkpt>
      <trkpt lat="44.5438" lon="6.13015">
        <ele>955.59997558594</ele>
        <time>2016-07-15T13:36:59.000Z</time>
      </trkpt>
      <trkpt lat="44.54384" lon="6.13031">
        <ele>955.59997558594</ele>
        <time>2016-07-15T13:37:07.000Z</time>
      </trkpt>
      <trkpt lat="44.54391" lon="6.13046">
        <ele>955.40002441406</ele>
        <time>2016-07-15T13:37:15.000Z</time>
      </trkpt>
      <trkpt lat="44.54399" lon="6.13063">
        <ele>955.20001220703</ele>
        <time>2016-07-15T13:37:24.000Z</time>
      </trkpt>
      <trkpt lat="44.54407" lon="6.13081">
        <ele>953.40002441406</ele>
        <time>2016-07-15T13:37:34.000Z</time>
      </trkpt>
      <trkpt lat="44.54412" lon="6.13091">
        <ele>952.59997558594</ele>
        <time>2016-07-15T13:37:41.000Z</time>
      </trkpt>
      <trkpt lat="44.54417" lon="6.13097">
        <ele>952</ele>
        <time>2016-07-15T13:37:47.000Z</time>
      </trkpt>
      <trkpt lat="44.54427" lon="6.13111">
        <ele>950.79998779297</ele>
        <time>2016-07-15T13:37:56.000Z</time>
      </trkpt>
      <trkpt lat="44.54436" lon="6.13125">
        <ele>949.59997558594</ele>
        <time>2016-07-15T13:38:05.000Z</time>
      </trkpt>
      <trkpt lat="44.54444" lon="6.13138">
        <ele>948.40002441406</ele>
        <time>2016-07-15T13:38:13.000Z</time>
      </trkpt>
      <trkpt lat="44.5445" lon="6.13149">
        <ele>947.59997558594</ele>
        <time>2016-07-15T13:38:20.000Z</time>
      </trkpt>
      <trkpt lat="44.54461" lon="6.13165">
        <ele>946.59997558594</ele>
        <time>2016-07-15T13:38:31.000Z</time>
      </trkpt>
      <trkpt lat="44.54469" lon="6.13174">
        <ele>946</ele>
        <time>2016-07-15T13:38:38.000Z</time>
      </trkpt>
      <trkpt lat="44.54478" lon="6.13185">
        <ele>945.40002441406</ele>
        <time>2016-07-15T13:38:47.000Z</time>
      </trkpt>
      <trkpt lat="44.54488" lon="6.13197">
        <ele>944.59997558594</ele>
        <time>2016-07-15T13:38:57.000Z</time>
      </trkpt>
      <trkpt lat="44.545" lon="6.13209">
        <ele>943.79998779297</ele>
        <time>2016-07-15T13:39:07.000Z</time>
      </trkpt>
      <trkpt lat="44.54511" lon="6.13223">
        <ele>943</ele>
        <time>2016-07-15T13:39:16.000Z</time>
      </trkpt>
      <trkpt lat="44.54521" lon="6.13229">
        <ele>942.79998779297</ele>
        <time>2016-07-15T13:39:24.000Z</time>
      </trkpt>
      <trkpt lat="44.54527" lon="6.13237">
        <ele>942.59997558594</ele>
        <time>2016-07-15T13:39:30.000Z</time>
      </trkpt>
      <trkpt lat="44.54531" lon="6.13247">
        <ele>942.20001220703</ele>
        <time>2016-07-15T13:39:36.000Z</time>
      </trkpt>
      <trkpt lat="44.54537" lon="6.13257">
        <ele>942.20001220703</ele>
        <time>2016-07-15T13:39:42.000Z</time>
      </trkpt>
      <trkpt lat="44.54542" lon="6.13266">
        <ele>942.59997558594</ele>
        <time>2016-07-15T13:39:48.000Z</time>
      </trkpt>
      <trkpt lat="44.54547" lon="6.1328">
        <ele>942.59997558594</ele>
        <time>2016-07-15T13:39:56.000Z</time>
      </trkpt>
      <trkpt lat="44.54551" lon="6.13299">
        <ele>942.40002441406</ele>
        <time>2016-07-15T13:40:05.000Z</time>
      </trkpt>
      <trkpt lat="44.5455" lon="6.13316">
        <ele>942</ele>
        <time>2016-07-15T13:40:13.000Z</time>
      </trkpt>
      <trkpt lat="44.54554" lon="6.13341">
        <ele>941.79998779297</ele>
        <time>2016-07-15T13:40:25.000Z</time>
      </trkpt>
      <trkpt lat="44.54553" lon="6.13347">
        <ele>941.20001220703</ele>
        <time>2016-07-15T13:40:31.000Z</time>
      </trkpt>
      <trkpt lat="44.54552" lon="6.13347">
        <ele>941</ele>
        <time>2016-07-15T13:40:41.000Z</time>
      </trkpt>
      <trkpt lat="44.54551" lon="6.13347">
        <ele>940.79998779297</ele>
        <time>2016-07-15T13:40:50.000Z</time>
      </trkpt>
      <trkpt lat="44.54548" lon="6.13347">
        <ele>940.40002441406</ele>
        <time>2016-07-15T13:41:15.000Z</time>
      </trkpt>
      <trkpt lat="44.54549" lon="6.13346">
        <ele>940.59997558594</ele>
        <time>2016-07-15T13:41:20.000Z</time>
      </trkpt>
      <trkpt lat="44.5455" lon="6.13347">
        <ele>940.79998779297</ele>
        <time>2016-07-15T13:41:28.000Z</time>
      </trkpt>
      <trkpt lat="44.54553" lon="6.1335">
        <ele>941</ele>
        <time>2016-07-15T13:41:44.000Z</time>
      </trkpt>
      <trkpt lat="44.54554" lon="6.13351">
        <ele>941</ele>
        <time>2016-07-15T13:41:45.000Z</time>
      </trkpt>
      <trkpt lat="44.54554" lon="6.13357">
        <ele>940.79998779297</ele>
        <time>2016-07-15T13:41:49.000Z</time>
      </trkpt>
      <trkpt lat="44.54557" lon="6.13372">
        <ele>940.40002441406</ele>
        <time>2016-07-15T13:41:58.000Z</time>
      </trkpt>
      <trkpt lat="44.54559" lon="6.13386">
        <ele>940</ele>
        <time>2016-07-15T13:42:07.000Z</time>
      </trkpt>
      <trkpt lat="44.54561" lon="6.13399">
        <ele>939.20001220703</ele>
        <time>2016-07-15T13:42:15.000Z</time>
      </trkpt>
      <trkpt lat="44.54563" lon="6.13412">
        <ele>938</ele>
        <time>2016-07-15T13:42:23.000Z</time>
      </trkpt>
      <trkpt lat="44.54567" lon="6.13428">
        <ele>937</ele>
        <time>2016-07-15T13:42:33.000Z</time>
      </trkpt>
      <trkpt lat="44.54571" lon="6.13439">
        <ele>936.59997558594</ele>
        <time>2016-07-15T13:42:41.000Z</time>
      </trkpt>
      <trkpt lat="44.54574" lon="6.13453">
        <ele>936</ele>
        <time>2016-07-15T13:42:50.000Z</time>
      </trkpt>
      <trkpt lat="44.54574" lon="6.1346">
        <ele>935.59997558594</ele>
        <time>2016-07-15T13:42:55.000Z</time>
      </trkpt>
      <trkpt lat="44.54575" lon="6.13467">
        <ele>935</ele>
        <time>2016-07-15T13:43:02.000Z</time>
      </trkpt>
      <trkpt lat="44.54577" lon="6.13483">
        <ele>933.59997558594</ele>
        <time>2016-07-15T13:43:12.000Z</time>
      </trkpt>
      <trkpt lat="44.5458" lon="6.13495">
        <ele>931.79998779297</ele>
        <time>2016-07-15T13:43:19.000Z</time>
      </trkpt>
      <trkpt lat="44.54582" lon="6.13506">
        <ele>929.79998779297</ele>
        <time>2016-07-15T13:43:26.000Z</time>
      </trkpt>
      <trkpt lat="44.54583" lon="6.13515">
        <ele>928.20001220703</ele>
        <time>2016-07-15T13:43:32.000Z</time>
      </trkpt>
      <trkpt lat="44.54583" lon="6.13526">
        <ele>926.20001220703</ele>
        <time>2016-07-15T13:43:39.000Z</time>
      </trkpt>
      <trkpt lat="44.54585" lon="6.13536">
        <ele>926.20001220703</ele>
        <time>2016-07-15T13:43:46.000Z</time>
      </trkpt>
      <trkpt lat="44.54588" lon="6.13546">
        <ele>926.20001220703</ele>
        <time>2016-07-15T13:43:53.000Z</time>
      </trkpt>
      <trkpt lat="44.54591" lon="6.13552">
        <ele>926.20001220703</ele>
        <time>2016-07-15T13:43:59.000Z</time>
      </trkpt>
      <trkpt lat="44.54591" lon="6.13551">
        <ele>926.20001220703</ele>
        <time>2016-07-15T13:44:03.000Z</time>
      </trkpt>
      <trkpt lat="44.54593" lon="6.13553">
        <ele>926.20001220703</ele>
        <time>2016-07-15T13:44:08.000Z</time>
      </trkpt>
      <trkpt lat="44.54595" lon="6.13562">
        <ele>926.20001220703</ele>
        <time>2016-07-15T13:44:15.000Z</time>
      </trkpt>
      <trkpt lat="44.54596" lon="6.13564">
        <ele>926.20001220703</ele>
        <time>2016-07-15T13:44:16.000Z</time>
      </trkpt>
      <trkpt lat="44.54598" lon="6.13568">
        <ele>926.20001220703</ele>
        <time>2016-07-15T13:44:20.000Z</time>
      </trkpt>
      <trkpt lat="44.546" lon="6.13571">
        <ele>926</ele>
        <time>2016-07-15T13:44:22.000Z</time>
      </trkpt>
      <trkpt lat="44.54605" lon="6.13575">
        <ele>925.79998779297</ele>
        <time>2016-07-15T13:44:28.000Z</time>
      </trkpt>
      <trkpt lat="44.54608" lon="6.13578">
        <ele>925.59997558594</ele>
        <time>2016-07-15T13:44:32.000Z</time>
      </trkpt>
      <trkpt lat="44.5461" lon="6.13579">
        <ele>925.40002441406</ele>
        <time>2016-07-15T13:44:34.000Z</time>
      </trkpt>
      <trkpt lat="44.54614" lon="6.13583">
        <ele>925</ele>
        <time>2016-07-15T13:44:39.000Z</time>
      </trkpt>
      <trkpt lat="44.54616" lon="6.13585">
        <ele>925</ele>
        <time>2016-07-15T13:44:41.000Z</time>
      </trkpt>
      <trkpt lat="44.54625" lon="6.13588">
        <ele>923.40002441406</ele>
        <time>2016-07-15T13:44:49.000Z</time>
      </trkpt>
      <trkpt lat="44.54626" lon="6.13589">
        <ele>923.20001220703</ele>
        <time>2016-07-15T13:44:50.000Z</time>
      </trkpt>
      <trkpt lat="44.54629" lon="6.13591">
        <ele>922.59997558594</ele>
        <time>2016-07-15T13:44:53.000Z</time>
      </trkpt>
      <trkpt lat="44.54638" lon="6.13595">
        <ele>921</ele>
        <time>2016-07-15T13:45:00.000Z</time>
      </trkpt>
      <trkpt lat="44.5464" lon="6.13596">
        <ele>920.79998779297</ele>
        <time>2016-07-15T13:45:01.000Z</time>
      </trkpt>
      <trkpt lat="44.54649" lon="6.13599">
        <ele>919</ele>
        <time>2016-07-15T13:45:09.000Z</time>
      </trkpt>
      <trkpt lat="44.5465" lon="6.13599">
        <ele>918.79998779297</ele>
        <time>2016-07-15T13:45:10.000Z</time>
      </trkpt>
      <trkpt lat="44.54659" lon="6.13603">
        <ele>917</ele>
        <time>2016-07-15T13:45:18.000Z</time>
      </trkpt>
      <trkpt lat="44.54669" lon="6.13611">
        <ele>915.40002441406</ele>
        <time>2016-07-15T13:45:25.000Z</time>
      </trkpt>
      <trkpt lat="44.54678" lon="6.13617">
        <ele>914</ele>
        <time>2016-07-15T13:45:31.000Z</time>
      </trkpt>
      <trkpt lat="44.54686" lon="6.13623">
        <ele>913</ele>
        <time>2016-07-15T13:45:37.000Z</time>
      </trkpt>
      <trkpt lat="44.54688" lon="6.13625">
        <ele>912.59997558594</ele>
        <time>2016-07-15T13:45:39.000Z</time>
      </trkpt>
      <trkpt lat="44.54695" lon="6.13631">
        <ele>911.40002441406</ele>
        <time>2016-07-15T13:45:46.000Z</time>
      </trkpt>
      <trkpt lat="44.54702" lon="6.13637">
        <ele>910.59997558594</ele>
        <time>2016-07-15T13:45:53.000Z</time>
      </trkpt>
      <trkpt lat="44.54703" lon="6.13638">
        <ele>910.59997558594</ele>
        <time>2016-07-15T13:45:54.000Z</time>
      </trkpt>
      <trkpt lat="44.54705" lon="6.13639">
        <ele>910.79998779297</ele>
        <time>2016-07-15T13:46:03.000Z</time>
      </trkpt>
      <trkpt lat="44.54708" lon="6.13638">
        <ele>911.20001220703</ele>
        <time>2016-07-15T13:46:08.000Z</time>
      </trkpt>
      <trkpt lat="44.54713" lon="6.13637">
        <ele>911.79998779297</ele>
        <time>2016-07-15T13:46:12.000Z</time>
      </trkpt>
      <trkpt lat="44.54725" lon="6.13631">
        <ele>913.20001220703</ele>
        <time>2016-07-15T13:46:22.000Z</time>
      </trkpt>
      <trkpt lat="44.54737" lon="6.13625">
        <ele>914.79998779297</ele>
        <time>2016-07-15T13:46:31.000Z</time>
      </trkpt>
      <trkpt lat="44.54745" lon="6.13619">
        <ele>916</ele>
        <time>2016-07-15T13:46:38.000Z</time>
      </trkpt>
      <trkpt lat="44.54755" lon="6.13605">
        <ele>916.20001220703</ele>
        <time>2016-07-15T13:46:48.000Z</time>
      </trkpt>
      <trkpt lat="44.54768" lon="6.13586">
        <ele>913.20001220703</ele>
        <time>2016-07-15T13:47:01.000Z</time>
      </trkpt>
      <trkpt lat="44.54772" lon="6.1358">
        <ele>912.20001220703</ele>
        <time>2016-07-15T13:47:05.000Z</time>
      </trkpt>
      <trkpt lat="44.54777" lon="6.13573">
        <ele>911</ele>
        <time>2016-07-15T13:47:10.000Z</time>
      </trkpt>
      <trkpt lat="44.54783" lon="6.13566">
        <ele>909.59997558594</ele>
        <time>2016-07-15T13:47:15.000Z</time>
      </trkpt>
      <trkpt lat="44.54793" lon="6.13557">
        <ele>910</ele>
        <time>2016-07-15T13:47:24.000Z</time>
      </trkpt>
      <trkpt lat="44.548" lon="6.13553">
        <ele>910.59997558594</ele>
        <time>2016-07-15T13:47:30.000Z</time>
      </trkpt>
      <trkpt lat="44.54807" lon="6.13546">
        <ele>911.40002441406</ele>
        <time>2016-07-15T13:47:37.000Z</time>
      </trkpt>
      <trkpt lat="44.54818" lon="6.13538">
        <ele>912.59997558594</ele>
        <time>2016-07-15T13:47:45.000Z</time>
      </trkpt>
      <trkpt lat="44.5483" lon="6.13535">
        <ele>914</ele>
        <time>2016-07-15T13:47:52.000Z</time>
      </trkpt>
      <trkpt lat="44.54844" lon="6.13535">
        <ele>915.20001220703</ele>
        <time>2016-07-15T13:48:01.000Z</time>
      </trkpt>
      <trkpt lat="44.54857" lon="6.13535">
        <ele>915.40002441406</ele>
        <time>2016-07-15T13:48:10.000Z</time>
      </trkpt>
      <trkpt lat="44.54876" lon="6.13534">
        <ele>915.79998779297</ele>
        <time>2016-07-15T13:48:22.000Z</time>
      </trkpt>
      <trkpt lat="44.54892" lon="6.13533">
        <ele>916.20001220703</ele>
        <time>2016-07-15T13:48:32.000Z</time>
      </trkpt>
      <trkpt lat="44.54909" lon="6.13536">
        <ele>917.20001220703</ele>
        <time>2016-07-15T13:48:44.000Z</time>
      </trkpt>
      <trkpt lat="44.54924" lon="6.13539">
        <ele>918</ele>
        <time>2016-07-15T13:48:54.000Z</time>
      </trkpt>
      <trkpt lat="44.54937" lon="6.13543">
        <ele>918.79998779297</ele>
        <time>2016-07-15T13:49:03.000Z</time>
      </trkpt>
      <trkpt lat="44.54952" lon="6.13547">
        <ele>919.59997558594</ele>
        <time>2016-07-15T13:49:14.000Z</time>
      </trkpt>
      <trkpt lat="44.54964" lon="6.13552">
        <ele>919.40002441406</ele>
        <time>2016-07-15T13:49:22.000Z</time>
      </trkpt>
      <trkpt lat="44.54979" lon="6.1356">
        <ele>919.59997558594</ele>
        <time>2016-07-15T13:49:33.000Z</time>
      </trkpt>
      <trkpt lat="44.54991" lon="6.13568">
        <ele>919.79998779297</ele>
        <time>2016-07-15T13:49:42.000Z</time>
      </trkpt>
      <trkpt lat="44.55007" lon="6.13579">
        <ele>920.20001220703</ele>
        <time>2016-07-15T13:49:54.000Z</time>
      </trkpt>
      <trkpt lat="44.55021" lon="6.13587">
        <ele>920.59997558594</ele>
        <time>2016-07-15T13:50:04.000Z</time>
      </trkpt>
      <trkpt lat="44.55032" lon="6.13594">
        <ele>920.79998779297</ele>
        <time>2016-07-15T13:50:12.000Z</time>
      </trkpt>
      <trkpt lat="44.55044" lon="6.13602">
        <ele>920.20001220703</ele>
        <time>2016-07-15T13:50:21.000Z</time>
      </trkpt>
      <trkpt lat="44.55054" lon="6.13609">
        <ele>919.79998779297</ele>
        <time>2016-07-15T13:50:28.000Z</time>
      </trkpt>
      <trkpt lat="44.55065" lon="6.13619">
        <ele>919.59997558594</ele>
        <time>2016-07-15T13:50:37.000Z</time>
      </trkpt>
      <trkpt lat="44.55077" lon="6.13631">
        <ele>919.40002441406</ele>
        <time>2016-07-15T13:50:47.000Z</time>
      </trkpt>
      <trkpt lat="44.55088" lon="6.13642">
        <ele>919.40002441406</ele>
        <time>2016-07-15T13:50:56.000Z</time>
      </trkpt>
      <trkpt lat="44.55096" lon="6.13653">
        <ele>919.40002441406</ele>
        <time>2016-07-15T13:51:04.000Z</time>
      </trkpt>
      <trkpt lat="44.55102" lon="6.13659">
        <ele>919</ele>
        <time>2016-07-15T13:51:09.000Z</time>
      </trkpt>
      <trkpt lat="44.55112" lon="6.13669">
        <ele>918.40002441406</ele>
        <time>2016-07-15T13:51:17.000Z</time>
      </trkpt>
      <trkpt lat="44.55123" lon="6.1368">
        <ele>917.59997558594</ele>
        <time>2016-07-15T13:51:26.000Z</time>
      </trkpt>
      <trkpt lat="44.55138" lon="6.13693">
        <ele>916</ele>
        <time>2016-07-15T13:51:37.000Z</time>
      </trkpt>
      <trkpt lat="44.55149" lon="6.13704">
        <ele>914.59997558594</ele>
        <time>2016-07-15T13:51:45.000Z</time>
      </trkpt>
      <trkpt lat="44.55158" lon="6.13714">
        <ele>913.79998779297</ele>
        <time>2016-07-15T13:51:52.000Z</time>
      </trkpt>
      <trkpt lat="44.55169" lon="6.13724">
        <ele>912.59997558594</ele>
        <time>2016-07-15T13:52:00.000Z</time>
      </trkpt>
      <trkpt lat="44.55183" lon="6.13735">
        <ele>911</ele>
        <time>2016-07-15T13:52:11.000Z</time>
      </trkpt>
      <trkpt lat="44.55195" lon="6.13744">
        <ele>910.20001220703</ele>
        <time>2016-07-15T13:52:20.000Z</time>
      </trkpt>
      <trkpt lat="44.55212" lon="6.13756">
        <ele>909</ele>
        <time>2016-07-15T13:52:32.000Z</time>
      </trkpt>
      <trkpt lat="44.55226" lon="6.13767">
        <ele>908.20001220703</ele>
        <time>2016-07-15T13:52:42.000Z</time>
      </trkpt>
      <trkpt lat="44.5523" lon="6.1377">
        <ele>907.79998779297</ele>
        <time>2016-07-15T13:52:49.000Z</time>
      </trkpt>
      <trkpt lat="44.55236" lon="6.13772">
        <ele>907.40002441406</ele>
        <time>2016-07-15T13:52:58.000Z</time>
      </trkpt>
      <trkpt lat="44.55249" lon="6.13778">
        <ele>906.20001220703</ele>
        <time>2016-07-15T13:53:07.000Z</time>
      </trkpt>
      <trkpt lat="44.55266" lon="6.13782">
        <ele>904.59997558594</ele>
        <time>2016-07-15T13:53:19.000Z</time>
      </trkpt>
      <trkpt lat="44.5528" lon="6.13786">
        <ele>903.40002441406</ele>
        <time>2016-07-15T13:53:29.000Z</time>
      </trkpt>
      <trkpt lat="44.55308" lon="6.13784">
        <ele>901.59997558594</ele>
        <time>2016-07-15T13:53:48.000Z</time>
      </trkpt>
      <trkpt lat="44.55324" lon="6.13783">
        <ele>900.79998779297</ele>
        <time>2016-07-15T13:53:59.000Z</time>
      </trkpt>
      <trkpt lat="44.5534" lon="6.13781">
        <ele>899.79998779297</ele>
        <time>2016-07-15T13:54:10.000Z</time>
      </trkpt>
      <trkpt lat="44.55355" lon="6.13781">
        <ele>899.59997558594</ele>
        <time>2016-07-15T13:54:20.000Z</time>
      </trkpt>
      <trkpt lat="44.55367" lon="6.13781">
        <ele>899.20001220703</ele>
        <time>2016-07-15T13:54:28.000Z</time>
      </trkpt>
      <trkpt lat="44.55378" lon="6.13784">
        <ele>899.20001220703</ele>
        <time>2016-07-15T13:54:37.000Z</time>
      </trkpt>
      <trkpt lat="44.5539" lon="6.13787">
        <ele>899</ele>
        <time>2016-07-15T13:54:46.000Z</time>
      </trkpt>
      <trkpt lat="44.55398" lon="6.13791">
        <ele>899.20001220703</ele>
        <time>2016-07-15T13:54:53.000Z</time>
      </trkpt>
      <trkpt lat="44.5541" lon="6.13798">
        <ele>899.20001220703</ele>
        <time>2016-07-15T13:55:01.000Z</time>
      </trkpt>
      <trkpt lat="44.55422" lon="6.13806">
        <ele>899.40002441406</ele>
        <time>2016-07-15T13:55:10.000Z</time>
      </trkpt>
      <trkpt lat="44.55426" lon="6.13808">
        <ele>899.40002441406</ele>
        <time>2016-07-15T13:55:16.000Z</time>
      </trkpt>
      <trkpt lat="44.55432" lon="6.1381">
        <ele>899.40002441406</ele>
        <time>2016-07-15T13:55:26.000Z</time>
      </trkpt>
      <trkpt lat="44.55442" lon="6.13817">
        <ele>899.59997558594</ele>
        <time>2016-07-15T13:55:34.000Z</time>
      </trkpt>
      <trkpt lat="44.5545" lon="6.13824">
        <ele>899.79998779297</ele>
        <time>2016-07-15T13:55:42.000Z</time>
      </trkpt>
      <trkpt lat="44.5546" lon="6.1383">
        <ele>899.40002441406</ele>
        <time>2016-07-15T13:55:50.000Z</time>
      </trkpt>
      <trkpt lat="44.5547" lon="6.13841">
        <ele>899.20001220703</ele>
        <time>2016-07-15T13:55:58.000Z</time>
      </trkpt>
      <trkpt lat="44.5548" lon="6.13854">
        <ele>899.20001220703</ele>
        <time>2016-07-15T13:56:07.000Z</time>
      </trkpt>
      <trkpt lat="44.55488" lon="6.13866">
        <ele>899.20001220703</ele>
        <time>2016-07-15T13:56:15.000Z</time>
      </trkpt>
      <trkpt lat="44.55498" lon="6.13877">
        <ele>899</ele>
        <time>2016-07-15T13:56:24.000Z</time>
      </trkpt>
      <trkpt lat="44.55508" lon="6.13887">
        <ele>898.79998779297</ele>
        <time>2016-07-15T13:56:33.000Z</time>
      </trkpt>
      <trkpt lat="44.55518" lon="6.13895">
        <ele>898.40002441406</ele>
        <time>2016-07-15T13:56:41.000Z</time>
      </trkpt>
      <trkpt lat="44.55529" lon="6.13904">
        <ele>898</ele>
        <time>2016-07-15T13:56:50.000Z</time>
      </trkpt>
      <trkpt lat="44.55539" lon="6.13912">
        <ele>898</ele>
        <time>2016-07-15T13:56:58.000Z</time>
      </trkpt>
      <trkpt lat="44.55544" lon="6.13917">
        <ele>898.20001220703</ele>
        <time>2016-07-15T13:57:03.000Z</time>
      </trkpt>
      <trkpt lat="44.55546" lon="6.13921">
        <ele>898.40002441406</ele>
        <time>2016-07-15T13:57:05.000Z</time>
      </trkpt>
      <trkpt lat="44.55556" lon="6.13933">
        <ele>898.79998779297</ele>
        <time>2016-07-15T13:57:14.000Z</time>
      </trkpt>
      <trkpt lat="44.55566" lon="6.13945">
        <ele>899.20001220703</ele>
        <time>2016-07-15T13:57:23.000Z</time>
      </trkpt>
      <trkpt lat="44.55573" lon="6.1395">
        <ele>899.40002441406</ele>
        <time>2016-07-15T13:57:29.000Z</time>
      </trkpt>
      <trkpt lat="44.55578" lon="6.13954">
        <ele>899.59997558594</ele>
        <time>2016-07-15T13:57:33.000Z</time>
      </trkpt>
      <trkpt lat="44.5558" lon="6.13957">
        <ele>899.59997558594</ele>
        <time>2016-07-15T13:57:35.000Z</time>
      </trkpt>
      <trkpt lat="44.55596" lon="6.13972">
        <ele>900.20001220703</ele>
        <time>2016-07-15T13:57:46.000Z</time>
      </trkpt>
      <trkpt lat="44.55609" lon="6.13988">
        <ele>900.20001220703</ele>
        <time>2016-07-15T13:57:57.000Z</time>
      </trkpt>
      <trkpt lat="44.55628" lon="6.14003">
        <ele>899.79998779297</ele>
        <time>2016-07-15T13:58:12.000Z</time>
      </trkpt>
      <trkpt lat="44.5564" lon="6.14009">
        <ele>899.79998779297</ele>
        <time>2016-07-15T13:58:21.000Z</time>
      </trkpt>
      <trkpt lat="44.55648" lon="6.14019">
        <ele>899.59997558594</ele>
        <time>2016-07-15T13:58:28.000Z</time>
      </trkpt>
      <trkpt lat="44.55659" lon="6.14029">
        <ele>899.59997558594</ele>
        <time>2016-07-15T13:58:37.000Z</time>
      </trkpt>
      <trkpt lat="44.5568" lon="6.14047">
        <ele>899.20001220703</ele>
        <time>2016-07-15T13:58:55.000Z</time>
      </trkpt>
      <trkpt lat="44.55688" lon="6.14052">
        <ele>899.20001220703</ele>
        <time>2016-07-15T13:59:01.000Z</time>
      </trkpt>
      <trkpt lat="44.557" lon="6.14062">
        <ele>899.20001220703</ele>
        <time>2016-07-15T13:59:10.000Z</time>
      </trkpt>
      <trkpt lat="44.55716" lon="6.14075">
        <ele>898.40002441406</ele>
        <time>2016-07-15T13:59:22.000Z</time>
      </trkpt>
      <trkpt lat="44.55725" lon="6.14085">
        <ele>898.20001220703</ele>
        <time>2016-07-15T13:59:29.000Z</time>
      </trkpt>
      <trkpt lat="44.55724" lon="6.14091">
        <ele>898.79998779297</ele>
        <time>2016-07-15T13:59:33.000Z</time>
      </trkpt>
      <trkpt lat="44.55723" lon="6.14094">
        <ele>899</ele>
        <time>2016-07-15T13:59:38.000Z</time>
      </trkpt>
      <trkpt lat="44.55723" lon="6.14093">
        <ele>899</ele>
        <time>2016-07-15T13:59:41.000Z</time>
      </trkpt>
      <trkpt lat="44.55724" lon="6.14094">
        <ele>899</ele>
        <time>2016-07-15T13:59:46.000Z</time>
      </trkpt>
      <trkpt lat="44.55724" lon="6.14095">
        <ele>899</ele>
        <time>2016-07-15T13:59:54.000Z</time>
      </trkpt>
      <trkpt lat="44.55723" lon="6.14093">
        <ele>899</ele>
        <time>2016-07-15T14:00:02.000Z</time>
      </trkpt>
      <trkpt lat="44.5572" lon="6.1409">
        <ele>899</ele>
        <time>2016-07-15T14:00:07.000Z</time>
      </trkpt>
      <trkpt lat="44.55717" lon="6.14088">
        <ele>899.20001220703</ele>
        <time>2016-07-15T14:00:12.000Z</time>
      </trkpt>
      <trkpt lat="44.55723" lon="6.14091">
        <ele>898.79998779297</ele>
        <time>2016-07-15T14:06:13.000Z</time>
      </trkpt>
      <trkpt lat="44.55723" lon="6.14093">
        <ele>899</ele>
        <time>2016-07-15T14:06:21.000Z</time>
      </trkpt>
      <trkpt lat="44.55724" lon="6.14094">
        <ele>899</ele>
        <time>2016-07-15T14:06:34.000Z</time>
      </trkpt>
      <trkpt lat="44.55728" lon="6.14091">
        <ele>898.20001220703</ele>
        <time>2016-07-15T14:06:43.000Z</time>
      </trkpt>
      <trkpt lat="44.5573" lon="6.1409">
        <ele>898</ele>
        <time>2016-07-15T14:06:44.000Z</time>
      </trkpt>
      <trkpt lat="44.55739" lon="6.14099">
        <ele>897.59997558594</ele>
        <time>2016-07-15T14:06:52.000Z</time>
      </trkpt>
      <trkpt lat="44.55747" lon="6.14111">
        <ele>897.59997558594</ele>
        <time>2016-07-15T14:07:00.000Z</time>
      </trkpt>
      <trkpt lat="44.55757" lon="6.14126">
        <ele>897.59997558594</ele>
        <time>2016-07-15T14:07:10.000Z</time>
      </trkpt>
      <trkpt lat="44.55764" lon="6.14138">
        <ele>897.59997558594</ele>
        <time>2016-07-15T14:07:18.000Z</time>
      </trkpt>
      <trkpt lat="44.55775" lon="6.14154">
        <ele>897.79998779297</ele>
        <time>2016-07-15T14:07:29.000Z</time>
      </trkpt>
      <trkpt lat="44.55781" lon="6.14164">
        <ele>898</ele>
        <time>2016-07-15T14:07:36.000Z</time>
      </trkpt>
      <trkpt lat="44.55789" lon="6.14178">
        <ele>898.40002441406</ele>
        <time>2016-07-15T14:07:45.000Z</time>
      </trkpt>
      <trkpt lat="44.55798" lon="6.14194">
        <ele>898.59997558594</ele>
        <time>2016-07-15T14:07:55.000Z</time>
      </trkpt>
      <trkpt lat="44.55816" lon="6.14224">
        <ele>899</ele>
        <time>2016-07-15T14:08:15.000Z</time>
      </trkpt>
      <trkpt lat="44.55819" lon="6.14227">
        <ele>898.79998779297</ele>
        <time>2016-07-15T14:08:20.000Z</time>
      </trkpt>
      <trkpt lat="44.55822" lon="6.14233">
        <ele>898.59997558594</ele>
        <time>2016-07-15T14:08:41.000Z</time>
      </trkpt>
      <trkpt lat="44.55829" lon="6.14247">
        <ele>898.40002441406</ele>
        <time>2016-07-15T14:08:50.000Z</time>
      </trkpt>
      <trkpt lat="44.55833" lon="6.14255">
        <ele>898.20001220703</ele>
        <time>2016-07-15T14:08:55.000Z</time>
      </trkpt>
      <trkpt lat="44.55848" lon="6.1428">
        <ele>897.20001220703</ele>
        <time>2016-07-15T14:09:12.000Z</time>
      </trkpt>
      <trkpt lat="44.5586" lon="6.14301">
        <ele>896.40002441406</ele>
        <time>2016-07-15T14:09:25.000Z</time>
      </trkpt>
      <trkpt lat="44.5587" lon="6.14313">
        <ele>896</ele>
        <time>2016-07-15T14:09:34.000Z</time>
      </trkpt>
      <trkpt lat="44.55876" lon="6.14319">
        <ele>895.79998779297</ele>
        <time>2016-07-15T14:09:40.000Z</time>
      </trkpt>
      <trkpt lat="44.55882" lon="6.14325">
        <ele>895.79998779297</ele>
        <time>2016-07-15T14:09:45.000Z</time>
      </trkpt>
      <trkpt lat="44.55896" lon="6.14341">
        <ele>895.79998779297</ele>
        <time>2016-07-15T14:09:57.000Z</time>
      </trkpt>
      <trkpt lat="44.55905" lon="6.14355">
        <ele>895.79998779297</ele>
        <time>2016-07-15T14:10:05.000Z</time>
      </trkpt>
      <trkpt lat="44.55913" lon="6.14365">
        <ele>895.79998779297</ele>
        <time>2016-07-15T14:10:13.000Z</time>
      </trkpt>
      <trkpt lat="44.55917" lon="6.14367">
        <ele>895.79998779297</ele>
        <time>2016-07-15T14:10:19.000Z</time>
      </trkpt>
      <trkpt lat="44.55921" lon="6.14372">
        <ele>895.79998779297</ele>
        <time>2016-07-15T14:10:40.000Z</time>
      </trkpt>
      <trkpt lat="44.5593" lon="6.1438">
        <ele>895.59997558594</ele>
        <time>2016-07-15T14:10:48.000Z</time>
      </trkpt>
      <trkpt lat="44.55941" lon="6.1439">
        <ele>895.40002441406</ele>
        <time>2016-07-15T14:10:57.000Z</time>
      </trkpt>
      <trkpt lat="44.55953" lon="6.14399">
        <ele>895.20001220703</ele>
        <time>2016-07-15T14:11:07.000Z</time>
      </trkpt>
      <trkpt lat="44.55962" lon="6.14406">
        <ele>895.40002441406</ele>
        <time>2016-07-15T14:11:15.000Z</time>
      </trkpt>
      <trkpt lat="44.55968" lon="6.14412">
        <ele>895.40002441406</ele>
        <time>2016-07-15T14:11:22.000Z</time>
      </trkpt>
      <trkpt lat="44.55978" lon="6.14421">
        <ele>895.59997558594</ele>
        <time>2016-07-15T14:11:31.000Z</time>
      </trkpt>
      <trkpt lat="44.5599" lon="6.14429">
        <ele>895.79998779297</ele>
        <time>2016-07-15T14:11:41.000Z</time>
      </trkpt>
      <trkpt lat="44.56002" lon="6.14434">
        <ele>895.79998779297</ele>
        <time>2016-07-15T14:11:51.000Z</time>
      </trkpt>
      <trkpt lat="44.56032" lon="6.14448">
        <ele>896</ele>
        <time>2016-07-15T14:12:10.000Z</time>
      </trkpt>
      <trkpt lat="44.56052" lon="6.14457">
        <ele>896.59997558594</ele>
        <time>2016-07-15T14:12:15.000Z</time>
      </trkpt>
      <trkpt lat="44.56071" lon="6.14468">
        <ele>897.59997558594</ele>
        <time>2016-07-15T14:12:21.000Z</time>
      </trkpt>
      <trkpt lat="44.56089" lon="6.14478">
        <ele>898.40002441406</ele>
        <time>2016-07-15T14:12:27.000Z</time>
      </trkpt>
      <trkpt lat="44.56108" lon="6.14488">
        <ele>899.20001220703</ele>
        <time>2016-07-15T14:12:33.000Z</time>
      </trkpt>
      <trkpt lat="44.56125" lon="6.14498">
        <ele>900</ele>
        <time>2016-07-15T14:12:38.000Z</time>
      </trkpt>
      <trkpt lat="44.56143" lon="6.14508">
        <ele>901.40002441406</ele>
        <time>2016-07-15T14:12:44.000Z</time>
      </trkpt>
      <trkpt lat="44.5616" lon="6.14516">
        <ele>902.40002441406</ele>
        <time>2016-07-15T14:12:50.000Z</time>
      </trkpt>
      <trkpt lat="44.5618" lon="6.14524">
        <ele>903.20001220703</ele>
        <time>2016-07-15T14:12:56.000Z</time>
      </trkpt>
      <trkpt lat="44.56199" lon="6.14523">
        <ele>903.59997558594</ele>
        <time>2016-07-15T14:13:02.000Z</time>
      </trkpt>
      <trkpt lat="44.5622" lon="6.14521">
        <ele>904</ele>
        <time>2016-07-15T14:13:10.000Z</time>
      </trkpt>
      <trkpt lat="44.56237" lon="6.14519">
        <ele>904.40002441406</ele>
        <time>2016-07-15T14:13:16.000Z</time>
      </trkpt>
      <trkpt lat="44.56248" lon="6.14514">
        <ele>904.59997558594</ele>
        <time>2016-07-15T14:13:23.000Z</time>
      </trkpt>
      <trkpt lat="44.56257" lon="6.1451">
        <ele>904.79998779297</ele>
        <time>2016-07-15T14:13:30.000Z</time>
      </trkpt>
      <trkpt lat="44.56266" lon="6.14509">
        <ele>905.20001220703</ele>
        <time>2016-07-15T14:13:36.000Z</time>
      </trkpt>
      <trkpt lat="44.56277" lon="6.14506">
        <ele>905.59997558594</ele>
        <time>2016-07-15T14:13:44.000Z</time>
      </trkpt>
      <trkpt lat="44.56288" lon="6.14505">
        <ele>905.79998779297</ele>
        <time>2016-07-15T14:13:52.000Z</time>
      </trkpt>
      <trkpt lat="44.563" lon="6.1451">
        <ele>905.40002441406</ele>
        <time>2016-07-15T14:14:00.000Z</time>
      </trkpt>
      <trkpt lat="44.56323" lon="6.14548">
        <ele>905.59997558594</ele>
        <time>2016-07-15T14:14:13.000Z</time>
      </trkpt>
      <trkpt lat="44.56333" lon="6.14571">
        <ele>905.79998779297</ele>
        <time>2016-07-15T14:14:20.000Z</time>
      </trkpt>
      <trkpt lat="44.56341" lon="6.14581">
        <ele>905.59997558594</ele>
        <time>2016-07-15T14:14:26.000Z</time>
      </trkpt>
      <trkpt lat="44.56351" lon="6.14595">
        <ele>905.20001220703</ele>
        <time>2016-07-15T14:14:36.000Z</time>
      </trkpt>
      <trkpt lat="44.56358" lon="6.14613">
        <ele>905.20001220703</ele>
        <time>2016-07-15T14:14:46.000Z</time>
      </trkpt>
      <trkpt lat="44.56359" lon="6.14652">
        <ele>905.40002441406</ele>
        <time>2016-07-15T14:15:05.000Z</time>
      </trkpt>
      <trkpt lat="44.56361" lon="6.14665">
        <ele>905.40002441406</ele>
        <time>2016-07-15T14:15:11.000Z</time>
      </trkpt>
      <trkpt lat="44.56364" lon="6.14679">
        <ele>905.59997558594</ele>
        <time>2016-07-15T14:15:18.000Z</time>
      </trkpt>
      <trkpt lat="44.56365" lon="6.14693">
        <ele>905.59997558594</ele>
        <time>2016-07-15T14:15:25.000Z</time>
      </trkpt>
      <trkpt lat="44.5637" lon="6.14702">
        <ele>905.79998779297</ele>
        <time>2016-07-15T14:15:31.000Z</time>
      </trkpt>
      <trkpt lat="44.56376" lon="6.14707">
        <ele>905.79998779297</ele>
        <time>2016-07-15T14:15:37.000Z</time>
      </trkpt>
      <trkpt lat="44.56385" lon="6.14721">
        <ele>906.20001220703</ele>
        <time>2016-07-15T14:15:46.000Z</time>
      </trkpt>
      <trkpt lat="44.56392" lon="6.14734">
        <ele>906.59997558594</ele>
        <time>2016-07-15T14:15:54.000Z</time>
      </trkpt>
      <trkpt lat="44.56401" lon="6.14748">
        <ele>907.20001220703</ele>
        <time>2016-07-15T14:16:04.000Z</time>
      </trkpt>
      <trkpt lat="44.56408" lon="6.14763">
        <ele>907.79998779297</ele>
        <time>2016-07-15T14:16:13.000Z</time>
      </trkpt>
      <trkpt lat="44.56414" lon="6.14776">
        <ele>908.40002441406</ele>
        <time>2016-07-15T14:16:22.000Z</time>
      </trkpt>
      <trkpt lat="44.5642" lon="6.14791">
        <ele>909</ele>
        <time>2016-07-15T14:16:31.000Z</time>
      </trkpt>
      <trkpt lat="44.56423" lon="6.14799">
        <ele>909.40002441406</ele>
        <time>2016-07-15T14:16:36.000Z</time>
      </trkpt>
      <trkpt lat="44.56425" lon="6.14806">
        <ele>909.79998779297</ele>
        <time>2016-07-15T14:16:40.000Z</time>
      </trkpt>
      <trkpt lat="44.56432" lon="6.14821">
        <ele>910.20001220703</ele>
        <time>2016-07-15T14:16:49.000Z</time>
      </trkpt>
      <trkpt lat="44.56447" lon="6.14845">
        <ele>910.79998779297</ele>
        <time>2016-07-15T14:17:06.000Z</time>
      </trkpt>
      <trkpt lat="44.5645" lon="6.14855">
        <ele>911</ele>
        <time>2016-07-15T14:17:12.000Z</time>
      </trkpt>
      <trkpt lat="44.56451" lon="6.14865">
        <ele>911.20001220703</ele>
        <time>2016-07-15T14:17:17.000Z</time>
      </trkpt>
      <trkpt lat="44.56455" lon="6.1488">
        <ele>911</ele>
        <time>2016-07-15T14:17:26.000Z</time>
      </trkpt>
      <trkpt lat="44.56463" lon="6.14888">
        <ele>910.20001220703</ele>
        <time>2016-07-15T14:17:34.000Z</time>
      </trkpt>
      <trkpt lat="44.56464" lon="6.14889">
        <ele>910</ele>
        <time>2016-07-15T14:17:35.000Z</time>
      </trkpt>
      <trkpt lat="44.56465" lon="6.14891">
        <ele>909.79998779297</ele>
        <time>2016-07-15T14:17:37.000Z</time>
      </trkpt>
      <trkpt lat="44.56472" lon="6.14899">
        <ele>909.20001220703</ele>
        <time>2016-07-15T14:17:44.000Z</time>
      </trkpt>
      <trkpt lat="44.56475" lon="6.14903">
        <ele>908.79998779297</ele>
        <time>2016-07-15T14:17:47.000Z</time>
      </trkpt>
      <trkpt lat="44.5648" lon="6.14915">
        <ele>908.20001220703</ele>
        <time>2016-07-15T14:17:55.000Z</time>
      </trkpt>
      <trkpt lat="44.56482" lon="6.14922">
        <ele>908.20001220703</ele>
        <time>2016-07-15T14:18:00.000Z</time>
      </trkpt>
      <trkpt lat="44.56485" lon="6.14929">
        <ele>907.79998779297</ele>
        <time>2016-07-15T14:18:07.000Z</time>
      </trkpt>
      <trkpt lat="44.56488" lon="6.1494">
        <ele>908.40002441406</ele>
        <time>2016-07-15T14:18:22.000Z</time>
      </trkpt>
      <trkpt lat="44.5649" lon="6.14955">
        <ele>909.20001220703</ele>
        <time>2016-07-15T14:18:27.000Z</time>
      </trkpt>
      <trkpt lat="44.56492" lon="6.14966">
        <ele>909.79998779297</ele>
        <time>2016-07-15T14:18:34.000Z</time>
      </trkpt>
      <trkpt lat="44.56495" lon="6.14987">
        <ele>909.79998779297</ele>
        <time>2016-07-15T14:18:42.000Z</time>
      </trkpt>
      <trkpt lat="44.56496" lon="6.15008">
        <ele>909.20001220703</ele>
        <time>2016-07-15T14:18:51.000Z</time>
      </trkpt>
      <trkpt lat="44.56496" lon="6.15023">
        <ele>908.79998779297</ele>
        <time>2016-07-15T14:18:59.000Z</time>
      </trkpt>
      <trkpt lat="44.56504" lon="6.15052">
        <ele>907</ele>
        <time>2016-07-15T14:19:14.000Z</time>
      </trkpt>
      <trkpt lat="44.56505" lon="6.15056">
        <ele>906.79998779297</ele>
        <time>2016-07-15T14:19:16.000Z</time>
      </trkpt>
      <trkpt lat="44.5651" lon="6.15067">
        <ele>905.40002441406</ele>
        <time>2016-07-15T14:19:22.000Z</time>
      </trkpt>
      <trkpt lat="44.56511" lon="6.15069">
        <ele>905.20001220703</ele>
        <time>2016-07-15T14:19:24.000Z</time>
      </trkpt>
      <trkpt lat="44.56515" lon="6.1508">
        <ele>904</ele>
        <time>2016-07-15T14:19:30.000Z</time>
      </trkpt>
      <trkpt lat="44.5652" lon="6.15093">
        <ele>902.59997558594</ele>
        <time>2016-07-15T14:19:38.000Z</time>
      </trkpt>
      <trkpt lat="44.56523" lon="6.15103">
        <ele>901.59997558594</ele>
        <time>2016-07-15T14:19:46.000Z</time>
      </trkpt>
      <trkpt lat="44.56526" lon="6.15115">
        <ele>900.59997558594</ele>
        <time>2016-07-15T14:19:54.000Z</time>
      </trkpt>
      <trkpt lat="44.56531" lon="6.1513">
        <ele>899.20001220703</ele>
        <time>2016-07-15T14:20:02.000Z</time>
      </trkpt>
      <trkpt lat="44.56535" lon="6.15148">
        <ele>897.79998779297</ele>
        <time>2016-07-15T14:20:11.000Z</time>
      </trkpt>
      <trkpt lat="44.56539" lon="6.15165">
        <ele>896.79998779297</ele>
        <time>2016-07-15T14:20:20.000Z</time>
      </trkpt>
      <trkpt lat="44.56542" lon="6.1518">
        <ele>895.79998779297</ele>
        <time>2016-07-15T14:20:27.000Z</time>
      </trkpt>
      <trkpt lat="44.56547" lon="6.15198">
        <ele>894.59997558594</ele>
        <time>2016-07-15T14:20:37.000Z</time>
      </trkpt>
      <trkpt lat="44.56553" lon="6.15207">
        <ele>893.59997558594</ele>
        <time>2016-07-15T14:20:44.000Z</time>
      </trkpt>
      <trkpt lat="44.56561" lon="6.15209">
        <ele>892.59997558594</ele>
        <time>2016-07-15T14:20:50.000Z</time>
      </trkpt>
      <trkpt lat="44.56587" lon="6.1521">
        <ele>889.40002441406</ele>
        <time>2016-07-15T14:21:11.000Z</time>
      </trkpt>
      <trkpt lat="44.56601" lon="6.1521">
        <ele>887.59997558594</ele>
        <time>2016-07-15T14:21:20.000Z</time>
      </trkpt>
      <trkpt lat="44.56614" lon="6.15208">
        <ele>885.59997558594</ele>
        <time>2016-07-15T14:21:30.000Z</time>
      </trkpt>
      <trkpt lat="44.56626" lon="6.15205">
        <ele>884.40002441406</ele>
        <time>2016-07-15T14:21:40.000Z</time>
      </trkpt>
      <trkpt lat="44.56636" lon="6.152">
        <ele>883.79998779297</ele>
        <time>2016-07-15T14:21:47.000Z</time>
      </trkpt>
      <trkpt lat="44.56638" lon="6.15198">
        <ele>883.59997558594</ele>
        <time>2016-07-15T14:21:48.000Z</time>
      </trkpt>
      <trkpt lat="44.56646" lon="6.15191">
        <ele>883</ele>
        <time>2016-07-15T14:21:56.000Z</time>
      </trkpt>
      <trkpt lat="44.56654" lon="6.1518">
        <ele>882.40002441406</ele>
        <time>2016-07-15T14:22:05.000Z</time>
      </trkpt>
      <trkpt lat="44.56658" lon="6.15176">
        <ele>882</ele>
        <time>2016-07-15T14:22:08.000Z</time>
      </trkpt>
      <trkpt lat="44.56661" lon="6.15178">
        <ele>881.79998779297</ele>
        <time>2016-07-15T14:22:11.000Z</time>
      </trkpt>
      <trkpt lat="44.56662" lon="6.15181">
        <ele>881.79998779297</ele>
        <time>2016-07-15T14:22:19.000Z</time>
      </trkpt>
      <trkpt lat="44.56661" lon="6.15183">
        <ele>881.79998779297</ele>
        <time>2016-07-15T14:22:41.000Z</time>
      </trkpt>
      <trkpt lat="44.56664" lon="6.15182">
        <ele>881.59997558594</ele>
        <time>2016-07-15T14:23:20.000Z</time>
      </trkpt>
      <trkpt lat="44.56663" lon="6.15184">
        <ele>881.59997558594</ele>
        <time>2016-07-15T14:23:57.000Z</time>
      </trkpt>
      <trkpt lat="44.56663" lon="6.15192">
        <ele>881.79998779297</ele>
        <time>2016-07-15T14:24:10.000Z</time>
      </trkpt>
      <trkpt lat="44.56662" lon="6.15204">
        <ele>881.79998779297</ele>
        <time>2016-07-15T14:24:17.000Z</time>
      </trkpt>
      <trkpt lat="44.56662" lon="6.15216">
        <ele>881.79998779297</ele>
        <time>2016-07-15T14:24:25.000Z</time>
      </trkpt>
      <trkpt lat="44.56663" lon="6.15226">
        <ele>881.79998779297</ele>
        <time>2016-07-15T14:24:31.000Z</time>
      </trkpt>
      <trkpt lat="44.56663" lon="6.15235">
        <ele>881.59997558594</ele>
        <time>2016-07-15T14:24:36.000Z</time>
      </trkpt>
      <trkpt lat="44.56664" lon="6.15255">
        <ele>881.40002441406</ele>
        <time>2016-07-15T14:24:47.000Z</time>
      </trkpt>
      <trkpt lat="44.56665" lon="6.15271">
        <ele>881.20001220703</ele>
        <time>2016-07-15T14:24:56.000Z</time>
      </trkpt>
      <trkpt lat="44.56665" lon="6.15285">
        <ele>880.79998779297</ele>
        <time>2016-07-15T14:25:04.000Z</time>
      </trkpt>
      <trkpt lat="44.56665" lon="6.15297">
        <ele>880.59997558594</ele>
        <time>2016-07-15T14:25:11.000Z</time>
      </trkpt>
      <trkpt lat="44.56665" lon="6.15308">
        <ele>880.20001220703</ele>
        <time>2016-07-15T14:25:17.000Z</time>
      </trkpt>
      <trkpt lat="44.56665" lon="6.15323">
        <ele>880</ele>
        <time>2016-07-15T14:25:25.000Z</time>
      </trkpt>
      <trkpt lat="44.56665" lon="6.15335">
        <ele>879.79998779297</ele>
        <time>2016-07-15T14:25:32.000Z</time>
      </trkpt>
      <trkpt lat="44.56664" lon="6.1535">
        <ele>879.79998779297</ele>
        <time>2016-07-15T14:25:40.000Z</time>
      </trkpt>
      <trkpt lat="44.56663" lon="6.15363">
        <ele>879.59997558594</ele>
        <time>2016-07-15T14:25:47.000Z</time>
      </trkpt>
      <trkpt lat="44.56663" lon="6.15376">
        <ele>879.20001220703</ele>
        <time>2016-07-15T14:25:55.000Z</time>
      </trkpt>
      <trkpt lat="44.56662" lon="6.15387">
        <ele>879</ele>
        <time>2016-07-15T14:26:01.000Z</time>
      </trkpt>
      <trkpt lat="44.56661" lon="6.15401">
        <ele>878.79998779297</ele>
        <time>2016-07-15T14:26:08.000Z</time>
      </trkpt>
      <trkpt lat="44.56661" lon="6.15407">
        <ele>878.79998779297</ele>
        <time>2016-07-15T14:26:12.000Z</time>
      </trkpt>
      <trkpt lat="44.56662" lon="6.15412">
        <ele>878.59997558594</ele>
        <time>2016-07-15T14:26:16.000Z</time>
      </trkpt>
      <trkpt lat="44.56664" lon="6.15425">
        <ele>878.40002441406</ele>
        <time>2016-07-15T14:26:24.000Z</time>
      </trkpt>
      <trkpt lat="44.56666" lon="6.15439">
        <ele>878.20001220703</ele>
        <time>2016-07-15T14:26:32.000Z</time>
      </trkpt>
      <trkpt lat="44.56669" lon="6.15453">
        <ele>877.79998779297</ele>
        <time>2016-07-15T14:26:41.000Z</time>
      </trkpt>
      <trkpt lat="44.5667" lon="6.15459">
        <ele>877.59997558594</ele>
        <time>2016-07-15T14:26:44.000Z</time>
      </trkpt>
      <trkpt lat="44.56671" lon="6.15468">
        <ele>877.40002441406</ele>
        <time>2016-07-15T14:26:49.000Z</time>
      </trkpt>
      <trkpt lat="44.56671" lon="6.15469">
        <ele>877.20001220703</ele>
        <time>2016-07-15T14:26:50.000Z</time>
      </trkpt>
      <trkpt lat="44.5667" lon="6.15468">
        <ele>877.40002441406</ele>
        <time>2016-07-15T14:26:56.000Z</time>
      </trkpt>
      <trkpt lat="44.56672" lon="6.1548">
        <ele>877</ele>
        <time>2016-07-15T14:27:02.000Z</time>
      </trkpt>
      <trkpt lat="44.56673" lon="6.15494">
        <ele>877.20001220703</ele>
        <time>2016-07-15T14:27:10.000Z</time>
      </trkpt>
      <trkpt lat="44.56674" lon="6.15518">
        <ele>877.40002441406</ele>
        <time>2016-07-15T14:27:22.000Z</time>
      </trkpt>
      <trkpt lat="44.56672" lon="6.15536">
        <ele>877.79998779297</ele>
        <time>2016-07-15T14:27:30.000Z</time>
      </trkpt>
      <trkpt lat="44.5667" lon="6.15554">
        <ele>878</ele>
        <time>2016-07-15T14:27:38.000Z</time>
      </trkpt>
      <trkpt lat="44.5667" lon="6.15575">
        <ele>878.40002441406</ele>
        <time>2016-07-15T14:27:49.000Z</time>
      </trkpt>
      <trkpt lat="44.5667" lon="6.15599">
        <ele>879</ele>
        <time>2016-07-15T14:28:00.000Z</time>
      </trkpt>
      <trkpt lat="44.5667" lon="6.15622">
        <ele>879.40002441406</ele>
        <time>2016-07-15T14:28:10.000Z</time>
      </trkpt>
      <trkpt lat="44.56668" lon="6.1564">
        <ele>879.79998779297</ele>
        <time>2016-07-15T14:28:20.000Z</time>
      </trkpt>
      <trkpt lat="44.56665" lon="6.15656">
        <ele>880.40002441406</ele>
        <time>2016-07-15T14:28:27.000Z</time>
      </trkpt>
      <trkpt lat="44.56661" lon="6.15671">
        <ele>881.20001220703</ele>
        <time>2016-07-15T14:28:36.000Z</time>
      </trkpt>
      <trkpt lat="44.56658" lon="6.15687">
        <ele>882</ele>
        <time>2016-07-15T14:28:44.000Z</time>
      </trkpt>
      <trkpt lat="44.56653" lon="6.15699">
        <ele>882.40002441406</ele>
        <time>2016-07-15T14:28:52.000Z</time>
      </trkpt>
      <trkpt lat="44.56642" lon="6.15724">
        <ele>883</ele>
        <time>2016-07-15T14:29:07.000Z</time>
      </trkpt>
      <trkpt lat="44.56641" lon="6.15726">
        <ele>883</ele>
        <time>2016-07-15T14:29:08.000Z</time>
      </trkpt>
      <trkpt lat="44.56634" lon="6.15746">
        <ele>883.79998779297</ele>
        <time>2016-07-15T14:29:20.000Z</time>
      </trkpt>
      <trkpt lat="44.5663" lon="6.15762">
        <ele>883.59997558594</ele>
        <time>2016-07-15T14:29:29.000Z</time>
      </trkpt>
      <trkpt lat="44.56628" lon="6.15775">
        <ele>883.40002441406</ele>
        <time>2016-07-15T14:29:36.000Z</time>
      </trkpt>
      <trkpt lat="44.56626" lon="6.15788">
        <ele>883.40002441406</ele>
        <time>2016-07-15T14:29:43.000Z</time>
      </trkpt>
      <trkpt lat="44.56625" lon="6.15799">
        <ele>883.40002441406</ele>
        <time>2016-07-15T14:29:49.000Z</time>
      </trkpt>
      <trkpt lat="44.56623" lon="6.15821">
        <ele>883.40002441406</ele>
        <time>2016-07-15T14:30:00.000Z</time>
      </trkpt>
      <trkpt lat="44.56619" lon="6.15843">
        <ele>883.40002441406</ele>
        <time>2016-07-15T14:30:11.000Z</time>
      </trkpt>
      <trkpt lat="44.56614" lon="6.15864">
        <ele>883.79998779297</ele>
        <time>2016-07-15T14:30:22.000Z</time>
      </trkpt>
      <trkpt lat="44.56611" lon="6.15872">
        <ele>884.20001220703</ele>
        <time>2016-07-15T14:30:27.000Z</time>
      </trkpt>
      <trkpt lat="44.5661" lon="6.15881">
        <ele>884.40002441406</ele>
        <time>2016-07-15T14:30:34.000Z</time>
      </trkpt>
      <trkpt lat="44.56606" lon="6.15905">
        <ele>885.20001220703</ele>
        <time>2016-07-15T14:30:46.000Z</time>
      </trkpt>
      <trkpt lat="44.56601" lon="6.15924">
        <ele>886</ele>
        <time>2016-07-15T14:30:56.000Z</time>
      </trkpt>
      <trkpt lat="44.56599" lon="6.15944">
        <ele>886.79998779297</ele>
        <time>2016-07-15T14:31:06.000Z</time>
      </trkpt>
      <trkpt lat="44.56596" lon="6.15964">
        <ele>887.40002441406</ele>
        <time>2016-07-15T14:31:16.000Z</time>
      </trkpt>
      <trkpt lat="44.56595" lon="6.15987">
        <ele>887.40002441406</ele>
        <time>2016-07-15T14:31:27.000Z</time>
      </trkpt>
      <trkpt lat="44.56594" lon="6.16007">
        <ele>887.79998779297</ele>
        <time>2016-07-15T14:31:37.000Z</time>
      </trkpt>
      <trkpt lat="44.56593" lon="6.16012">
        <ele>887.79998779297</ele>
        <time>2016-07-15T14:31:43.000Z</time>
      </trkpt>
      <trkpt lat="44.56593" lon="6.16019">
        <ele>888</ele>
        <time>2016-07-15T14:31:47.000Z</time>
      </trkpt>
      <trkpt lat="44.56591" lon="6.1603">
        <ele>888.20001220703</ele>
        <time>2016-07-15T14:31:54.000Z</time>
      </trkpt>
      <trkpt lat="44.56589" lon="6.16046">
        <ele>889</ele>
        <time>2016-07-15T14:32:02.000Z</time>
      </trkpt>
      <trkpt lat="44.56587" lon="6.16056">
        <ele>889.40002441406</ele>
        <time>2016-07-15T14:32:07.000Z</time>
      </trkpt>
      <trkpt lat="44.56586" lon="6.16064">
        <ele>889.59997558594</ele>
        <time>2016-07-15T14:32:12.000Z</time>
      </trkpt>
      <trkpt lat="44.56584" lon="6.16068">
        <ele>889.59997558594</ele>
        <time>2016-07-15T14:32:18.000Z</time>
      </trkpt>
      <trkpt lat="44.56583" lon="6.16075">
        <ele>889.40002441406</ele>
        <time>2016-07-15T14:32:24.000Z</time>
      </trkpt>
      <trkpt lat="44.56576" lon="6.16095">
        <ele>889.20001220703</ele>
        <time>2016-07-15T14:32:35.000Z</time>
      </trkpt>
      <trkpt lat="44.56569" lon="6.1611">
        <ele>889.20001220703</ele>
        <time>2016-07-15T14:32:44.000Z</time>
      </trkpt>
      <trkpt lat="44.5656" lon="6.16131">
        <ele>888.79998779297</ele>
        <time>2016-07-15T14:32:56.000Z</time>
      </trkpt>
      <trkpt lat="44.56558" lon="6.16135">
        <ele>888.79998779297</ele>
        <time>2016-07-15T14:33:00.000Z</time>
      </trkpt>
      <trkpt lat="44.56558" lon="6.16134">
        <ele>888.79998779297</ele>
        <time>2016-07-15T14:33:07.000Z</time>
      </trkpt>
      <trkpt lat="44.56558" lon="6.16133">
        <ele>888.79998779297</ele>
        <time>2016-07-15T14:33:09.000Z</time>
      </trkpt>
      <trkpt lat="44.56567" lon="6.16134">
        <ele>888.20001220703</ele>
        <time>2016-07-15T14:33:17.000Z</time>
      </trkpt>
      <trkpt lat="44.56575" lon="6.16137">
        <ele>887.40002441406</ele>
        <time>2016-07-15T14:33:25.000Z</time>
      </trkpt>
      <trkpt lat="44.56577" lon="6.16139">
        <ele>887.20001220703</ele>
        <time>2016-07-15T14:33:27.000Z</time>
      </trkpt>
      <trkpt lat="44.56584" lon="6.16138">
        <ele>886.79998779297</ele>
        <time>2016-07-15T14:33:34.000Z</time>
      </trkpt>
      <trkpt lat="44.56593" lon="6.16139">
        <ele>886</ele>
        <time>2016-07-15T14:33:42.000Z</time>
      </trkpt>
      <trkpt lat="44.56598" lon="6.16138">
        <ele>885.59997558594</ele>
        <time>2016-07-15T14:33:49.000Z</time>
      </trkpt>
      <trkpt lat="44.56592" lon="6.16138">
        <ele>886.20001220703</ele>
        <time>2016-07-15T14:34:13.000Z</time>
      </trkpt>
      <trkpt lat="44.56585" lon="6.16138">
        <ele>886.59997558594</ele>
        <time>2016-07-15T14:34:20.000Z</time>
      </trkpt>
      <trkpt lat="44.56576" lon="6.16136">
        <ele>887.40002441406</ele>
        <time>2016-07-15T14:34:28.000Z</time>
      </trkpt>
      <trkpt lat="44.56569" lon="6.16134">
        <ele>888</ele>
        <time>2016-07-15T14:34:35.000Z</time>
      </trkpt>
      <trkpt lat="44.5656" lon="6.16134">
        <ele>888.59997558594</ele>
        <time>2016-07-15T14:34:42.000Z</time>
      </trkpt>
      <trkpt lat="44.56548" lon="6.16141">
        <ele>889.20001220703</ele>
        <time>2016-07-15T14:34:52.000Z</time>
      </trkpt>
      <trkpt lat="44.5654" lon="6.16149">
        <ele>889.40002441406</ele>
        <time>2016-07-15T14:35:00.000Z</time>
      </trkpt>
      <trkpt lat="44.56532" lon="6.16157">
        <ele>889.20001220703</ele>
        <time>2016-07-15T14:35:09.000Z</time>
      </trkpt>
      <trkpt lat="44.56523" lon="6.1617">
        <ele>889.40002441406</ele>
        <time>2016-07-15T14:35:19.000Z</time>
      </trkpt>
      <trkpt lat="44.56515" lon="6.1618">
        <ele>889.59997558594</ele>
        <time>2016-07-15T14:35:27.000Z</time>
      </trkpt>
      <trkpt lat="44.56507" lon="6.16191">
        <ele>889.79998779297</ele>
        <time>2016-07-15T14:35:37.000Z</time>
      </trkpt>
      <trkpt lat="44.56502" lon="6.16197">
        <ele>889.79998779297</ele>
        <time>2016-07-15T14:35:43.000Z</time>
      </trkpt>
      <trkpt lat="44.56495" lon="6.16208">
        <ele>889.59997558594</ele>
        <time>2016-07-15T14:35:51.000Z</time>
      </trkpt>
      <trkpt lat="44.56494" lon="6.16212">
        <ele>889.40002441406</ele>
        <time>2016-07-15T14:35:53.000Z</time>
      </trkpt>
      <trkpt lat="44.56484" lon="6.16228">
        <ele>889</ele>
        <time>2016-07-15T14:36:03.000Z</time>
      </trkpt>
      <trkpt lat="44.56479" lon="6.16236">
        <ele>889</ele>
        <time>2016-07-15T14:36:10.000Z</time>
      </trkpt>
      <trkpt lat="44.5647" lon="6.16247">
        <ele>889</ele>
        <time>2016-07-15T14:36:19.000Z</time>
      </trkpt>
      <trkpt lat="44.56465" lon="6.16258">
        <ele>889</ele>
        <time>2016-07-15T14:36:26.000Z</time>
      </trkpt>
      <trkpt lat="44.56463" lon="6.16265">
        <ele>888.79998779297</ele>
        <time>2016-07-15T14:36:29.000Z</time>
      </trkpt>
      <trkpt lat="44.56457" lon="6.16283">
        <ele>888.20001220703</ele>
        <time>2016-07-15T14:36:39.000Z</time>
      </trkpt>
      <trkpt lat="44.5645" lon="6.16293">
        <ele>888.40002441406</ele>
        <time>2016-07-15T14:36:46.000Z</time>
      </trkpt>
      <trkpt lat="44.56439" lon="6.16314">
        <ele>888</ele>
        <time>2016-07-15T14:36:57.000Z</time>
      </trkpt>
      <trkpt lat="44.56431" lon="6.16325">
        <ele>888</ele>
        <time>2016-07-15T14:37:06.000Z</time>
      </trkpt>
      <trkpt lat="44.56427" lon="6.16334">
        <ele>888</ele>
        <time>2016-07-15T14:37:11.000Z</time>
      </trkpt>
      <trkpt lat="44.56419" lon="6.16351">
        <ele>887.79998779297</ele>
        <time>2016-07-15T14:37:21.000Z</time>
      </trkpt>
      <trkpt lat="44.56418" lon="6.16353">
        <ele>887.59997558594</ele>
        <time>2016-07-15T14:37:22.000Z</time>
      </trkpt>
      <trkpt lat="44.56411" lon="6.16366">
        <ele>888</ele>
        <time>2016-07-15T14:37:30.000Z</time>
      </trkpt>
      <trkpt lat="44.56405" lon="6.16381">
        <ele>888.79998779297</ele>
        <time>2016-07-15T14:37:38.000Z</time>
      </trkpt>
      <trkpt lat="44.564" lon="6.16396">
        <ele>889.40002441406</ele>
        <time>2016-07-15T14:37:45.000Z</time>
      </trkpt>
      <trkpt lat="44.56399" lon="6.16399">
        <ele>889.79998779297</ele>
        <time>2016-07-15T14:37:47.000Z</time>
      </trkpt>
      <trkpt lat="44.56395" lon="6.16415">
        <ele>890.79998779297</ele>
        <time>2016-07-15T14:37:56.000Z</time>
      </trkpt>
      <trkpt lat="44.56395" lon="6.1643">
        <ele>891.20001220703</ele>
        <time>2016-07-15T14:38:03.000Z</time>
      </trkpt>
      <trkpt lat="44.56398" lon="6.16443">
        <ele>891</ele>
        <time>2016-07-15T14:38:12.000Z</time>
      </trkpt>
      <trkpt lat="44.56399" lon="6.1645">
        <ele>891</ele>
        <time>2016-07-15T14:38:16.000Z</time>
      </trkpt>
      <trkpt lat="44.56402" lon="6.16468">
        <ele>890.79998779297</ele>
        <time>2016-07-15T14:38:26.000Z</time>
      </trkpt>
      <trkpt lat="44.56402" lon="6.16471">
        <ele>890.79998779297</ele>
        <time>2016-07-15T14:38:27.000Z</time>
      </trkpt>
      <trkpt lat="44.56403" lon="6.16483">
        <ele>890.79998779297</ele>
        <time>2016-07-15T14:38:33.000Z</time>
      </trkpt>
      <trkpt lat="44.56403" lon="6.16493">
        <ele>891</ele>
        <time>2016-07-15T14:38:39.000Z</time>
      </trkpt>
      <trkpt lat="44.564" lon="6.16501">
        <ele>891.40002441406</ele>
        <time>2016-07-15T14:38:43.000Z</time>
      </trkpt>
      <trkpt lat="44.564" lon="6.16506">
        <ele>891.40002441406</ele>
        <time>2016-07-15T14:38:45.000Z</time>
      </trkpt>
      <trkpt lat="44.56399" lon="6.16516">
        <ele>891.59997558594</ele>
        <time>2016-07-15T14:38:50.000Z</time>
      </trkpt>
      <trkpt lat="44.56399" lon="6.16518">
        <ele>891.59997558594</ele>
        <time>2016-07-15T14:38:51.000Z</time>
      </trkpt>
      <trkpt lat="44.56398" lon="6.1652">
        <ele>891.59997558594</ele>
        <time>2016-07-15T14:38:52.000Z</time>
      </trkpt>
      <trkpt lat="44.56394" lon="6.16544">
        <ele>892.20001220703</ele>
        <time>2016-07-15T14:39:05.000Z</time>
      </trkpt>
      <trkpt lat="44.56393" lon="6.16558">
        <ele>892.20001220703</ele>
        <time>2016-07-15T14:39:12.000Z</time>
      </trkpt>
      <trkpt lat="44.56393" lon="6.1656">
        <ele>892.40002441406</ele>
        <time>2016-07-15T14:39:13.000Z</time>
      </trkpt>
      <trkpt lat="44.56391" lon="6.16572">
        <ele>892.79998779297</ele>
        <time>2016-07-15T14:39:20.000Z</time>
      </trkpt>
      <trkpt lat="44.56391" lon="6.16575">
        <ele>892.79998779297</ele>
        <time>2016-07-15T14:39:21.000Z</time>
      </trkpt>
      <trkpt lat="44.56389" lon="6.16582">
        <ele>893.20001220703</ele>
        <time>2016-07-15T14:39:25.000Z</time>
      </trkpt>
      <trkpt lat="44.56387" lon="6.16597">
        <ele>893.20001220703</ele>
        <time>2016-07-15T14:39:33.000Z</time>
      </trkpt>
      <trkpt lat="44.56386" lon="6.16609">
        <ele>893</ele>
        <time>2016-07-15T14:39:39.000Z</time>
      </trkpt>
      <trkpt lat="44.56386" lon="6.16624">
        <ele>893</ele>
        <time>2016-07-15T14:39:47.000Z</time>
      </trkpt>
      <trkpt lat="44.56383" lon="6.16639">
        <ele>893</ele>
        <time>2016-07-15T14:39:56.000Z</time>
      </trkpt>
      <trkpt lat="44.56379" lon="6.16657">
        <ele>893</ele>
        <time>2016-07-15T14:40:05.000Z</time>
      </trkpt>
      <trkpt lat="44.56377" lon="6.1667">
        <ele>893</ele>
        <time>2016-07-15T14:40:13.000Z</time>
      </trkpt>
      <trkpt lat="44.56374" lon="6.16688">
        <ele>893</ele>
        <time>2016-07-15T14:40:21.000Z</time>
      </trkpt>
      <trkpt lat="44.56372" lon="6.16706">
        <ele>893</ele>
        <time>2016-07-15T14:40:29.000Z</time>
      </trkpt>
      <trkpt lat="44.5637" lon="6.16725">
        <ele>892.79998779297</ele>
        <time>2016-07-15T14:40:38.000Z</time>
      </trkpt>
      <trkpt lat="44.56367" lon="6.16739">
        <ele>893</ele>
        <time>2016-07-15T14:40:45.000Z</time>
      </trkpt>
      <trkpt lat="44.56361" lon="6.16758">
        <ele>892.79998779297</ele>
        <time>2016-07-15T14:40:56.000Z</time>
      </trkpt>
      <trkpt lat="44.56356" lon="6.16778">
        <ele>892.79998779297</ele>
        <time>2016-07-15T14:41:06.000Z</time>
      </trkpt>
      <trkpt lat="44.56353" lon="6.16793">
        <ele>892.79998779297</ele>
        <time>2016-07-15T14:41:14.000Z</time>
      </trkpt>
      <trkpt lat="44.5635" lon="6.16814">
        <ele>892.40002441406</ele>
        <time>2016-07-15T14:41:23.000Z</time>
      </trkpt>
      <trkpt lat="44.56346" lon="6.16834">
        <ele>892.79998779297</ele>
        <time>2016-07-15T14:41:33.000Z</time>
      </trkpt>
      <trkpt lat="44.56345" lon="6.16849">
        <ele>893</ele>
        <time>2016-07-15T14:41:40.000Z</time>
      </trkpt>
      <trkpt lat="44.56346" lon="6.16863">
        <ele>893.20001220703</ele>
        <time>2016-07-15T14:41:47.000Z</time>
      </trkpt>
      <trkpt lat="44.56347" lon="6.16865">
        <ele>893.20001220703</ele>
        <time>2016-07-15T14:41:48.000Z</time>
      </trkpt>
      <trkpt lat="44.56348" lon="6.16877">
        <ele>893.20001220703</ele>
        <time>2016-07-15T14:41:55.000Z</time>
      </trkpt>
      <trkpt lat="44.5635" lon="6.16896">
        <ele>893.40002441406</ele>
        <time>2016-07-15T14:42:04.000Z</time>
      </trkpt>
      <trkpt lat="44.5635" lon="6.16914">
        <ele>893.40002441406</ele>
        <time>2016-07-15T14:42:13.000Z</time>
      </trkpt>
      <trkpt lat="44.56348" lon="6.16933">
        <ele>893.40002441406</ele>
        <time>2016-07-15T14:42:22.000Z</time>
      </trkpt>
      <trkpt lat="44.56347" lon="6.16947">
        <ele>893.40002441406</ele>
        <time>2016-07-15T14:42:29.000Z</time>
      </trkpt>
      <trkpt lat="44.56344" lon="6.16969">
        <ele>893.20001220703</ele>
        <time>2016-07-15T14:42:40.000Z</time>
      </trkpt>
      <trkpt lat="44.56343" lon="6.1699">
        <ele>893.40002441406</ele>
        <time>2016-07-15T14:42:50.000Z</time>
      </trkpt>
      <trkpt lat="44.56342" lon="6.17013">
        <ele>894.20001220703</ele>
        <time>2016-07-15T14:43:02.000Z</time>
      </trkpt>
      <trkpt lat="44.5634" lon="6.17025">
        <ele>894.59997558594</ele>
        <time>2016-07-15T14:43:08.000Z</time>
      </trkpt>
      <trkpt lat="44.56335" lon="6.1704">
        <ele>894.79998779297</ele>
        <time>2016-07-15T14:43:16.000Z</time>
      </trkpt>
      <trkpt lat="44.56331" lon="6.17048">
        <ele>894.59997558594</ele>
        <time>2016-07-15T14:43:21.000Z</time>
      </trkpt>
      <trkpt lat="44.56329" lon="6.17055">
        <ele>894.59997558594</ele>
        <time>2016-07-15T14:43:26.000Z</time>
      </trkpt>
      <trkpt lat="44.56322" lon="6.17066">
        <ele>895</ele>
        <time>2016-07-15T14:43:34.000Z</time>
      </trkpt>
      <trkpt lat="44.56319" lon="6.17076">
        <ele>896.20001220703</ele>
        <time>2016-07-15T14:43:39.000Z</time>
      </trkpt>
      <trkpt lat="44.56313" lon="6.17087">
        <ele>897.40002441406</ele>
        <time>2016-07-15T14:43:47.000Z</time>
      </trkpt>
      <trkpt lat="44.56308" lon="6.17099">
        <ele>897.59997558594</ele>
        <time>2016-07-15T14:43:55.000Z</time>
      </trkpt>
      <trkpt lat="44.56301" lon="6.17116">
        <ele>897.59997558594</ele>
        <time>2016-07-15T14:44:05.000Z</time>
      </trkpt>
      <trkpt lat="44.56296" lon="6.17137">
        <ele>898</ele>
        <time>2016-07-15T14:44:16.000Z</time>
      </trkpt>
      <trkpt lat="44.56294" lon="6.17152">
        <ele>898.20001220703</ele>
        <time>2016-07-15T14:44:24.000Z</time>
      </trkpt>
      <trkpt lat="44.56295" lon="6.17178">
        <ele>898.59997558594</ele>
        <time>2016-07-15T14:44:37.000Z</time>
      </trkpt>
      <trkpt lat="44.56298" lon="6.1719">
        <ele>899.20001220703</ele>
        <time>2016-07-15T14:44:44.000Z</time>
      </trkpt>
      <trkpt lat="44.56302" lon="6.17207">
        <ele>899.79998779297</ele>
        <time>2016-07-15T14:44:53.000Z</time>
      </trkpt>
      <trkpt lat="44.56308" lon="6.17227">
        <ele>900.79998779297</ele>
        <time>2016-07-15T14:45:04.000Z</time>
      </trkpt>
      <trkpt lat="44.56314" lon="6.17245">
        <ele>900.79998779297</ele>
        <time>2016-07-15T14:45:13.000Z</time>
      </trkpt>
      <trkpt lat="44.56319" lon="6.17263">
        <ele>900.59997558594</ele>
        <time>2016-07-15T14:45:22.000Z</time>
      </trkpt>
      <trkpt lat="44.56321" lon="6.17269">
        <ele>900.59997558594</ele>
        <time>2016-07-15T14:45:28.000Z</time>
      </trkpt>
      <trkpt lat="44.56324" lon="6.17274">
        <ele>900.79998779297</ele>
        <time>2016-07-15T14:45:32.000Z</time>
      </trkpt>
      <trkpt lat="44.56331" lon="6.17295">
        <ele>901.40002441406</ele>
        <time>2016-07-15T14:45:42.000Z</time>
      </trkpt>
      <trkpt lat="44.56337" lon="6.17314">
        <ele>901.79998779297</ele>
        <time>2016-07-15T14:45:51.000Z</time>
      </trkpt>
      <trkpt lat="44.56342" lon="6.17325">
        <ele>902</ele>
        <time>2016-07-15T14:45:57.000Z</time>
      </trkpt>
      <trkpt lat="44.56349" lon="6.1734">
        <ele>902.40002441406</ele>
        <time>2016-07-15T14:46:04.000Z</time>
      </trkpt>
      <trkpt lat="44.56357" lon="6.17355">
        <ele>902.79998779297</ele>
        <time>2016-07-15T14:46:11.000Z</time>
      </trkpt>
      <trkpt lat="44.56364" lon="6.17365">
        <ele>903.20001220703</ele>
        <time>2016-07-15T14:46:17.000Z</time>
      </trkpt>
      <trkpt lat="44.56373" lon="6.17377">
        <ele>903.79998779297</ele>
        <time>2016-07-15T14:46:25.000Z</time>
      </trkpt>
      <trkpt lat="44.56377" lon="6.17389">
        <ele>904</ele>
        <time>2016-07-15T14:46:31.000Z</time>
      </trkpt>
      <trkpt lat="44.56381" lon="6.17404">
        <ele>904.40002441406</ele>
        <time>2016-07-15T14:46:39.000Z</time>
      </trkpt>
      <trkpt lat="44.56386" lon="6.17422">
        <ele>904.79998779297</ele>
        <time>2016-07-15T14:46:47.000Z</time>
      </trkpt>
      <trkpt lat="44.56389" lon="6.1744">
        <ele>905.40002441406</ele>
        <time>2016-07-15T14:46:55.000Z</time>
      </trkpt>
      <trkpt lat="44.56393" lon="6.17466">
        <ele>906</ele>
        <time>2016-07-15T14:47:07.000Z</time>
      </trkpt>
      <trkpt lat="44.56395" lon="6.17487">
        <ele>906.40002441406</ele>
        <time>2016-07-15T14:47:17.000Z</time>
      </trkpt>
      <trkpt lat="44.56397" lon="6.17505">
        <ele>906.79998779297</ele>
        <time>2016-07-15T14:47:25.000Z</time>
      </trkpt>
      <trkpt lat="44.56399" lon="6.17519">
        <ele>906.59997558594</ele>
        <time>2016-07-15T14:47:30.000Z</time>
      </trkpt>
      <trkpt lat="44.564" lon="6.17538">
        <ele>905.79998779297</ele>
        <time>2016-07-15T14:47:35.000Z</time>
      </trkpt>
      <trkpt lat="44.56402" lon="6.17558">
        <ele>905</ele>
        <time>2016-07-15T14:47:40.000Z</time>
      </trkpt>
      <trkpt lat="44.56405" lon="6.1759">
        <ele>905.79998779297</ele>
        <time>2016-07-15T14:47:48.000Z</time>
      </trkpt>
      <trkpt lat="44.56408" lon="6.17617">
        <ele>906.40002441406</ele>
        <time>2016-07-15T14:47:55.000Z</time>
      </trkpt>
      <trkpt lat="44.56412" lon="6.17642">
        <ele>907.40002441406</ele>
        <time>2016-07-15T14:48:01.000Z</time>
      </trkpt>
      <trkpt lat="44.56415" lon="6.17662">
        <ele>907.20001220703</ele>
        <time>2016-07-15T14:48:07.000Z</time>
      </trkpt>
      <trkpt lat="44.56415" lon="6.17665">
        <ele>907</ele>
        <time>2016-07-15T14:48:08.000Z</time>
      </trkpt>
      <trkpt lat="44.56416" lon="6.17676">
        <ele>906.79998779297</ele>
        <time>2016-07-15T14:48:11.000Z</time>
      </trkpt>
      <trkpt lat="44.5642" lon="6.17699">
        <ele>906.59997558594</ele>
        <time>2016-07-15T14:48:19.000Z</time>
      </trkpt>
      <trkpt lat="44.56422" lon="6.17709">
        <ele>906.79998779297</ele>
        <time>2016-07-15T14:48:25.000Z</time>
      </trkpt>
      <trkpt lat="44.56423" lon="6.17721">
        <ele>906.79998779297</ele>
        <time>2016-07-15T14:48:32.000Z</time>
      </trkpt>
      <trkpt lat="44.56425" lon="6.17734">
        <ele>906.40002441406</ele>
        <time>2016-07-15T14:48:39.000Z</time>
      </trkpt>
      <trkpt lat="44.56428" lon="6.1775">
        <ele>905.79998779297</ele>
        <time>2016-07-15T14:48:48.000Z</time>
      </trkpt>
      <trkpt lat="44.56433" lon="6.17779">
        <ele>904.20001220703</ele>
        <time>2016-07-15T14:49:04.000Z</time>
      </trkpt>
      <trkpt lat="44.56436" lon="6.17796">
        <ele>903.20001220703</ele>
        <time>2016-07-15T14:49:13.000Z</time>
      </trkpt>
      <trkpt lat="44.56438" lon="6.17811">
        <ele>903.40002441406</ele>
        <time>2016-07-15T14:49:20.000Z</time>
      </trkpt>
      <trkpt lat="44.56443" lon="6.17832">
        <ele>902.40002441406</ele>
        <time>2016-07-15T14:49:30.000Z</time>
      </trkpt>
      <trkpt lat="44.56451" lon="6.17852">
        <ele>901.59997558594</ele>
        <time>2016-07-15T14:49:41.000Z</time>
      </trkpt>
      <trkpt lat="44.5646" lon="6.17875">
        <ele>901.40002441406</ele>
        <time>2016-07-15T14:49:53.000Z</time>
      </trkpt>
      <trkpt lat="44.56468" lon="6.17897">
        <ele>901.20001220703</ele>
        <time>2016-07-15T14:50:05.000Z</time>
      </trkpt>
      <trkpt lat="44.56472" lon="6.17915">
        <ele>900.20001220703</ele>
        <time>2016-07-15T14:50:14.000Z</time>
      </trkpt>
      <trkpt lat="44.56473" lon="6.17936">
        <ele>900</ele>
        <time>2016-07-15T14:50:24.000Z</time>
      </trkpt>
      <trkpt lat="44.56475" lon="6.17956">
        <ele>900</ele>
        <time>2016-07-15T14:50:35.000Z</time>
      </trkpt>
      <trkpt lat="44.56479" lon="6.17979">
        <ele>900</ele>
        <time>2016-07-15T14:50:47.000Z</time>
      </trkpt>
      <trkpt lat="44.56482" lon="6.17999">
        <ele>900.20001220703</ele>
        <time>2016-07-15T14:50:58.000Z</time>
      </trkpt>
      <trkpt lat="44.56486" lon="6.18017">
        <ele>900.59997558594</ele>
        <time>2016-07-15T14:51:08.000Z</time>
      </trkpt>
      <trkpt lat="44.56489" lon="6.18034">
        <ele>901</ele>
        <time>2016-07-15T14:51:17.000Z</time>
      </trkpt>
      <trkpt lat="44.56491" lon="6.18047">
        <ele>901.20001220703</ele>
        <time>2016-07-15T14:51:24.000Z</time>
      </trkpt>
      <trkpt lat="44.56495" lon="6.18059">
        <ele>901.59997558594</ele>
        <time>2016-07-15T14:51:31.000Z</time>
      </trkpt>
      <trkpt lat="44.56496" lon="6.18065">
        <ele>901.79998779297</ele>
        <time>2016-07-15T14:51:34.000Z</time>
      </trkpt>
      <trkpt lat="44.56497" lon="6.18067">
        <ele>901.79998779297</ele>
        <time>2016-07-15T14:51:41.000Z</time>
      </trkpt>
      <trkpt lat="44.56497" lon="6.18076">
        <ele>902.20001220703</ele>
        <time>2016-07-15T14:51:46.000Z</time>
      </trkpt>
      <trkpt lat="44.565" lon="6.18106">
        <ele>903</ele>
        <time>2016-07-15T14:52:01.000Z</time>
      </trkpt>
      <trkpt lat="44.56501" lon="6.18119">
        <ele>903.40002441406</ele>
        <time>2016-07-15T14:52:08.000Z</time>
      </trkpt>
      <trkpt lat="44.56502" lon="6.1813">
        <ele>904</ele>
        <time>2016-07-15T14:52:14.000Z</time>
      </trkpt>
      <trkpt lat="44.56503" lon="6.18143">
        <ele>904.40002441406</ele>
        <time>2016-07-15T14:52:21.000Z</time>
      </trkpt>
      <trkpt lat="44.56506" lon="6.18157">
        <ele>905</ele>
        <time>2016-07-15T14:52:28.000Z</time>
      </trkpt>
      <trkpt lat="44.56512" lon="6.18171">
        <ele>905.79998779297</ele>
        <time>2016-07-15T14:52:36.000Z</time>
      </trkpt>
      <trkpt lat="44.56515" lon="6.18185">
        <ele>906.59997558594</ele>
        <time>2016-07-15T14:52:43.000Z</time>
      </trkpt>
      <trkpt lat="44.56518" lon="6.18194">
        <ele>907</ele>
        <time>2016-07-15T14:52:49.000Z</time>
      </trkpt>
      <trkpt lat="44.56524" lon="6.18209">
        <ele>907.79998779297</ele>
        <time>2016-07-15T14:52:57.000Z</time>
      </trkpt>
      <trkpt lat="44.56524" lon="6.18212">
        <ele>908</ele>
        <time>2016-07-15T14:52:59.000Z</time>
      </trkpt>
      <trkpt lat="44.56525" lon="6.18215">
        <ele>908.20001220703</ele>
        <time>2016-07-15T14:53:00.000Z</time>
      </trkpt>
      <trkpt lat="44.56529" lon="6.18225">
        <ele>908.59997558594</ele>
        <time>2016-07-15T14:53:06.000Z</time>
      </trkpt>
      <trkpt lat="44.56532" lon="6.18234">
        <ele>908.59997558594</ele>
        <time>2016-07-15T14:53:11.000Z</time>
      </trkpt>
      <trkpt lat="44.56532" lon="6.18239">
        <ele>908.40002441406</ele>
        <time>2016-07-15T14:53:15.000Z</time>
      </trkpt>
      <trkpt lat="44.56534" lon="6.18246">
        <ele>908.40002441406</ele>
        <time>2016-07-15T14:53:19.000Z</time>
      </trkpt>
      <trkpt lat="44.56536" lon="6.18254">
        <ele>907.59997558594</ele>
        <time>2016-07-15T14:53:24.000Z</time>
      </trkpt>
      <trkpt lat="44.56538" lon="6.18263">
        <ele>907</ele>
        <time>2016-07-15T14:53:29.000Z</time>
      </trkpt>
      <trkpt lat="44.56542" lon="6.18275">
        <ele>905.59997558594</ele>
        <time>2016-07-15T14:53:35.000Z</time>
      </trkpt>
      <trkpt lat="44.56544" lon="6.18284">
        <ele>904.79998779297</ele>
        <time>2016-07-15T14:53:40.000Z</time>
      </trkpt>
      <trkpt lat="44.56545" lon="6.18286">
        <ele>904.59997558594</ele>
        <time>2016-07-15T14:53:41.000Z</time>
      </trkpt>
      <trkpt lat="44.56546" lon="6.1829">
        <ele>904.20001220703</ele>
        <time>2016-07-15T14:53:43.000Z</time>
      </trkpt>
      <trkpt lat="44.56552" lon="6.18305">
        <ele>902.20001220703</ele>
        <time>2016-07-15T14:53:51.000Z</time>
      </trkpt>
      <trkpt lat="44.56557" lon="6.18327">
        <ele>900.79998779297</ele>
        <time>2016-07-15T14:54:02.000Z</time>
      </trkpt>
      <trkpt lat="44.56559" lon="6.18343">
        <ele>899.79998779297</ele>
        <time>2016-07-15T14:54:10.000Z</time>
      </trkpt>
      <trkpt lat="44.56561" lon="6.18356">
        <ele>898.79998779297</ele>
        <time>2016-07-15T14:54:17.000Z</time>
      </trkpt>
      <trkpt lat="44.56566" lon="6.18378">
        <ele>896.79998779297</ele>
        <time>2016-07-15T14:54:28.000Z</time>
      </trkpt>
      <trkpt lat="44.56571" lon="6.18394">
        <ele>895</ele>
        <time>2016-07-15T14:54:37.000Z</time>
      </trkpt>
      <trkpt lat="44.56576" lon="6.18411">
        <ele>894.59997558594</ele>
        <time>2016-07-15T14:54:46.000Z</time>
      </trkpt>
      <trkpt lat="44.56581" lon="6.18427">
        <ele>894.20001220703</ele>
        <time>2016-07-15T14:54:55.000Z</time>
      </trkpt>
      <trkpt lat="44.56587" lon="6.18443">
        <ele>893.79998779297</ele>
        <time>2016-07-15T14:55:04.000Z</time>
      </trkpt>
      <trkpt lat="44.56589" lon="6.18459">
        <ele>893.59997558594</ele>
        <time>2016-07-15T14:55:12.000Z</time>
      </trkpt>
      <trkpt lat="44.56592" lon="6.18475">
        <ele>893.20001220703</ele>
        <time>2016-07-15T14:55:20.000Z</time>
      </trkpt>
      <trkpt lat="44.56594" lon="6.18493">
        <ele>892.79998779297</ele>
        <time>2016-07-15T14:55:29.000Z</time>
      </trkpt>
      <trkpt lat="44.56595" lon="6.18501">
        <ele>892.59997558594</ele>
        <time>2016-07-15T14:55:33.000Z</time>
      </trkpt>
      <trkpt lat="44.56595" lon="6.18522">
        <ele>892.40002441406</ele>
        <time>2016-07-15T14:55:43.000Z</time>
      </trkpt>
      <trkpt lat="44.56594" lon="6.18543">
        <ele>892.40002441406</ele>
        <time>2016-07-15T14:55:53.000Z</time>
      </trkpt>
      <trkpt lat="44.56593" lon="6.18568">
        <ele>892</ele>
        <time>2016-07-15T14:56:05.000Z</time>
      </trkpt>
      <trkpt lat="44.56591" lon="6.18587">
        <ele>890</ele>
        <time>2016-07-15T14:56:14.000Z</time>
      </trkpt>
      <trkpt lat="44.56588" lon="6.18606">
        <ele>888.40002441406</ele>
        <time>2016-07-15T14:56:24.000Z</time>
      </trkpt>
      <trkpt lat="44.56586" lon="6.1862">
        <ele>887.59997558594</ele>
        <time>2016-07-15T14:56:31.000Z</time>
      </trkpt>
      <trkpt lat="44.56583" lon="6.18633">
        <ele>888</ele>
        <time>2016-07-15T14:56:38.000Z</time>
      </trkpt>
      <trkpt lat="44.56581" lon="6.18648">
        <ele>888.20001220703</ele>
        <time>2016-07-15T14:56:46.000Z</time>
      </trkpt>
      <trkpt lat="44.56578" lon="6.18665">
        <ele>888.79998779297</ele>
        <time>2016-07-15T14:56:55.000Z</time>
      </trkpt>
      <trkpt lat="44.56576" lon="6.18681">
        <ele>889.20001220703</ele>
        <time>2016-07-15T14:57:03.000Z</time>
      </trkpt>
      <trkpt lat="44.56577" lon="6.18701">
        <ele>888.20001220703</ele>
        <time>2016-07-15T14:57:13.000Z</time>
      </trkpt>
      <trkpt lat="44.5658" lon="6.18723">
        <ele>886.79998779297</ele>
        <time>2016-07-15T14:57:24.000Z</time>
      </trkpt>
      <trkpt lat="44.56584" lon="6.18742">
        <ele>885.20001220703</ele>
        <time>2016-07-15T14:57:34.000Z</time>
      </trkpt>
      <trkpt lat="44.56589" lon="6.18758">
        <ele>883.59997558594</ele>
        <time>2016-07-15T14:57:43.000Z</time>
      </trkpt>
      <trkpt lat="44.56592" lon="6.18771">
        <ele>882.40002441406</ele>
        <time>2016-07-15T14:57:50.000Z</time>
      </trkpt>
      <trkpt lat="44.56594" lon="6.18787">
        <ele>881.59997558594</ele>
        <time>2016-07-15T14:57:58.000Z</time>
      </trkpt>
      <trkpt lat="44.56593" lon="6.18801">
        <ele>881.40002441406</ele>
        <time>2016-07-15T14:58:05.000Z</time>
      </trkpt>
      <trkpt lat="44.5659" lon="6.18814">
        <ele>881.40002441406</ele>
        <time>2016-07-15T14:58:12.000Z</time>
      </trkpt>
      <trkpt lat="44.56584" lon="6.18834">
        <ele>881.20001220703</ele>
        <time>2016-07-15T14:58:23.000Z</time>
      </trkpt>
      <trkpt lat="44.56579" lon="6.18848">
        <ele>881.20001220703</ele>
        <time>2016-07-15T14:58:31.000Z</time>
      </trkpt>
      <trkpt lat="44.56578" lon="6.18863">
        <ele>880.20001220703</ele>
        <time>2016-07-15T14:58:39.000Z</time>
      </trkpt>
      <trkpt lat="44.56578" lon="6.18865">
        <ele>880</ele>
        <time>2016-07-15T14:58:40.000Z</time>
      </trkpt>
      <trkpt lat="44.56578" lon="6.18867">
        <ele>880</ele>
        <time>2016-07-15T14:58:41.000Z</time>
      </trkpt>
      <trkpt lat="44.56578" lon="6.18876">
        <ele>879.20001220703</ele>
        <time>2016-07-15T14:58:46.000Z</time>
      </trkpt>
      <trkpt lat="44.56578" lon="6.18879">
        <ele>879</ele>
        <time>2016-07-15T14:58:48.000Z</time>
      </trkpt>
      <trkpt lat="44.56574" lon="6.18899">
        <ele>878.40002441406</ele>
        <time>2016-07-15T14:58:59.000Z</time>
      </trkpt>
      <trkpt lat="44.56573" lon="6.18902">
        <ele>878.40002441406</ele>
        <time>2016-07-15T14:59:01.000Z</time>
      </trkpt>
      <trkpt lat="44.56575" lon="6.18908">
        <ele>877.79998779297</ele>
        <time>2016-07-15T14:59:07.000Z</time>
      </trkpt>
      <trkpt lat="44.56573" lon="6.18909">
        <ele>878.20001220703</ele>
        <time>2016-07-15T15:00:12.000Z</time>
      </trkpt>
      <trkpt lat="44.56572" lon="6.18908">
        <ele>878.40002441406</ele>
        <time>2016-07-15T15:00:20.000Z</time>
      </trkpt>
      <trkpt lat="44.56571" lon="6.18908">
        <ele>878.79998779297</ele>
        <time>2016-07-15T15:00:42.000Z</time>
      </trkpt>
      <trkpt lat="44.56572" lon="6.18908">
        <ele>878.40002441406</ele>
        <time>2016-07-15T15:00:48.000Z</time>
      </trkpt>
      <trkpt lat="44.56572" lon="6.18909">
        <ele>878.40002441406</ele>
        <time>2016-07-15T15:01:14.000Z</time>
      </trkpt>
      <trkpt lat="44.5657" lon="6.18907">
        <ele>879</ele>
        <time>2016-07-15T15:01:26.000Z</time>
      </trkpt>
      <trkpt lat="44.56569" lon="6.18905">
        <ele>879.40002441406</ele>
        <time>2016-07-15T15:02:11.000Z</time>
      </trkpt>
      <trkpt lat="44.56568" lon="6.18904">
        <ele>879.59997558594</ele>
        <time>2016-07-15T15:02:26.000Z</time>
      </trkpt>
      <trkpt lat="44.56571" lon="6.18905">
        <ele>879</ele>
        <time>2016-07-15T15:02:44.000Z</time>
      </trkpt>
      <trkpt lat="44.56572" lon="6.18907">
        <ele>878.40002441406</ele>
        <time>2016-07-15T15:03:09.000Z</time>
      </trkpt>
      <trkpt lat="44.5657" lon="6.1891">
        <ele>879</ele>
        <time>2016-07-15T15:03:13.000Z</time>
      </trkpt>
      <trkpt lat="44.56566" lon="6.18914">
        <ele>879.79998779297</ele>
        <time>2016-07-15T15:03:19.000Z</time>
      </trkpt>
      <trkpt lat="44.56565" lon="6.18916">
        <ele>880</ele>
        <time>2016-07-15T15:03:20.000Z</time>
      </trkpt>
      <trkpt lat="44.56564" lon="6.18926">
        <ele>879.59997558594</ele>
        <time>2016-07-15T15:03:26.000Z</time>
      </trkpt>
      <trkpt lat="44.56565" lon="6.18926">
        <ele>879.59997558594</ele>
        <time>2016-07-15T15:03:30.000Z</time>
      </trkpt>
      <trkpt lat="44.56562" lon="6.18932">
        <ele>879.40002441406</ele>
        <time>2016-07-15T15:03:44.000Z</time>
      </trkpt>
      <trkpt lat="44.56558" lon="6.18951">
        <ele>878.40002441406</ele>
        <time>2016-07-15T15:03:55.000Z</time>
      </trkpt>
      <trkpt lat="44.56555" lon="6.18968">
        <ele>877.20001220703</ele>
        <time>2016-07-15T15:04:05.000Z</time>
      </trkpt>
      <trkpt lat="44.56553" lon="6.18989">
        <ele>876.20001220703</ele>
        <time>2016-07-15T15:04:16.000Z</time>
      </trkpt>
      <trkpt lat="44.56552" lon="6.19007">
        <ele>875.20001220703</ele>
        <time>2016-07-15T15:04:25.000Z</time>
      </trkpt>
      <trkpt lat="44.56551" lon="6.19022">
        <ele>874.59997558594</ele>
        <time>2016-07-15T15:04:33.000Z</time>
      </trkpt>
      <trkpt lat="44.5655" lon="6.19039">
        <ele>873.79998779297</ele>
        <time>2016-07-15T15:04:41.000Z</time>
      </trkpt>
      <trkpt lat="44.5655" lon="6.19051">
        <ele>873</ele>
        <time>2016-07-15T15:04:47.000Z</time>
      </trkpt>
      <trkpt lat="44.56548" lon="6.19067">
        <ele>872.59997558594</ele>
        <time>2016-07-15T15:04:55.000Z</time>
      </trkpt>
      <trkpt lat="44.56546" lon="6.19088">
        <ele>871.79998779297</ele>
        <time>2016-07-15T15:05:05.000Z</time>
      </trkpt>
      <trkpt lat="44.56543" lon="6.19103">
        <ele>871</ele>
        <time>2016-07-15T15:05:12.000Z</time>
      </trkpt>
      <trkpt lat="44.56539" lon="6.19121">
        <ele>870.20001220703</ele>
        <time>2016-07-15T15:05:21.000Z</time>
      </trkpt>
      <trkpt lat="44.56539" lon="6.19122">
        <ele>870.20001220703</ele>
        <time>2016-07-15T15:05:22.000Z</time>
      </trkpt>
      <trkpt lat="44.56534" lon="6.19128">
        <ele>870.20001220703</ele>
        <time>2016-07-15T15:05:26.000Z</time>
      </trkpt>
      <trkpt lat="44.56525" lon="6.19144">
        <ele>870.20001220703</ele>
        <time>2016-07-15T15:05:35.000Z</time>
      </trkpt>
      <trkpt lat="44.56519" lon="6.19161">
        <ele>869</ele>
        <time>2016-07-15T15:05:44.000Z</time>
      </trkpt>
      <trkpt lat="44.56511" lon="6.19184">
        <ele>867.59997558594</ele>
        <time>2016-07-15T15:05:56.000Z</time>
      </trkpt>
      <trkpt lat="44.56503" lon="6.19204">
        <ele>866.20001220703</ele>
        <time>2016-07-15T15:06:04.000Z</time>
      </trkpt>
      <trkpt lat="44.56494" lon="6.19228">
        <ele>864</ele>
        <time>2016-07-15T15:06:12.000Z</time>
      </trkpt>
      <trkpt lat="44.56485" lon="6.19249">
        <ele>864</ele>
        <time>2016-07-15T15:06:19.000Z</time>
      </trkpt>
      <trkpt lat="44.56476" lon="6.19272">
        <ele>863</ele>
        <time>2016-07-15T15:06:27.000Z</time>
      </trkpt>
      <trkpt lat="44.56469" lon="6.19291">
        <ele>861.79998779297</ele>
        <time>2016-07-15T15:06:35.000Z</time>
      </trkpt>
      <trkpt lat="44.56461" lon="6.1931">
        <ele>860.59997558594</ele>
        <time>2016-07-15T15:06:45.000Z</time>
      </trkpt>
      <trkpt lat="44.56452" lon="6.19332">
        <ele>860.79998779297</ele>
        <time>2016-07-15T15:06:56.000Z</time>
      </trkpt>
      <trkpt lat="44.56443" lon="6.19354">
        <ele>861.20001220703</ele>
        <time>2016-07-15T15:07:07.000Z</time>
      </trkpt>
      <trkpt lat="44.56437" lon="6.19369">
        <ele>861.59997558594</ele>
        <time>2016-07-15T15:07:15.000Z</time>
      </trkpt>
      <trkpt lat="44.5643" lon="6.19386">
        <ele>861.59997558594</ele>
        <time>2016-07-15T15:07:24.000Z</time>
      </trkpt>
      <trkpt lat="44.56422" lon="6.19408">
        <ele>861</ele>
        <time>2016-07-15T15:07:35.000Z</time>
      </trkpt>
      <trkpt lat="44.5642" lon="6.19423">
        <ele>860.79998779297</ele>
        <time>2016-07-15T15:07:42.000Z</time>
      </trkpt>
      <trkpt lat="44.56415" lon="6.1944">
        <ele>860.59997558594</ele>
        <time>2016-07-15T15:07:50.000Z</time>
      </trkpt>
      <trkpt lat="44.56407" lon="6.19462">
        <ele>860.20001220703</ele>
        <time>2016-07-15T15:08:01.000Z</time>
      </trkpt>
      <trkpt lat="44.56399" lon="6.19483">
        <ele>860</ele>
        <time>2016-07-15T15:08:12.000Z</time>
      </trkpt>
      <trkpt lat="44.5639" lon="6.19502">
        <ele>860.40002441406</ele>
        <time>2016-07-15T15:08:22.000Z</time>
      </trkpt>
      <trkpt lat="44.56383" lon="6.19521">
        <ele>859.59997558594</ele>
        <time>2016-07-15T15:08:32.000Z</time>
      </trkpt>
      <trkpt lat="44.56376" lon="6.19539">
        <ele>859</ele>
        <time>2016-07-15T15:08:41.000Z</time>
      </trkpt>
      <trkpt lat="44.56368" lon="6.1956">
        <ele>858</ele>
        <time>2016-07-15T15:08:52.000Z</time>
      </trkpt>
      <trkpt lat="44.56358" lon="6.19584">
        <ele>858.40002441406</ele>
        <time>2016-07-15T15:09:04.000Z</time>
      </trkpt>
      <trkpt lat="44.56349" lon="6.19608">
        <ele>858.59997558594</ele>
        <time>2016-07-15T15:09:16.000Z</time>
      </trkpt>
      <trkpt lat="44.5634" lon="6.19629">
        <ele>858.20001220703</ele>
        <time>2016-07-15T15:09:27.000Z</time>
      </trkpt>
      <trkpt lat="44.56331" lon="6.19649">
        <ele>857.40002441406</ele>
        <time>2016-07-15T15:09:37.000Z</time>
      </trkpt>
      <trkpt lat="44.56327" lon="6.1966">
        <ele>857.40002441406</ele>
        <time>2016-07-15T15:09:43.000Z</time>
      </trkpt>
      <trkpt lat="44.56324" lon="6.19665">
        <ele>857.20001220703</ele>
        <time>2016-07-15T15:09:47.000Z</time>
      </trkpt>
      <trkpt lat="44.56324" lon="6.19687">
        <ele>857</ele>
        <time>2016-07-15T15:09:58.000Z</time>
      </trkpt>
      <trkpt lat="44.56325" lon="6.19689">
        <ele>856.79998779297</ele>
        <time>2016-07-15T15:10:03.000Z</time>
      </trkpt>
      <trkpt lat="44.56328" lon="6.19692">
        <ele>856.79998779297</ele>
        <time>2016-07-15T15:10:14.000Z</time>
      </trkpt>
      <trkpt lat="44.56335" lon="6.19697">
        <ele>856.79998779297</ele>
        <time>2016-07-15T15:10:19.000Z</time>
      </trkpt>
      <trkpt lat="44.56342" lon="6.19709">
        <ele>856.40002441406</ele>
        <time>2016-07-15T15:10:26.000Z</time>
      </trkpt>
      <trkpt lat="44.56342" lon="6.19728">
        <ele>855.79998779297</ele>
        <time>2016-07-15T15:10:34.000Z</time>
      </trkpt>
      <trkpt lat="44.56338" lon="6.19743">
        <ele>855.79998779297</ele>
        <time>2016-07-15T15:10:41.000Z</time>
      </trkpt>
      <trkpt lat="44.56332" lon="6.19764">
        <ele>856</ele>
        <time>2016-07-15T15:10:51.000Z</time>
      </trkpt>
      <trkpt lat="44.5633" lon="6.19789">
        <ele>855.59997558594</ele>
        <time>2016-07-15T15:11:02.000Z</time>
      </trkpt>
      <trkpt lat="44.56331" lon="6.19804">
        <ele>855</ele>
        <time>2016-07-15T15:11:09.000Z</time>
      </trkpt>
      <trkpt lat="44.56339" lon="6.19806">
        <ele>855.40002441406</ele>
        <time>2016-07-15T15:11:15.000Z</time>
      </trkpt>
      <trkpt lat="44.56342" lon="6.19803">
        <ele>855.79998779297</ele>
        <time>2016-07-15T15:11:18.000Z</time>
      </trkpt>
      <trkpt lat="44.56344" lon="6.19802">
        <ele>855.79998779297</ele>
        <time>2016-07-15T15:11:20.000Z</time>
      </trkpt>
      <trkpt lat="44.56348" lon="6.19809">
        <ele>856</ele>
        <time>2016-07-15T15:11:26.000Z</time>
      </trkpt>
      <trkpt lat="44.56352" lon="6.19812">
        <ele>856</ele>
        <time>2016-07-15T15:11:29.000Z</time>
      </trkpt>
      <trkpt lat="44.56366" lon="6.19815">
        <ele>856.79998779297</ele>
        <time>2016-07-15T15:11:40.000Z</time>
      </trkpt>
      <trkpt lat="44.56378" lon="6.19818">
        <ele>857.20001220703</ele>
        <time>2016-07-15T15:11:49.000Z</time>
      </trkpt>
      <trkpt lat="44.56379" lon="6.19817">
        <ele>857.20001220703</ele>
        <time>2016-07-15T15:11:50.000Z</time>
      </trkpt>
      <trkpt lat="44.5638" lon="6.19818">
        <ele>857.20001220703</ele>
        <time>2016-07-15T15:11:55.000Z</time>
      </trkpt>
      <trkpt lat="44.56382" lon="6.1982">
        <ele>857.20001220703</ele>
        <time>2016-07-15T15:12:01.000Z</time>
      </trkpt>
      <trkpt lat="44.56387" lon="6.19821">
        <ele>857.20001220703</ele>
        <time>2016-07-15T15:12:10.000Z</time>
      </trkpt>
      <trkpt lat="44.56395" lon="6.19824">
        <ele>857.40002441406</ele>
        <time>2016-07-15T15:12:16.000Z</time>
      </trkpt>
      <trkpt lat="44.56403" lon="6.19829">
        <ele>857.40002441406</ele>
        <time>2016-07-15T15:12:22.000Z</time>
      </trkpt>
      <trkpt lat="44.56409" lon="6.19833">
        <ele>857.40002441406</ele>
        <time>2016-07-15T15:12:27.000Z</time>
      </trkpt>
      <trkpt lat="44.56418" lon="6.19837">
        <ele>857.59997558594</ele>
        <time>2016-07-15T15:12:33.000Z</time>
      </trkpt>
      <trkpt lat="44.56428" lon="6.19842">
        <ele>857.79998779297</ele>
        <time>2016-07-15T15:12:40.000Z</time>
      </trkpt>
      <trkpt lat="44.56441" lon="6.19846">
        <ele>857.79998779297</ele>
        <time>2016-07-15T15:12:48.000Z</time>
      </trkpt>
      <trkpt lat="44.56448" lon="6.19847">
        <ele>858</ele>
        <time>2016-07-15T15:12:52.000Z</time>
      </trkpt>
      <trkpt lat="44.56459" lon="6.19848">
        <ele>858</ele>
        <time>2016-07-15T15:12:59.000Z</time>
      </trkpt>
      <trkpt lat="44.56466" lon="6.19846">
        <ele>858</ele>
        <time>2016-07-15T15:13:06.000Z</time>
      </trkpt>
      <trkpt lat="44.56468" lon="6.19846">
        <ele>858</ele>
        <time>2016-07-15T15:13:07.000Z</time>
      </trkpt>
      <trkpt lat="44.56468" lon="6.19852">
        <ele>858</ele>
        <time>2016-07-15T15:13:10.000Z</time>
      </trkpt>
      <trkpt lat="44.56467" lon="6.19862">
        <ele>858</ele>
        <time>2016-07-15T15:13:15.000Z</time>
      </trkpt>
      <trkpt lat="44.56467" lon="6.19864">
        <ele>858</ele>
        <time>2016-07-15T15:13:16.000Z</time>
      </trkpt>
      <trkpt lat="44.56465" lon="6.19882">
        <ele>858</ele>
        <time>2016-07-15T15:13:24.000Z</time>
      </trkpt>
      <trkpt lat="44.56464" lon="6.19902">
        <ele>858.20001220703</ele>
        <time>2016-07-15T15:13:33.000Z</time>
      </trkpt>
      <trkpt lat="44.56465" lon="6.19915">
        <ele>858.59997558594</ele>
        <time>2016-07-15T15:13:39.000Z</time>
      </trkpt>
      <trkpt lat="44.56469" lon="6.19931">
        <ele>859.40002441406</ele>
        <time>2016-07-15T15:13:47.000Z</time>
      </trkpt>
      <trkpt lat="44.56472" lon="6.1995">
        <ele>860.20001220703</ele>
        <time>2016-07-15T15:13:56.000Z</time>
      </trkpt>
      <trkpt lat="44.56475" lon="6.19974">
        <ele>861.20001220703</ele>
        <time>2016-07-15T15:14:07.000Z</time>
      </trkpt>
      <trkpt lat="44.56479" lon="6.1999">
        <ele>861.40002441406</ele>
        <time>2016-07-15T15:14:15.000Z</time>
      </trkpt>
      <trkpt lat="44.56484" lon="6.20002">
        <ele>861.20001220703</ele>
        <time>2016-07-15T15:14:22.000Z</time>
      </trkpt>
      <trkpt lat="44.5649" lon="6.20018">
        <ele>861</ele>
        <time>2016-07-15T15:14:31.000Z</time>
      </trkpt>
      <trkpt lat="44.56497" lon="6.20034">
        <ele>861</ele>
        <time>2016-07-15T15:14:40.000Z</time>
      </trkpt>
    </trkseg>
  </trk>
</gpx>